GFSGL_sfc_wetblb_000.txt.gz
Wetbulb
70.45 71.83 70.85 68.48 69.04 69.93 68.57 68.48 68.71 70.25 69.03 68.15 69.03 71.07 70.64 69.78 69.84 68.85 69.24 69.02 68.64 68.11 69.20 68.55 67.94 68.02 67.64 68.83 69.41 69.68 68.14 68.31 64.61 66.25 67.74 69.89 68.62 68.97 68.69 69.17 67.55 64.19 62.74
71.43 71.44 70.09 69.56 69.68 70.06 69.56 69.27 68.94 69.43 70.64 68.60 68.65 68.17 69.00 68.96 68.80 68.59 68.12 68.46 67.59 67.35 67.59 66.99 66.24 67.76 67.85 68.40 69.04 68.56 68.79 69.13 66.53 64.50 66.43 67.65 67.19 68.47 66.83 66.27 65.30 63.07 60.65
72.24 70.13 70.96 69.26 70.17 70.31 69.90 70.17 69.87 69.75 69.05 69.14 69.27 69.34 68.53 67.26 66.81 65.73 64.93 63.91 64.00 64.52 63.87 63.42 63.37 65.07 65.33 65.31 67.33 67.36 68.47 68.47 68.02 65.71 64.93 67.26 66.14 66.18 66.30 64.84 63.23 63.18 61.39
71.03 70.45 70.11 69.14 68.75 70.85 71.27 70.83 70.52 70.17 68.89 68.27 67.34 67.23 67.44 67.66 66.68 65.00 63.64 63.07 63.22 61.99 61.28 60.74 61.05 61.28 61.53 62.71 64.80 64.80 65.89 65.91 66.03 64.47 64.14 63.31 63.48 65.82 66.15 63.95 61.40 61.30 58.87
70.51 70.45 70.48 69.42 71.68 70.15 70.91 70.63 70.30 69.88 69.44 68.41 66.83 67.58 67.15 66.11 65.58 64.60 63.91 62.84 61.80 60.25 59.30 59.31 59.39 59.95 59.78 60.32 61.28 59.59 60.85 64.39 64.54 63.35 62.82 62.88 63.25 64.25 63.66 63.07 63.62 62.63 59.92
70.08 70.49 70.56 70.85 69.69 69.06 70.36 69.48 69.90 69.33 69.01 68.19 67.40 66.57 66.09 64.70 61.60 62.75 63.87 62.97 61.31 59.66 57.66 56.86 55.92 55.27 56.42 57.49 58.64 59.00 57.83 58.84 62.96 62.85 63.36 62.02 62.33 61.58 61.56 59.79 59.77 57.30 55.65
69.16 70.74 68.81 70.35 69.25 69.16 68.94 69.18 69.01 67.87 67.57 66.64 63.67 63.13 61.74 59.36 56.70 60.34 62.73 64.51 61.82 61.62 60.19 59.75 59.15 57.66 57.51 55.77 58.04 56.87 55.11 56.87 60.22 61.53 60.09 58.67 57.39 58.18 58.81 58.27 56.82 56.73 55.53
70.27 68.54 68.56 69.04 68.46 68.18 68.46 67.19 67.45 66.33 65.04 63.45 62.00 60.85 58.69 52.98 52.78 55.27 60.59 63.60 60.89 57.06 58.07 57.38 55.28 54.08 54.60 57.83 55.68 52.70 50.23 49.64 52.23 52.90 50.94 50.90 51.10 53.14 55.21 56.77 56.07 56.13 56.94
69.75 69.46 67.73 67.11 67.40 65.85 66.31 66.03 64.74 63.28 60.31 59.45 58.76 58.15 56.28 51.55 49.92 51.63 58.70 57.30 54.73 52.58 52.27 52.07 53.33 52.80 53.79 55.92 55.35 52.52 51.19 50.58 52.03 52.28 51.86 51.61 52.03 52.77 53.57 53.86 50.97 50.84 50.76
63.82 65.27 63.76 63.37 60.61 59.28 60.47 59.09 58.92 59.11 57.97 55.85 54.74 54.23 52.72 51.16 47.70 48.38 55.70 55.53 52.73 51.36 49.71 48.82 49.98 49.45 49.43 51.35 56.26 55.22 51.53 51.25 54.09 53.47 52.65 52.31 53.34 51.34 53.75 52.82 51.21 49.04 48.63
56.79 57.70 56.89 56.10 55.08 54.95 53.74 54.36 54.19 52.43 51.63 51.01 50.87 50.38 50.74 50.21 47.85 47.22 48.28 54.79 52.51 50.32 49.40 48.60 47.71 47.12 45.57 45.81 48.23 50.82 50.75 52.80 52.87 51.04 51.00 51.42 52.66 52.65 51.36 51.83 51.79 49.92 48.21
53.80 53.72 53.38 52.70 53.36 52.06 51.01 50.47 49.55 48.64 47.50 46.80 46.20 46.40 47.37 47.77 47.61 46.85 46.83 47.57 49.40 47.67 46.65 46.87 46.32 45.10 44.41 45.19 46.95 46.18 47.39 49.17 51.08 50.40 50.39 51.30 50.55 48.59 48.70 50.71 50.98 50.90 51.18
50.72 50.71 50.81 51.22 51.70 51.44 49.85 49.19 47.99 48.15 46.74 45.91 45.56 45.22 45.62 47.36 47.50 46.58 46.47 47.45 48.18 47.25 47.72 46.89 46.16 44.52 45.47 46.73 46.51 47.96 48.76 48.24 47.56 47.75 47.62 47.67 48.45 48.97 49.05 50.69 51.39 51.84 51.76
50.66 50.72 51.38 51.43 52.00 52.31 51.91 51.73 49.07 48.66 46.94 46.19 45.46 45.43 45.98 46.56 47.14 48.49 48.15 48.31 48.46 48.48 48.35 48.10 48.20 47.95 47.85 48.38 49.36 50.25 49.43 48.50 47.23 46.72 46.64 47.43 48.74 46.59 45.86 45.29 44.33 44.93 43.75
50.34 48.52 47.25 47.21 45.70 45.31 45.96 46.66 45.98 45.58 46.09 45.84 45.55 44.87 43.65 41.44 41.42 40.58 44.59 48.68 48.53 45.91 45.81 48.69 48.89 48.95 48.82 48.61 48.30 48.45 46.51 47.40 46.07 46.22 45.25 44.90 44.43 43.56 43.46 43.18 44.20 44.31 43.01
50.29 48.27 45.79 45.08 44.80 45.12 43.98 41.87 42.56 42.11 40.36 39.08 39.08 42.60 42.73 40.52 39.96 39.19 39.38 40.12 42.08 42.38 48.82 49.00 48.36 47.66 45.81 45.52 45.81 46.67 47.29 46.27 45.51 45.94 44.96 44.38 43.22 42.59 41.68 41.93 43.92 43.14 42.21
52.13 52.73 51.20 50.21 48.92 47.45 46.14 44.05 41.20 41.02 40.83 39.36 38.60 38.65 38.24 38.75 39.15 39.18 39.52 39.69 41.87 42.22 47.62 47.20 46.67 47.12 46.90 47.04 46.74 46.05 45.05 46.80 47.69 47.03 44.88 44.55 43.69 42.84 41.76 41.61 42.32 42.18 41.58
53.32 49.36 51.09 50.64 50.16 50.54 49.28 47.78 46.73 46.03 44.15 42.90 40.06 41.08 38.56 38.60 38.79 39.50 39.75 40.53 47.59 45.47 46.91 46.06 46.61 47.22 47.91 47.43 46.53 45.47 45.13 45.71 44.35 44.39 44.93 44.49 43.65 42.26 41.21 41.30 41.64 41.67 41.02
53.71 53.57 54.38 54.29 53.75 53.34 53.42 52.26 51.02 50.35 48.33 45.88 43.98 40.73 40.62 38.87 38.76 38.55 39.00 44.14 46.51 46.00 46.46 46.21 47.06 47.11 46.31 45.61 45.84 46.64 46.07 45.15 44.35 44.52 44.37 43.24 42.66 41.62 41.22 41.51 41.31 39.67 40.65
55.57 54.17 54.07 53.55 52.74 53.10 52.90 51.85 51.35 51.68 51.49 48.77 47.14 46.85 45.60 43.51 44.76 45.41 47.72 47.76 46.48 45.62 45.84 46.10 46.78 46.14 46.89 46.43 46.83 45.92 45.38 45.23 44.57 43.78 43.02 42.67 42.67 41.94 40.87 40.66 40.95 41.19 41.48
54.46 54.17 53.74 54.58 53.77 52.79 52.33 51.76 51.69 50.97 50.60 48.72 46.88 43.62 39.17 44.31 46.66 46.33 46.02 46.47 45.67 45.35 45.68 45.58 45.02 46.03 47.32 46.59 45.74 45.40 44.73 44.49 43.72 42.85 42.15 41.89 41.89 40.59 41.59 41.17 40.49 41.21 41.52
55.70 54.83 54.68 54.00 53.94 53.22 52.58 52.11 51.78 50.70 50.26 48.31 46.20 43.66 40.12 44.17 46.24 46.20 46.47 46.29 46.43 47.47 46.54 47.11 45.14 45.28 45.67 45.02 46.10 45.37 43.79 44.11 43.16 42.22 41.53 41.15 40.85 40.90 40.96 39.78 40.11 40.73 40.68
55.98 55.19 53.53 53.83 53.56 50.53 52.15 51.67 51.00 50.80 49.74 48.50 47.86 45.23 44.78 46.47 45.85 45.97 45.87 46.42 46.73 47.08 47.46 47.53 46.51 45.94 46.66 47.16 47.32 46.75 44.36 43.77 42.59 42.44 40.63 39.27 39.11 40.63 40.24 39.76 39.54 39.47 39.31
55.73 54.14 52.89 53.11 52.76 52.36 51.58 51.11 51.43 46.90 48.35 48.68 47.96 46.71 46.06 46.27 46.03 46.22 46.31 46.78 46.62 47.03 48.36 47.67 46.60 44.98 45.17 45.41 45.81 46.14 44.02 42.75 44.10 41.28 40.24 38.81 39.13 40.27 39.94 39.90 39.57 39.69 38.89
53.95 54.45 53.02 53.17 52.05 51.87 51.41 51.42 51.37 49.31 48.73 47.90 47.28 46.67 46.43 46.66 46.32 46.47 47.03 46.94 47.10 48.16 46.75 47.16 45.93 45.28 44.64 44.61 44.20 41.31 33.50 31.21 37.49 34.86 38.55 38.53 38.80 40.38 40.39 39.61 38.83 38.81 39.42
52.96 53.21 52.70 52.98 53.41 52.60 51.92 51.25 50.65 50.10 48.84 48.34 47.65 47.11 46.77 46.63 46.72 46.87 46.86 46.98 47.02 47.15 47.01 46.87 46.75 45.18 44.80 44.66 42.23 33.82 30.92 30.09 34.85 31.62 35.64 37.71 38.57 40.20 40.29 39.60 39.58 38.85 39.55

GFSGL_sfc_wetblb_003.txt.gz
Wetbulb
66.90 67.82 65.70 65.93 66.28 65.64 65.64 66.15 66.80 66.51 67.36 67.18 67.09 67.16 66.73 66.62 67.07 67.36 67.20 67.56 67.04 66.37 66.55 66.64 66.48 66.75 66.82 67.00 66.53 66.60 64.92 64.94 61.37 63.76 65.55 67.51 67.54 67.44 67.87 67.42 66.10 63.72 63.68
67.58 67.68 66.14 65.13 66.84 66.04 65.95 66.35 67.08 67.00 66.77 66.68 67.17 67.00 66.23 66.41 66.63 66.68 66.73 66.77 66.39 65.99 65.92 65.19 65.42 66.51 64.72 65.25 66.43 65.73 66.05 65.60 63.28 62.07 64.55 64.98 65.62 66.50 65.45 63.10 64.63 63.82 61.49
68.09 66.47 67.43 66.74 65.90 65.11 65.68 66.51 66.53 66.10 65.99 66.40 66.95 65.97 65.94 65.38 64.51 63.55 63.48 62.90 62.07 61.32 61.92 62.18 62.87 63.96 63.23 63.83 64.17 64.19 65.27 65.49 64.86 63.97 63.25 63.91 63.50 64.41 61.67 60.70 59.99 59.56 62.56
67.72 66.59 65.97 66.83 66.90 67.48 66.84 66.98 66.24 66.33 65.30 65.60 66.37 65.72 65.13 64.37 63.81 63.84 63.67 62.33 61.10 60.18 60.21 59.95 59.71 60.33 61.02 62.35 60.84 60.25 62.10 63.68 63.94 63.27 61.94 61.95 62.27 63.69 62.11 59.21 56.98 56.04 56.06
67.07 66.63 65.50 65.50 67.03 67.80 67.11 66.82 66.53 66.06 64.96 65.25 64.82 63.93 63.92 64.19 63.98 62.92 62.45 60.78 59.38 58.18 58.10 57.64 58.09 59.78 59.62 59.50 58.26 57.64 59.83 61.16 63.17 62.20 61.81 61.91 62.03 62.08 61.04 60.38 57.52 57.18 55.06
67.24 66.95 67.27 65.96 66.10 66.90 66.44 65.84 65.33 65.07 64.79 64.53 62.43 59.84 58.34 59.78 61.70 62.20 62.21 60.64 59.04 57.42 55.21 54.64 55.02 56.08 58.49 58.10 57.18 57.76 58.68 58.32 61.02 61.65 61.00 58.22 57.16 58.73 58.93 58.53 56.24 54.41 53.02
66.07 67.93 67.59 66.75 65.93 66.23 65.62 64.72 63.61 61.53 61.43 59.80 58.53 54.34 51.48 51.72 56.34 60.20 61.58 60.24 59.38 57.97 57.66 58.10 58.17 57.95 56.60 54.72 52.65 52.69 53.54 55.62 56.59 57.64 54.23 55.25 52.97 54.68 56.89 55.54 54.26 53.15 51.06
66.69 66.50 66.58 66.58 65.67 65.32 64.42 62.94 61.19 59.77 57.83 56.67 54.85 51.59 49.34 49.95 53.21 58.54 57.75 53.65 51.64 51.39 52.66 52.57 51.40 52.11 54.36 51.57 48.98 48.42 48.63 49.17 49.02 50.20 50.40 49.29 49.79 51.05 51.95 54.02 53.67 54.33 53.91
64.96 64.84 65.25 65.35 64.38 63.77 61.64 59.92 57.44 54.74 52.44 51.03 50.47 50.80 49.47 48.32 50.68 53.61 52.76 50.57 48.86 47.71 49.51 51.03 50.69 52.57 54.54 53.01 50.28 49.58 49.77 50.05 52.68 52.84 52.60 52.47 52.78 52.85 52.25 50.34 48.39 47.64 47.38
60.02 61.75 61.11 61.19 60.20 59.01 58.65 56.38 54.04 52.12 50.75 49.59 48.52 48.06 49.46 47.58 48.00 49.79 51.64 50.09 48.03 47.99 47.90 47.47 50.26 49.29 49.46 51.30 52.78 51.19 49.95 50.30 51.18 51.45 50.97 51.33 50.29 51.54 52.17 49.92 49.09 46.32 45.91
55.02 55.44 55.08 55.22 54.57 53.22 51.81 50.81 49.76 49.66 48.80 47.99 48.39 48.22 48.14 48.11 47.20 47.44 48.83 49.80 48.72 47.70 46.69 45.97 46.29 47.65 45.90 45.96 46.32 45.80 46.04 48.66 50.00 49.39 49.41 49.08 49.15 48.96 49.69 50.66 50.19 48.32 46.44
52.04 52.21 52.65 52.41 51.94 50.90 49.48 48.86 48.23 47.71 46.98 46.96 47.13 47.07 47.80 48.08 48.20 47.04 47.15 48.06 49.06 46.62 46.13 47.11 47.43 46.00 45.00 45.77 47.71 47.09 47.56 49.19 49.63 50.30 50.11 47.24 44.61 44.75 45.95 47.64 47.89 47.56 48.17
50.62 50.34 50.45 50.62 50.49 50.04 48.93 48.08 47.49 47.60 46.78 46.00 46.00 45.64 46.24 47.31 47.45 46.96 47.04 48.11 48.88 47.81 47.81 47.86 47.47 44.94 45.23 46.22 47.05 48.03 47.77 46.92 45.17 44.39 43.40 44.04 44.16 44.65 44.14 43.10 44.96 47.66 46.94
50.62 50.73 51.13 50.27 50.06 49.72 49.11 48.64 47.42 46.56 46.08 45.74 45.23 44.94 45.33 45.46 46.22 47.45 47.99 48.73 49.48 49.16 49.46 48.27 47.95 47.90 47.26 47.08 46.25 44.23 44.39 44.37 42.96 41.38 40.93 40.67 41.45 39.66 39.51 39.16 38.51 39.44 38.92
46.45 45.22 44.47 44.29 43.60 42.69 43.31 44.45 43.72 41.75 44.98 44.68 44.24 43.61 41.11 39.82 39.97 40.94 44.15 46.73 43.96 42.95 41.91 42.77 42.26 42.57 42.61 42.67 42.37 41.40 40.96 41.55 40.13 41.56 40.88 39.86 38.66 38.34 37.15 37.43 37.87 38.63 36.84
42.91 42.45 42.85 42.64 41.85 40.19 38.65 37.97 42.28 40.70 39.64 38.29 39.52 39.54 36.95 38.84 38.84 38.61 38.48 38.94 40.54 41.14 42.28 39.65 38.98 38.51 38.39 38.29 38.43 39.93 39.56 41.59 39.37 40.79 39.05 37.91 36.94 36.85 35.37 35.85 37.13 36.46 36.18
42.91 43.01 43.29 42.77 41.19 38.97 37.59 36.29 34.97 37.01 40.04 38.41 37.69 37.69 38.04 38.16 38.41 38.76 38.97 38.71 40.38 40.98 39.22 38.42 38.04 37.86 37.98 38.75 37.97 37.80 36.96 37.97 39.80 38.66 37.61 37.34 36.70 35.81 35.09 35.25 35.35 35.86 34.87
46.45 47.47 44.15 43.32 42.66 41.07 39.54 39.24 38.19 37.22 35.69 35.41 38.38 37.68 37.80 38.03 37.97 38.05 38.01 39.33 39.64 39.05 38.09 38.15 37.60 38.83 38.95 37.94 37.18 36.62 36.47 36.80 35.89 36.67 37.51 35.84 35.06 34.44 34.35 34.41 34.42 34.11 33.97
46.45 46.25 45.88 45.28 44.58 43.92 42.12 40.59 41.95 41.50 39.02 36.66 35.39 37.51 36.70 37.77 37.71 37.73 37.87 36.77 36.77 36.41 37.35 37.53 37.59 37.58 36.91 36.91 36.69 37.03 36.48 36.84 35.72 36.74 34.87 34.45 34.78 33.60 33.43 34.07 34.01 38.95 37.75
49.14 51.53 48.87 46.06 46.17 46.22 46.09 44.69 43.69 42.69 40.45 38.48 38.61 37.58 37.32 37.46 37.39 38.36 38.82 37.94 37.36 36.78 36.88 37.03 37.32 37.55 37.59 36.94 36.69 36.11 36.34 36.53 35.50 34.22 34.52 34.49 34.22 33.56 33.58 33.46 33.56 33.79 34.64
48.22 48.62 50.35 47.14 46.42 46.13 46.18 45.00 43.93 45.11 43.52 40.41 38.12 38.88 39.66 38.82 38.45 37.50 37.36 37.79 37.88 38.03 37.27 37.23 36.00 35.87 37.94 37.88 36.57 37.10 36.19 35.80 35.05 34.86 34.46 33.83 33.55 33.15 33.86 32.95 33.65 34.84 35.76
49.06 49.54 49.28 48.34 47.93 46.92 46.36 46.14 45.24 44.04 40.71 38.64 36.39 35.43 38.84 36.39 38.02 38.45 38.26 38.68 38.65 38.61 38.47 37.81 36.75 36.16 36.98 37.17 37.26 36.84 36.21 35.89 34.40 34.27 33.74 32.85 32.37 32.91 33.67 33.73 35.87 36.17 36.00
51.82 51.49 50.46 48.82 47.22 47.47 46.72 45.62 44.96 44.33 41.93 39.94 37.60 37.14 37.51 37.95 38.41 39.07 39.68 39.30 39.29 39.13 39.22 39.04 38.38 37.67 38.48 38.79 39.12 38.53 36.54 35.23 34.68 34.17 32.25 31.65 31.21 33.21 34.18 34.05 35.14 35.26 35.02
51.14 51.33 51.13 49.35 47.53 46.25 46.84 46.09 45.02 42.88 42.71 41.70 40.20 39.62 39.35 39.38 40.16 39.82 39.57 39.49 39.49 39.60 39.64 38.67 37.88 37.47 37.34 37.18 36.70 36.12 35.89 36.57 34.15 33.24 32.22 31.26 32.01 33.90 34.47 34.61 34.77 35.06 34.67
48.80 49.80 50.65 48.53 47.95 47.37 47.23 46.59 46.21 43.54 42.87 42.19 41.09 40.52 40.01 40.01 40.27 40.65 40.43 40.12 39.82 39.66 39.14 38.80 38.02 38.45 39.21 37.53 35.93 33.81 31.83 30.67 32.09 33.17 30.49 30.52 31.76 33.70 34.14 33.61 34.33 34.72 35.08
48.46 49.22 47.25 47.81 47.32 47.53 47.27 45.75 45.38 43.39 42.39 42.09 41.10 40.14 40.37 40.16 40.22 40.73 40.38 40.13 39.44 39.94 40.27 39.73 39.24 39.42 39.99 39.22 37.95 33.02 30.67 30.59 31.17 30.70 29.17 30.06 31.42 33.04 34.41 34.40 34.20 33.48 33.73

GFSGL_sfc_wetblb_006.txt.gz
Wetbulb
65.93 65.35 64.54 64.60 64.59 64.34 64.40 64.62 64.97 65.20 65.13 65.95 66.20 65.40 65.22 65.37 65.66 65.74 65.49 66.58 65.72 65.95 66.02 65.80 64.52 64.78 64.88 66.27 66.18 65.77 65.40 64.65 61.82 63.90 65.10 66.43 66.12 66.79 66.83 65.87 66.00 64.82 64.46
66.37 65.44 63.81 64.70 64.99 64.01 64.49 64.76 64.94 64.55 65.85 66.29 66.34 65.91 64.53 65.12 65.21 65.64 66.18 66.14 65.69 65.28 65.53 66.13 64.93 66.82 65.16 64.94 64.85 64.79 65.18 65.49 63.50 62.06 63.95 64.32 64.88 65.57 65.84 63.36 64.27 63.16 62.97
66.61 66.01 64.17 63.80 64.56 64.49 64.29 64.65 64.40 64.39 64.78 65.60 65.03 64.31 63.85 63.56 63.22 62.77 62.22 61.48 61.76 62.12 62.27 62.79 63.79 63.89 63.09 62.80 62.24 62.30 63.61 64.58 64.13 63.09 62.10 63.28 63.39 63.70 61.02 59.88 58.33 60.49 61.59
66.86 65.08 65.19 64.48 65.17 64.98 65.54 64.94 64.59 64.23 64.67 64.47 63.88 63.64 63.41 63.60 63.65 63.10 62.10 61.18 60.47 60.10 60.04 60.30 60.39 60.78 61.40 60.15 59.90 60.47 61.96 62.21 62.73 62.40 61.54 61.70 62.22 61.82 60.75 58.17 55.04 56.52 58.64
66.25 64.87 64.51 64.71 65.46 66.08 65.29 64.75 63.90 63.93 63.88 63.05 62.45 62.05 62.53 62.89 62.77 61.22 60.93 60.43 59.37 57.85 57.64 59.25 59.56 60.56 60.79 60.28 59.47 59.43 60.46 61.22 61.56 61.52 61.18 61.34 61.14 61.22 59.52 59.43 55.66 55.84 54.69
67.47 65.80 66.26 66.13 66.55 65.27 64.77 63.90 63.43 62.43 60.45 58.58 56.06 56.30 58.35 60.57 60.10 60.37 59.91 58.01 56.82 55.56 54.79 54.82 56.30 57.64 57.94 57.69 58.38 58.93 59.32 60.14 60.97 60.72 60.50 57.69 56.44 57.75 57.99 58.65 56.36 52.98 50.88
66.45 66.61 66.17 66.65 65.79 64.39 63.66 61.55 59.91 58.00 56.30 53.48 51.88 51.73 51.78 55.09 58.40 58.76 60.04 58.19 57.13 57.05 57.64 56.70 57.04 57.42 55.25 52.22 53.02 53.13 53.85 55.93 58.29 60.41 55.18 53.52 51.93 53.87 55.78 54.45 53.70 54.31 52.80
64.99 65.02 65.13 65.17 64.43 63.41 61.22 58.91 56.16 55.31 54.33 52.78 50.90 49.13 49.74 51.74 55.33 54.01 54.37 51.65 50.24 50.25 51.53 52.65 53.95 54.75 53.29 48.61 48.25 48.74 49.42 49.12 49.43 51.21 51.83 50.99 50.89 51.61 53.42 53.46 53.34 52.47 50.95
62.50 64.19 65.48 64.46 62.88 60.32 57.52 54.80 52.03 50.50 48.83 47.80 48.47 49.47 49.94 51.30 51.77 51.38 50.77 49.81 48.07 46.39 48.52 50.86 51.27 50.43 52.26 52.04 50.59 49.55 49.38 50.13 52.67 52.96 52.84 52.48 52.22 52.11 51.45 48.17 45.67 46.87 45.17
56.72 59.85 64.42 63.37 61.43 57.56 55.30 52.94 50.69 49.12 48.17 47.80 47.60 48.75 49.57 48.57 48.90 48.95 49.84 49.28 46.36 46.30 47.00 47.40 50.60 49.31 49.02 49.69 49.98 48.92 48.52 49.43 49.66 50.13 49.85 48.87 49.96 50.85 51.54 48.24 47.85 46.23 46.04
54.76 54.96 54.84 55.04 54.44 52.84 51.13 50.60 49.39 48.06 47.38 47.29 47.96 48.63 48.68 48.17 47.87 47.75 48.49 48.65 47.21 46.40 46.40 46.29 46.79 48.03 46.33 46.38 47.27 48.41 47.89 49.91 50.86 50.04 48.88 47.98 47.06 48.25 48.93 49.68 49.88 48.77 47.10
51.62 51.41 51.47 51.85 52.23 51.07 49.54 49.13 49.00 48.57 48.06 47.58 47.38 47.28 48.00 48.29 48.01 47.13 47.22 47.96 49.68 47.95 47.50 47.97 47.62 45.32 44.77 45.96 47.16 46.10 46.90 48.34 49.55 47.94 46.45 44.10 43.47 44.09 44.88 47.14 47.29 47.51 48.07
50.86 50.38 50.20 50.27 50.31 49.78 48.88 48.52 48.04 48.30 47.40 46.73 46.55 46.03 46.26 47.53 48.20 47.20 47.04 48.29 49.26 48.46 48.74 48.48 46.97 45.34 45.21 46.21 46.76 46.75 46.27 45.26 43.77 42.20 40.66 40.70 42.43 40.47 38.30 38.15 39.15 40.21 44.11
49.55 48.59 48.85 48.38 48.07 48.36 48.52 48.45 47.33 46.65 45.56 45.93 45.72 45.30 45.19 45.74 46.81 47.60 47.96 48.65 49.45 49.12 48.93 47.86 47.93 46.56 46.43 45.19 42.02 41.33 41.37 40.67 38.90 37.76 36.77 37.00 37.10 36.12 34.60 34.82 35.61 36.45 36.30
45.28 45.30 44.54 44.26 43.59 42.95 42.48 42.09 41.96 40.80 44.55 45.14 43.20 43.45 42.27 42.07 41.97 41.53 44.39 46.08 44.34 42.24 42.01 41.08 40.67 40.44 39.94 40.61 39.71 38.89 38.49 38.07 38.61 37.19 35.44 34.66 34.74 34.53 33.69 33.65 33.78 34.28 33.56
42.13 42.67 42.09 40.31 38.60 38.20 37.95 36.69 41.54 40.62 40.24 39.05 38.76 38.05 37.10 38.73 38.68 38.25 38.07 38.85 39.79 41.32 38.71 36.57 35.71 35.52 36.02 35.97 37.22 36.61 36.22 39.48 37.69 36.64 35.44 34.31 33.52 33.35 33.01 33.43 34.08 33.79 33.13
39.99 39.20 39.14 37.94 35.91 34.76 34.12 34.66 33.92 36.93 39.76 38.24 37.76 37.41 37.35 37.50 37.76 37.58 37.50 38.63 39.18 39.54 36.70 35.89 36.20 36.40 35.53 35.34 34.92 34.41 34.50 34.14 34.09 34.97 35.05 34.00 33.24 33.18 33.11 32.86 33.63 33.37 33.25
40.86 44.10 38.99 37.42 36.33 35.61 36.09 38.22 37.93 36.04 32.40 33.06 36.65 36.51 36.90 36.84 37.08 36.79 37.17 38.90 38.06 37.53 36.57 35.75 36.28 36.38 35.27 35.04 34.89 34.47 34.43 34.49 34.00 34.31 33.04 32.73 32.49 32.18 32.21 32.00 31.91 32.15 32.01
43.21 41.50 40.12 38.91 37.26 37.26 35.97 36.55 36.99 35.74 34.34 33.26 32.84 35.88 35.91 37.31 37.32 37.11 37.30 36.20 34.87 34.52 34.65 35.13 35.55 35.16 34.33 34.36 34.74 34.24 34.07 34.81 33.36 33.08 31.74 32.03 31.72 31.27 31.36 31.33 31.55 36.95 36.20
43.43 46.37 44.70 41.92 40.33 38.80 38.31 38.58 39.09 36.81 35.16 34.90 34.73 34.39 34.89 35.59 35.84 36.38 36.81 35.23 34.88 34.43 35.15 35.06 34.67 34.67 34.95 35.73 34.22 33.89 34.58 34.68 32.76 31.85 31.68 31.70 31.12 30.75 31.23 31.08 30.73 30.92 31.31
46.30 46.86 47.80 43.89 44.54 43.16 42.67 42.25 42.25 39.89 37.34 36.71 36.99 37.54 37.77 36.09 36.47 36.32 35.24 34.71 35.62 35.12 34.47 35.03 34.80 34.52 34.92 35.16 34.51 34.41 34.30 33.37 32.32 32.07 31.56 30.73 30.25 30.61 31.28 30.50 31.29 32.71 32.35
46.17 46.64 46.26 45.93 45.53 44.51 43.69 42.74 43.52 41.09 40.54 39.34 35.86 35.37 37.80 35.01 36.22 35.79 35.51 36.19 36.36 36.55 36.31 35.53 34.03 34.59 35.45 34.99 35.29 34.80 34.61 33.39 32.39 32.01 31.43 30.43 29.75 30.77 31.89 31.56 32.15 32.06 32.19
48.48 49.66 48.54 46.94 46.29 46.49 45.79 44.60 41.84 40.66 38.77 36.70 34.79 34.92 35.36 35.94 36.11 36.27 37.03 36.92 37.03 36.87 36.62 36.78 36.52 35.71 35.74 36.81 37.23 36.64 34.07 33.17 33.01 32.32 31.14 29.72 29.55 30.90 31.75 31.57 32.01 31.05 30.68
49.98 50.12 49.33 48.46 46.04 45.74 44.92 43.59 43.44 41.37 39.68 37.76 36.05 35.87 35.82 36.31 37.32 37.83 37.42 37.42 37.54 37.08 36.94 36.29 35.18 35.10 35.79 35.23 35.18 35.22 35.34 33.98 32.43 31.55 30.39 29.31 29.58 30.97 31.52 31.79 30.97 31.48 31.06
45.92 47.21 48.54 48.13 46.36 44.90 44.75 44.35 43.61 41.01 42.05 40.28 37.89 37.76 37.69 38.24 37.71 38.13 38.23 37.98 37.50 37.31 36.73 35.94 35.46 36.73 36.66 35.46 33.80 33.20 32.86 31.19 30.84 31.09 28.31 28.49 29.62 31.29 31.84 31.11 31.06 31.34 32.16
46.05 46.90 47.26 46.98 46.02 45.50 45.34 44.94 45.03 42.23 40.15 39.67 40.16 37.79 38.70 39.26 38.71 38.40 38.30 38.15 37.23 37.47 36.68 36.38 36.38 37.96 37.57 36.79 36.16 33.91 31.09 30.28 30.77 30.51 28.15 28.59 29.58 30.37 31.40 32.44 32.89 31.67 31.89

GFSGL_sfc_wetblb_009.txt.gz
Wetbulb
65.08 63.90 63.50 63.35 62.80 63.22 63.57 63.75 63.66 64.15 64.88 65.31 64.64 64.36 64.38 64.34 64.72 64.36 64.07 65.56 65.83 65.19 64.66 65.06 64.65 65.24 64.90 65.37 65.83 64.84 64.66 64.36 61.55 63.19 65.11 65.85 66.37 66.19 65.56 64.84 64.74 64.14 64.07
65.42 63.68 63.59 63.79 62.98 63.43 63.62 63.55 63.71 64.03 64.79 65.61 65.27 63.84 64.07 64.34 64.61 64.90 66.15 66.38 65.65 64.84 65.19 63.67 64.36 66.18 65.11 65.35 64.85 64.56 64.16 64.66 63.31 61.29 63.75 63.99 65.03 65.17 64.36 63.13 62.93 63.12 62.28
65.60 63.97 62.62 62.94 63.22 62.82 63.28 63.46 63.63 63.83 63.73 63.49 63.42 63.43 62.59 62.02 61.66 61.62 62.26 62.22 62.15 62.76 63.72 65.00 64.43 64.77 63.81 62.75 62.70 62.66 62.68 63.95 63.88 62.82 61.70 62.70 63.67 62.51 59.38 58.00 58.86 59.88 60.36
65.85 65.08 63.43 62.34 63.12 63.62 63.59 63.45 63.21 63.39 62.31 62.01 62.19 62.31 62.45 62.76 62.34 61.81 61.25 60.39 59.80 59.70 60.18 60.59 61.04 61.57 60.41 60.32 61.19 61.37 61.89 62.88 62.84 61.96 61.30 61.48 61.57 60.77 59.70 56.67 54.68 57.50 56.93
65.45 64.19 64.22 63.99 64.52 64.56 63.54 62.63 62.62 61.81 60.20 59.64 59.92 60.46 61.28 61.57 61.73 60.90 60.92 59.79 58.67 57.99 58.70 59.90 60.80 61.85 61.57 61.42 60.62 60.42 61.15 60.26 61.01 60.89 60.37 60.51 60.59 60.13 58.66 58.55 55.18 55.51 55.02
65.51 64.59 65.60 64.39 65.12 64.12 62.90 61.96 60.98 57.75 55.87 56.05 56.33 58.62 59.70 60.40 58.53 59.28 58.11 56.21 55.95 56.03 55.54 56.23 56.59 57.03 57.91 58.75 59.01 58.64 58.67 59.84 59.54 59.30 59.74 58.82 56.93 56.91 57.07 58.76 55.00 54.07 52.45
64.67 66.21 65.52 65.30 63.85 63.30 62.17 59.82 57.03 54.27 52.44 51.75 53.35 55.59 56.47 57.83 57.01 57.53 58.69 56.73 57.04 57.23 56.53 56.75 57.09 56.19 53.62 52.02 52.07 52.24 52.45 54.06 56.20 59.08 56.01 52.97 53.05 54.12 55.81 55.22 55.10 54.48 53.12
62.62 64.43 64.66 64.26 63.23 61.47 59.24 56.47 53.93 51.94 50.17 48.92 49.10 50.54 54.60 55.57 53.67 53.22 53.76 50.64 49.02 49.45 50.75 54.07 54.72 51.56 50.16 50.05 49.91 49.27 49.15 50.53 50.68 51.18 50.90 50.83 50.99 51.63 52.93 53.86 54.31 51.61 51.32
59.21 63.23 64.72 63.73 62.16 59.07 54.94 51.45 49.82 48.58 47.25 46.94 49.28 51.06 52.49 51.07 50.58 50.67 49.53 47.20 46.43 46.21 48.06 50.47 48.34 48.05 52.45 52.14 49.95 48.94 49.20 48.77 51.68 52.06 52.10 51.92 52.02 52.04 51.40 47.96 45.93 46.23 45.71
55.79 56.57 64.30 62.57 59.49 55.43 53.36 50.24 48.74 48.60 47.01 47.67 48.05 49.57 51.01 49.82 48.53 48.68 49.48 48.29 45.60 46.16 46.09 46.81 50.87 48.31 48.92 49.12 49.11 49.00 48.17 48.75 49.06 48.79 48.26 48.59 49.07 49.43 51.33 48.57 48.63 46.47 46.23
53.71 54.09 54.26 56.89 55.53 52.99 51.85 50.64 49.84 47.71 47.17 47.68 47.34 48.62 48.34 48.58 47.86 47.49 48.03 48.44 47.58 47.37 46.69 46.51 47.03 48.32 46.53 46.14 47.09 48.35 47.89 50.26 50.56 48.13 45.57 45.08 45.57 46.88 48.25 48.71 49.07 48.07 46.51
51.30 50.85 50.89 52.57 52.54 51.45 49.48 49.79 49.65 49.40 48.32 48.06 48.02 47.77 48.26 48.15 47.94 47.23 47.35 48.27 50.06 48.39 47.91 48.02 46.69 44.98 44.00 44.71 45.73 45.58 46.33 47.85 47.17 45.93 44.73 43.47 42.96 42.33 41.95 44.83 42.82 45.22 45.84
50.60 49.67 49.67 50.19 50.55 50.37 49.47 49.00 48.55 49.11 48.35 47.48 47.23 46.90 46.94 48.20 48.49 47.17 47.28 48.35 49.28 48.38 48.33 47.95 47.03 44.65 44.28 44.60 45.20 44.78 43.31 40.07 38.52 36.90 36.12 36.48 35.75 35.03 34.80 35.14 36.55 36.49 37.63
47.26 47.15 48.08 47.90 47.59 48.11 48.20 48.40 47.97 47.30 46.74 46.63 46.25 45.63 46.23 46.95 47.44 48.11 48.38 48.67 48.84 47.78 47.44 46.61 46.55 45.79 45.04 42.33 39.88 38.98 38.91 39.06 37.02 34.98 33.83 33.56 33.74 33.22 32.76 32.25 33.07 34.34 34.04
46.02 45.73 45.39 45.21 44.50 43.33 42.46 43.73 44.38 44.08 45.87 45.51 44.92 44.82 44.89 44.14 42.68 42.33 44.56 45.37 43.54 43.06 42.12 39.47 37.80 37.33 38.45 37.33 36.41 36.81 37.49 37.25 36.26 34.21 33.13 32.76 32.65 32.36 32.01 31.94 32.80 32.57 32.87
43.38 42.50 41.51 41.02 40.48 40.08 39.18 38.44 41.69 41.68 40.25 38.97 38.81 40.15 38.12 39.92 38.82 38.11 38.25 39.09 39.92 40.85 36.59 34.76 34.26 34.65 35.70 35.33 34.11 33.96 33.67 36.37 34.45 34.59 32.95 32.07 31.20 31.62 31.70 32.20 32.69 32.18 31.51
37.86 36.72 36.78 36.33 36.86 35.39 33.72 34.35 34.05 36.20 39.49 38.14 37.34 37.39 37.74 37.54 37.27 36.90 37.70 38.10 38.88 38.61 35.34 34.73 34.62 34.39 33.67 33.54 33.41 33.37 33.21 31.94 32.76 32.90 31.68 31.32 31.40 31.39 31.42 31.26 32.35 31.79 31.46
37.78 40.44 34.64 34.07 33.90 33.26 33.67 33.58 33.61 33.10 32.83 32.95 35.99 36.38 36.63 36.72 36.86 36.90 37.65 38.61 37.97 37.13 35.04 35.49 34.78 34.50 33.70 33.45 33.16 32.43 32.44 32.28 31.98 30.89 31.08 30.94 30.35 30.32 30.56 30.13 30.17 30.51 30.49
38.70 37.04 35.75 34.82 34.08 34.85 34.36 34.13 33.13 33.09 33.05 32.95 32.68 35.38 35.94 36.67 36.80 36.89 37.55 37.25 35.06 34.11 33.68 34.46 34.32 33.78 33.08 33.20 32.95 32.48 32.66 33.03 32.51 30.55 29.90 30.16 29.83 29.74 29.98 29.82 29.77 34.93 33.82
39.86 42.43 39.47 36.37 36.64 35.57 36.31 36.34 34.53 32.92 33.51 34.31 34.47 34.60 35.07 36.54 36.71 35.79 34.47 34.32 34.38 34.16 33.98 33.86 33.66 33.44 33.32 33.96 32.73 32.53 33.13 32.49 30.36 30.38 29.98 29.48 29.00 29.18 29.77 29.33 29.34 29.69 29.96
41.46 41.91 43.36 39.42 38.27 37.26 38.07 38.66 37.52 35.39 35.14 35.02 35.13 35.67 37.25 35.89 36.24 35.85 34.54 34.32 34.35 34.07 33.89 34.18 33.04 33.42 33.57 33.94 33.16 33.11 32.85 31.96 31.29 30.93 30.01 28.92 29.14 29.56 29.47 29.43 30.48 30.67 30.77
44.56 43.74 44.48 42.28 41.74 41.65 41.66 41.58 40.33 38.33 37.02 37.36 36.75 36.83 37.96 36.19 36.04 35.76 34.75 35.01 34.97 34.71 34.52 33.88 33.28 33.44 34.43 34.39 34.18 33.48 33.38 32.37 31.70 30.94 29.92 28.91 28.65 30.00 30.42 30.23 30.65 29.99 30.07
46.08 46.42 45.20 44.44 43.88 44.38 43.75 42.82 42.91 41.62 40.96 40.45 38.36 36.33 36.34 35.48 35.55 35.60 35.77 35.89 35.97 35.75 35.13 35.21 34.65 33.44 34.33 35.39 35.53 35.34 34.04 32.95 32.19 31.63 30.30 28.83 27.83 29.27 30.28 30.28 30.15 29.13 29.20
50.31 48.64 46.75 45.27 44.56 43.90 43.63 42.78 42.26 41.15 41.51 39.68 36.58 35.76 35.94 36.67 36.53 36.56 36.37 36.62 36.58 35.76 35.67 35.62 34.84 34.57 34.58 35.25 34.61 33.86 33.42 32.90 31.96 30.95 30.15 27.76 27.93 29.65 29.81 30.10 29.47 29.87 29.45
45.51 45.33 46.80 45.73 44.57 44.14 43.85 43.71 43.29 42.48 41.58 40.09 37.23 36.83 36.00 36.31 36.36 37.26 37.06 36.44 36.29 35.84 36.09 34.98 34.16 35.06 36.03 35.07 34.04 33.66 33.40 31.28 31.37 30.38 27.37 27.42 27.77 29.63 30.20 29.70 29.46 29.35 30.13
45.21 45.09 45.71 45.36 44.80 44.84 44.61 43.88 43.46 42.86 40.79 41.22 39.36 37.11 37.24 37.07 37.96 37.60 37.17 36.62 36.04 36.18 35.93 34.65 34.67 35.72 36.08 35.48 35.59 34.43 32.13 30.10 30.42 30.02 27.46 26.58 28.79 29.40 29.93 30.65 31.18 30.88 30.37

GFSGL_sfc_wetblb_012.txt.gz
Wetbulb
65.85 65.47 64.94 64.67 64.72 65.11 65.11 64.99 65.28 66.11 66.31 65.58 65.29 65.73 66.29 66.90 67.50 67.23 66.56 66.63 66.09 66.40 66.40 66.58 66.54 67.30 67.43 67.34 67.16 65.78 65.83 65.24 62.54 63.84 66.00 66.46 67.10 67.01 65.54 64.91 64.81 64.97 65.17
66.27 65.07 64.69 65.25 64.72 64.51 64.75 64.73 65.53 65.45 65.39 64.55 64.87 64.21 64.62 65.40 66.25 66.13 66.32 66.65 65.89 65.64 66.24 66.42 66.33 67.07 66.19 65.96 65.71 65.12 65.10 65.44 63.77 62.11 64.21 64.39 64.69 63.91 62.42 60.81 61.99 62.33 62.46
66.34 64.83 64.31 65.09 65.07 64.55 64.70 64.85 64.85 64.14 63.69 63.63 63.85 63.65 63.22 62.93 63.10 63.19 63.39 62.76 63.15 63.61 65.26 64.64 65.46 65.51 64.37 64.60 64.23 63.35 63.87 64.80 64.42 63.31 62.29 63.87 63.51 61.61 58.79 58.56 59.07 58.75 59.89
66.14 65.29 63.49 64.18 64.66 64.97 64.67 64.57 63.90 63.26 62.72 62.68 62.76 63.00 62.99 62.91 62.72 62.01 61.52 60.83 60.70 60.54 61.06 61.25 61.83 61.91 61.64 62.20 62.56 62.56 63.49 63.24 63.04 62.20 61.90 61.92 61.14 60.61 59.24 56.97 56.15 56.97 56.31
66.00 65.92 65.31 64.41 65.24 64.84 64.10 63.94 62.03 61.09 60.66 60.89 61.40 61.62 61.92 61.99 62.09 61.60 60.92 59.96 59.47 58.50 58.50 59.90 61.20 62.19 61.96 61.75 61.07 60.59 61.07 61.68 61.50 61.14 60.63 60.95 61.36 60.25 59.26 57.86 56.21 55.79 54.94
66.27 65.45 65.69 65.02 65.26 63.89 63.40 62.20 59.75 58.60 58.65 60.51 60.70 60.68 60.22 59.98 57.79 58.50 59.00 58.48 58.32 57.77 56.63 56.93 56.61 56.47 56.41 56.25 56.56 57.63 57.89 58.94 60.16 60.17 60.39 58.98 57.17 57.17 57.31 59.16 56.05 55.23 52.53
65.02 66.85 65.47 65.82 64.45 63.16 61.22 59.31 57.01 55.49 55.89 56.69 57.78 59.38 59.08 58.05 55.79 56.65 57.81 57.19 56.73 56.97 57.21 57.39 55.45 53.51 52.79 51.85 52.77 53.32 53.76 54.81 56.70 57.61 51.63 51.76 52.00 52.71 55.81 55.75 55.34 53.85 51.96
62.47 64.90 65.62 65.12 63.85 62.14 59.33 56.13 54.20 52.96 52.81 53.16 54.86 56.31 54.72 53.28 52.63 52.15 52.52 52.33 52.03 53.01 54.58 52.33 51.22 52.33 52.36 51.29 50.41 49.45 49.99 50.80 51.65 52.30 52.61 52.05 52.18 52.13 51.64 54.47 52.72 50.30 51.43
58.73 60.68 64.90 64.27 61.77 59.45 56.09 53.43 51.76 51.29 50.95 51.34 53.14 53.62 52.41 51.50 50.32 49.84 51.13 51.00 50.03 49.97 51.77 52.31 52.41 52.87 52.36 51.85 52.09 51.06 50.69 50.35 51.16 51.75 51.58 51.39 51.62 51.60 52.14 51.47 49.47 51.35 49.22
55.55 56.03 62.68 63.33 60.85 56.61 53.93 51.82 50.75 50.65 50.31 50.81 51.19 51.09 50.79 49.95 48.44 48.38 50.54 50.52 49.44 49.45 49.96 50.45 50.69 50.03 48.42 48.77 51.75 51.35 50.07 50.16 50.23 49.53 49.25 49.71 50.61 50.06 51.16 49.87 50.16 48.56 48.01
53.17 53.85 54.50 56.17 55.35 54.11 51.63 51.43 50.62 49.86 49.77 49.51 49.53 49.38 49.48 49.36 48.43 47.27 48.45 50.53 49.35 48.67 48.79 48.98 48.63 47.35 45.43 45.34 47.08 51.39 50.78 51.77 49.70 48.30 47.20 46.16 45.24 45.86 47.53 46.44 48.56 48.84 48.68
51.70 51.44 51.49 51.71 52.16 51.39 50.30 50.87 50.76 50.65 49.73 48.96 47.88 48.10 49.10 49.05 48.27 47.50 47.73 48.89 50.52 49.09 47.43 47.26 46.78 44.02 43.26 43.87 44.45 44.18 45.10 47.27 46.68 45.88 44.11 42.87 42.34 40.48 40.93 43.05 44.24 49.07 49.82
50.34 49.72 49.91 50.23 50.25 50.68 50.14 49.62 49.31 49.58 48.97 48.10 47.70 47.29 47.99 49.26 49.04 47.21 47.25 48.22 48.86 47.91 48.42 47.57 45.83 43.17 42.86 43.58 44.37 44.08 43.92 44.41 43.58 42.28 41.58 41.12 40.58 40.58 42.84 43.57 45.05 44.97 47.84
47.65 47.92 49.02 48.68 48.17 48.73 49.31 49.26 48.61 48.14 47.92 47.52 47.16 47.23 47.68 47.65 47.92 48.59 48.82 49.67 48.33 48.27 47.67 46.35 45.68 44.82 43.60 43.45 43.98 43.74 44.87 43.44 41.88 41.25 40.67 40.56 41.41 41.47 41.24 40.90 42.24 42.39 44.09
47.26 46.84 46.30 45.79 45.01 43.52 43.19 45.37 45.89 45.73 47.47 46.89 46.89 47.42 46.39 44.79 44.56 44.00 44.76 44.56 45.94 44.76 44.12 43.88 43.94 43.32 42.31 42.18 42.02 42.37 42.37 42.29 41.44 40.70 40.65 40.37 40.35 41.05 40.53 40.81 41.18 41.85 41.10
44.48 44.13 44.77 43.78 42.61 41.85 40.95 39.80 41.75 41.66 40.68 39.43 39.96 43.34 42.16 41.11 38.94 38.76 38.65 39.37 39.71 39.75 41.86 41.94 41.28 42.06 41.10 40.72 40.93 40.47 40.43 41.13 40.81 40.71 40.10 39.82 39.25 39.80 40.05 40.98 41.15 40.56 40.82
41.13 40.59 40.66 40.33 39.17 38.49 38.58 38.96 38.21 39.05 39.37 38.24 37.81 37.96 38.19 37.96 37.39 37.33 37.99 37.87 38.12 40.36 41.39 40.87 40.50 40.73 40.18 40.01 40.13 40.41 40.09 39.79 39.88 39.65 39.87 39.40 39.41 39.58 39.38 39.07 39.94 40.22 40.83
40.69 39.40 37.99 37.73 37.52 37.35 37.95 37.75 38.38 38.99 38.84 38.92 37.87 37.82 36.80 36.60 36.87 37.11 37.84 40.43 42.73 41.42 41.52 40.79 40.58 40.89 40.51 40.51 40.24 40.58 40.48 39.69 39.28 39.19 39.17 39.00 39.08 38.93 39.03 38.51 38.65 39.45 40.24
39.33 38.34 37.99 37.65 37.39 37.79 37.91 37.62 37.92 38.20 38.59 38.32 38.82 38.58 38.20 36.78 36.57 36.82 37.69 43.80 41.65 40.91 40.73 40.87 41.28 40.67 40.06 40.22 40.13 40.21 40.88 40.57 39.56 39.38 38.82 38.76 38.65 39.32 38.90 38.71 39.01 37.33 38.24
41.19 41.13 39.51 39.28 39.31 39.14 39.14 38.10 37.60 38.22 38.67 39.17 39.47 39.98 40.24 40.72 41.31 41.29 41.43 41.32 41.47 40.88 40.65 40.89 40.43 40.17 40.40 40.97 40.76 40.64 41.16 39.63 38.91 39.32 38.80 38.71 38.39 39.11 39.00 38.65 39.31 39.14 39.52
42.60 43.42 41.92 40.88 40.83 40.47 40.62 40.35 39.03 38.50 39.13 39.51 40.12 39.76 37.67 41.80 41.44 41.11 40.80 40.15 40.74 40.84 40.35 40.49 40.72 40.84 40.44 40.51 40.95 41.30 41.08 40.55 39.41 39.25 38.97 38.24 38.33 38.99 39.20 39.13 39.16 39.62 39.91
44.62 44.22 44.43 42.67 42.05 41.47 42.13 42.14 41.69 40.52 40.15 40.05 40.34 40.39 37.65 41.83 41.68 41.90 40.44 40.61 40.74 40.98 41.10 41.30 41.22 40.92 41.46 41.54 41.97 41.67 41.16 40.51 39.80 39.11 38.68 38.03 38.21 39.14 39.45 39.51 39.33 39.28 39.48
47.06 46.63 46.23 46.37 45.12 44.09 43.78 43.81 43.50 43.39 42.56 42.03 42.27 41.71 41.57 41.85 41.53 41.23 40.98 41.22 41.07 41.00 41.26 41.05 41.04 40.89 41.39 41.81 41.85 41.97 41.04 41.38 40.87 39.92 38.88 38.44 38.07 37.96 39.31 39.31 39.02 38.86 39.04
49.46 49.32 48.33 47.41 46.55 46.00 45.83 45.60 44.97 42.80 44.92 43.77 42.60 42.37 41.97 42.16 41.63 41.36 41.70 41.88 41.61 41.51 41.38 41.77 42.17 41.92 41.86 41.94 42.26 42.24 41.86 41.36 40.31 39.65 39.19 38.24 37.07 36.67 38.57 38.76 38.65 37.91 38.59
51.16 50.58 48.71 48.92 47.90 47.25 46.74 46.41 45.96 45.44 45.04 44.30 43.71 42.29 40.97 41.46 41.80 41.66 41.78 42.02 42.05 41.73 41.69 41.80 41.98 42.22 42.50 42.45 42.24 41.78 38.15 31.57 38.47 35.26 37.72 36.47 36.06 36.88 38.17 38.60 38.60 38.81 37.94
47.75 48.23 47.98 48.42 47.57 46.85 46.90 46.75 46.65 46.26 45.15 44.75 44.51 43.10 41.82 41.32 41.66 42.20 42.36 42.13 41.72 41.74 42.36 42.62 42.17 41.71 41.85 42.54 42.48 38.65 33.15 31.07 34.90 31.34 36.25 35.74 35.41 37.03 38.01 38.55 38.70 39.27 38.67

GFSGL_sfc_wetblb_015.txt.gz
Wetbulb
70.67 70.26 69.20 69.60 69.71 69.80 69.40 69.72 69.66 69.58 69.72 69.11 67.80 67.34 68.46 69.99 70.69 69.74 68.75 68.38 68.02 68.35 68.61 68.16 69.17 69.98 69.82 69.92 70.16 69.89 69.04 68.68 65.71 66.90 66.99 67.53 67.15 67.17 65.75 66.16 66.53 66.45 64.48
70.84 70.45 69.17 70.10 69.82 69.25 68.99 69.23 69.74 68.72 69.20 69.18 66.83 65.87 66.03 67.32 68.77 69.29 67.78 67.78 66.97 66.82 67.36 67.18 67.59 69.21 69.33 70.19 69.80 68.67 66.01 65.74 64.38 63.09 65.03 65.76 64.25 62.09 61.80 60.97 62.02 62.24 62.01
70.88 70.61 69.16 69.61 70.22 69.33 68.99 68.74 68.91 68.63 68.31 68.08 67.97 66.92 66.37 66.01 65.39 64.87 64.46 63.64 62.88 64.20 66.43 67.08 66.79 67.21 66.35 66.19 65.90 65.71 65.62 65.98 65.78 64.40 63.13 64.58 63.11 61.09 58.84 58.63 58.65 59.62 60.32
70.79 70.45 69.64 69.03 70.10 70.13 68.95 68.33 68.11 68.20 67.62 67.37 67.38 67.16 66.73 66.52 66.58 65.65 64.63 63.24 61.81 61.58 61.75 61.79 61.93 61.97 62.44 63.20 63.22 62.70 64.01 64.19 63.95 63.41 62.59 62.22 61.12 60.57 60.23 58.08 56.27 57.37 56.47
70.32 69.91 70.25 69.50 69.74 69.13 67.11 67.14 67.22 67.04 66.68 66.97 66.81 66.50 66.14 64.75 63.24 64.08 64.10 63.64 60.60 59.13 58.69 59.43 60.15 60.72 60.76 61.19 60.67 59.85 61.64 62.72 62.54 62.46 61.87 61.96 61.12 60.57 59.47 58.02 56.13 55.56 55.58
69.79 69.84 70.85 70.01 69.45 68.32 65.12 66.52 66.20 65.72 65.58 65.76 65.03 64.66 64.05 62.25 57.49 59.35 62.90 62.15 61.14 60.56 58.75 57.92 56.07 56.11 56.72 56.81 57.28 57.68 58.63 59.95 60.75 60.69 59.28 57.78 54.66 56.15 57.37 58.68 55.75 55.14 52.71
69.18 70.01 70.38 70.06 69.15 67.17 64.68 65.60 64.95 63.69 63.05 62.50 63.16 63.23 61.85 60.98 54.90 55.89 59.00 61.69 60.12 59.29 59.11 57.60 55.10 53.82 53.83 53.80 53.89 54.42 54.91 55.95 56.89 57.42 53.91 53.53 52.97 52.64 56.49 56.61 55.99 53.48 52.45
64.90 67.97 70.26 69.38 68.27 64.99 65.19 64.38 63.14 63.50 61.67 59.78 59.55 59.41 59.92 56.56 52.23 53.08 56.45 61.09 58.05 57.01 56.80 57.91 57.85 56.92 55.74 56.04 55.54 54.65 54.17 55.01 56.01 55.55 55.59 54.69 52.93 55.24 56.23 56.09 52.80 51.51 52.12
61.84 62.68 65.45 67.74 65.83 64.32 63.64 61.99 61.56 61.35 61.31 59.38 57.99 57.90 58.37 56.60 50.34 51.43 57.26 58.65 56.40 56.56 56.85 57.69 57.34 56.18 52.07 53.35 56.35 54.89 54.06 52.59 50.96 51.39 51.37 51.56 51.64 51.71 53.54 55.64 52.42 54.99 52.61
58.55 58.49 59.78 65.83 63.92 62.69 61.29 59.76 60.03 60.74 59.88 59.05 55.42 54.95 52.83 54.64 48.35 49.45 55.48 57.14 55.95 55.47 56.28 54.99 50.12 53.04 48.74 50.01 57.24 56.29 53.82 53.30 53.09 53.04 52.99 52.86 52.68 50.77 51.72 54.34 52.71 51.47 51.92
55.40 55.83 56.13 57.11 57.89 57.49 57.20 58.36 57.56 57.78 56.85 53.72 53.08 52.99 52.59 52.21 50.89 47.76 49.60 54.57 53.53 52.86 52.68 51.31 50.41 46.50 45.20 46.09 49.47 53.71 51.78 51.09 51.05 49.95 49.33 49.84 49.44 49.17 48.87 51.48 53.36 51.63 50.57
54.24 53.83 53.39 52.84 52.84 52.72 52.87 53.50 53.70 55.83 55.46 53.39 51.60 49.40 51.75 50.91 49.23 47.64 47.79 49.27 51.35 49.26 48.25 47.79 46.54 43.70 43.06 43.67 45.71 44.80 46.18 50.23 51.36 50.23 48.67 47.61 47.61 47.83 48.76 49.96 52.47 53.46 53.89
52.21 51.70 51.88 51.70 51.66 51.79 51.43 51.55 50.74 52.00 50.94 50.26 48.49 48.69 48.92 50.33 50.67 47.10 46.96 47.85 48.97 48.82 48.63 45.90 44.92 43.07 43.66 45.56 45.20 45.42 47.54 50.51 49.32 47.61 46.85 46.60 46.92 48.45 49.79 50.14 50.95 53.57 54.13
50.45 50.58 50.98 50.51 50.37 50.62 50.58 51.42 51.22 49.96 48.96 48.22 48.57 48.73 50.03 50.43 50.79 51.22 50.83 49.21 49.25 49.45 48.87 49.40 46.76 46.79 45.79 47.95 49.28 49.03 49.25 48.96 47.98 47.13 46.78 47.20 47.84 47.51 47.03 48.46 47.45 48.81 49.09
50.16 49.57 48.98 48.64 47.86 45.85 44.19 46.41 48.22 48.40 49.47 49.09 49.27 50.62 48.79 47.90 48.11 46.14 46.81 46.86 48.14 46.97 49.61 49.99 49.09 48.51 47.99 47.99 48.06 48.25 48.49 48.59 47.41 47.58 46.85 46.20 46.14 46.52 46.30 47.84 47.28 47.26 45.84
51.58 50.40 49.61 47.55 45.79 44.98 44.34 42.09 41.97 41.92 41.00 40.33 41.44 46.14 45.42 42.65 39.76 39.20 39.12 39.33 39.73 40.94 48.79 48.50 47.75 47.31 46.44 46.68 46.82 46.65 47.44 46.67 47.01 46.62 46.11 45.35 44.67 45.08 45.90 46.67 46.94 46.07 45.39
52.49 51.20 48.68 48.68 47.51 43.84 47.25 45.91 42.55 40.97 39.76 38.56 38.18 38.44 39.51 39.16 37.83 37.95 37.74 37.97 38.99 42.53 48.24 47.79 47.15 46.86 46.50 46.55 46.94 46.87 45.97 46.19 47.27 46.02 45.21 44.69 44.92 44.90 46.53 44.85 45.68 46.41 45.83
48.33 44.79 46.87 46.01 45.88 45.87 46.25 46.74 48.30 48.39 47.84 46.94 39.27 40.60 36.94 37.04 37.66 37.63 38.55 41.11 46.72 46.69 47.76 46.78 46.53 46.86 46.55 46.03 46.41 46.28 45.66 45.62 45.75 45.83 45.43 44.72 44.53 44.63 44.85 44.79 45.33 44.50 45.55
46.99 46.59 46.62 46.10 46.00 45.35 45.83 45.82 46.26 46.69 46.97 46.62 46.64 42.20 41.37 37.10 37.22 37.70 38.92 49.46 47.17 46.69 46.99 46.65 46.80 45.88 46.07 46.81 46.43 47.07 47.55 46.67 46.52 46.27 46.10 45.69 45.61 45.61 45.51 45.57 45.50 38.98 40.12
47.03 44.39 47.19 47.47 46.61 46.68 46.48 46.76 46.83 46.80 46.61 46.97 47.34 47.53 47.23 45.17 47.07 47.78 48.59 48.78 47.72 47.51 47.04 46.71 46.49 46.08 45.97 46.47 46.82 47.36 46.54 45.52 45.57 45.68 46.76 46.61 46.55 46.01 45.58 44.94 45.39 44.04 45.61
49.43 48.02 46.18 49.35 49.39 49.12 48.58 47.93 47.62 47.63 47.18 46.97 47.38 46.47 38.48 47.50 47.80 47.87 47.96 48.26 47.40 47.57 47.13 46.99 46.69 46.06 46.21 46.68 47.08 46.86 47.25 46.94 45.97 45.95 45.63 45.90 46.61 45.00 45.78 45.68 45.40 46.03 46.10
50.45 50.47 50.33 51.05 50.48 49.85 50.01 50.18 48.86 48.06 47.62 47.23 47.44 46.42 37.74 45.70 47.32 47.70 47.55 47.40 47.75 48.17 48.05 47.50 46.94 46.93 46.98 46.63 46.61 46.55 46.34 46.16 46.22 45.48 45.28 45.13 45.05 44.84 44.24 44.17 44.56 44.60 44.75
52.55 52.11 51.97 51.77 51.13 48.99 49.11 49.78 49.59 49.19 48.90 48.51 48.26 47.37 46.75 46.60 47.41 47.96 48.05 48.11 47.83 47.37 47.22 47.29 47.01 46.74 47.33 47.63 48.00 47.55 46.19 45.98 46.53 46.61 45.35 44.79 44.32 43.29 42.79 43.32 43.41 43.14 43.21
53.60 53.58 53.40 53.76 53.87 53.16 52.70 52.02 51.66 46.33 50.12 50.28 50.01 49.42 48.97 48.40 48.45 48.94 48.55 48.27 47.92 48.18 48.38 48.00 47.60 47.11 47.57 47.91 48.12 47.96 47.27 46.90 47.09 46.44 45.88 44.64 43.49 40.54 41.99 42.95 43.11 42.48 43.03
53.61 53.64 54.45 54.91 53.75 53.06 53.27 52.75 52.68 52.29 51.80 50.79 50.81 50.69 50.65 50.28 49.01 49.19 49.38 48.96 48.56 48.40 48.47 48.33 48.22 48.09 48.07 48.42 48.01 47.05 40.72 33.59 43.32 39.96 45.41 44.08 41.97 41.15 41.73 42.71 42.91 43.04 42.44
54.38 53.95 51.68 52.99 53.00 53.06 52.57 52.20 51.98 51.71 51.32 51.81 51.86 51.56 51.38 50.85 50.02 49.08 49.39 48.91 48.62 48.61 48.62 48.66 48.77 48.92 48.87 48.74 48.35 42.77 33.70 31.41 38.22 32.59 43.60 42.79 42.17 41.67 41.21 42.51 42.76 42.93 42.21

GFSGL_sfc_wetblb_018.txt.gz
Wetbulb
72.70 72.27 71.37 71.95 72.03 72.07 71.36 71.56 70.39 70.94 70.98 70.84 69.73 69.33 70.76 71.82 72.49 73.04 72.15 70.17 69.86 69.72 69.74 70.05 70.22 71.74 71.36 71.51 73.95 73.09 72.48 71.79 68.29 71.42 70.32 71.23 68.68 66.76 65.04 64.99 64.52 64.71 63.51
72.67 72.35 71.67 72.37 72.72 71.66 71.31 71.34 70.72 70.27 70.39 69.95 69.96 68.94 68.61 68.98 70.37 70.52 69.31 68.89 68.23 67.84 68.06 68.35 68.51 69.28 71.15 72.29 72.39 71.27 71.08 70.50 68.10 64.53 66.13 65.73 62.64 61.31 60.74 60.28 61.09 61.80 61.73
72.49 72.34 71.65 72.07 72.54 71.68 70.93 71.06 71.09 69.99 69.69 69.65 69.31 68.51 68.64 68.18 67.02 66.20 65.87 65.18 63.52 64.98 65.53 65.73 66.25 68.47 67.62 67.66 65.92 65.96 67.41 67.26 66.80 65.15 64.66 64.94 61.05 60.39 58.72 59.02 59.06 58.90 59.46
72.53 72.56 71.83 72.40 72.74 71.56 70.53 69.85 70.33 69.72 69.50 69.35 69.28 68.40 68.27 68.00 68.32 67.79 66.76 65.03 64.07 63.07 63.33 62.85 62.44 62.98 63.57 63.78 63.00 63.38 64.95 64.33 63.95 63.29 62.43 61.68 61.26 60.99 60.27 58.30 56.37 57.76 56.69
72.46 72.00 72.01 72.80 72.95 72.13 69.67 68.97 69.28 68.94 68.77 68.36 67.92 67.96 68.29 67.25 66.21 67.21 66.10 65.68 64.24 62.71 60.10 59.61 60.47 60.82 60.37 61.17 62.02 61.60 63.78 63.25 63.22 62.54 62.02 61.35 59.67 59.56 59.18 58.78 55.57 55.06 55.08
72.51 71.91 72.60 72.56 71.96 70.71 69.42 68.55 68.65 67.38 67.29 66.92 66.46 66.75 66.45 64.64 57.41 60.09 64.59 64.55 63.95 63.11 61.13 60.33 59.75 57.68 56.53 56.79 57.56 58.16 59.76 63.09 61.57 60.83 57.84 56.15 55.95 58.05 58.99 58.58 55.39 55.06 52.41
72.14 71.93 72.22 72.29 71.49 69.74 69.59 68.71 67.74 66.00 65.88 65.10 65.03 65.71 64.97 62.85 55.93 57.13 61.32 65.09 63.90 63.28 62.56 60.61 59.62 58.19 57.56 58.92 57.33 57.53 57.29 57.57 59.39 61.20 56.56 55.18 54.76 56.09 59.04 58.65 56.47 54.90 53.87
69.20 69.52 71.05 71.53 70.44 68.56 69.37 67.50 66.52 65.19 64.28 64.08 64.48 65.09 64.08 58.38 53.49 54.76 59.63 63.62 62.70 62.88 62.88 62.38 61.46 60.53 59.64 60.62 59.26 57.44 56.75 57.24 58.83 58.64 58.68 57.95 57.69 58.62 59.07 57.71 56.42 55.28 53.58
66.34 65.30 66.35 66.05 69.53 67.23 67.45 66.23 67.03 64.53 63.04 63.28 65.02 65.01 63.86 60.26 51.52 52.38 59.55 62.18 61.16 60.96 61.03 60.35 59.81 58.57 52.99 54.41 59.39 57.48 55.84 53.77 51.82 51.98 51.64 50.92 51.45 52.19 54.76 60.11 56.91 54.60 52.51
62.36 63.47 64.03 63.60 67.12 66.56 67.09 65.34 65.93 64.45 63.74 62.74 62.80 63.03 56.51 60.15 49.11 50.26 56.79 61.60 60.48 58.81 58.95 57.66 50.44 54.45 49.41 50.40 60.51 59.29 56.60 56.24 56.32 56.38 56.21 54.13 54.35 53.00 53.51 57.36 56.59 55.78 57.44
60.12 59.14 58.39 58.35 60.86 62.67 62.89 64.26 62.37 63.07 62.20 61.60 58.30 54.09 55.48 55.90 55.21 48.60 50.24 62.40 60.51 58.60 55.04 53.06 51.13 46.70 46.10 47.09 50.70 57.23 54.22 54.21 53.50 55.46 54.86 53.59 53.49 53.46 53.24 55.24 56.17 54.80 54.26
57.98 57.06 56.01 55.23 54.49 55.31 56.67 58.73 59.70 58.63 58.91 59.28 58.19 55.77 54.74 54.43 49.20 47.69 47.76 49.87 53.42 54.28 49.92 50.39 49.19 43.91 43.34 44.76 49.81 45.87 47.02 51.15 55.56 53.49 51.83 50.97 50.89 51.12 52.16 53.41 55.30 55.61 54.67
55.40 54.56 54.24 53.78 53.17 53.02 52.96 54.22 52.79 53.28 52.49 50.81 50.37 48.97 49.69 51.53 49.84 46.73 46.92 48.36 49.61 52.22 52.78 47.83 45.23 42.86 43.43 46.20 45.97 46.32 47.22 54.32 52.97 51.46 50.20 49.97 50.53 51.47 53.47 53.36 54.79 56.04 55.14
54.15 52.95 52.38 52.34 52.11 52.63 52.74 52.69 51.85 51.63 50.06 49.48 49.24 49.42 50.96 52.02 52.18 51.79 50.68 49.05 48.79 48.05 48.41 50.62 49.35 48.07 46.76 49.95 50.70 51.97 52.21 52.12 51.27 50.54 50.11 50.67 51.57 51.16 50.40 51.82 51.21 53.32 53.52
54.41 53.85 52.74 51.57 49.40 47.02 44.98 47.05 49.15 49.01 50.29 52.00 51.89 51.97 50.31 50.39 50.68 47.06 48.27 52.57 50.64 49.29 48.93 52.16 52.58 52.61 51.67 51.33 51.67 52.19 52.35 52.27 51.09 50.91 50.24 49.68 49.71 50.31 49.54 51.27 51.20 51.85 49.73
55.49 54.29 52.03 49.99 48.52 48.09 46.89 45.08 42.51 42.60 41.78 40.96 43.11 47.62 46.11 42.80 40.21 39.71 40.14 40.20 42.17 43.50 51.27 52.97 52.86 53.02 52.41 52.12 51.25 50.57 50.65 49.62 50.57 50.31 49.38 48.92 48.79 49.01 49.95 50.90 51.40 50.20 49.12
56.30 55.73 54.48 54.53 54.08 52.39 50.29 48.81 45.70 42.47 40.38 39.07 38.49 38.19 40.34 39.82 38.73 38.41 38.39 38.94 40.53 42.27 51.72 53.11 52.33 52.61 51.89 51.72 51.23 51.46 49.80 49.60 51.72 50.18 49.31 49.09 49.40 48.09 47.86 49.07 50.17 50.15 49.64
54.81 47.58 52.81 52.16 51.73 51.80 52.61 53.67 54.23 53.53 51.82 50.19 39.88 42.50 37.65 38.41 38.51 38.20 38.59 39.83 48.48 47.72 52.47 51.39 51.78 51.89 51.31 50.73 51.03 50.56 48.95 48.66 49.39 49.99 49.80 49.48 49.40 48.35 48.92 48.84 49.01 47.94 49.34
52.25 51.75 51.91 51.63 51.51 50.87 51.73 51.56 51.59 51.75 51.39 50.67 49.85 43.99 42.35 38.52 38.40 38.71 39.89 49.91 51.99 51.44 51.31 50.69 51.25 50.76 50.78 50.20 50.51 50.29 49.83 48.18 47.94 48.41 49.58 50.02 50.02 48.35 48.99 48.58 47.13 40.90 41.82
52.49 48.97 52.05 52.48 52.26 52.48 52.70 52.48 51.75 51.23 51.14 50.94 50.71 50.38 50.02 47.48 48.74 49.53 50.14 51.26 50.95 50.99 51.37 50.88 50.30 50.48 50.59 50.27 49.38 48.98 47.77 47.64 47.82 48.04 49.02 50.10 49.80 48.21 47.68 47.00 47.36 46.60 47.33
53.40 52.73 49.22 54.42 54.15 54.08 53.89 53.40 53.37 53.17 51.67 51.05 51.10 48.91 39.70 49.97 50.86 50.43 50.66 50.77 50.69 50.80 50.63 50.12 49.93 49.56 49.40 49.19 48.93 48.66 48.08 48.20 48.61 48.48 48.42 48.18 49.17 47.01 48.10 46.98 46.65 47.06 47.42
55.15 54.52 55.51 55.73 55.60 55.58 56.63 56.64 56.00 55.35 54.59 52.77 51.14 48.49 39.61 48.00 50.01 50.11 50.31 50.54 50.92 50.49 50.54 50.09 49.64 50.06 49.64 49.27 48.88 48.40 48.42 47.91 48.34 48.37 48.02 48.02 47.75 47.22 46.72 46.07 46.30 46.53 46.76
56.08 56.35 56.30 57.28 57.34 53.16 54.79 55.14 55.18 54.90 54.38 53.73 52.73 50.97 49.38 48.91 49.51 49.93 50.03 50.47 50.67 50.64 51.12 50.17 49.45 49.00 49.45 49.89 49.85 49.74 48.73 48.70 49.05 49.32 48.29 47.83 47.32 46.67 46.13 45.16 45.79 45.73 45.78
57.71 58.20 57.21 57.21 57.61 56.70 56.40 56.23 56.19 50.11 53.75 54.57 54.03 53.01 52.35 51.18 50.19 49.98 50.56 51.18 50.86 50.79 50.69 50.60 50.19 49.43 49.61 49.74 50.03 50.17 49.95 49.45 49.30 48.65 48.78 47.83 47.09 44.85 44.63 44.58 45.70 45.69 45.62
58.64 57.50 57.42 56.36 56.00 55.66 55.29 54.98 55.06 55.63 55.52 55.30 54.67 54.16 53.93 53.36 52.55 52.26 52.22 52.09 51.50 51.03 50.97 51.09 50.81 50.67 50.45 50.32 50.34 50.41 41.66 35.52 44.21 37.03 48.28 47.78 46.80 46.49 44.63 44.48 45.40 45.65 45.72
57.06 58.37 56.23 55.17 52.95 55.56 54.22 54.09 54.67 55.51 55.65 55.62 55.04 54.74 54.91 54.20 54.52 53.83 52.52 52.33 52.08 51.80 51.70 51.54 51.62 51.75 51.45 50.93 50.81 45.48 34.36 32.74 40.76 33.52 45.79 46.85 45.85 45.46 45.13 44.33 44.79 45.36 45.43

GFSGL_sfc_wetblb_021.txt.gz
Wetbulb
73.62 72.86 72.63 72.46 72.46 73.80 72.40 72.29 71.57 71.79 71.51 70.85 70.55 70.53 70.82 71.75 72.57 73.17 71.91 71.55 71.29 71.04 71.07 70.44 70.65 72.30 73.19 75.55 75.98 75.00 72.26 71.89 68.21 68.84 69.65 70.65 66.01 65.63 64.29 64.37 64.14 62.97 62.88
73.65 73.16 72.65 72.74 72.46 71.84 71.88 71.72 71.45 70.79 71.73 70.77 70.45 70.15 70.16 69.43 70.69 70.33 68.91 69.02 68.84 68.44 68.81 69.33 69.30 70.55 71.46 72.36 72.39 71.64 71.23 71.39 69.62 67.64 68.53 64.90 61.74 60.82 60.72 60.00 60.31 61.30 60.42
73.58 73.09 72.59 72.39 72.88 71.66 71.48 71.05 71.26 70.47 70.25 70.05 69.82 69.11 69.50 69.52 68.91 68.71 68.07 66.65 66.31 65.40 65.66 65.37 66.46 67.99 66.82 66.77 67.34 67.47 68.00 68.59 68.15 66.38 65.01 63.53 60.75 60.42 59.00 59.10 58.48 57.99 59.02
72.95 72.55 72.43 72.40 72.85 72.27 71.55 71.03 70.79 70.36 70.28 69.49 69.55 69.10 69.20 68.59 68.23 67.93 67.33 66.19 65.09 63.96 63.55 63.96 64.45 64.26 64.99 65.46 64.99 65.31 66.40 65.26 64.35 63.24 62.06 61.36 61.34 60.97 60.67 58.34 55.73 56.93 56.13
72.73 72.38 72.52 73.02 72.82 72.57 71.59 70.95 70.18 69.74 69.43 69.11 68.70 68.79 67.89 67.39 65.83 67.36 66.22 65.43 64.75 63.56 62.71 60.76 60.26 60.73 60.39 61.25 63.82 63.98 65.33 64.44 63.94 63.02 61.39 59.90 59.34 59.28 58.94 58.60 55.73 55.41 55.37
72.23 71.77 73.40 72.98 72.59 72.11 71.39 69.65 69.50 68.27 68.40 68.56 67.84 66.97 66.74 65.12 58.30 60.77 65.23 65.93 64.45 64.10 63.79 63.99 63.80 62.30 59.17 58.55 59.26 59.47 62.59 64.10 62.37 60.10 59.27 57.43 57.89 58.45 59.73 57.87 55.73 54.91 52.09
73.21 73.12 73.02 72.99 72.49 71.98 71.55 69.91 67.98 67.34 67.37 67.53 66.97 66.98 65.85 63.76 56.97 58.12 62.14 65.23 64.53 64.00 63.69 63.12 62.21 61.22 62.32 61.40 58.90 58.93 58.94 59.33 61.01 62.27 58.89 58.17 57.93 58.47 60.25 58.01 57.30 56.52 54.76
71.88 71.69 72.04 72.55 72.31 72.58 71.16 69.57 68.16 66.76 66.12 65.92 65.64 65.61 64.55 60.45 54.31 54.59 58.37 65.71 64.54 63.91 63.45 63.08 62.60 61.52 58.62 60.89 59.26 57.04 55.76 55.85 58.96 59.48 59.28 59.30 59.86 61.67 60.45 59.83 59.17 57.05 56.19
69.35 68.49 67.80 69.49 70.70 69.79 69.88 68.23 67.78 66.10 65.47 65.25 65.55 64.74 64.48 62.15 53.49 54.44 58.13 64.48 63.37 62.29 60.86 58.54 60.79 59.66 53.66 54.27 59.89 57.44 55.89 54.05 51.77 51.66 51.67 52.42 52.57 52.93 55.38 59.76 58.66 57.57 55.36
65.01 65.12 65.06 64.76 67.39 68.15 68.18 67.15 67.48 65.81 65.42 64.45 64.18 63.63 59.29 62.33 50.31 51.72 54.95 62.69 61.81 59.92 59.93 57.96 51.07 53.85 50.30 51.44 61.54 60.07 58.10 58.05 58.47 57.58 55.90 54.42 56.18 54.78 55.03 60.05 57.14 56.09 57.41
62.89 62.41 61.75 59.76 59.72 64.16 64.92 65.68 65.64 65.57 64.18 63.72 61.26 61.18 59.18 53.25 53.94 49.60 50.73 62.54 61.34 60.10 58.21 55.49 53.90 48.20 46.95 47.97 51.96 59.93 56.59 56.82 55.49 57.51 56.09 54.46 54.96 55.01 54.68 56.30 58.29 55.63 54.28
60.65 59.77 58.14 57.20 56.33 57.21 58.55 59.52 59.38 62.80 62.29 61.03 60.04 60.01 56.90 54.94 48.94 47.94 47.89 49.73 55.40 57.43 55.46 54.13 50.46 44.88 44.23 44.95 51.50 46.32 47.48 50.60 56.23 54.37 52.89 52.05 52.29 52.46 53.41 55.15 56.68 55.89 55.76
58.74 57.87 56.54 55.22 54.40 54.39 54.44 55.26 54.34 54.52 57.47 55.85 50.64 50.62 50.62 50.11 50.12 47.52 47.03 48.98 50.06 55.62 54.72 48.18 45.83 43.75 44.43 47.22 46.77 47.28 48.64 54.32 54.10 53.03 51.52 51.24 51.76 52.60 55.42 55.39 56.94 56.91 56.41
57.44 55.37 54.19 52.84 51.59 51.94 52.88 53.46 52.45 51.78 51.67 49.81 50.10 51.98 51.21 52.25 51.92 52.54 51.14 50.21 48.52 47.85 48.64 49.92 49.94 49.91 47.18 49.79 50.02 52.60 54.06 53.58 52.67 51.85 51.48 51.95 53.23 52.45 51.58 52.13 51.63 52.79 52.79
58.48 56.87 55.20 52.57 49.78 47.88 46.57 48.32 50.49 48.60 50.82 52.31 52.96 53.19 53.13 51.45 49.63 45.32 47.89 51.85 52.69 50.18 50.47 48.96 48.03 53.72 53.54 53.40 53.60 53.79 53.50 53.48 52.81 52.53 51.99 51.30 50.84 51.19 50.63 51.58 50.71 51.34 49.82
58.46 57.58 55.59 54.47 53.40 52.45 50.61 48.24 43.43 43.43 42.69 41.86 43.38 47.50 46.41 43.56 41.09 41.01 41.10 42.22 43.02 44.15 49.97 52.47 53.80 53.64 53.21 53.03 52.72 52.51 52.34 50.28 51.98 51.59 50.90 49.84 49.26 48.97 49.79 50.64 50.58 49.74 48.99
57.88 57.70 56.55 56.59 56.76 55.69 54.31 52.70 49.35 44.26 40.85 39.20 39.35 39.97 41.19 41.02 39.61 39.32 39.26 40.19 42.74 43.44 51.53 53.89 53.69 53.16 52.68 52.11 51.31 51.11 51.55 51.12 52.07 50.58 49.90 49.25 48.84 48.68 47.03 48.47 49.30 49.01 49.46
59.58 50.32 58.83 57.58 56.98 56.86 57.48 57.53 56.82 55.22 53.15 50.79 40.96 44.94 38.82 39.65 39.76 39.24 39.29 40.50 49.18 47.63 51.30 53.25 52.67 52.57 51.51 50.83 50.65 50.85 50.78 50.27 49.90 49.92 49.89 48.63 48.31 47.56 47.76 48.25 47.98 47.77 48.09
54.93 54.38 54.32 54.04 53.84 53.18 53.99 53.83 53.63 53.88 53.32 52.44 50.59 44.76 42.75 39.62 39.37 39.61 40.56 49.43 51.57 52.15 52.53 52.27 52.44 51.68 50.47 50.89 50.43 50.52 50.64 49.37 48.99 49.03 48.41 48.69 48.98 48.25 48.68 47.77 47.86 41.50 41.54
54.62 53.07 54.02 54.25 54.18 54.61 54.69 53.96 53.11 52.88 53.39 52.78 52.10 51.81 50.72 47.98 48.86 49.35 49.79 51.57 51.80 51.21 52.11 51.03 51.67 51.21 50.72 50.73 50.02 49.93 49.64 49.09 48.81 48.13 48.85 49.14 48.89 48.58 47.74 47.77 47.30 47.08 47.19
54.44 54.62 50.53 55.70 55.40 55.23 54.99 54.54 54.18 53.92 53.30 52.84 53.43 48.55 40.47 50.97 51.91 52.17 52.07 51.97 51.94 51.71 51.80 51.29 50.39 50.69 50.80 50.45 49.74 49.69 49.24 49.11 49.18 49.17 49.13 49.17 48.89 47.90 48.79 47.96 47.59 47.65 47.43
55.90 55.61 56.98 55.98 56.24 56.58 56.30 57.22 56.94 56.02 55.46 54.51 52.62 49.82 42.79 49.37 51.02 51.76 51.77 51.82 51.93 52.32 51.61 51.15 50.71 50.74 50.61 50.09 50.20 49.28 48.65 48.38 48.98 48.98 48.92 49.06 49.08 48.60 48.28 47.46 47.14 47.36 47.31
57.05 56.87 56.52 56.83 57.79 53.06 56.22 56.59 56.39 56.12 55.68 55.57 55.29 53.22 50.73 49.90 50.30 51.11 51.52 51.96 52.25 52.09 51.87 51.23 50.36 49.63 50.19 50.50 50.78 50.40 48.80 48.89 49.84 50.25 49.38 48.90 48.55 48.33 47.99 47.16 46.37 46.75 46.87
57.44 58.05 57.12 56.64 55.96 56.61 56.61 56.51 55.94 50.98 55.57 55.49 55.35 55.11 54.34 53.92 53.08 53.04 52.60 52.87 52.94 52.72 52.29 51.76 51.46 51.19 51.25 50.79 50.90 50.64 50.48 50.53 50.51 49.63 49.76 48.87 48.49 47.34 47.53 46.90 45.58 46.43 46.95
57.82 57.38 57.43 57.26 55.98 55.39 55.32 56.77 55.68 55.90 55.13 54.97 54.70 55.30 54.92 54.88 54.60 54.46 54.56 54.07 53.74 53.22 52.97 52.62 52.16 52.19 51.88 51.54 50.98 50.90 43.20 35.10 46.20 37.37 47.53 48.36 48.29 48.34 47.45 46.99 45.99 45.62 46.59
57.78 57.21 55.93 55.91 56.13 56.27 55.51 55.46 54.98 54.86 54.34 55.16 55.42 55.43 55.65 55.13 55.21 55.34 54.92 54.84 54.37 53.71 53.42 53.33 53.22 52.79 52.78 52.47 52.01 46.72 34.99 32.71 42.34 35.37 46.55 47.21 46.68 46.92 46.82 46.29 45.95 45.04 45.81

GFSGL_sfc_wetblb_024.txt.gz
Wetbulb
74.12 74.21 74.00 74.32 73.12 73.80 71.53 72.01 71.34 71.89 71.44 70.44 70.03 69.74 69.30 69.68 71.17 71.10 70.12 70.59 70.09 70.15 69.99 69.78 69.84 70.62 70.45 70.37 71.47 70.52 69.04 68.31 66.14 67.29 68.32 66.04 62.41 62.18 61.61 61.79 61.48 60.79 61.52
74.37 74.01 74.37 74.15 73.18 72.47 71.54 72.03 71.93 70.68 70.81 69.98 69.54 70.02 70.17 69.38 68.74 68.48 67.85 67.92 67.42 67.10 66.66 68.13 68.02 69.38 68.99 69.56 70.10 69.53 69.20 68.93 67.22 64.91 66.79 60.98 60.33 61.02 60.36 58.94 59.41 60.16 59.46
73.70 73.54 73.62 73.37 72.74 72.63 71.29 71.93 71.51 70.10 69.96 69.53 69.13 69.38 68.24 67.63 67.43 67.38 66.88 65.23 65.04 64.82 64.90 64.72 64.81 65.77 64.94 65.77 66.73 67.22 67.54 67.71 67.42 65.80 62.21 61.36 59.97 60.01 58.24 58.28 57.40 57.18 59.22
73.40 73.05 73.32 72.58 73.04 72.32 72.52 71.56 71.21 70.80 69.47 69.68 68.98 68.71 68.68 67.96 66.32 66.22 65.90 65.01 64.22 63.27 62.88 62.59 62.84 63.36 64.47 65.14 65.52 65.47 65.62 65.01 63.94 62.14 60.84 60.38 60.13 60.17 59.81 56.48 54.57 56.28 56.10
73.95 72.97 73.76 71.61 72.08 72.55 71.47 71.17 70.78 69.99 68.34 69.18 69.13 68.14 67.53 65.82 62.95 65.04 64.97 64.39 63.78 62.73 62.46 61.94 60.89 61.08 61.25 62.52 63.75 64.16 64.80 63.87 62.52 60.43 59.01 58.62 58.35 58.53 57.98 57.12 54.55 54.33 54.43
73.52 72.55 74.00 72.03 72.43 71.81 71.22 70.06 70.12 68.25 67.92 69.16 68.12 66.66 64.88 62.68 58.49 59.73 64.39 63.99 63.62 63.12 61.96 63.03 62.33 61.07 59.38 59.73 60.30 60.45 62.18 63.90 61.12 59.86 58.89 57.94 57.88 58.27 58.88 56.34 54.82 54.77 52.34
72.99 72.75 71.93 72.98 72.28 71.01 70.88 68.30 68.62 67.54 67.24 67.87 67.09 66.02 63.82 61.70 56.48 57.60 59.60 64.39 63.60 63.68 63.64 62.83 61.59 60.39 61.43 60.54 59.18 58.82 58.00 59.90 61.12 60.62 58.31 58.53 58.00 58.49 58.87 57.08 57.05 56.17 54.09
71.05 70.57 70.70 70.53 71.63 71.84 70.71 69.20 68.61 67.08 65.37 65.09 65.83 65.45 62.51 57.72 55.73 54.45 56.28 63.76 62.81 61.24 60.58 62.33 61.30 58.83 56.44 59.01 55.69 52.64 51.28 52.17 55.48 57.24 56.92 57.41 55.77 59.84 60.25 59.44 58.11 55.92 56.13
67.90 67.82 67.07 65.92 67.33 71.28 67.71 67.06 67.57 66.46 65.92 65.89 65.70 65.12 63.09 58.81 52.93 52.31 58.31 63.27 61.43 60.24 58.31 55.52 60.04 58.25 53.91 54.14 57.85 55.48 53.61 51.19 51.22 52.29 52.79 52.81 53.00 53.71 55.58 58.82 57.25 55.79 54.40
64.23 62.89 63.31 62.85 62.53 67.96 67.95 66.71 66.79 66.56 64.48 64.48 63.17 61.94 58.31 58.00 50.75 50.02 53.74 63.93 61.11 58.34 58.52 56.45 51.93 51.33 50.69 51.18 61.88 60.30 57.87 58.30 57.41 54.58 53.94 53.54 55.92 54.65 56.40 56.90 54.25 53.23 53.99
62.05 61.37 60.64 59.35 59.00 61.59 64.45 64.87 65.63 64.29 63.96 62.22 61.79 60.42 57.70 53.14 53.38 49.02 50.33 58.53 61.49 59.26 56.45 54.77 53.66 48.38 46.58 47.11 51.59 55.55 53.59 55.43 56.34 57.50 56.03 55.61 55.30 53.37 54.16 55.19 54.53 52.98 51.42
59.71 58.14 57.06 56.42 56.48 57.50 58.58 58.59 59.83 62.24 60.80 59.74 58.82 55.63 52.99 52.30 48.83 47.87 47.93 49.80 56.09 56.49 55.00 53.79 51.64 45.49 44.71 45.53 50.42 46.33 47.78 49.79 54.20 55.21 52.81 51.36 51.32 51.81 52.83 54.60 54.91 54.42 54.66
58.00 56.51 55.50 54.81 54.56 54.37 54.87 55.17 54.91 54.79 54.43 53.28 52.14 52.17 50.20 51.54 51.42 47.37 46.18 48.43 51.47 54.98 51.04 47.43 46.31 44.31 44.29 47.63 47.25 48.02 48.58 52.13 54.28 52.88 51.65 51.22 51.08 51.44 54.12 55.14 55.61 55.33 54.90
56.27 55.28 53.85 52.50 51.82 52.15 53.04 52.78 52.72 52.70 51.85 50.62 50.77 50.67 51.04 52.13 52.80 51.92 50.63 48.87 48.83 48.64 49.47 50.01 49.67 50.19 48.67 51.08 49.50 53.21 53.56 51.88 52.08 52.20 51.46 51.82 53.00 52.06 51.12 51.17 52.47 53.19 51.56
57.39 56.09 54.77 53.79 52.41 49.94 47.92 49.20 51.31 50.19 51.52 52.33 52.43 52.70 52.16 51.84 49.82 45.63 46.63 52.81 53.61 50.44 51.48 52.02 48.01 47.19 48.63 53.70 53.68 53.60 53.82 53.89 52.96 52.37 51.62 50.36 49.77 50.45 49.28 50.59 49.64 50.48 48.82
58.60 57.37 56.41 55.38 54.55 53.65 51.70 49.09 44.31 44.14 42.96 42.49 44.05 47.96 46.71 44.21 42.19 41.27 41.42 42.43 43.38 44.40 50.58 50.80 51.02 53.18 53.09 52.91 52.91 52.53 52.14 50.99 52.06 51.38 50.25 49.36 48.50 47.90 47.28 49.80 48.70 47.92 47.08
59.45 58.58 56.96 56.52 55.97 54.69 53.94 52.93 49.44 45.41 41.25 40.37 40.01 39.68 40.78 41.24 40.12 40.01 40.11 40.41 42.89 44.36 49.09 51.17 54.26 53.37 52.77 52.04 51.58 51.49 50.83 50.85 51.42 50.93 49.50 48.50 47.95 48.48 45.83 47.54 48.25 47.73 47.68
61.05 54.18 60.16 59.67 58.62 57.84 57.12 56.44 54.36 52.45 51.20 49.17 41.90 44.19 39.93 40.43 40.72 40.00 39.85 42.23 48.66 46.30 47.72 51.61 53.15 52.90 52.18 51.85 51.27 51.50 51.40 50.32 49.78 49.59 49.17 48.39 47.86 47.61 46.75 46.64 46.56 46.43 44.77
58.55 56.30 56.38 55.72 55.04 55.28 56.52 55.16 53.72 54.90 53.36 51.19 48.86 43.70 41.88 39.93 39.74 39.74 40.57 46.64 49.28 51.12 52.76 52.98 52.84 52.76 51.96 52.23 51.52 51.30 51.11 49.55 47.48 48.88 48.68 48.68 48.70 47.64 46.70 46.85 45.55 43.25 42.21
55.37 54.24 54.70 55.50 54.25 55.45 54.60 53.62 53.14 53.98 54.99 53.50 52.26 50.59 48.71 46.72 47.52 48.62 48.71 50.13 50.96 52.18 52.38 53.08 53.24 52.53 52.27 51.56 51.09 51.08 50.33 49.23 48.93 48.13 48.01 47.60 49.25 47.92 46.37 46.51 46.04 45.17 44.24
53.79 54.38 54.19 55.30 54.98 54.81 54.45 54.18 54.25 54.11 53.30 52.50 52.02 48.09 45.95 50.88 51.07 51.85 51.70 51.56 52.39 53.08 53.65 53.27 51.53 52.24 52.61 52.74 50.92 50.01 49.32 48.75 49.00 49.11 48.79 48.66 49.17 47.07 47.61 47.57 46.43 46.17 45.87
55.72 55.48 56.11 55.44 55.78 56.61 55.34 55.81 55.78 54.84 54.25 53.33 52.07 48.62 43.92 49.60 49.54 50.72 53.60 53.97 54.39 55.04 54.17 54.04 51.70 51.54 50.90 51.32 50.80 49.32 49.36 48.11 47.94 49.08 48.94 48.41 48.22 48.16 47.67 46.57 46.20 45.57 45.55
56.51 56.26 56.07 56.46 57.08 54.76 56.38 56.40 55.06 56.86 55.86 55.84 54.73 49.74 47.91 50.43 50.18 50.94 51.66 52.78 54.96 55.01 54.90 53.92 52.54 51.46 51.15 51.38 52.13 51.70 48.94 48.87 49.34 50.00 49.34 48.54 48.00 47.55 47.20 46.37 45.62 44.63 44.45
57.29 57.40 56.92 54.72 55.21 56.13 56.41 56.55 56.31 51.88 54.98 55.66 55.76 55.26 53.94 53.28 54.13 54.80 54.25 54.90 55.12 55.28 54.98 53.32 52.71 51.56 52.44 53.10 52.33 52.08 50.77 50.63 50.56 49.44 50.16 47.44 46.76 46.37 46.33 46.03 45.55 45.33 44.26
57.79 57.80 57.14 55.78 55.59 55.61 55.97 55.87 55.46 55.06 53.70 55.49 55.13 55.61 54.54 54.61 53.52 54.84 55.60 56.82 56.32 55.47 55.12 55.21 54.66 53.74 53.45 53.37 52.61 52.15 45.59 36.96 46.89 41.51 48.03 47.55 46.26 46.13 46.50 45.72 45.70 45.82 45.21
54.73 55.21 54.79 54.99 54.12 54.89 53.84 54.11 54.21 54.73 53.80 53.38 54.19 53.93 54.65 54.64 54.27 54.18 54.78 55.85 55.15 55.51 53.87 55.24 54.11 52.89 52.21 52.56 50.11 43.96 38.38 34.43 40.46 36.25 48.05 48.09 45.98 44.96 44.98 45.41 45.76 44.79 44.55

GFSGL_sfc_wetblb_027.txt.gz
Wetbulb
69.76 69.48 68.65 69.11 68.97 68.18 68.18 66.88 68.18 67.53 67.44 67.43 68.47 68.24 67.33 66.44 66.66 66.12 66.10 65.94 65.62 65.03 66.91 67.20 67.13 67.47 66.90 67.01 67.08 66.61 65.78 64.90 61.78 64.93 65.08 63.28 62.38 61.28 60.75 60.29 60.60 60.14 60.72
70.21 68.52 68.96 69.02 68.19 67.80 67.76 66.89 67.42 67.56 67.18 67.13 67.17 66.95 66.51 66.70 65.81 64.50 63.64 63.78 63.61 63.29 63.98 64.29 64.82 65.68 64.17 64.94 65.57 65.21 65.02 64.98 63.15 62.05 62.33 59.90 59.69 59.09 58.52 58.36 58.94 59.41 59.18
69.77 69.01 69.90 69.01 68.05 67.03 66.92 66.46 67.91 67.61 65.81 65.15 65.90 64.98 64.19 65.57 65.41 65.04 63.68 62.72 62.19 62.09 61.95 61.86 62.38 63.79 62.80 63.83 63.67 63.64 63.43 64.18 63.41 62.60 60.46 60.34 59.27 58.52 57.16 57.36 57.12 57.70 58.74
69.57 69.21 69.11 68.92 68.16 67.22 67.27 66.45 66.80 67.67 65.68 64.73 64.57 64.38 62.80 62.82 64.72 64.34 63.14 61.94 61.50 60.28 59.26 59.08 59.07 59.87 62.25 62.43 61.99 62.15 62.06 61.40 61.03 60.43 59.93 59.25 59.07 59.33 58.12 55.23 54.22 56.14 54.81
70.71 69.60 69.18 69.47 69.38 68.51 67.37 66.64 65.94 65.39 64.80 65.04 63.36 62.16 61.26 60.69 62.09 63.80 63.52 62.59 61.07 60.02 58.31 57.97 58.07 61.02 61.95 61.90 60.05 60.09 60.81 59.75 58.51 57.98 58.29 58.02 58.23 58.25 57.30 56.22 53.86 53.63 54.19
69.13 69.87 69.67 69.39 68.17 67.18 66.53 66.26 65.23 65.34 65.68 63.99 61.99 60.88 59.42 58.43 57.45 60.00 62.99 62.12 62.01 60.95 58.77 57.53 57.48 58.06 59.06 58.87 58.23 59.45 60.84 58.02 57.12 56.40 57.74 56.62 56.88 57.78 56.86 54.90 53.36 53.24 51.35
69.73 70.11 69.16 69.03 67.94 67.80 67.02 66.62 65.13 64.10 64.83 62.46 61.15 59.82 57.49 54.79 55.43 56.82 61.50 61.21 60.72 60.38 59.83 56.73 55.55 56.47 55.08 51.51 52.91 53.75 55.10 58.78 59.43 58.50 55.44 56.78 56.78 58.02 57.26 55.06 55.92 53.02 52.37
67.13 66.39 65.74 65.87 66.32 67.18 67.00 66.39 64.87 64.40 63.38 62.40 60.83 57.95 54.69 52.57 53.58 53.64 59.38 58.04 55.86 54.26 54.52 56.66 54.10 52.42 53.39 50.31 47.30 45.77 45.18 48.18 51.97 53.64 52.15 50.22 50.85 56.30 55.96 55.26 52.81 51.51 51.80
62.43 62.13 61.68 62.15 62.69 65.71 66.55 65.83 64.98 63.80 63.38 62.19 62.10 59.21 53.99 50.20 51.28 51.48 57.13 56.99 54.89 52.24 51.03 51.93 52.15 50.66 52.68 54.61 50.27 47.04 45.91 45.48 50.84 52.60 52.55 52.63 53.79 54.78 54.73 56.14 52.21 50.71 49.62
60.31 59.92 58.98 58.89 60.81 65.29 66.39 65.94 64.60 64.21 62.87 60.19 58.25 55.88 55.52 49.96 49.67 49.59 53.75 56.77 53.61 52.29 51.08 49.57 51.86 49.18 49.64 52.12 52.42 50.73 48.14 47.35 47.36 47.69 47.91 49.19 51.40 52.05 54.32 49.81 48.90 48.82 49.56
57.96 57.18 56.88 57.38 58.01 60.38 63.05 64.62 64.15 62.61 60.21 58.99 56.75 53.23 51.04 49.53 49.26 48.43 49.83 55.64 55.07 52.14 49.93 48.75 46.96 48.02 46.53 47.83 48.50 49.26 47.85 48.21 49.64 49.94 49.91 49.03 46.83 48.26 49.01 48.75 48.80 48.03 45.76
56.14 55.76 55.18 55.06 55.74 57.32 58.04 58.59 61.16 60.75 59.17 56.80 53.14 50.68 50.11 49.31 48.46 47.24 47.76 50.73 53.74 51.52 49.01 49.06 46.61 45.18 43.93 46.18 45.66 46.30 47.50 47.49 44.46 46.77 44.19 44.06 44.99 45.05 47.50 48.96 48.01 48.35 48.25
55.23 53.97 53.33 53.49 53.62 54.19 54.99 55.25 55.31 55.37 54.35 52.56 51.65 49.82 49.51 50.21 50.97 47.49 46.39 48.71 50.58 48.74 47.65 47.04 46.42 45.00 44.61 46.32 47.13 47.43 47.72 45.71 46.45 44.13 42.38 42.36 42.51 44.15 47.17 49.30 48.96 48.95 47.87
53.86 52.54 52.15 51.38 50.78 52.00 52.20 52.54 52.88 52.58 51.67 51.31 50.57 50.02 50.74 51.21 49.81 48.87 47.64 46.22 48.46 47.13 48.73 47.95 48.58 48.14 48.07 48.97 45.68 46.82 43.90 43.07 44.06 42.94 42.08 42.72 44.63 44.15 42.82 45.33 47.29 47.61 45.98
53.95 52.45 51.13 49.60 47.54 47.65 46.55 48.18 50.20 47.74 50.33 51.70 51.64 51.96 51.55 49.70 47.45 43.92 44.62 47.49 49.00 45.08 47.71 46.99 44.28 42.41 41.64 42.56 46.25 44.98 44.61 44.95 43.85 42.24 41.59 41.44 41.67 43.03 42.08 42.65 41.91 42.34 45.06
53.33 52.56 51.43 50.17 49.29 48.37 47.04 45.31 44.69 44.08 43.35 42.34 43.48 47.43 46.72 44.17 42.48 41.59 41.15 41.86 44.11 44.30 44.38 44.03 44.55 44.81 45.08 43.92 43.39 43.74 42.69 44.87 42.57 43.00 41.29 40.21 40.95 39.66 39.34 41.24 42.75 41.44 41.23
53.08 52.86 52.35 51.88 51.09 49.87 48.27 45.88 43.57 42.65 41.79 40.95 40.14 40.22 42.22 41.83 40.86 39.88 40.07 40.34 42.96 42.67 41.08 42.40 43.76 43.65 42.84 43.02 43.04 42.95 41.51 42.05 42.49 42.97 40.94 41.49 40.71 41.41 40.70 41.26 42.82 42.48 42.05
55.34 53.85 53.07 52.78 52.21 51.15 50.82 49.30 46.58 44.09 43.07 41.83 40.50 40.88 39.65 39.99 40.27 39.44 39.46 41.10 41.77 41.88 39.31 40.10 43.81 43.51 42.60 42.34 42.80 42.86 43.06 42.33 42.97 42.61 42.39 42.80 42.45 42.15 41.16 41.26 41.90 41.20 39.01
55.42 51.77 49.40 48.63 50.02 51.23 52.09 51.49 49.46 48.33 45.78 43.86 40.20 40.00 39.01 39.21 39.38 39.04 39.05 39.11 39.93 41.70 44.16 43.23 43.82 43.04 42.42 43.30 43.20 42.39 41.56 41.77 41.03 41.44 41.49 42.38 43.03 42.99 41.31 41.97 41.93 41.56 40.15
48.77 51.80 49.82 47.65 46.42 47.72 47.38 46.58 46.55 47.15 45.95 44.38 42.53 41.58 40.33 40.13 39.87 40.55 40.31 40.87 41.98 43.44 43.75 42.94 44.11 43.26 44.07 43.39 42.62 42.50 42.16 42.45 41.71 42.12 42.34 42.01 42.31 42.99 41.19 41.45 41.57 40.48 38.67
48.00 47.92 51.78 48.53 48.78 48.40 48.13 47.43 47.14 46.59 46.22 46.80 46.46 45.03 42.57 41.98 42.57 42.87 43.22 43.09 43.36 44.20 44.26 43.79 42.90 43.99 44.27 43.96 42.42 42.71 42.31 42.51 42.62 43.19 42.65 42.24 43.22 42.30 41.90 41.71 41.57 41.91 40.81
49.73 49.39 49.17 49.16 49.59 49.67 48.95 48.89 48.75 49.24 47.41 46.01 44.02 43.75 41.98 43.24 43.18 42.83 43.26 45.71 46.48 46.10 45.15 43.97 43.27 43.30 42.81 43.78 44.67 44.29 42.80 42.21 41.95 42.13 42.76 44.08 43.47 43.08 43.03 41.89 41.09 40.97 40.51
50.41 50.92 50.34 50.91 51.16 50.98 50.64 50.84 50.96 51.72 50.99 49.97 47.16 43.29 41.89 42.36 42.65 42.91 43.74 44.76 45.38 45.59 45.82 45.76 44.63 43.67 43.74 44.00 44.16 45.29 43.43 43.27 43.38 43.66 43.33 42.60 42.39 42.36 41.98 41.53 41.54 40.51 39.83
53.93 53.06 52.42 51.99 51.87 52.02 52.47 52.38 51.84 48.72 50.02 49.76 47.92 44.94 43.61 44.87 46.34 45.65 46.99 48.01 47.24 47.54 47.76 47.45 45.44 44.85 44.26 45.00 45.16 44.70 44.80 44.43 43.86 43.12 42.86 41.22 40.56 40.02 39.82 39.84 40.34 40.48 39.49
53.86 53.19 52.27 51.26 51.42 51.93 51.18 49.95 50.94 49.99 49.18 48.26 50.69 49.42 49.87 49.72 49.22 49.44 49.94 50.45 49.25 50.44 48.71 49.16 47.16 44.71 41.17 40.06 39.49 39.41 35.41 32.39 38.82 41.83 42.32 40.55 40.14 39.64 38.85 38.67 39.35 39.61 39.80
50.72 51.26 50.77 50.27 49.43 50.09 49.68 48.74 48.75 48.47 46.94 47.30 48.40 48.51 48.25 48.26 48.34 48.22 47.66 47.64 47.57 46.33 43.83 41.41 38.63 37.42 37.77 36.75 35.22 33.89 32.33 31.81 35.55 32.84 36.96 41.07 39.93 39.44 38.96 38.70 38.89 38.91 39.16

GFSGL_sfc_wetblb_030.txt.gz
Wetbulb
68.49 68.09 67.60 66.90 66.99 66.36 65.17 65.73 65.25 64.52 65.33 67.46 67.23 65.43 64.84 64.21 63.72 63.26 63.18 63.22 62.81 63.01 63.87 64.77 64.16 64.59 65.28 66.16 66.21 65.98 65.19 64.83 61.27 61.88 62.54 62.52 61.19 59.68 59.70 59.79 60.22 59.57 60.24
68.73 67.38 67.54 67.07 66.87 65.98 64.89 64.69 65.83 64.47 64.73 65.60 63.93 63.45 63.85 63.72 62.64 63.18 62.72 62.37 61.21 60.82 61.04 61.84 62.75 63.79 62.75 63.68 64.49 64.13 64.01 63.60 62.55 59.86 60.17 59.89 58.54 58.70 58.78 58.25 58.61 59.34 58.97
68.37 67.84 66.80 66.65 66.22 65.57 64.80 64.76 65.75 64.00 63.63 64.18 63.62 62.53 62.53 62.85 62.15 61.49 60.51 60.33 59.37 58.68 58.78 58.62 59.52 61.18 61.41 61.32 61.59 61.66 61.45 61.68 62.39 61.27 58.74 59.62 58.22 58.03 56.69 57.13 57.29 56.83 57.79
68.37 67.86 67.12 66.62 66.00 65.24 65.20 65.07 65.40 64.62 63.45 62.88 61.96 61.04 60.86 61.90 62.11 61.13 60.34 59.03 58.25 57.29 57.31 57.59 58.90 60.95 61.48 59.74 60.59 60.39 59.78 60.81 61.31 59.86 58.52 58.02 58.16 57.51 56.87 55.14 54.27 55.14 53.56
68.24 67.59 68.16 67.32 66.18 65.63 65.12 64.51 63.64 63.59 63.38 61.57 60.37 59.41 58.82 60.13 61.02 60.82 60.59 59.42 57.96 56.61 56.43 57.34 58.39 59.71 59.70 60.37 58.70 58.96 58.52 57.61 58.88 59.04 58.20 58.38 57.86 56.07 55.26 55.50 53.69 53.14 53.72
68.35 67.98 68.42 67.74 66.89 65.54 64.78 64.13 63.61 63.70 62.05 60.31 59.06 58.38 56.50 56.76 56.34 60.03 60.83 60.54 59.00 57.37 56.25 55.39 55.97 55.78 54.68 57.17 58.43 60.87 59.68 56.41 54.93 57.74 57.45 56.89 57.27 56.05 55.55 53.89 52.69 52.01 51.16
68.61 68.17 67.82 67.43 66.99 65.45 65.00 64.59 63.94 63.02 61.43 58.92 58.07 56.41 53.08 52.69 54.68 58.21 60.18 56.96 56.69 56.79 53.60 52.84 53.53 53.55 50.53 48.62 52.24 54.36 56.58 58.67 58.73 56.78 54.01 54.65 56.43 57.81 56.51 54.32 54.35 54.50 52.35
64.32 64.16 64.42 65.52 66.04 65.88 65.41 64.58 64.11 63.44 61.88 58.52 57.65 53.88 51.50 51.64 52.70 55.93 57.29 54.29 53.13 53.86 54.16 52.47 51.10 50.80 50.46 46.88 45.58 45.12 45.70 49.84 52.40 52.96 50.68 52.10 56.17 56.61 55.19 54.15 51.85 49.92 50.66
61.42 61.18 61.31 61.63 62.39 66.62 66.02 64.12 64.10 62.62 61.93 60.20 57.52 53.86 50.77 49.64 50.29 51.77 55.08 52.53 50.71 49.81 50.63 50.88 50.16 49.75 53.06 51.82 47.85 46.69 45.62 45.48 50.58 52.58 53.18 53.63 54.04 53.94 55.57 54.19 51.70 50.26 47.74
59.08 58.60 58.42 60.25 61.52 65.67 65.56 63.56 64.18 63.45 59.83 58.52 55.29 53.51 52.30 49.19 48.98 49.08 54.74 53.33 49.98 49.34 48.22 47.31 51.26 48.98 50.25 51.43 48.94 47.82 48.00 48.07 46.94 47.68 47.76 49.16 49.32 50.72 52.48 48.60 48.07 49.24 51.57
56.77 55.85 56.15 57.35 58.58 61.68 64.54 64.77 62.85 59.94 58.08 54.93 52.51 51.07 48.99 48.56 50.03 47.84 51.36 54.83 53.37 49.54 47.86 46.62 45.10 47.62 46.72 46.54 49.02 48.56 47.25 46.17 46.83 48.28 47.72 45.79 45.27 46.43 46.34 46.37 46.32 47.59 45.22
56.15 55.99 54.67 55.05 56.05 57.65 60.17 61.64 60.76 59.25 56.29 53.26 51.42 50.57 49.55 49.64 47.93 47.10 48.23 51.64 51.87 48.88 48.21 45.70 44.53 44.51 43.70 44.91 45.15 45.62 46.58 47.00 43.82 44.41 45.23 43.17 42.86 43.28 46.30 46.39 46.11 46.48 46.25
54.53 54.25 53.22 52.96 53.81 54.48 55.82 56.61 56.25 55.89 54.30 52.55 51.01 50.14 50.30 51.07 50.19 47.00 46.44 48.14 49.83 48.48 47.17 46.79 47.17 45.29 45.08 45.86 46.64 46.93 45.37 43.42 42.51 41.41 40.23 39.90 39.62 43.03 45.26 46.84 46.78 45.72 45.02
54.29 52.03 51.79 51.25 50.34 51.76 52.61 53.49 53.81 53.31 52.63 51.68 50.68 50.32 50.88 50.49 47.92 47.73 47.54 46.92 48.03 46.07 49.42 48.31 47.10 46.21 45.95 46.24 45.18 45.04 43.43 43.11 41.87 40.57 40.05 40.44 41.82 41.71 41.71 43.39 44.84 45.18 44.06
52.18 51.32 50.07 49.06 49.14 48.17 46.94 48.80 50.00 48.48 51.24 51.85 51.72 51.89 50.91 49.11 46.41 43.57 44.31 46.41 47.57 45.33 46.40 45.94 45.24 42.70 42.61 42.86 43.28 42.93 41.01 41.48 40.92 39.34 38.54 38.69 39.39 39.75 39.79 39.62 39.27 41.21 43.79
50.05 48.88 47.68 46.99 46.31 46.99 47.36 45.35 45.06 44.45 43.36 43.21 45.74 47.37 46.75 44.83 41.59 40.60 40.46 40.82 42.01 42.99 44.86 42.93 41.34 42.52 43.44 40.86 40.98 41.72 41.06 42.26 40.30 39.75 38.38 37.74 38.74 37.20 36.70 37.94 39.79 39.50 40.47
50.91 49.88 48.82 48.28 46.94 45.51 44.37 44.37 43.88 43.02 41.85 40.75 40.56 42.18 43.88 42.96 40.33 39.34 39.53 39.92 41.20 41.37 39.23 38.72 39.42 41.01 40.38 40.50 41.14 40.42 39.64 39.28 38.94 40.03 38.21 38.65 38.33 39.53 39.82 39.91 40.25 40.30 40.65
51.59 51.16 50.30 49.51 48.46 47.01 46.06 44.74 43.28 42.65 42.09 41.59 40.68 39.78 38.87 39.20 39.23 38.73 38.78 39.77 40.01 41.36 39.02 39.21 40.96 40.54 40.00 40.74 40.61 41.14 39.99 38.77 40.42 39.92 39.18 39.19 38.68 39.77 39.69 39.05 39.79 39.83 39.02
52.96 52.19 51.51 50.94 49.77 49.28 48.31 46.58 44.84 44.13 42.54 41.70 39.61 39.70 38.95 38.29 38.45 38.25 38.28 37.14 38.05 39.51 40.10 41.37 41.38 41.22 39.88 40.97 41.08 40.64 40.01 39.73 38.94 38.62 38.89 38.73 39.35 39.40 39.18 39.04 39.76 41.79 39.48
52.98 53.04 50.67 46.58 48.08 49.36 50.33 48.63 47.25 46.59 43.66 41.93 40.35 39.82 38.73 38.20 38.37 38.15 38.26 38.30 38.56 39.20 41.29 41.15 42.16 41.40 41.73 42.05 40.88 39.62 39.69 40.57 39.74 39.05 39.86 39.82 39.54 39.55 40.15 39.19 39.30 38.46 38.06
45.78 45.93 49.69 46.90 45.65 45.92 49.24 46.61 48.11 46.51 44.82 43.16 42.14 41.92 40.37 39.93 40.17 39.97 40.69 40.70 40.72 40.66 41.89 41.07 42.63 42.20 41.87 42.07 40.75 40.35 40.40 40.37 39.78 40.08 41.01 40.68 40.37 40.16 41.05 40.16 39.90 39.92 39.18
46.23 46.84 47.35 46.47 47.64 46.65 46.19 45.82 45.08 45.19 45.45 45.46 44.40 43.40 40.07 40.70 40.75 41.81 41.81 42.61 43.02 42.91 43.19 42.06 40.76 41.16 42.20 42.67 42.91 42.05 41.12 40.43 40.39 40.42 39.48 40.11 40.77 40.66 40.70 40.37 39.96 39.10 39.12
47.63 48.36 49.80 49.62 49.95 48.72 48.82 48.99 47.26 47.58 47.79 46.13 45.17 43.60 43.45 42.18 41.41 41.28 40.92 41.14 42.87 43.61 44.38 44.64 44.43 41.98 41.58 41.64 41.85 42.16 41.57 41.42 41.77 41.32 40.39 40.54 39.81 39.97 39.70 39.15 39.37 38.99 38.39
51.71 50.98 50.50 48.87 49.39 51.05 49.62 50.04 47.74 46.36 47.29 46.70 44.41 42.91 41.94 43.41 42.99 44.48 46.22 48.24 47.94 46.75 45.72 44.33 40.36 38.74 38.12 37.50 37.04 36.46 36.46 34.49 37.54 41.32 40.84 39.56 39.48 38.78 38.60 38.18 38.26 38.05 38.35
51.02 49.29 49.02 47.83 47.50 47.57 48.43 48.28 48.16 45.40 44.76 47.09 47.06 46.79 46.16 45.59 45.64 45.51 45.46 44.60 43.24 40.14 38.62 37.98 37.81 36.98 36.15 35.30 34.79 33.62 32.35 31.02 33.37 33.40 37.30 38.87 38.43 38.11 38.16 37.26 36.95 37.21 37.22
48.58 48.35 47.66 47.91 49.07 49.01 48.47 49.04 48.08 47.61 47.17 47.12 46.10 45.49 44.46 43.43 42.57 42.57 42.97 43.85 42.61 40.05 37.27 35.55 33.66 34.19 34.03 33.12 32.43 31.99 30.96 30.84 32.34 32.13 33.94 37.32 38.52 39.11 40.02 39.08 37.59 38.04 38.24

GFSGL_sfc_wetblb_033.txt.gz
Wetbulb
67.99 67.37 65.69 65.66 65.13 64.44 64.61 63.97 63.01 62.80 64.18 63.70 63.20 63.06 62.57 62.02 62.16 61.78 61.64 61.30 61.14 61.07 62.15 62.38 62.62 63.26 63.67 64.72 66.03 65.80 65.42 64.43 61.66 61.59 62.43 61.60 60.09 59.34 59.38 59.43 59.89 59.31 59.88
68.37 67.56 66.74 65.98 65.29 63.92 63.70 63.61 63.18 62.88 62.92 62.53 62.58 62.12 62.00 61.48 61.40 62.24 60.47 59.68 59.24 58.94 59.32 60.44 61.03 62.66 61.80 62.32 63.29 62.93 64.40 64.70 62.98 59.57 60.05 58.60 57.80 58.32 58.40 57.88 58.15 58.42 58.57
68.04 66.72 66.23 66.02 64.92 64.01 63.60 63.44 62.92 62.88 62.49 62.13 61.43 61.06 61.10 60.70 59.80 59.36 58.43 57.66 57.40 57.42 57.80 58.56 59.73 61.21 61.29 60.78 60.21 60.07 60.07 62.04 61.53 60.13 58.10 58.56 57.72 57.82 56.53 56.96 56.27 55.57 56.87
67.59 66.32 65.56 65.30 64.76 64.29 63.93 64.26 63.16 62.70 61.93 60.67 59.81 59.90 60.66 60.75 60.15 59.51 57.99 56.53 56.63 56.65 57.21 58.79 59.21 58.40 57.68 58.66 59.31 58.62 61.17 61.31 60.89 58.84 57.68 57.18 57.16 57.10 56.73 54.98 53.72 54.30 53.34
67.09 66.57 66.03 64.80 64.94 64.90 64.37 63.72 63.02 62.70 61.08 59.76 58.75 58.03 58.28 58.76 59.57 59.15 58.47 56.33 55.22 54.92 55.16 55.52 56.09 59.34 60.48 61.16 58.48 57.36 57.28 59.73 59.47 58.40 57.88 57.26 56.77 55.57 54.76 55.20 53.13 52.97 53.38
67.55 66.52 66.83 65.23 65.23 65.10 64.11 62.88 62.56 61.01 59.47 58.95 57.33 56.25 54.71 55.68 56.21 60.09 59.59 57.27 56.71 54.96 53.05 51.39 52.43 53.63 54.68 58.26 59.72 60.80 58.60 56.15 58.01 57.98 57.62 56.98 57.10 56.49 55.39 54.18 52.51 52.37 51.32
67.67 67.61 67.28 66.38 65.18 64.57 64.22 63.58 62.81 61.11 59.90 57.81 55.79 54.29 52.49 52.49 55.76 57.46 58.77 56.63 54.50 52.57 51.59 49.88 49.74 50.02 49.26 49.09 53.91 55.30 56.28 57.87 58.32 57.31 54.79 56.11 56.83 57.36 55.57 53.73 53.16 54.36 52.69
65.09 65.54 66.39 66.53 65.52 64.36 64.16 63.51 62.92 61.55 59.67 57.98 54.56 53.24 51.38 51.00 54.01 54.77 56.20 54.08 53.12 52.53 51.53 50.66 49.03 47.73 47.65 46.32 45.74 46.03 46.65 49.63 49.78 51.37 53.01 54.39 57.51 57.65 56.47 55.83 54.90 51.52 51.01
61.64 61.19 61.48 63.29 64.47 65.27 64.43 63.82 63.24 61.32 59.50 57.44 55.01 53.39 50.73 49.52 50.42 53.25 53.03 51.18 49.93 49.15 49.80 50.21 49.44 50.18 52.58 51.38 47.30 45.57 45.08 45.55 50.80 53.18 52.99 52.74 53.39 54.84 54.14 52.16 50.77 49.92 50.22
59.14 59.55 60.83 60.67 61.95 64.33 65.57 63.95 63.15 61.75 58.72 56.35 53.81 52.60 51.62 49.22 48.41 50.09 52.27 50.60 48.70 48.01 47.20 46.45 50.77 49.20 51.57 49.99 48.22 47.99 47.76 47.27 46.32 46.72 47.02 46.92 47.70 48.52 51.35 47.30 50.65 51.21 51.58
57.64 58.06 58.68 59.16 60.23 63.73 64.12 63.37 60.39 58.48 54.87 52.42 51.20 50.45 49.46 47.36 48.71 47.75 51.43 53.25 51.45 49.50 46.91 45.53 44.53 47.96 46.39 48.68 49.31 47.98 47.12 47.45 48.77 47.52 45.62 43.64 44.35 44.91 44.62 44.49 44.11 47.29 45.52
55.71 55.99 56.57 57.46 57.30 59.69 63.14 61.08 59.22 56.45 53.40 51.41 51.15 50.70 50.85 49.22 47.80 47.03 48.82 51.34 51.60 49.72 47.35 46.46 44.44 44.78 43.99 44.22 44.44 45.88 46.42 46.80 42.40 44.40 44.46 41.50 41.51 43.23 44.48 44.64 45.26 44.56 44.56
55.41 54.34 55.33 54.45 54.57 56.05 58.56 58.77 56.98 55.51 54.06 52.31 51.37 50.83 50.41 50.64 49.57 46.57 46.55 48.13 49.28 47.48 46.37 46.75 47.00 43.92 43.67 44.00 46.18 45.36 44.84 42.38 41.28 41.10 41.34 39.69 38.70 40.25 43.69 45.49 45.51 43.82 43.51
55.85 55.53 52.70 52.07 51.91 53.19 53.98 55.00 55.11 54.20 53.12 52.01 50.93 50.73 50.68 48.39 47.24 48.18 48.22 47.38 48.12 47.91 48.93 45.68 46.64 46.04 45.80 44.92 44.91 43.38 43.31 40.56 40.44 39.32 38.75 39.24 40.19 40.04 39.97 41.38 42.56 43.65 42.91
54.46 51.99 50.60 50.54 50.19 48.77 47.40 49.62 51.07 49.95 52.35 52.51 51.82 51.63 50.29 47.58 46.39 43.72 44.79 46.20 46.00 44.95 46.20 45.05 46.26 45.85 44.14 43.43 42.63 42.00 40.27 39.77 38.73 37.47 37.34 37.62 37.57 37.88 37.91 38.59 37.71 39.63 42.33
49.29 48.59 48.72 49.13 49.01 49.08 47.31 45.14 45.04 44.29 43.46 45.28 46.46 48.04 47.41 45.14 41.86 40.67 40.30 40.80 41.30 42.63 43.86 40.29 40.87 42.07 40.10 39.33 39.67 40.55 39.72 40.65 38.65 38.10 36.80 36.35 37.10 36.08 36.07 36.08 37.47 36.95 37.77
47.96 46.86 46.64 46.28 45.41 44.66 44.56 44.89 44.43 43.99 41.95 40.43 41.00 42.91 43.02 43.13 40.38 39.49 39.49 40.01 39.96 40.99 40.65 37.31 39.68 39.17 39.14 39.66 39.72 39.10 38.72 38.22 37.73 38.84 36.65 36.90 36.51 36.92 37.22 37.07 37.35 37.03 37.26
49.00 48.76 47.02 46.35 45.79 44.69 44.42 43.65 43.34 43.36 42.88 42.06 41.17 40.16 39.44 39.30 38.89 38.66 38.38 38.99 39.10 41.20 38.88 39.30 40.54 39.59 39.02 39.08 39.68 39.75 39.38 37.51 38.06 38.72 37.71 37.77 36.93 37.82 38.35 37.47 36.84 36.18 35.83
50.43 49.49 48.68 47.65 46.73 46.05 45.00 43.82 43.04 42.62 41.68 41.01 39.84 40.20 39.06 37.92 37.86 37.79 37.98 36.47 37.64 38.41 38.83 39.83 40.79 40.41 39.19 39.25 39.42 39.22 38.66 38.58 38.02 37.53 37.59 37.40 37.28 37.01 37.45 37.82 37.16 40.60 38.62
51.68 52.18 50.58 48.90 47.99 47.18 46.51 45.27 43.87 43.40 41.96 40.87 40.17 39.30 38.84 37.96 38.00 37.60 37.39 36.91 37.29 38.02 38.94 39.98 40.70 41.44 40.32 40.16 40.10 38.88 38.32 38.65 38.61 38.13 38.40 38.22 38.19 37.53 37.81 38.30 37.44 36.84 36.29
51.41 51.48 51.37 48.41 50.08 49.52 49.22 48.21 46.68 46.01 44.26 42.58 41.65 41.40 39.92 39.04 38.85 38.16 38.39 38.60 38.57 39.24 39.96 40.76 40.37 40.60 40.36 40.66 39.88 39.63 39.16 39.45 38.65 38.59 38.72 39.17 38.64 38.78 38.76 38.60 38.48 37.98 37.37
45.02 45.01 46.66 46.50 45.63 45.71 47.80 48.04 47.54 48.43 47.23 45.62 43.72 42.40 39.52 39.35 38.89 39.56 40.29 40.78 41.39 41.24 41.20 41.26 39.60 38.70 39.61 39.89 40.34 40.23 39.76 39.38 39.35 38.99 39.02 38.58 38.38 38.97 38.80 38.77 38.43 37.76 37.12
45.59 47.53 48.15 45.98 46.51 46.52 45.60 45.05 45.33 45.34 45.80 45.10 44.64 43.84 41.61 40.63 40.22 40.53 40.88 40.59 40.18 42.10 41.09 41.04 40.03 38.98 38.79 38.28 37.17 37.14 36.02 35.81 35.94 37.33 38.89 38.92 38.54 38.63 37.95 37.74 37.69 37.09 36.69
50.02 49.72 48.13 47.29 47.59 47.12 47.23 47.37 45.27 43.34 45.82 44.43 42.54 41.80 41.09 41.14 44.00 44.33 44.02 41.97 40.00 39.12 38.72 37.50 36.48 35.41 34.99 34.45 33.95 33.37 32.62 32.53 33.99 34.67 35.84 36.80 37.33 37.56 37.31 36.96 37.61 37.24 36.32
48.70 48.18 47.40 46.13 45.49 45.02 45.23 44.66 44.03 44.69 44.93 46.73 46.32 45.64 45.10 44.45 43.95 42.56 41.19 39.36 37.74 35.73 34.76 34.59 34.20 33.32 31.67 30.95 30.34 30.22 30.25 29.78 31.82 33.00 34.32 36.19 36.86 37.35 36.89 36.34 36.75 36.80 37.27
47.41 47.59 46.79 46.64 46.69 46.65 46.33 46.69 45.13 45.68 46.25 45.81 44.89 44.15 43.36 42.14 41.69 40.00 40.66 39.56 36.85 34.79 32.32 30.71 31.02 31.00 30.52 30.18 30.55 30.75 29.75 29.34 30.07 30.97 34.05 35.49 35.46 35.40 35.81 36.25 37.22 37.15 37.22

GFSGL_sfc_wetblb_036.txt.gz
Wetbulb
68.21 67.25 66.34 66.34 65.71 65.67 65.09 64.63 64.31 64.76 64.63 64.23 64.01 63.50 63.06 63.16 63.48 63.06 62.58 62.26 62.23 62.73 63.61 64.19 64.51 65.46 65.89 67.02 68.47 68.31 67.14 66.28 62.00 61.80 62.24 61.01 59.84 59.42 59.51 59.53 60.05 60.05 60.41
68.66 67.43 66.78 66.31 65.82 65.31 64.96 64.51 64.60 63.89 63.96 63.73 63.15 62.74 62.31 61.69 61.07 60.69 60.44 60.63 60.48 60.81 61.33 62.57 61.94 63.49 63.15 64.41 65.44 65.80 66.98 66.17 63.24 59.49 60.05 58.10 57.98 58.58 58.27 57.75 57.73 58.04 58.28
68.10 67.40 66.63 66.27 65.59 65.13 64.52 64.42 64.51 63.73 63.21 62.93 62.80 62.12 61.71 61.05 60.21 59.81 59.51 59.54 59.55 59.85 60.75 61.23 61.49 62.27 61.72 61.98 62.59 62.69 64.05 64.13 63.60 61.31 58.66 58.82 58.00 58.06 56.77 56.57 55.63 55.13 56.29
68.33 67.23 66.45 65.98 65.82 65.66 65.24 64.51 64.33 63.91 62.48 61.88 61.81 62.14 62.06 61.59 60.47 59.44 58.79 58.29 58.15 57.66 58.19 58.99 59.96 60.83 61.36 61.65 61.50 61.84 62.51 61.48 60.78 59.24 57.82 57.31 57.13 57.21 57.13 55.30 53.15 54.16 53.32
68.14 67.40 66.34 66.35 66.29 65.66 65.53 65.15 64.27 63.24 61.69 61.29 60.30 59.75 59.96 60.65 60.66 59.41 58.65 58.14 57.76 56.06 55.39 56.05 59.11 61.07 61.55 61.83 61.11 61.11 62.32 60.92 59.63 58.60 58.04 57.29 56.23 55.70 55.26 55.68 53.22 53.59 53.95
67.91 67.58 66.81 66.36 66.02 65.48 65.55 64.45 63.87 61.97 60.95 60.27 58.81 57.95 57.85 58.58 58.11 59.80 59.61 58.07 56.24 54.27 53.64 53.78 54.19 55.37 57.28 58.57 59.30 59.85 60.54 61.60 59.92 59.08 58.56 57.51 57.11 57.27 55.67 54.74 53.07 53.15 52.42
67.81 67.56 67.52 66.15 65.95 65.41 64.81 63.86 62.20 61.09 60.77 58.52 57.18 56.50 56.18 58.04 56.45 57.70 58.61 56.55 55.34 54.37 53.07 52.18 51.51 51.33 53.40 54.57 54.91 54.97 55.30 56.96 59.25 60.32 58.91 57.71 57.89 58.12 56.91 54.65 54.38 54.79 53.79
66.87 67.88 67.66 66.80 65.82 65.25 64.37 63.60 63.30 61.47 60.02 57.44 55.40 55.06 55.23 54.74 54.26 54.76 56.10 55.96 54.78 53.84 53.68 53.46 52.21 52.13 52.47 52.46 52.32 51.33 51.68 53.76 54.43 55.39 55.89 55.57 58.67 59.11 58.19 57.30 56.35 52.90 53.82
63.61 64.14 64.13 66.17 65.70 65.02 64.21 63.48 62.95 60.89 59.40 57.05 55.29 55.01 54.09 53.04 51.73 52.55 54.96 54.24 52.93 52.08 52.08 53.54 54.19 53.78 51.96 51.32 51.62 51.10 51.65 51.55 52.06 52.62 52.33 52.05 53.87 54.40 55.55 57.40 55.52 54.65 53.16
61.41 61.40 61.51 62.33 64.05 64.92 65.09 64.17 63.03 60.67 58.40 54.87 53.31 53.25 51.98 51.52 48.57 51.10 53.26 53.31 52.02 51.43 50.90 50.61 50.82 52.99 50.34 50.01 53.50 52.73 51.87 51.91 52.34 52.70 51.26 51.05 50.90 51.26 51.08 52.50 54.64 54.33 54.60
59.16 59.80 59.59 60.06 61.81 63.09 65.15 63.57 61.27 58.52 55.16 53.49 51.96 51.32 50.30 49.78 50.53 49.76 50.60 55.00 52.80 51.18 50.55 48.97 48.73 47.75 47.03 46.96 48.69 52.31 52.22 53.21 52.67 51.96 49.99 49.86 50.66 50.53 50.32 50.71 51.33 53.44 53.62
58.72 58.38 58.64 59.12 59.83 61.70 62.96 60.51 58.02 56.45 53.35 52.00 52.32 52.02 52.48 50.95 47.93 47.81 50.70 50.87 51.96 51.98 48.92 48.44 48.57 44.69 43.74 44.53 46.81 45.17 46.18 48.04 49.46 51.58 50.19 48.94 49.11 50.20 50.95 50.93 51.58 51.14 51.64
58.13 57.55 56.75 56.49 56.17 57.72 60.53 58.56 56.79 55.49 53.70 53.60 53.24 52.00 51.56 51.92 51.24 46.44 46.70 48.11 49.34 48.10 47.59 47.79 46.15 43.57 43.96 46.71 46.04 45.43 46.33 49.02 49.36 50.06 50.43 48.95 46.93 46.73 49.33 51.98 52.69 51.41 50.89
56.07 55.41 54.65 54.31 54.04 55.03 55.91 56.99 56.35 55.26 53.82 53.05 52.47 51.37 51.05 48.62 49.30 49.89 49.93 49.71 49.18 48.83 48.90 48.72 47.87 47.43 46.77 47.21 48.97 47.68 48.46 47.58 47.11 47.20 47.26 47.10 47.20 47.78 47.52 47.77 48.59 49.43 50.52
56.31 55.11 52.50 52.16 51.79 49.72 47.78 50.29 53.01 51.05 53.46 53.58 52.94 52.55 50.17 48.05 47.56 44.70 46.95 47.86 46.43 47.11 48.61 47.94 49.24 49.72 49.96 49.24 48.64 47.64 47.15 46.89 46.46 45.51 45.58 45.61 45.82 44.89 45.29 46.00 46.26 46.74 47.67
52.60 51.80 51.62 51.27 50.87 50.32 49.85 48.01 45.18 44.43 43.40 44.57 46.42 49.19 49.52 44.80 41.21 40.61 40.61 40.88 41.14 42.49 47.01 46.10 47.76 47.66 46.85 46.79 47.18 47.81 47.07 46.26 46.59 46.10 45.50 44.73 44.50 44.65 44.79 45.50 45.78 45.63 45.41
51.54 50.31 50.40 50.21 50.31 49.16 49.36 49.85 48.80 46.43 42.10 40.53 41.11 42.73 43.37 42.41 40.34 39.66 39.39 39.55 39.90 41.61 46.07 45.37 47.48 46.65 46.74 46.99 47.10 46.95 47.06 46.27 45.57 46.42 45.76 45.17 44.82 45.13 44.91 45.47 45.13 44.84 45.08
50.77 48.31 49.59 49.11 49.03 48.57 48.70 48.54 48.94 49.15 48.76 47.53 42.38 42.11 39.58 39.23 38.94 38.50 38.51 40.55 45.89 46.07 46.21 46.38 47.12 46.62 46.61 46.98 47.07 47.13 46.95 46.22 46.01 46.35 46.40 45.98 45.80 44.90 45.27 45.58 45.45 44.46 44.53
51.12 50.62 50.00 49.68 49.00 48.27 47.90 47.15 47.19 46.89 46.63 46.20 45.68 43.13 41.03 38.21 38.34 38.14 38.04 43.79 45.73 45.85 45.87 46.37 46.94 46.92 46.58 46.76 46.91 46.58 46.35 46.24 45.97 45.86 46.04 45.87 45.81 45.15 45.52 45.23 45.53 41.69 43.02
52.51 51.55 50.58 50.31 49.65 49.30 48.62 47.55 46.72 46.12 45.76 45.78 45.27 45.42 44.33 42.98 44.29 44.57 44.10 43.53 43.83 45.04 45.44 46.31 46.95 47.55 47.65 46.76 46.72 46.52 46.08 45.62 45.96 45.72 45.84 45.81 46.14 45.57 45.21 45.58 45.85 45.31 45.76
53.61 53.37 52.26 51.67 51.29 51.03 50.38 49.65 48.92 48.26 47.54 46.94 46.37 45.19 40.89 45.13 44.28 43.66 43.67 43.77 44.42 45.24 45.75 46.25 47.23 47.34 47.01 46.94 47.10 46.45 46.06 46.05 45.85 45.74 45.85 45.83 46.21 45.40 46.19 45.79 45.67 46.19 45.87
54.02 53.68 53.32 52.73 52.34 52.58 52.29 52.33 51.45 50.40 49.97 49.44 48.70 46.28 38.98 44.96 44.82 45.16 45.67 46.27 46.98 46.14 46.38 46.32 46.83 45.42 44.95 45.19 45.25 45.83 45.78 45.08 44.71 43.98 44.20 44.95 45.35 45.42 45.57 45.33 45.49 45.56 45.58
48.32 49.22 50.12 50.37 50.41 48.77 49.95 50.85 51.15 51.11 50.35 50.33 49.48 48.56 46.11 45.92 45.89 45.43 45.24 46.63 45.27 44.45 43.92 44.80 43.64 41.62 40.62 39.94 39.37 39.82 40.41 40.17 40.14 40.67 42.28 43.46 43.98 44.14 44.34 44.27 44.47 44.32 44.43
49.11 49.65 49.86 49.78 49.17 49.13 49.07 49.33 49.78 46.34 49.47 49.41 47.77 46.76 47.01 45.83 45.73 46.27 44.82 42.52 42.15 41.26 41.03 40.53 40.04 38.95 37.13 36.15 35.77 35.25 35.74 35.75 38.70 39.55 40.11 41.99 42.90 42.54 43.90 43.96 44.19 44.02 43.75
51.18 51.25 50.40 50.18 50.01 50.21 49.52 48.95 47.93 47.96 48.21 47.76 46.91 46.80 46.27 45.36 43.88 43.72 41.80 40.53 39.55 38.83 37.80 36.91 35.97 35.15 34.67 34.19 33.89 33.85 31.14 29.75 33.43 33.02 39.55 39.84 40.03 40.60 40.54 41.38 41.69 42.37 43.19
50.59 50.59 49.64 49.24 48.80 48.51 48.11 47.68 48.79 47.26 47.22 47.43 45.95 44.87 44.06 43.56 43.39 43.02 41.56 39.94 37.76 36.16 35.46 35.16 34.78 34.23 33.81 33.67 33.09 30.56 29.66 29.40 31.51 30.03 34.97 34.83 34.06 34.21 34.81 36.53 37.89 40.03 41.38

GFSGL_sfc_wetblb_039.txt.gz
Wetbulb
69.54 71.11 70.85 70.32 70.18 69.52 68.91 69.33 69.18 68.99 68.50 67.79 67.68 67.75 67.54 67.48 67.87 67.84 67.43 67.73 67.79 67.97 68.40 67.56 66.96 68.69 67.99 69.37 71.28 71.09 68.00 67.37 62.80 61.93 61.74 61.24 60.18 59.93 60.09 60.85 61.08 60.88 60.45
69.16 70.98 70.91 70.44 70.16 69.32 68.93 68.67 68.87 68.25 67.99 67.36 67.19 66.46 65.98 66.14 66.45 66.52 65.83 65.82 66.04 65.85 66.34 65.60 65.18 66.43 66.34 68.13 67.78 67.73 68.85 68.96 65.42 60.90 59.77 58.39 58.28 58.72 58.81 57.99 58.19 58.36 58.60
71.95 71.16 70.64 70.07 69.90 69.16 68.70 68.65 68.48 67.94 67.41 67.00 66.64 65.69 65.07 65.12 65.33 65.36 65.24 64.93 64.58 64.33 65.26 65.37 64.87 66.74 65.67 64.28 64.98 65.35 65.76 66.23 66.12 63.33 59.40 58.98 58.42 58.49 56.90 56.64 56.02 55.60 56.38
71.77 71.54 70.78 70.42 70.28 69.30 69.23 68.97 68.45 67.85 67.09 66.73 66.59 65.91 65.27 64.36 64.36 63.93 63.60 63.03 63.09 63.50 64.27 64.31 63.47 63.58 65.58 65.39 64.65 65.01 64.43 63.66 62.84 60.42 58.50 57.60 57.78 57.74 58.03 55.96 54.28 55.06 53.40
71.70 71.57 71.19 71.11 70.55 69.75 69.38 68.99 68.33 67.51 66.65 66.34 65.49 65.67 65.48 64.66 63.39 64.31 63.81 61.14 61.56 62.01 62.25 63.31 63.45 62.40 61.07 62.31 65.53 65.90 65.90 63.66 61.49 60.08 58.62 57.70 56.66 56.52 56.20 56.36 54.34 54.54 54.65
71.75 71.66 71.61 71.17 70.28 69.36 69.61 68.80 68.08 66.86 66.32 65.51 64.93 64.96 64.96 64.04 58.87 59.59 61.81 60.12 60.12 60.42 59.64 59.82 62.47 62.70 60.20 57.59 58.32 58.76 61.68 65.29 63.29 61.52 60.15 58.95 59.17 58.38 57.20 55.76 54.68 55.24 54.29
70.17 71.84 71.37 71.09 69.99 69.31 69.19 68.15 67.38 66.44 63.53 61.50 63.61 64.57 64.84 64.05 57.37 57.27 59.03 61.03 59.72 58.41 58.50 58.17 57.73 58.98 61.19 61.71 58.53 59.26 58.50 58.46 60.81 63.93 60.90 61.13 60.62 61.60 60.95 57.47 57.63 56.31 55.08
69.38 70.70 70.79 69.36 69.70 69.56 67.56 67.04 66.17 65.49 62.46 60.03 59.52 62.61 63.89 60.47 55.24 54.85 57.77 61.42 60.64 59.97 59.23 58.87 58.68 57.21 57.20 59.75 59.84 59.44 58.64 58.13 59.10 59.29 60.29 60.99 62.27 62.69 62.32 62.02 60.37 56.05 57.03
67.66 67.54 65.96 68.45 69.27 68.21 66.37 67.03 66.17 64.41 63.52 61.38 60.85 60.75 60.09 57.96 52.71 53.32 58.54 60.63 59.57 58.39 58.81 58.83 59.33 58.21 51.68 53.28 58.13 57.87 57.05 55.56 52.04 52.01 52.50 53.18 53.03 52.58 54.94 60.62 59.82 57.64 57.83
65.36 64.48 65.08 66.37 67.35 67.13 67.26 67.22 66.60 63.43 62.42 57.75 55.65 57.20 53.72 55.91 49.61 50.79 56.86 59.07 57.86 57.37 57.35 57.45 51.26 55.90 50.79 51.48 57.92 57.20 55.89 56.21 56.58 56.32 56.62 55.28 55.88 53.95 54.04 57.19 55.75 54.65 55.80
64.04 64.13 64.57 65.25 66.65 66.97 67.15 66.90 65.06 62.06 60.59 56.80 54.80 55.20 56.27 52.80 54.30 50.01 50.53 57.47 56.59 56.27 55.69 54.56 54.96 48.22 46.74 46.27 49.09 57.19 56.96 58.56 55.77 57.59 56.32 55.63 55.64 55.62 55.51 56.63 56.58 55.51 55.17
61.51 61.69 62.47 63.00 64.01 65.68 65.91 63.31 60.97 59.49 57.73 57.50 53.90 54.75 55.50 55.04 48.76 49.91 49.73 51.09 52.74 54.61 52.26 50.92 49.25 44.93 44.02 45.26 49.97 45.96 46.91 50.89 56.68 57.44 57.04 55.12 53.41 53.77 55.00 56.30 57.54 56.37 56.08
60.49 61.21 60.40 59.52 60.42 62.54 61.66 59.85 58.88 58.08 56.26 56.28 55.56 55.45 55.19 53.90 54.07 46.98 47.51 48.51 50.22 52.35 53.10 49.41 45.73 43.67 44.91 47.85 46.43 46.21 49.00 54.67 54.39 53.55 53.01 52.80 53.14 54.04 55.69 56.51 57.97 57.92 57.36
59.30 59.13 59.53 59.50 59.06 58.00 59.61 60.11 58.74 59.64 56.10 55.98 55.36 54.78 52.85 52.32 53.27 53.12 51.95 51.95 49.99 51.28 50.14 51.13 49.04 49.81 47.74 51.13 53.65 53.60 54.25 53.49 52.62 51.99 51.88 52.81 53.83 52.99 52.64 53.17 52.09 52.48 51.57
58.22 57.72 57.91 57.31 55.22 51.69 49.64 53.12 56.48 55.53 57.41 56.86 56.02 55.71 51.79 51.50 51.00 47.84 49.30 52.05 52.36 48.22 51.86 53.06 53.24 54.84 56.20 55.60 54.93 54.60 54.42 53.96 52.62 52.55 52.04 51.55 51.13 51.21 50.83 51.29 50.85 50.52 49.39
56.76 56.74 56.39 55.50 54.31 53.20 51.77 48.98 45.25 45.40 44.30 45.11 47.69 51.12 52.77 46.16 41.51 40.86 40.85 40.90 41.34 43.18 52.74 54.11 54.16 53.39 52.46 52.29 52.07 52.36 52.83 52.14 51.74 51.59 51.44 51.26 50.38 50.10 49.83 50.68 50.82 49.55 48.69
56.30 55.61 54.99 54.04 54.43 54.16 54.64 54.59 52.14 46.76 41.99 40.98 40.98 42.66 43.60 42.89 40.09 39.69 39.69 39.72 40.23 43.37 53.86 54.36 53.25 52.95 52.62 52.71 52.26 51.96 51.41 52.05 53.69 51.56 51.07 50.85 50.73 50.74 49.99 49.45 49.79 49.62 48.79
57.96 51.61 56.09 56.12 57.66 57.99 58.38 58.32 57.77 56.50 55.37 53.60 43.05 45.00 39.19 39.13 39.00 38.81 39.30 41.57 50.32 49.83 54.50 53.68 53.14 53.51 53.95 54.13 53.83 53.46 53.71 53.76 53.43 52.04 51.38 51.10 50.94 50.16 49.51 49.22 49.43 49.23 48.98
57.68 57.32 57.63 57.51 56.60 54.98 56.07 56.78 56.79 56.10 55.10 53.93 52.32 46.38 43.40 38.68 38.59 38.47 39.04 52.18 52.73 53.06 53.76 53.91 55.15 54.92 54.84 54.71 54.65 54.34 53.98 53.09 51.73 51.85 51.58 51.18 50.98 50.31 49.74 49.87 49.71 43.83 45.78
57.74 53.91 54.34 55.24 53.73 53.00 52.03 52.51 52.10 51.92 51.66 51.76 52.54 52.51 51.76 47.98 50.32 51.05 51.24 51.60 52.54 53.57 53.24 54.08 54.39 55.04 55.14 55.01 54.24 53.99 53.36 52.66 52.56 51.96 51.81 51.63 51.48 51.06 49.97 49.74 49.66 49.13 48.94
57.43 55.86 54.34 55.42 54.79 53.53 53.75 52.62 53.29 52.98 52.62 51.98 51.90 50.80 44.77 51.54 50.32 50.04 50.68 50.93 52.11 52.78 53.39 53.78 53.93 54.44 54.55 54.49 53.89 53.45 52.77 52.58 52.49 51.99 51.80 51.85 51.71 50.91 51.29 51.08 50.69 50.60 50.25
57.72 56.78 56.07 55.21 56.08 55.77 55.44 55.58 55.12 54.74 54.58 53.91 53.68 51.08 39.75 50.91 52.15 51.90 52.09 52.65 53.78 53.87 53.11 52.94 53.05 54.04 54.05 53.55 53.17 52.62 50.88 51.46 51.79 50.28 48.13 50.02 50.94 51.11 51.12 50.83 50.69 50.66 50.47
59.28 56.89 57.80 57.75 57.34 54.94 56.72 57.01 56.58 56.61 56.33 56.30 55.83 54.20 48.65 51.10 51.51 51.56 51.73 53.01 52.83 53.66 51.52 50.89 52.05 50.71 48.31 49.37 48.87 49.16 49.42 49.25 48.74 48.53 47.45 46.15 49.71 51.04 50.80 50.89 50.95 50.45 50.28
58.09 57.10 58.21 57.74 57.32 55.47 55.37 55.67 56.13 50.12 55.54 55.90 53.45 52.62 52.45 52.60 52.92 49.90 49.18 48.05 49.70 50.11 50.13 49.85 49.54 47.96 46.50 45.84 45.22 44.64 43.54 42.77 45.34 45.90 45.58 46.52 46.87 46.56 47.41 47.71 47.98 48.24 48.37
52.36 54.22 54.79 54.50 52.94 54.11 54.71 54.61 54.88 55.26 54.14 52.17 52.85 53.98 53.73 52.55 50.88 46.27 44.58 46.04 48.17 47.58 46.67 45.82 45.33 43.80 42.98 42.23 41.72 39.97 31.51 29.69 36.56 31.37 42.99 42.13 41.52 41.68 41.16 41.53 42.53 42.74 44.01
53.00 53.67 53.73 53.57 54.51 54.97 55.65 56.15 53.32 52.56 52.68 49.23 49.87 51.57 50.80 49.12 45.94 46.33 47.61 48.32 47.32 46.35 45.17 44.83 43.60 42.34 41.25 40.67 38.11 31.00 29.91 29.32 33.58 30.01 39.19 41.05 39.95 40.02 39.10 39.44 39.19 39.49 39.70

GFSGL_sfc_wetblb_042.txt.gz
Wetbulb
70.63 73.51 73.42 72.69 72.26 71.59 71.01 70.91 71.13 70.85 70.84 70.63 69.63 69.84 69.70 69.91 69.81 69.86 70.14 69.50 68.40 68.52 69.20 69.25 69.42 70.94 70.36 71.80 73.30 73.36 72.49 70.18 63.97 60.56 61.42 61.37 60.91 60.94 61.33 62.32 62.57 62.44 61.27
69.93 72.87 73.00 72.54 71.95 71.01 70.52 70.83 71.21 70.06 70.41 70.12 69.98 69.89 69.65 69.43 69.64 69.29 68.56 68.81 67.35 66.60 67.16 68.23 68.94 69.55 70.20 70.18 70.52 69.21 71.35 71.18 66.18 59.05 59.09 58.45 58.31 59.22 59.77 59.39 59.10 59.31 59.27
71.88 72.86 72.85 72.33 71.81 71.16 70.64 70.56 70.72 69.90 69.72 69.65 69.31 68.46 68.47 68.52 68.33 68.33 68.21 68.18 68.12 66.65 66.38 66.87 66.49 67.68 66.65 66.55 67.58 66.95 67.03 67.83 66.64 60.91 58.01 59.12 58.53 58.51 57.39 57.09 56.63 56.70 57.22
70.80 72.56 72.58 72.38 72.02 71.52 71.37 70.94 70.15 70.31 69.69 69.17 68.98 68.10 67.85 67.74 67.32 67.21 66.81 67.27 67.21 67.41 67.38 66.99 66.82 66.68 66.52 67.47 66.86 67.82 67.58 65.33 63.12 60.53 58.34 57.67 58.21 58.36 58.28 56.53 55.27 55.91 54.85
70.84 71.83 72.66 73.09 72.55 72.36 71.34 70.52 70.39 69.99 69.39 69.17 68.77 68.50 67.81 66.80 66.09 66.73 64.80 66.03 65.97 65.75 66.51 66.06 65.16 62.55 60.39 61.80 67.02 67.27 67.77 65.59 62.08 59.84 58.46 57.66 56.78 56.92 57.16 56.90 56.10 55.26 55.11
71.25 71.27 72.63 72.45 72.22 71.76 71.16 70.10 70.26 69.91 69.18 68.81 68.31 67.98 67.23 64.97 59.15 60.05 63.28 64.06 63.94 63.33 63.20 64.22 65.18 64.50 61.02 59.58 60.29 60.17 62.14 66.28 65.74 63.11 61.08 59.93 59.96 59.01 58.77 59.25 57.15 57.31 56.95
71.50 72.32 72.59 72.44 71.80 71.79 71.22 69.89 69.11 69.15 68.52 67.51 67.79 68.09 67.02 65.39 57.75 57.89 60.85 63.96 63.04 62.99 62.90 62.63 62.56 62.64 63.64 64.44 60.48 60.35 59.55 59.36 61.60 64.88 62.58 62.66 62.21 62.69 63.09 60.74 60.52 59.98 59.54
71.26 71.85 72.92 71.73 71.66 71.33 70.89 70.11 69.44 69.10 67.40 66.29 66.60 67.75 66.78 63.06 56.14 56.36 59.22 64.83 64.18 63.70 63.56 63.20 61.78 60.10 59.18 62.23 62.18 59.90 57.80 58.68 60.70 60.53 61.25 61.36 62.45 63.16 63.31 62.64 62.71 62.52 60.91
70.49 71.24 71.74 72.26 71.16 70.27 68.82 70.08 69.55 68.03 67.64 66.26 66.68 66.95 65.64 63.47 53.78 54.56 59.51 64.26 63.21 63.21 63.16 62.88 62.97 59.72 52.61 54.06 60.62 59.23 57.72 55.46 52.77 53.78 53.80 53.37 52.74 53.24 55.51 59.29 61.27 58.18 58.73
69.96 70.17 69.15 70.72 70.59 69.33 69.54 70.39 68.92 68.51 66.65 66.06 64.68 65.17 59.69 63.96 51.18 52.00 57.74 63.20 60.56 60.75 62.63 61.51 53.13 57.30 52.20 52.22 61.19 60.04 58.44 58.52 58.80 59.17 58.74 56.18 57.55 56.10 56.14 58.76 56.34 54.57 55.17
68.22 68.52 67.91 68.82 68.83 69.61 69.79 69.98 67.45 66.57 65.91 64.85 62.54 61.32 63.04 61.61 60.60 50.31 51.82 59.47 59.81 59.54 58.47 59.43 58.62 48.70 46.76 47.68 49.51 59.41 58.06 59.46 56.04 59.51 59.01 58.49 59.17 57.89 56.80 57.74 58.21 55.48 54.42
66.19 67.02 67.21 67.03 67.62 69.05 68.01 66.82 64.85 63.65 63.72 63.34 62.94 61.77 61.27 62.29 51.16 50.26 50.01 52.55 54.89 56.41 54.11 54.98 52.09 45.89 45.04 46.11 51.77 46.78 48.08 51.29 59.35 59.68 59.14 57.28 55.16 55.12 55.89 57.04 58.72 58.11 57.44
64.69 63.59 63.92 64.82 66.04 66.87 67.41 62.40 60.91 61.43 62.37 59.47 59.64 60.61 59.10 61.45 60.11 48.30 48.05 49.69 51.73 54.50 54.79 50.82 46.49 44.55 45.43 47.77 47.25 47.89 47.44 57.21 57.06 56.23 54.88 54.57 55.17 55.98 57.41 58.05 58.24 59.26 59.56
63.25 63.10 63.27 62.41 61.93 62.34 62.38 61.78 60.37 61.41 60.08 57.90 60.04 60.37 60.20 58.81 59.49 59.58 58.98 54.82 50.28 53.59 49.99 50.08 50.76 50.56 48.38 52.86 53.06 54.58 56.20 55.22 54.56 54.14 54.47 55.66 56.26 54.89 54.09 53.96 53.07 53.37 52.84
61.65 61.35 61.29 60.09 58.49 54.53 51.93 55.38 59.47 58.49 60.52 59.73 59.87 58.97 59.76 60.13 58.05 51.36 52.73 56.56 56.31 52.54 53.23 53.59 54.62 56.73 57.41 57.30 56.48 56.62 56.23 56.56 54.91 54.58 53.99 53.42 53.43 53.43 53.46 54.35 53.37 52.44 51.27
60.89 61.48 61.89 61.77 57.71 55.30 54.60 51.95 45.78 45.85 44.76 46.98 48.33 54.60 56.84 46.61 41.98 41.93 41.29 41.62 42.91 44.42 53.71 56.13 57.13 57.28 56.87 55.41 55.59 54.39 54.56 54.05 54.16 54.14 54.06 53.57 52.92 52.89 51.84 52.83 53.13 52.32 51.09
60.62 60.73 61.07 59.77 59.22 56.41 55.48 54.36 50.57 47.47 42.87 41.60 42.04 42.86 43.80 43.69 40.45 40.52 40.65 40.99 41.74 43.32 55.74 57.29 56.59 56.09 54.99 55.52 55.52 55.58 54.13 53.93 56.88 54.78 54.16 53.74 53.47 53.25 52.89 51.99 52.11 52.02 51.30
60.77 53.17 60.60 60.25 60.79 60.03 59.70 58.90 58.41 58.47 58.51 56.57 44.51 47.26 39.98 39.68 39.74 39.95 40.34 41.97 51.94 49.71 57.05 57.19 56.02 54.95 55.02 55.91 56.87 56.63 56.55 56.60 56.56 55.08 54.54 53.97 53.63 52.80 52.23 51.96 52.04 51.54 50.96
60.77 60.16 60.29 60.11 61.07 60.16 61.83 62.13 62.46 61.75 60.77 59.25 55.81 48.56 43.87 39.40 39.30 39.42 39.97 54.88 56.75 56.51 56.83 56.03 55.89 55.26 55.70 56.27 56.97 57.30 56.92 55.92 53.75 54.01 54.44 54.16 53.87 53.22 52.53 52.43 52.08 47.02 48.06
61.84 55.73 58.86 62.11 59.32 59.30 59.33 58.98 58.03 57.28 56.34 55.64 55.80 55.98 55.69 51.31 53.42 53.95 54.11 55.57 55.99 55.70 55.49 55.29 55.24 56.29 56.45 56.98 56.43 56.63 55.58 54.87 55.24 54.51 54.94 54.56 54.26 53.86 52.81 52.76 52.50 51.75 51.84
62.08 59.41 56.41 57.61 55.90 55.33 55.24 54.65 54.93 55.14 55.26 55.83 55.99 54.74 48.05 54.52 54.12 54.37 54.23 54.38 54.63 55.03 54.92 55.36 55.46 55.73 55.79 56.18 56.12 55.86 55.22 54.95 54.91 55.00 54.56 54.38 54.14 52.08 53.90 53.74 53.01 52.72 52.37
60.82 58.42 57.62 57.14 56.16 55.90 56.09 56.37 56.85 56.79 56.58 56.26 56.00 52.32 42.60 53.87 55.41 54.57 55.00 54.82 55.33 56.05 57.06 56.47 55.66 55.73 56.53 56.31 56.42 55.91 54.77 54.44 54.78 54.99 54.14 53.55 53.42 53.12 52.46 52.44 52.60 52.54 52.27
60.45 58.49 57.33 57.82 57.38 54.51 56.45 57.54 57.42 57.51 57.31 57.39 57.42 55.89 52.37 53.89 55.92 56.12 56.12 56.51 57.18 56.76 57.27 55.99 55.49 57.15 56.38 56.60 56.60 55.30 53.72 54.36 53.73 53.55 52.58 52.51 52.70 52.79 52.70 51.82 51.45 50.53 49.87
60.34 59.33 56.93 58.17 58.12 57.55 57.75 58.23 58.39 53.47 57.84 58.26 58.76 58.60 57.34 56.04 56.25 56.52 55.95 54.52 52.82 53.71 54.02 55.55 55.46 54.67 53.67 53.49 53.15 52.78 50.65 48.08 50.79 51.10 49.55 49.87 49.89 48.62 48.33 46.77 45.41 45.52 46.14
59.60 59.28 59.67 58.55 57.70 57.09 56.76 55.84 57.15 56.65 58.12 58.43 58.22 58.32 58.28 57.64 58.06 57.75 56.01 54.06 49.81 52.46 52.87 53.83 53.46 51.75 50.78 49.70 49.31 46.07 32.32 29.68 39.43 30.57 45.51 46.00 44.77 44.68 44.07 43.65 43.89 43.79 43.81
59.25 58.97 56.25 55.00 57.55 56.85 54.62 55.57 55.94 57.10 58.54 57.61 56.79 54.08 54.41 55.57 52.73 49.29 50.16 49.72 53.51 53.44 52.90 52.34 51.51 50.35 49.28 48.16 45.20 33.19 30.13 29.31 36.17 29.98 39.69 44.16 43.60 43.42 43.36 42.42 42.74 42.60 42.82

GFSGL_sfc_wetblb_045.txt.gz
Wetbulb
73.52 73.60 73.63 73.16 72.90 72.21 71.68 71.78 71.72 71.66 71.79 71.45 71.01 71.12 70.72 70.73 70.75 70.99 70.79 69.69 68.95 68.84 69.96 70.18 70.55 72.41 73.38 72.92 74.27 73.68 72.59 72.50 62.87 60.47 61.66 61.56 61.04 61.27 61.30 62.69 63.48 62.80 61.23
72.82 73.58 73.66 73.23 72.46 71.43 71.17 71.41 71.53 70.76 71.50 71.25 71.03 70.92 70.53 70.42 70.57 69.94 69.21 69.52 67.54 67.23 68.06 68.73 69.08 69.19 69.57 70.45 69.92 71.05 71.77 72.33 65.59 58.55 58.61 58.38 58.41 59.63 60.48 60.56 60.41 60.64 60.44
71.98 72.95 72.89 72.38 72.19 71.91 71.27 71.47 71.13 70.65 70.66 70.21 70.19 69.84 69.69 69.52 69.27 69.54 69.51 68.74 67.58 67.09 67.67 67.91 67.50 68.58 67.84 68.30 68.51 67.88 67.84 68.04 66.17 60.89 57.33 58.43 57.93 58.43 57.24 57.68 57.41 58.26 58.78
71.09 72.47 72.45 72.51 72.39 71.77 72.35 71.58 71.17 70.82 70.11 69.92 69.96 69.51 69.04 68.78 68.60 68.27 68.35 68.17 68.36 67.62 67.29 66.64 65.90 66.04 66.97 68.59 68.04 69.09 67.49 63.57 62.25 59.56 57.72 57.65 57.91 58.31 58.43 56.92 55.61 57.19 56.65
72.32 72.33 72.53 73.49 73.32 72.77 72.35 71.75 71.46 70.83 70.19 69.94 69.63 69.02 68.46 67.91 66.62 66.72 67.69 67.39 67.09 66.82 66.59 65.26 64.35 63.15 61.99 62.65 67.39 67.86 68.56 63.63 59.67 58.22 57.61 57.49 56.81 57.15 57.76 59.15 57.56 58.73 58.55
70.66 71.58 73.19 73.17 73.15 72.50 72.06 71.47 71.28 70.42 70.16 70.04 69.46 68.89 67.72 64.89 60.44 61.32 64.54 65.44 65.39 65.23 64.78 65.55 65.59 64.41 61.77 60.15 61.04 60.84 64.48 67.41 65.21 61.75 60.73 60.24 61.27 61.34 61.07 60.24 60.06 58.40 56.71
71.76 72.23 73.13 72.89 72.73 72.29 72.09 71.39 70.75 70.23 70.10 68.85 68.63 68.58 67.55 64.48 58.88 59.51 62.83 65.50 65.17 64.91 64.81 64.64 64.05 64.09 65.07 64.52 61.16 60.68 60.04 60.48 62.95 66.14 63.09 63.24 62.78 63.09 63.48 62.18 62.15 61.81 60.43
71.38 72.58 72.96 73.12 72.51 72.51 71.93 71.51 71.17 70.08 69.08 68.22 68.42 69.33 67.54 62.88 57.29 57.26 60.15 66.27 65.63 65.39 65.21 63.99 62.16 62.18 59.22 62.47 59.69 57.75 58.14 58.62 60.64 60.22 61.01 59.90 61.09 61.94 63.50 63.63 63.48 62.78 62.01
68.73 71.09 71.75 72.89 73.00 72.17 71.43 71.73 71.60 69.97 68.71 67.40 68.12 68.05 66.73 64.09 55.46 55.94 58.25 66.03 65.14 64.66 64.50 62.72 63.21 60.28 54.78 54.33 61.29 58.53 57.00 55.17 54.07 53.98 53.43 53.49 53.94 54.66 56.76 59.09 62.02 56.69 58.00
68.16 70.74 72.26 72.86 73.49 72.63 71.11 72.05 72.38 70.40 68.76 66.94 67.57 67.80 62.53 65.26 53.92 53.19 56.09 64.64 63.63 62.76 64.08 62.31 54.07 57.23 50.97 50.89 62.53 61.38 59.77 59.80 60.12 59.41 58.44 56.05 58.08 57.11 57.40 61.56 57.04 54.63 55.70
68.71 70.43 70.62 68.77 69.21 71.37 71.80 72.52 71.26 70.11 69.19 67.89 66.31 66.50 65.81 64.40 61.33 52.29 52.73 62.76 60.51 61.65 61.96 60.39 56.06 49.31 48.65 49.42 50.40 60.27 59.29 59.73 57.31 60.28 59.84 59.01 58.98 58.94 57.51 58.51 59.26 56.45 54.20
67.40 68.58 68.21 68.70 69.90 70.36 71.12 72.10 70.77 68.05 66.11 66.77 64.94 64.44 64.91 64.50 56.57 51.40 51.60 53.03 58.26 59.43 58.00 58.68 53.86 47.52 46.29 47.82 53.19 48.84 49.65 51.07 58.49 59.13 58.72 56.89 55.47 55.71 56.49 57.73 59.56 59.05 57.72
66.43 66.35 65.51 66.12 66.58 68.87 70.14 67.82 65.57 64.62 64.14 64.19 64.02 63.93 62.80 63.83 62.28 49.56 49.38 51.14 53.16 57.73 58.31 53.23 47.61 45.33 45.81 48.78 49.61 51.03 49.20 57.03 56.88 56.45 55.00 54.92 55.48 56.36 58.37 59.69 59.76 61.98 61.56
65.36 64.54 64.36 64.62 64.92 65.83 66.96 64.31 62.85 62.16 62.35 62.80 63.31 60.99 62.20 63.22 62.56 61.30 59.99 57.34 51.64 55.27 51.25 52.44 51.87 52.53 50.37 53.73 53.90 54.19 56.59 55.68 55.38 54.59 54.72 55.71 56.28 55.81 54.93 55.00 53.75 53.98 53.28
63.35 63.51 63.13 63.01 61.48 57.47 54.71 55.62 61.51 61.87 59.01 62.54 63.24 62.12 62.67 62.07 61.34 54.00 56.15 60.44 58.96 55.66 54.66 53.68 54.14 56.05 57.35 58.00 56.83 56.85 56.96 56.68 55.39 55.13 54.89 54.52 54.41 54.30 54.06 54.60 54.46 53.83 52.20
63.13 63.01 62.67 62.36 58.49 55.79 54.50 52.58 46.72 46.11 45.71 47.10 47.08 55.63 57.61 47.73 43.88 43.51 42.64 43.48 44.70 46.72 53.98 54.78 56.47 58.47 57.54 55.67 55.51 54.94 55.24 54.24 55.66 55.60 55.39 54.36 53.62 53.79 52.77 54.01 53.93 53.11 52.11
62.30 62.86 62.86 60.29 60.73 57.68 57.49 55.33 52.58 49.97 43.73 42.20 42.29 43.73 47.57 44.00 41.83 41.44 41.73 42.60 43.48 44.82 54.26 58.01 58.42 57.26 56.05 55.47 55.45 56.06 54.84 54.99 57.57 55.76 55.45 54.96 54.09 53.74 52.89 53.15 53.03 52.90 52.07
62.66 54.80 62.69 62.29 61.87 60.48 58.81 59.38 61.14 58.42 54.03 54.66 45.79 47.31 40.34 40.32 40.54 40.95 41.69 41.87 51.56 48.77 55.48 58.54 58.15 56.99 55.51 55.44 55.91 55.94 55.89 55.74 55.68 55.73 55.59 54.99 54.62 53.56 52.82 52.52 52.60 52.27 51.42
62.15 62.97 62.17 62.11 62.15 61.04 62.20 60.96 59.47 58.91 60.13 59.28 56.90 48.90 44.32 40.49 40.31 40.51 41.32 54.62 56.95 56.46 57.55 58.42 58.14 56.45 55.85 56.44 57.12 57.28 56.71 55.79 54.15 54.11 54.80 54.93 54.68 53.77 53.20 53.17 52.92 48.24 49.85
62.11 58.08 59.08 62.78 62.47 61.97 62.36 62.39 62.56 62.78 62.61 61.12 58.54 57.87 55.23 50.40 53.10 53.92 53.80 56.00 58.15 58.09 57.74 57.09 56.85 56.61 56.99 57.18 57.05 56.63 56.07 55.36 56.29 55.61 55.34 55.04 54.68 54.46 53.26 53.24 53.46 52.25 52.21
62.24 61.43 59.81 62.55 63.58 62.61 62.34 61.72 61.34 60.48 59.17 57.24 57.09 57.10 50.15 55.98 55.70 56.17 56.51 56.95 56.54 56.77 56.77 56.57 56.55 56.88 57.16 57.44 56.85 56.64 55.91 55.54 55.51 54.87 55.01 55.08 54.81 53.05 53.44 53.04 52.12 52.52 52.76
62.55 60.74 61.38 60.03 59.63 58.04 57.52 57.00 56.55 56.22 56.21 57.08 57.28 54.11 45.24 54.72 56.68 56.72 56.59 56.43 56.83 57.32 57.39 57.18 56.80 56.80 56.25 56.85 57.49 56.68 55.71 55.08 55.41 55.07 54.99 54.80 54.35 53.81 53.08 52.66 52.36 52.41 51.91
61.08 59.49 59.78 58.03 58.87 55.26 56.46 57.39 57.44 57.77 57.68 57.84 57.54 55.58 54.00 55.56 57.48 57.06 57.05 57.39 57.51 57.78 57.99 57.99 56.99 56.73 57.34 57.87 58.30 56.81 55.31 55.22 55.34 55.35 54.01 53.99 53.52 53.03 52.37 51.31 50.38 49.60 48.68
61.91 59.74 59.19 55.32 57.37 54.94 55.84 56.77 57.88 54.16 57.26 57.97 57.58 56.85 55.73 56.34 57.20 57.95 57.96 58.13 58.53 58.57 58.24 56.99 56.28 55.94 56.47 56.26 56.47 55.65 54.92 51.55 53.50 53.87 52.52 51.87 51.49 50.14 49.06 47.52 46.01 45.57 45.27
62.64 59.87 59.55 57.42 55.64 55.22 56.08 56.43 56.95 57.32 58.18 58.73 57.12 56.89 58.57 58.96 58.05 58.02 58.86 57.95 57.07 56.13 55.29 55.15 56.02 56.25 56.06 55.75 53.87 49.14 32.88 30.02 42.07 30.87 45.91 48.88 47.63 46.65 45.51 45.26 45.17 44.95 44.83
61.61 61.30 59.66 57.89 56.63 56.89 57.66 57.21 56.38 56.61 56.50 55.72 57.57 58.93 59.02 59.82 59.41 57.06 57.50 56.68 53.96 53.81 55.06 55.94 55.76 54.86 54.36 53.53 51.40 34.40 30.41 29.66 37.23 30.40 39.04 44.10 44.93 45.07 45.08 44.84 44.00 43.63 44.00

GFSGL_sfc_wetblb_048.txt.gz
Wetbulb
73.56 73.27 74.19 73.32 73.41 73.18 73.26 72.63 72.25 72.54 70.29 70.90 70.68 70.49 70.24 71.31 71.79 71.41 70.03 68.85 68.25 68.50 68.98 68.88 69.03 70.21 70.30 71.07 70.79 70.63 69.50 67.10 59.80 59.42 60.90 60.78 60.13 59.95 60.78 61.32 62.07 60.74 58.99
72.32 70.70 71.11 73.30 72.61 72.67 72.47 71.86 72.59 72.78 72.68 71.77 70.86 71.13 70.91 70.50 70.91 70.34 68.34 67.75 67.12 65.76 66.51 67.54 67.48 68.21 68.02 68.68 68.96 69.25 68.97 68.24 60.91 57.03 58.31 57.79 57.71 58.59 59.16 59.48 59.65 60.12 58.38
72.57 70.87 72.56 72.41 72.31 72.54 72.43 72.26 72.12 72.30 71.96 70.93 70.99 70.36 69.67 69.73 69.72 69.83 68.97 67.71 66.83 65.67 65.66 65.47 66.07 68.10 66.92 68.46 68.16 66.65 65.79 64.55 62.31 58.08 56.41 57.87 57.43 57.79 56.89 57.60 57.76 58.84 58.89
71.00 72.24 71.99 72.76 72.49 72.16 72.95 72.60 72.35 72.31 71.28 70.92 70.93 70.42 70.41 69.48 68.58 68.87 68.28 68.46 66.99 65.55 64.60 64.01 63.61 63.64 65.01 68.20 67.82 65.72 63.53 61.51 60.36 58.02 57.02 57.31 57.79 57.91 57.85 56.90 55.53 56.89 56.73
69.94 70.98 72.49 73.54 73.47 72.75 72.60 72.48 72.27 72.12 71.29 71.34 70.57 70.47 69.92 66.03 62.72 64.14 67.97 67.35 67.06 65.86 64.87 63.32 62.71 62.67 62.40 62.09 65.40 65.52 62.69 60.18 58.62 57.32 57.01 57.05 56.75 56.95 57.10 58.48 57.56 56.67 57.57
70.87 72.28 73.35 73.28 72.16 72.54 72.78 71.72 72.18 71.33 71.38 71.69 70.78 69.38 65.95 62.68 60.52 61.52 65.22 66.26 66.52 66.25 65.38 64.98 64.47 63.47 61.11 60.51 60.88 61.00 64.61 62.53 60.39 59.66 58.68 58.40 58.55 59.72 59.82 59.51 59.09 57.50 56.48
71.70 72.54 72.52 73.12 72.73 72.09 72.39 71.68 70.51 71.00 71.37 71.08 69.19 67.74 65.25 63.15 60.40 61.26 61.56 66.84 65.82 65.83 64.42 63.18 63.31 61.47 63.26 61.74 60.33 60.44 59.30 60.20 62.66 63.70 61.63 61.51 60.60 61.27 61.37 60.76 60.04 59.84 58.84
71.38 71.29 71.00 71.15 71.32 70.25 72.25 71.33 70.72 70.71 70.26 69.87 69.85 68.73 65.92 60.94 58.75 58.46 59.79 67.73 66.61 65.93 64.34 62.69 62.92 60.78 56.99 59.63 57.49 55.72 55.27 56.65 58.64 58.48 57.08 55.74 55.56 56.55 58.58 59.37 61.32 60.93 60.92
70.86 70.14 68.15 69.88 70.43 70.29 70.98 71.03 71.45 70.44 69.85 69.01 69.33 68.15 66.10 62.79 57.00 57.11 57.40 67.61 65.78 64.64 63.10 60.72 61.90 60.41 53.44 53.34 58.63 56.61 55.10 52.97 52.87 53.54 53.42 53.74 54.00 54.56 56.42 56.99 58.36 58.39 56.93
68.83 68.65 67.99 68.30 68.38 68.51 69.84 71.28 71.11 69.83 68.92 68.00 68.21 68.23 64.26 64.68 54.34 54.13 55.81 62.40 64.66 62.82 62.79 59.77 52.77 53.96 51.50 51.02 62.40 60.07 56.78 55.51 56.18 55.44 55.12 54.60 55.58 55.68 58.93 57.35 55.34 52.31 52.48
69.83 67.71 66.47 67.35 66.51 68.18 68.16 69.15 70.14 70.16 68.71 67.66 67.45 66.66 66.82 65.09 60.20 53.76 53.08 64.88 62.61 62.08 61.74 59.05 54.48 50.09 50.15 50.13 50.66 57.92 57.38 57.46 58.36 59.58 60.22 59.49 59.28 58.04 56.92 58.26 57.46 54.56 52.07
69.16 67.99 67.28 66.81 67.19 67.80 68.55 67.75 67.93 67.28 67.57 66.72 66.03 65.38 65.73 64.95 57.56 51.34 52.77 54.53 60.26 61.92 59.52 58.57 53.02 47.60 47.33 48.90 52.89 49.85 51.53 51.64 56.38 58.27 58.91 56.24 55.60 54.81 56.10 57.15 57.39 57.50 56.78
68.07 67.93 66.72 66.72 66.84 66.18 67.21 69.88 67.16 66.26 65.21 64.94 63.68 63.49 63.58 64.16 61.13 49.91 50.31 51.88 54.22 59.77 59.80 54.02 48.47 45.67 46.26 47.52 50.61 50.73 50.06 55.41 56.12 57.09 55.59 55.17 55.33 55.92 56.06 57.98 58.75 59.26 58.96
66.17 65.43 65.12 65.21 64.69 64.77 65.11 66.29 65.38 63.77 63.06 62.51 62.63 62.91 62.85 63.23 61.45 58.78 57.07 56.19 52.20 56.15 52.20 52.00 51.82 52.99 52.95 53.35 52.98 53.69 56.41 55.59 55.01 55.26 55.30 55.92 56.17 55.72 55.77 54.07 53.82 53.53 52.55
64.23 63.74 63.54 63.40 62.43 59.38 54.97 53.36 59.62 60.09 59.94 61.62 61.89 62.31 62.13 62.19 61.86 57.34 57.81 60.11 58.41 56.40 55.46 54.13 53.58 53.99 55.27 55.23 56.22 57.73 57.11 55.52 56.49 55.88 55.81 55.08 54.98 54.27 53.97 53.97 54.40 53.76 51.80
63.26 63.12 63.18 62.41 60.20 57.12 54.40 53.12 47.40 45.94 44.94 45.38 47.00 55.82 53.72 48.39 43.63 43.93 44.07 45.26 46.19 47.44 54.56 53.02 52.26 54.03 55.15 56.65 56.44 56.17 54.99 54.38 56.22 55.94 55.78 54.58 53.83 53.66 52.08 53.55 53.86 52.49 51.58
63.13 64.45 64.05 61.89 59.86 58.62 55.81 55.41 53.58 50.61 44.30 42.80 42.56 44.52 48.69 45.21 42.39 42.00 42.52 43.45 44.37 47.82 54.65 54.67 54.99 55.54 58.04 56.54 56.36 56.28 54.82 55.82 56.72 56.73 55.07 54.61 54.18 54.11 50.53 53.29 52.85 52.78 51.23
62.63 56.50 62.08 63.59 62.17 60.71 59.65 57.62 56.63 55.83 55.59 53.72 46.26 46.35 40.76 40.60 41.17 41.51 42.31 44.52 49.63 48.05 53.54 54.72 56.47 58.57 57.86 56.78 56.98 56.55 55.69 56.05 55.96 55.99 55.37 54.65 54.53 53.45 52.76 52.62 52.38 51.97 50.62
63.75 62.43 62.92 62.40 63.10 60.70 60.65 59.69 59.78 59.30 59.15 56.60 50.68 46.70 42.46 41.15 41.23 41.28 41.86 53.24 54.90 54.45 53.61 54.08 55.55 56.69 57.93 57.97 58.72 58.44 56.82 56.30 54.98 54.60 54.66 55.28 54.89 53.82 53.11 52.97 52.54 49.24 49.51
64.07 60.46 58.81 61.79 61.26 61.21 60.99 60.96 61.00 59.96 59.37 58.09 55.73 55.33 51.49 47.92 50.32 50.80 50.79 52.96 54.61 57.19 56.52 56.93 57.37 58.51 58.13 59.15 58.73 58.15 56.64 55.23 55.74 54.88 55.00 55.17 55.20 54.77 52.60 51.72 51.62 50.58 50.02
63.46 63.01 60.45 61.57 61.43 61.26 61.21 61.17 62.71 61.75 60.77 60.08 59.24 58.52 50.39 53.45 55.13 55.82 56.03 55.78 56.28 57.57 57.75 58.37 57.09 57.56 58.86 58.77 58.18 57.04 56.01 55.79 54.92 54.88 54.64 55.76 53.52 53.27 53.92 52.81 51.83 51.31 50.59
63.80 61.79 62.16 59.96 61.57 60.57 60.94 60.72 61.10 60.36 60.78 60.28 58.28 53.43 45.95 55.65 56.50 56.26 56.59 57.10 58.17 57.93 59.26 59.47 57.90 56.75 56.33 56.42 55.77 56.33 55.74 54.37 56.36 55.92 55.44 54.68 54.41 53.58 53.29 51.94 51.29 50.89 50.07
63.15 61.32 61.65 60.46 59.24 56.38 57.76 57.48 56.54 58.16 56.82 55.58 56.07 55.28 54.28 54.87 55.18 56.15 56.90 57.14 57.34 58.06 59.53 59.18 58.57 57.58 56.77 57.53 58.76 57.59 56.24 55.84 55.73 55.49 54.57 54.16 53.43 52.66 51.79 50.44 49.47 48.18 47.31
62.97 61.35 61.44 59.88 58.21 55.80 56.00 54.30 54.84 53.49 54.56 56.30 55.95 55.07 54.82 54.50 54.62 56.21 56.81 58.29 57.58 57.85 59.65 58.39 58.03 57.64 55.80 57.77 56.99 56.25 50.63 48.08 52.94 52.97 53.76 52.71 51.41 49.99 49.57 47.85 46.12 44.94 44.43
62.59 61.94 61.35 60.13 58.03 55.78 56.25 54.12 55.02 57.05 55.65 55.75 56.69 56.38 56.38 54.43 53.27 55.13 59.22 57.82 58.48 58.29 57.29 56.85 57.85 57.65 57.67 57.69 48.98 42.03 32.53 30.74 37.50 33.13 46.79 48.94 48.58 48.42 45.93 44.72 44.44 44.66 44.83
62.67 62.06 61.40 61.17 58.86 56.30 56.20 54.41 54.30 56.25 54.48 53.94 53.97 54.93 56.01 55.09 55.86 55.06 57.06 56.31 56.10 55.65 56.30 54.46 54.94 56.48 57.34 55.97 43.34 33.02 30.74 29.73 35.85 31.16 36.76 41.94 42.87 44.18 44.64 45.17 45.52 43.56 43.05

GFSGL_sfc_wetblb_051.txt.gz
Wetbulb
68.29 69.23 70.40 70.09 68.61 68.50 68.00 67.11 66.75 66.87 66.78 68.05 68.11 67.25 66.65 66.19 67.17 66.17 64.98 64.95 64.11 65.07 65.70 64.79 64.73 66.10 66.18 67.87 67.55 66.54 64.80 61.46 58.60 59.16 60.04 60.10 59.61 60.11 60.28 60.58 59.50 57.76 58.46
68.29 69.57 70.57 68.60 67.64 68.01 67.24 67.05 66.99 66.16 66.78 67.62 66.80 65.93 65.55 65.52 66.03 64.73 63.89 64.69 64.57 64.11 64.64 64.79 65.36 66.52 65.27 66.01 66.01 63.78 63.33 60.79 59.90 56.78 57.97 57.59 57.51 58.47 58.64 58.00 57.98 57.68 55.78
68.83 68.31 68.52 67.75 67.49 67.28 67.17 66.81 66.68 66.36 66.13 66.02 65.56 64.58 64.59 64.77 64.76 65.24 64.53 63.37 62.25 61.25 60.72 60.69 61.24 62.77 64.76 64.28 62.73 61.85 60.28 59.94 59.77 57.57 56.14 57.51 57.20 57.55 56.42 56.89 55.78 56.44 57.16
68.39 67.71 68.43 67.91 67.76 67.65 67.20 67.24 67.04 66.72 65.79 65.21 64.93 64.82 64.28 62.28 62.49 64.23 64.59 62.42 60.93 60.19 59.91 59.70 59.45 59.81 61.16 63.50 61.35 59.43 59.82 58.42 58.05 56.94 56.38 56.82 56.88 57.32 56.86 55.64 53.68 55.82 54.40
66.99 68.32 67.98 68.41 68.62 68.28 67.83 67.50 67.01 66.69 66.33 65.46 64.58 63.77 60.60 59.48 60.80 62.03 63.10 62.72 60.94 60.09 59.18 58.89 59.24 61.87 62.46 63.20 61.48 58.55 57.90 57.38 57.14 56.28 55.66 56.28 55.90 55.96 54.27 54.84 53.05 52.65 53.57
65.62 67.14 69.94 69.50 69.19 67.58 68.09 67.62 66.69 65.95 65.85 65.55 64.46 60.39 58.40 59.79 59.35 60.81 62.31 61.39 61.86 61.17 59.34 59.25 59.92 60.16 60.21 60.26 60.74 62.34 59.52 56.86 55.42 54.67 53.91 54.07 53.38 54.62 56.20 54.84 54.62 53.22 51.83
66.71 69.06 69.41 68.72 68.75 68.18 68.55 67.38 66.58 65.70 65.49 64.09 62.55 59.92 57.81 56.55 58.85 58.10 62.44 60.68 60.30 58.32 57.85 59.58 57.66 58.04 56.12 54.65 56.41 57.64 59.12 60.39 60.45 58.81 56.24 56.34 57.88 56.94 57.50 55.02 57.08 56.38 54.78
65.77 66.45 67.75 67.54 67.94 68.83 68.34 66.75 67.53 66.32 65.35 64.37 63.59 60.57 57.72 56.36 57.77 58.30 58.92 61.33 60.39 59.16 57.44 57.87 55.04 52.96 53.65 52.40 49.61 48.10 48.32 51.19 53.56 53.97 51.99 50.64 50.17 51.00 53.03 53.59 56.64 56.78 56.12
67.55 65.74 66.48 67.15 67.31 67.15 67.15 67.10 66.82 66.64 65.72 64.77 64.86 61.24 57.45 54.96 55.67 55.16 57.91 60.73 59.96 58.00 56.56 56.90 55.74 51.06 53.19 54.59 49.98 47.32 45.33 45.43 51.68 53.25 52.02 52.64 53.28 54.12 53.79 51.35 49.84 49.93 51.55
65.06 66.03 66.19 65.48 65.22 65.33 65.79 64.07 65.53 66.94 65.01 65.16 64.43 63.21 59.22 56.83 53.52 53.39 54.49 57.26 58.47 57.64 54.74 51.15 53.54 50.23 50.64 52.36 51.84 48.89 46.35 47.25 48.28 48.85 49.18 50.59 52.03 52.30 55.16 50.13 49.33 46.46 48.36
66.35 65.18 64.45 64.78 63.11 64.38 65.84 66.31 65.65 66.10 65.50 64.62 64.46 64.14 62.20 58.26 53.89 53.31 52.09 59.17 59.18 57.80 55.78 53.58 47.03 49.71 48.82 48.79 51.23 55.07 52.43 51.84 54.41 51.28 51.72 51.07 51.35 52.08 51.41 50.21 50.08 47.52 47.30
65.27 64.13 62.96 64.79 66.02 65.95 65.63 65.03 65.41 66.03 64.83 64.46 63.89 63.28 63.66 60.59 53.01 51.25 52.00 54.55 57.31 56.65 54.66 52.22 48.79 47.07 46.27 47.55 47.22 48.36 49.60 49.92 48.43 49.59 51.93 51.19 52.29 51.27 51.08 50.28 50.58 50.94 49.27
64.28 63.49 62.58 63.32 63.94 64.20 63.64 64.82 65.43 65.79 65.31 63.93 62.80 61.84 62.13 60.10 55.11 50.28 50.63 52.65 54.26 54.90 54.36 51.57 47.80 45.31 45.24 45.97 48.38 48.92 48.97 48.88 49.86 49.48 46.97 46.96 47.64 47.73 48.12 50.21 49.85 51.95 51.23
64.19 63.79 62.56 60.98 61.18 60.76 62.17 63.52 64.56 64.63 64.22 63.25 61.66 61.49 61.72 60.90 54.89 51.75 52.01 51.69 52.65 51.25 51.25 47.79 47.07 47.16 49.24 50.96 48.56 48.05 48.44 47.05 47.93 46.57 46.75 47.12 48.31 48.67 48.75 45.86 46.03 45.49 45.92
62.64 62.52 62.32 62.04 60.82 57.75 52.86 51.83 54.71 57.22 57.61 62.95 62.50 62.55 61.56 60.67 57.88 53.11 52.32 53.37 51.55 50.53 48.54 46.03 45.11 45.96 48.49 49.10 48.59 48.75 50.58 46.44 48.40 46.62 47.09 46.88 46.77 47.13 45.38 45.33 46.76 45.76 44.03
61.89 61.60 61.59 61.80 59.69 55.31 54.67 52.72 47.39 46.16 45.27 45.67 48.40 57.12 53.33 48.15 49.13 47.79 47.66 48.17 47.51 47.30 48.78 46.11 44.92 45.73 47.52 49.34 49.35 49.34 46.62 49.74 48.08 47.92 46.66 46.06 45.85 44.49 43.77 44.66 46.68 44.24 44.35
60.29 60.50 61.31 60.34 59.15 56.62 53.69 54.81 54.33 50.70 44.24 42.91 43.07 46.87 46.92 44.43 42.44 43.09 43.54 44.46 45.56 48.14 48.72 47.61 46.60 46.79 48.30 50.08 51.60 48.93 46.46 47.83 47.39 48.62 47.36 45.95 46.53 47.15 43.91 45.26 46.07 45.15 44.19
58.71 56.94 58.02 59.06 60.30 59.23 57.80 55.06 54.82 55.30 55.04 53.94 47.03 45.93 41.47 41.04 41.06 41.61 42.79 46.90 47.09 45.98 47.95 48.53 49.41 50.37 51.62 52.06 48.14 48.76 47.92 47.29 46.69 48.41 47.43 47.08 46.75 45.64 45.11 45.49 44.67 44.76 42.87
60.18 59.20 58.42 58.79 59.82 59.29 59.07 58.45 57.34 56.08 55.82 55.25 47.88 45.84 42.45 41.76 41.60 41.71 42.92 49.12 48.06 47.17 47.82 47.14 48.57 49.91 52.85 51.68 51.58 49.84 49.16 48.82 49.24 48.28 46.58 47.51 46.77 46.34 45.26 47.51 46.06 45.95 45.43
60.93 59.81 58.44 58.08 57.89 59.06 59.60 58.82 58.32 58.21 57.47 55.86 51.08 49.34 44.87 44.77 46.35 46.49 44.93 45.39 47.66 50.65 50.84 50.70 50.20 51.34 53.32 53.94 52.23 49.03 48.21 46.98 46.10 46.95 47.13 47.82 50.07 48.84 47.41 45.07 44.74 44.22 43.14
60.28 59.27 58.52 58.42 59.35 57.89 59.32 59.69 59.87 59.36 57.78 57.53 54.66 53.03 46.05 47.87 48.17 49.35 48.48 49.21 49.94 50.72 50.93 52.05 51.53 54.19 53.45 53.87 51.08 50.19 49.37 49.28 49.18 48.90 48.38 50.94 50.69 47.14 46.43 45.95 45.41 44.84 44.16
60.58 59.73 58.72 58.18 59.14 57.27 58.84 59.92 59.64 59.27 59.68 58.88 58.23 55.86 43.53 50.47 51.36 52.94 53.40 53.24 53.35 53.80 54.63 53.94 54.89 54.87 54.13 53.09 52.35 51.92 50.79 49.95 50.89 52.05 50.69 49.27 47.53 47.02 46.64 45.55 44.64 44.04 42.90
60.33 59.88 58.74 57.73 58.73 55.73 54.30 53.86 53.36 53.91 55.25 58.95 59.28 53.98 50.09 51.52 53.64 53.81 54.08 54.86 54.46 55.28 55.01 53.19 52.09 52.04 52.15 53.17 53.19 52.33 51.06 50.12 49.73 49.21 48.19 48.87 46.76 46.03 44.68 43.47 43.13 42.25 40.68
59.73 59.12 58.02 57.11 56.54 54.89 53.38 52.86 53.42 50.99 54.36 54.13 52.88 52.86 52.81 52.94 51.20 49.77 51.16 52.90 54.46 55.02 54.04 53.04 52.02 52.06 51.70 52.51 52.18 49.38 49.43 48.79 47.27 47.37 49.22 47.45 44.80 43.23 42.81 41.10 39.15 38.43 37.57
59.98 58.69 58.21 56.85 56.19 55.09 52.35 52.63 54.02 53.90 54.23 54.63 54.74 54.48 53.80 51.89 52.41 53.03 53.83 53.71 54.40 53.26 53.05 52.05 51.85 52.70 52.51 50.00 42.17 37.62 33.95 32.22 38.94 38.61 41.08 41.13 40.90 40.50 39.64 38.08 37.53 37.23 37.42
59.23 58.64 58.89 58.81 56.64 55.13 53.00 52.64 52.82 53.26 53.01 53.00 53.70 53.01 53.56 54.46 53.98 53.18 52.73 52.39 51.96 52.06 51.62 51.63 52.00 52.57 48.98 43.46 39.64 33.16 31.57 30.67 32.09 31.31 34.89 35.50 35.75 35.87 36.13 36.98 37.54 36.63 35.95

GFSGL_sfc_wetblb_054.txt.gz
Wetbulb
68.02 68.42 69.28 68.48 67.54 67.44 66.01 65.72 65.54 65.36 65.38 65.54 66.59 65.72 65.22 65.15 64.60 62.99 62.66 63.25 63.31 63.06 63.34 63.52 63.75 64.72 65.05 65.60 65.83 64.81 64.13 61.29 58.77 58.74 59.82 60.06 59.76 59.81 59.98 58.94 57.51 56.29 57.80
67.48 68.56 69.10 67.70 67.05 66.12 65.19 65.25 64.72 64.41 65.01 65.18 65.14 64.37 65.20 64.73 63.31 62.70 62.46 62.61 61.40 61.09 61.30 61.60 62.41 65.47 63.76 63.46 62.66 60.92 60.02 59.74 60.21 57.35 57.77 57.67 57.91 58.55 58.40 57.39 56.70 56.32 55.75
67.64 67.80 67.86 66.07 66.72 65.45 65.38 65.38 65.43 64.76 64.63 64.34 64.10 63.57 63.67 64.04 63.26 62.52 61.60 60.32 59.43 59.40 59.60 59.84 60.59 62.49 61.06 60.40 60.52 58.88 59.85 60.71 60.21 57.96 56.06 57.43 57.29 57.65 56.75 56.05 55.31 55.79 56.44
67.43 66.77 67.15 65.85 66.21 65.96 65.54 65.11 65.45 64.89 64.04 63.62 63.33 63.13 62.09 62.65 63.59 62.76 60.05 58.66 58.55 58.53 58.59 58.78 59.38 61.31 60.43 59.11 58.63 57.69 58.11 58.84 58.26 57.31 56.44 56.54 56.85 57.25 56.73 55.23 54.04 53.43 52.71
66.60 66.32 66.92 66.50 66.60 66.20 65.71 65.91 65.49 64.76 64.25 63.51 62.92 59.91 58.70 60.18 62.50 61.96 60.21 58.51 57.45 57.11 57.40 58.83 59.71 62.69 63.84 61.28 58.42 56.06 56.08 57.18 57.32 56.66 56.30 56.00 55.46 54.77 55.12 55.17 52.11 51.02 52.32
65.75 66.67 67.47 67.41 66.96 66.30 66.27 65.87 65.23 64.83 64.19 63.13 60.39 58.30 57.29 60.01 59.06 61.06 61.61 59.99 59.02 57.41 57.18 57.11 57.83 58.14 60.16 61.57 61.11 59.90 57.82 56.16 54.42 55.02 52.50 52.61 51.95 53.06 54.14 53.60 51.91 51.01 50.68
64.48 65.57 67.50 67.75 66.85 66.65 67.67 66.25 65.78 64.15 64.03 62.81 58.29 57.12 56.26 57.33 57.50 59.27 60.82 59.34 58.48 58.38 57.98 55.42 55.20 56.04 55.37 55.19 58.43 59.79 60.07 59.62 58.59 55.53 53.68 53.45 53.50 55.18 54.55 53.00 53.61 55.53 53.18
65.27 65.86 66.88 66.52 66.81 66.49 66.94 65.85 65.73 65.24 63.67 60.93 58.95 56.79 55.85 56.75 56.43 57.20 59.84 58.41 56.26 56.64 55.81 53.70 51.67 51.42 51.38 50.60 48.90 49.05 50.75 53.33 55.79 57.99 56.78 54.89 52.88 52.63 56.33 55.83 55.13 54.23 54.24
65.00 65.11 65.68 66.24 65.59 66.26 64.84 63.21 63.92 64.69 65.21 63.64 60.61 57.36 55.55 54.97 54.03 55.99 58.89 58.26 56.58 55.55 55.29 53.99 51.88 50.63 53.54 51.59 45.77 43.85 43.23 44.64 51.86 52.36 51.37 51.80 52.71 53.08 52.79 49.78 47.72 51.31 50.25
64.17 64.48 64.60 64.91 64.57 64.34 64.21 63.60 62.92 63.18 64.45 64.96 63.55 60.23 56.06 54.83 52.73 52.78 57.01 58.77 55.51 54.10 51.96 52.05 54.06 50.88 51.86 50.59 46.23 46.00 46.06 45.35 46.55 47.24 47.76 49.49 51.42 51.88 53.18 48.36 47.60 48.90 47.98
64.38 63.62 62.94 62.04 61.66 62.61 64.32 63.41 61.69 63.17 65.23 64.69 63.74 62.57 59.30 55.10 53.29 51.24 52.24 58.48 57.18 54.63 52.74 49.22 47.10 49.83 48.16 49.77 49.41 47.92 48.56 47.98 50.76 48.69 48.74 48.74 49.33 50.40 49.64 47.91 46.23 48.09 45.98
63.26 61.98 60.93 62.27 63.87 64.45 64.05 63.30 62.31 62.54 63.40 63.65 63.29 62.58 62.33 58.02 52.47 50.91 52.03 54.83 56.94 56.33 53.87 51.70 47.77 46.89 45.68 46.98 46.75 49.50 48.65 50.26 49.50 49.34 50.62 51.54 50.82 49.88 50.14 49.22 48.25 48.05 46.05
62.67 61.59 61.91 61.22 61.76 62.26 61.82 62.35 62.84 63.66 64.19 63.92 63.58 62.68 62.00 60.92 54.66 50.16 50.60 52.48 54.33 55.89 55.43 52.42 47.60 44.79 44.77 45.63 47.69 47.50 48.19 47.47 47.67 46.94 47.79 48.17 49.50 50.84 47.31 47.54 46.58 48.50 48.90
64.07 63.10 62.27 60.94 59.82 59.14 58.92 60.05 62.02 64.17 63.72 64.26 63.22 62.30 62.11 60.35 56.93 53.72 53.40 53.50 53.27 54.42 54.29 50.68 47.83 46.64 46.62 48.21 48.02 46.53 47.30 45.70 46.37 46.04 45.30 45.16 45.97 45.98 45.76 43.63 43.55 43.79 43.88
62.35 62.19 62.01 61.79 60.86 57.99 55.10 53.16 54.07 56.89 54.11 61.15 63.54 63.03 61.69 60.28 58.77 53.25 51.82 52.85 51.42 49.99 46.61 45.07 43.73 44.26 45.11 46.54 47.10 46.15 47.06 45.06 46.13 45.41 44.87 45.14 44.22 45.24 44.11 43.30 44.27 43.66 42.01
58.94 58.79 59.67 61.36 60.12 57.47 56.04 55.10 49.17 46.73 44.92 43.80 46.51 56.46 57.45 51.94 50.50 47.31 45.30 45.27 45.36 44.65 45.85 44.52 43.64 43.74 45.42 46.48 47.44 46.84 47.57 48.82 45.56 45.88 44.03 43.97 44.63 42.95 42.11 42.44 44.33 42.00 42.69
57.28 57.30 57.83 58.33 60.46 57.37 55.24 54.93 54.41 51.71 45.29 43.81 43.19 44.83 47.80 49.61 44.96 46.66 44.65 44.01 43.70 45.18 47.82 45.59 44.27 43.95 44.72 46.24 47.58 47.74 46.81 45.52 46.23 46.29 44.56 43.84 44.51 43.92 42.85 42.92 43.89 42.42 43.22
57.30 55.07 56.41 56.01 57.11 57.51 57.45 56.24 55.61 55.04 55.04 55.22 47.04 44.89 41.63 41.06 41.00 42.29 43.07 44.89 47.94 47.54 50.05 47.71 47.21 46.06 45.41 46.27 47.42 48.55 47.67 45.43 44.78 46.25 45.54 45.37 44.81 44.14 43.20 43.42 43.09 42.67 41.65
57.47 57.27 56.77 56.43 56.49 56.59 57.15 57.94 56.99 56.38 55.77 55.04 49.86 46.02 42.59 40.82 41.40 42.17 42.56 52.34 53.70 52.83 51.07 50.12 50.17 49.70 49.13 50.01 50.30 49.15 49.78 48.07 45.23 45.77 45.94 45.33 44.64 44.12 43.53 43.26 44.35 43.99 43.47
59.13 57.88 57.16 56.99 56.55 55.77 56.53 56.77 57.81 55.86 55.36 54.09 51.87 52.12 46.41 45.04 47.78 47.99 47.74 50.06 49.95 49.36 48.38 48.66 50.15 49.73 48.57 49.54 49.51 49.42 49.79 48.66 46.23 46.18 45.52 44.98 45.79 45.20 44.93 44.78 43.62 42.92 42.10
59.67 59.02 57.93 57.59 56.79 56.75 56.05 56.67 57.27 57.15 57.49 56.70 55.81 53.04 45.31 48.67 49.02 48.05 48.42 48.62 49.76 50.38 50.92 50.74 49.70 48.93 49.78 49.94 50.30 51.08 50.21 48.45 47.19 47.66 46.06 45.01 46.52 47.03 46.67 43.87 43.27 43.50 42.95
59.63 58.87 57.95 56.96 57.10 56.61 55.95 56.37 56.61 57.59 58.25 57.43 56.87 53.34 43.69 49.14 50.38 49.36 48.85 49.51 49.72 49.63 50.85 50.74 50.68 50.80 52.04 52.55 52.46 51.19 49.75 48.47 47.99 47.45 46.79 46.66 47.68 46.39 44.74 44.86 44.11 42.87 42.35
57.46 58.44 58.18 57.40 56.80 55.69 55.29 53.49 50.96 50.29 51.52 56.72 58.03 55.40 48.60 50.71 50.04 49.84 50.53 51.62 51.59 51.42 52.19 52.38 53.30 53.37 53.62 53.61 54.28 52.73 51.43 50.37 49.91 49.81 48.82 47.63 46.91 47.12 47.00 45.52 43.71 41.62 40.57
56.18 57.62 57.98 57.07 56.03 55.53 53.93 50.44 50.21 49.53 52.03 51.92 58.60 58.27 51.01 50.92 51.88 51.29 50.36 50.47 51.68 52.05 54.08 52.51 51.74 51.64 51.05 52.12 52.70 51.60 50.45 50.05 49.44 49.42 49.46 48.75 46.11 44.62 45.41 44.31 42.85 41.64 37.81
54.50 56.37 56.63 55.71 55.07 54.51 53.52 53.37 50.55 51.04 52.55 51.96 52.16 51.78 51.56 51.99 50.96 50.87 51.31 51.17 50.78 50.60 50.80 51.06 49.96 51.95 51.98 50.68 45.10 41.90 34.43 33.39 41.59 39.48 45.75 46.60 45.13 43.67 42.57 39.07 39.77 37.56 36.57
53.59 56.13 55.66 55.46 55.31 54.46 54.06 52.68 52.61 52.34 51.94 52.50 51.45 52.92 51.21 52.23 52.83 52.00 51.02 51.31 51.34 51.61 51.96 52.07 52.11 49.87 45.92 43.09 40.62 34.35 32.60 31.53 35.82 35.22 38.96 37.43 38.47 37.30 35.68 35.72 36.50 35.92 35.65

GFSGL_sfc_wetblb_057.txt.gz
Wetbulb
66.97 67.24 68.00 66.61 66.84 65.92 65.33 64.98 64.63 63.85 64.07 64.48 64.70 64.53 64.31 63.86 63.15 62.05 61.87 62.27 62.19 61.97 62.38 62.92 63.40 64.05 64.18 64.70 64.70 66.06 64.12 62.75 58.88 58.58 59.85 60.31 60.05 59.80 57.73 57.44 56.97 56.13 58.09
67.08 67.76 67.73 66.75 66.90 65.79 64.85 64.78 64.85 63.98 64.34 64.83 63.98 64.17 64.21 63.15 61.91 61.61 61.65 61.01 60.58 60.11 60.31 61.48 62.54 64.21 61.76 61.78 62.10 62.21 61.93 61.34 60.30 57.62 58.18 57.88 57.98 58.46 57.79 56.53 56.41 55.97 55.64
67.11 67.22 67.15 65.67 65.96 64.83 64.64 64.77 64.26 64.12 64.05 63.87 63.33 63.69 62.72 62.15 61.34 60.68 59.81 59.26 58.81 58.75 59.11 60.44 61.02 60.89 59.48 59.02 58.38 59.65 60.04 61.02 60.71 58.33 56.11 57.32 57.16 57.56 56.41 56.57 55.80 55.89 55.65
66.81 66.54 66.70 65.00 65.53 64.74 64.70 64.61 64.32 64.03 63.43 62.56 62.44 62.52 62.78 62.40 61.65 59.24 58.19 57.87 58.01 57.93 58.35 59.42 60.08 59.81 58.72 58.02 57.80 59.81 59.91 59.33 59.00 57.62 56.61 56.43 56.71 57.20 56.87 55.51 54.50 54.67 53.37
66.16 65.80 66.05 65.47 65.87 65.34 64.92 64.57 64.88 63.75 63.53 62.68 61.90 60.02 60.88 62.33 61.71 58.22 57.35 56.71 56.49 56.67 57.29 58.77 60.31 62.13 61.52 59.76 57.62 56.41 59.07 58.32 57.91 57.15 56.31 56.05 55.67 55.49 55.21 55.36 53.59 53.01 50.94
65.56 65.38 66.32 66.10 65.65 65.54 65.19 65.65 65.17 64.16 62.80 62.48 60.16 58.32 58.30 61.31 59.99 59.90 58.91 56.91 56.37 55.97 55.64 55.93 56.81 60.55 60.99 60.48 60.03 59.19 57.25 56.81 57.49 57.21 55.19 55.69 55.63 56.51 55.21 52.04 50.15 50.07 49.53
64.92 65.66 66.15 66.50 65.35 65.53 65.98 65.70 65.33 64.32 64.21 61.87 58.82 57.26 57.07 58.05 58.18 59.22 60.88 58.23 56.95 56.19 54.83 53.67 54.66 56.54 58.06 57.94 59.49 59.77 59.32 59.08 57.85 55.44 53.31 52.85 52.57 53.83 53.49 51.80 51.59 51.75 52.24
63.79 64.02 65.55 65.89 65.55 65.61 66.26 65.54 65.81 65.26 64.54 62.78 60.21 56.84 56.23 57.35 56.55 56.83 59.06 57.63 56.69 57.13 54.75 52.31 52.11 51.95 52.96 54.24 53.48 53.04 53.04 53.74 56.07 56.71 55.42 55.16 55.10 55.53 55.06 54.80 54.26 52.86 52.56
63.90 63.83 65.15 65.53 64.63 64.50 63.80 63.34 63.93 64.31 64.92 63.31 61.40 58.86 56.45 56.19 54.07 55.16 56.94 55.72 55.40 55.10 53.92 51.32 50.61 50.27 52.12 51.23 48.48 45.51 43.92 45.02 52.03 52.87 52.73 52.19 52.60 53.16 53.96 51.33 51.70 52.20 49.87
63.60 64.19 64.07 63.57 63.44 63.51 62.22 61.25 62.22 63.60 63.66 64.74 62.84 61.19 57.42 57.26 52.45 53.53 56.33 56.23 53.52 53.31 52.42 52.05 54.15 50.44 51.06 48.70 43.88 43.21 42.50 43.25 45.66 46.60 47.58 49.69 50.00 50.91 53.09 46.91 47.09 46.87 47.66
63.49 62.72 62.39 61.96 61.49 61.80 61.97 61.16 60.32 61.64 64.15 62.87 63.32 62.48 60.52 57.40 55.21 51.24 53.89 57.18 55.63 52.77 51.45 49.64 48.99 50.58 49.30 46.80 46.77 48.02 47.27 46.32 49.46 46.73 46.89 47.28 48.09 48.33 47.48 45.95 45.64 49.22 46.48
61.49 60.68 60.50 60.75 61.51 62.29 61.77 61.65 60.58 60.73 59.90 63.43 62.50 62.18 61.80 59.81 53.02 49.88 51.22 54.72 55.66 54.92 53.22 51.04 48.48 47.70 46.08 47.19 48.11 47.86 48.07 50.15 49.32 49.21 49.25 48.10 48.00 47.65 48.47 47.62 46.39 45.29 44.86
60.96 62.14 62.53 61.17 60.47 59.87 60.21 62.18 60.49 59.76 60.33 62.91 62.69 62.73 62.18 62.00 58.32 50.54 50.02 51.23 53.70 55.87 54.88 52.54 48.39 44.62 44.14 45.79 46.54 47.87 48.23 47.04 46.96 46.89 47.55 49.23 50.45 49.83 47.65 47.15 46.35 46.90 47.39
63.08 61.52 61.95 61.29 60.72 59.96 58.72 58.77 59.33 62.07 62.23 62.87 63.23 62.66 62.71 62.02 58.77 55.09 53.73 54.76 54.62 56.29 55.66 52.58 48.53 46.75 46.42 46.87 47.20 46.65 45.87 45.78 46.90 45.79 45.91 46.37 45.25 45.48 45.51 43.69 42.22 42.54 42.53
61.58 61.51 62.03 61.63 60.61 58.70 55.25 55.51 55.51 55.99 55.02 56.99 61.12 63.07 63.05 61.62 60.63 56.71 54.68 55.89 54.94 54.69 50.95 45.98 43.88 43.21 43.45 44.64 46.41 44.41 45.72 44.46 44.78 44.51 44.53 44.53 44.60 44.46 43.78 42.47 42.38 42.29 41.37
57.75 57.76 57.42 57.30 56.67 55.85 55.73 55.12 49.80 48.88 46.36 43.46 42.72 46.16 59.41 52.89 48.72 49.62 47.63 49.00 46.02 44.59 47.52 46.14 45.05 44.03 44.22 44.39 46.36 46.27 45.88 48.00 45.16 44.39 43.82 43.85 43.75 43.43 42.10 41.34 42.58 41.26 41.50
56.75 56.35 56.17 55.89 56.67 55.81 53.94 53.76 55.25 52.56 46.16 44.49 43.40 43.48 43.82 47.45 46.18 44.91 46.00 46.63 43.36 44.06 51.19 47.32 47.40 45.46 45.71 45.14 46.42 46.71 46.29 46.56 45.33 44.60 43.38 43.36 43.67 41.83 41.98 41.25 42.04 41.63 41.80
56.11 53.83 55.29 54.81 54.97 55.83 55.37 54.99 54.06 55.41 54.94 56.17 45.40 43.54 43.37 42.29 42.37 42.01 43.10 45.44 47.41 45.57 51.26 50.36 48.65 47.65 46.16 45.69 46.23 47.37 47.50 45.10 44.86 44.82 43.94 43.16 43.90 44.06 42.17 42.58 42.54 42.01 41.79
56.53 55.91 55.75 55.29 54.81 54.55 55.21 54.95 54.97 54.91 55.97 55.97 54.24 47.45 42.82 40.62 41.37 40.92 42.55 54.65 54.61 52.67 51.80 52.06 51.17 49.50 46.73 46.34 47.37 46.83 47.89 47.66 45.51 44.14 45.15 44.38 44.19 43.20 42.43 42.18 42.44 43.23 42.79
56.63 55.91 55.75 55.97 55.43 54.85 54.83 54.93 54.81 54.66 54.28 53.76 53.24 51.91 46.73 45.63 48.94 48.68 48.15 51.66 53.08 55.00 55.61 54.66 53.24 51.44 50.95 50.39 48.62 48.27 48.65 48.11 48.12 47.58 47.18 46.30 44.72 44.07 43.16 42.78 43.32 42.51 41.56
58.18 57.92 57.46 58.02 56.75 56.13 55.19 54.83 55.01 54.77 55.33 55.17 55.23 55.98 47.12 50.75 51.98 50.43 50.69 50.88 51.60 52.71 52.31 51.76 52.74 52.84 51.21 50.39 50.29 48.60 48.59 49.07 48.72 48.44 47.32 46.27 45.04 44.09 44.14 43.85 44.12 43.81 41.93
55.01 56.13 56.99 56.55 56.93 56.07 56.01 55.17 54.97 54.79 55.53 56.29 57.11 53.94 43.60 49.23 51.40 51.50 51.17 51.79 51.47 51.28 52.92 52.64 52.28 51.53 52.01 51.15 51.38 51.29 50.28 49.04 49.87 48.66 48.02 47.16 45.76 45.95 46.19 45.34 43.55 43.31 42.56
52.92 54.26 55.09 55.89 56.37 55.33 55.69 55.11 54.35 52.43 50.79 51.10 53.07 54.10 47.01 50.06 50.50 52.25 51.00 50.45 49.80 49.57 50.08 49.35 49.94 50.50 51.68 52.85 52.43 52.63 51.60 51.03 50.13 49.60 48.62 48.45 47.43 47.26 46.10 44.77 45.07 44.47 43.85
52.04 52.55 53.98 54.73 54.89 54.75 54.65 54.11 53.36 49.19 50.09 50.71 50.25 54.03 52.73 51.89 52.38 51.73 50.84 50.89 51.83 52.60 51.64 51.54 52.29 52.57 53.28 53.03 53.70 53.89 53.39 52.55 52.08 51.37 50.73 49.98 49.06 46.51 48.28 46.39 45.69 43.85 43.79
50.57 51.45 52.88 53.90 54.29 55.97 54.70 52.23 51.32 51.93 50.14 50.78 50.88 50.41 50.37 49.99 50.60 50.60 52.62 50.69 50.56 49.80 50.24 50.67 50.88 50.04 51.38 51.32 51.13 50.86 44.50 38.11 48.87 44.81 48.39 47.75 47.30 46.26 46.23 45.12 43.38 42.09 40.81
54.41 53.58 52.33 53.78 53.31 53.54 52.38 51.32 50.15 50.07 49.87 49.77 50.57 51.49 51.69 51.40 50.34 50.89 50.39 50.78 51.36 51.83 51.96 52.25 48.04 45.23 43.82 43.10 41.82 35.86 32.66 32.66 38.05 37.72 44.72 44.61 43.57 41.58 40.57 40.05 40.35 37.87 39.12

GFSGL_sfc_wetblb_060.txt.gz
Wetbulb
67.90 67.85 68.64 67.65 66.78 66.94 66.78 66.80 66.67 66.37 66.15 66.32 66.64 66.95 65.68 65.40 64.80 64.53 64.46 64.82 64.42 64.62 65.00 65.75 66.06 67.20 67.76 67.99 67.58 67.47 66.44 63.71 59.27 59.59 60.29 61.07 60.38 58.25 57.95 58.66 59.95 61.25 61.29
67.76 68.12 68.15 67.00 67.02 66.40 66.27 66.44 66.15 65.97 66.17 66.43 66.19 66.07 65.71 64.65 63.87 64.07 63.45 63.12 63.14 63.09 63.42 65.13 65.24 65.46 65.29 66.73 66.78 65.06 63.81 63.33 61.01 58.01 58.56 58.52 58.34 58.51 57.90 57.18 57.86 58.80 59.46
67.65 67.92 67.86 66.82 66.80 65.82 66.02 66.24 66.06 65.66 65.68 66.08 65.55 65.80 64.78 64.01 63.21 62.46 62.20 61.91 61.97 61.61 62.55 63.75 63.73 63.84 63.29 63.04 63.38 62.53 62.50 62.64 61.58 59.35 56.89 57.94 57.75 58.11 57.35 57.44 56.35 57.60 58.63
67.47 67.31 67.29 66.47 66.87 65.97 66.11 66.04 65.77 65.81 65.35 64.80 64.82 65.49 64.51 64.03 62.95 60.90 60.78 60.80 60.82 60.97 61.85 62.77 62.80 62.63 62.49 61.82 62.33 62.47 62.11 60.85 60.65 58.81 57.29 57.03 57.33 57.67 58.11 56.43 54.89 55.93 55.47
67.14 66.94 67.23 66.51 67.04 66.31 66.00 66.06 65.97 65.57 65.11 64.60 64.12 63.78 64.29 64.14 61.17 60.18 60.32 60.09 60.22 60.26 60.80 63.01 63.64 63.01 61.29 61.16 61.78 61.49 61.05 59.85 59.19 58.04 56.93 56.85 56.23 56.07 55.81 56.21 55.15 55.35 55.02
66.78 66.67 67.27 66.82 66.76 66.78 66.27 65.95 66.06 65.32 64.28 63.91 63.16 62.45 62.64 63.88 59.27 58.60 59.60 59.30 59.54 59.50 59.59 59.92 60.93 61.73 61.38 60.35 60.08 60.27 61.58 59.76 59.06 58.35 57.25 57.17 56.55 57.23 56.61 55.81 54.50 54.76 53.97
66.33 66.82 67.16 67.67 66.58 66.33 66.39 66.08 65.76 64.87 64.11 63.53 62.15 61.12 61.05 62.05 58.19 58.15 59.49 59.37 59.22 58.67 58.17 59.00 59.61 60.10 60.66 60.70 59.83 59.69 59.78 59.26 60.36 61.15 58.98 58.47 57.51 58.48 57.15 55.23 56.34 57.22 57.55
65.58 66.02 66.76 67.03 66.94 66.41 66.16 65.80 65.96 65.82 65.01 63.88 61.72 59.79 59.59 60.39 56.85 56.67 59.41 60.49 60.13 59.74 58.27 57.27 58.99 58.71 59.23 59.52 59.23 58.62 58.54 59.09 60.34 60.02 60.65 59.70 60.33 59.72 59.84 59.49 58.82 58.83 58.23
65.26 65.24 65.98 66.85 66.41 65.98 65.92 65.98 66.16 65.95 65.79 63.35 62.56 60.83 58.92 58.82 54.54 54.67 58.59 59.95 59.51 59.80 57.20 55.50 56.87 57.25 53.54 53.84 57.37 54.93 53.88 53.75 53.63 54.45 55.27 54.84 55.22 55.99 58.12 59.05 57.90 57.96 57.08
65.04 65.38 66.00 66.21 65.53 64.81 64.33 63.90 64.04 64.47 64.25 64.48 61.70 60.46 58.94 59.19 53.69 52.06 56.68 58.62 58.24 57.10 56.25 55.39 53.76 54.64 50.72 49.61 54.19 51.74 52.22 51.26 52.39 53.27 53.50 53.05 53.92 54.62 54.84 57.93 58.47 57.60 55.66
65.10 64.64 64.55 64.71 64.37 64.64 63.58 63.35 62.71 63.11 63.97 64.12 62.76 61.81 61.28 59.72 58.96 51.29 51.88 58.26 57.62 56.04 56.03 55.37 54.70 51.41 48.29 46.05 47.21 51.01 51.02 50.87 51.19 52.95 52.67 52.92 53.33 53.05 52.30 52.41 53.97 55.28 54.28
63.47 62.76 62.43 62.04 62.66 63.58 63.83 63.86 62.78 62.35 63.02 63.26 63.71 61.94 61.74 60.77 54.78 52.13 51.05 52.43 55.94 56.78 55.99 55.61 54.66 48.43 46.61 45.43 47.61 48.23 47.19 50.63 52.26 52.46 52.83 52.76 53.05 53.11 53.05 52.47 52.66 53.14 52.91
61.39 62.09 62.77 63.00 62.48 62.31 63.15 63.72 62.67 61.91 61.45 62.36 61.78 61.72 62.02 61.54 60.31 51.98 51.14 50.60 52.60 57.25 58.16 55.56 50.53 45.80 44.41 47.36 47.78 48.04 48.47 53.39 53.21 52.57 53.06 53.66 54.03 54.45 53.95 53.92 53.08 53.52 53.65
61.88 62.84 63.07 62.73 62.21 61.43 60.61 60.49 60.49 60.81 61.76 62.36 63.34 62.88 62.80 63.33 61.56 59.57 55.73 55.34 53.28 55.87 56.78 55.77 52.25 49.38 48.22 49.87 49.34 49.35 53.75 52.94 52.94 53.45 53.72 54.74 53.43 53.10 53.49 52.96 51.41 51.24 51.88
63.40 62.81 62.08 61.83 61.53 60.71 58.85 58.82 58.50 58.80 57.80 59.43 59.22 59.97 61.94 62.72 62.53 57.11 55.96 56.99 57.09 57.07 55.93 51.77 49.64 48.79 48.19 48.62 49.88 49.90 49.73 50.69 50.33 50.54 50.44 50.93 51.06 51.47 52.22 49.44 49.23 48.81 49.25
60.57 60.26 59.85 60.17 59.85 59.09 57.07 57.56 51.62 50.02 46.80 44.99 43.17 46.62 56.09 52.06 48.07 46.98 46.98 48.25 49.52 49.52 53.30 51.78 51.46 49.07 48.00 47.60 48.27 49.46 49.19 50.59 50.26 49.75 50.16 50.38 50.45 50.10 50.18 48.11 49.06 48.96 49.13
59.30 59.30 59.03 57.51 59.33 58.57 57.65 57.15 57.04 55.65 45.48 43.54 42.09 42.05 41.16 43.34 42.81 43.54 43.17 45.17 45.71 47.34 55.06 53.80 54.24 51.44 50.57 48.49 48.00 49.48 49.43 49.82 51.35 50.03 49.90 50.01 50.04 49.91 48.02 48.27 48.57 48.45 47.94
58.96 52.72 57.95 58.18 58.25 58.39 58.53 58.18 57.53 57.08 56.65 57.30 47.05 44.74 43.89 41.67 41.90 42.09 41.18 45.35 47.98 47.07 53.45 54.49 53.13 53.20 50.65 48.97 47.98 49.56 50.96 50.55 50.51 50.31 49.73 49.48 49.40 48.96 47.43 47.68 47.89 48.92 49.05
58.64 58.49 58.37 58.19 57.82 56.48 57.62 57.72 57.65 57.58 57.31 57.64 58.26 49.63 44.80 40.65 40.70 40.63 40.98 53.23 53.20 52.71 52.53 52.86 54.52 52.46 50.54 49.27 50.72 50.69 50.67 51.41 50.79 50.36 50.46 49.85 49.45 49.25 48.59 49.21 49.18 46.23 47.37
59.84 56.35 56.63 58.84 58.59 58.17 57.89 57.71 57.75 57.48 57.49 57.55 57.42 57.77 55.45 49.00 52.69 52.10 48.74 51.02 55.08 56.39 55.67 54.03 54.75 53.34 52.76 51.30 49.92 51.64 50.64 50.99 52.16 51.02 51.22 51.08 50.78 50.06 49.91 49.91 49.09 48.97 48.56
57.53 58.76 57.11 59.23 59.00 59.27 58.99 58.45 58.37 57.88 57.63 57.84 57.96 57.62 49.31 55.70 56.54 54.58 53.55 52.23 53.90 55.49 55.81 56.27 56.11 55.57 54.59 53.60 52.19 51.28 50.48 50.75 51.57 52.24 52.72 52.15 50.80 50.06 50.42 50.00 49.99 49.57 50.22
54.21 55.16 56.88 57.55 58.39 58.85 59.19 58.93 58.67 58.46 58.66 58.46 59.08 58.59 44.24 53.06 55.60 55.63 55.93 55.89 55.73 55.44 55.55 54.77 54.05 54.01 54.94 54.80 54.17 53.74 52.73 52.14 53.22 51.19 53.09 51.44 49.93 50.02 51.11 49.56 49.58 48.87 48.51
53.00 53.49 54.17 55.17 56.60 55.75 57.83 58.57 58.32 58.15 57.90 57.51 55.09 53.78 54.59 53.82 53.89 54.55 54.90 55.71 54.97 54.49 54.79 54.45 54.38 54.41 54.61 55.09 55.59 55.04 54.68 54.99 55.18 52.70 51.52 50.37 49.49 49.62 49.52 48.58 48.66 48.65 47.52
53.13 52.60 52.90 54.40 55.85 56.25 57.25 57.70 57.36 51.93 53.47 53.52 53.52 53.78 54.55 55.89 55.59 55.49 55.18 54.91 54.48 54.11 54.62 54.28 53.21 52.50 53.23 53.80 54.43 55.13 54.98 55.40 55.88 54.04 52.06 50.35 49.26 47.91 49.12 48.84 48.97 48.65 48.27
52.95 54.24 54.42 53.61 53.83 55.11 55.87 54.96 53.64 53.33 53.03 52.89 53.01 53.31 52.93 52.78 52.83 52.83 53.08 53.62 52.91 52.73 53.39 52.12 50.25 51.57 53.22 53.88 53.66 53.97 48.47 36.27 47.42 46.89 51.27 51.14 50.66 50.48 50.50 49.44 49.59 47.98 46.46
53.58 54.00 53.75 52.91 52.65 52.88 52.70 51.87 51.87 51.45 51.16 52.19 52.52 52.75 53.29 53.35 53.67 53.11 54.07 54.46 54.10 53.40 53.45 54.39 52.76 50.55 46.21 45.07 42.84 36.18 33.23 32.58 41.15 38.66 49.66 49.26 47.48 46.38 45.66 45.33 43.94 43.58 43.09

GFSGL_sfc_wetblb_063.txt.gz
Wetbulb
73.56 73.14 72.87 72.33 72.19 71.52 70.84 70.99 71.16 70.86 70.79 70.35 70.63 71.05 70.15 69.79 69.85 70.03 69.89 69.30 68.98 69.22 69.65 69.33 69.75 70.31 70.66 71.42 71.30 71.96 67.55 65.51 60.83 60.37 61.66 61.79 60.65 61.45 61.28 62.09 64.48 65.26 63.36
73.72 72.99 72.36 72.22 71.67 71.03 71.04 70.92 70.58 70.40 70.47 70.68 70.49 70.40 69.78 69.32 68.76 68.30 67.91 68.41 68.20 67.96 68.49 69.31 69.44 70.27 68.42 70.34 69.68 69.10 67.40 64.83 61.79 58.42 59.38 59.28 58.89 61.52 60.77 60.00 60.72 63.19 62.97
72.92 72.17 71.86 71.14 70.80 70.98 71.07 70.64 70.46 70.50 70.25 70.33 70.29 70.01 69.20 68.26 68.12 67.98 67.84 67.52 67.57 67.53 68.32 68.94 68.86 69.74 67.50 68.19 69.39 67.27 64.41 63.91 62.45 59.59 58.06 59.18 58.36 59.14 58.75 58.82 59.32 59.73 60.21
72.60 71.76 71.54 70.91 71.16 71.17 71.13 70.72 70.67 70.28 69.86 70.16 70.07 70.07 69.15 68.07 67.59 65.88 65.68 66.97 67.50 67.74 68.17 67.94 68.15 68.81 68.35 67.05 67.94 67.03 65.82 63.39 62.40 60.01 57.92 57.63 57.99 58.19 58.64 56.83 56.70 58.40 56.65
72.09 71.46 71.42 71.57 71.65 71.45 70.65 70.57 70.24 70.21 69.90 69.34 68.22 69.68 69.12 68.34 66.59 64.98 66.12 66.18 66.72 67.33 67.72 67.55 67.38 65.60 62.80 66.04 66.70 66.35 65.82 63.22 60.97 58.83 57.41 57.25 57.05 56.31 57.05 58.65 57.25 55.44 57.34
71.89 71.22 71.54 71.40 71.39 71.09 70.93 70.39 70.13 69.31 68.82 67.94 65.91 67.07 68.28 67.50 58.50 59.53 64.09 65.96 65.62 66.51 66.58 66.01 66.07 64.26 62.45 60.86 62.02 62.68 64.65 63.40 61.38 59.72 58.95 57.58 57.49 58.15 58.16 56.51 55.73 54.97 56.83
71.46 71.38 71.33 71.56 71.16 71.31 71.09 70.47 69.91 69.40 68.67 67.25 66.48 64.04 65.09 67.67 57.89 57.88 60.06 64.59 64.22 64.75 66.09 66.60 65.08 64.10 64.57 65.11 60.86 60.64 60.58 60.17 62.41 64.73 62.50 62.22 60.53 61.07 60.29 57.39 58.07 59.45 61.06
71.06 70.85 71.33 71.38 71.31 71.24 71.00 70.51 70.36 70.07 69.27 69.12 64.47 63.03 61.74 63.33 57.35 56.21 58.75 65.00 64.71 64.45 63.72 64.52 65.95 64.61 64.16 64.84 65.06 64.86 64.44 64.25 63.61 63.42 64.70 63.65 63.36 63.74 61.98 61.79 60.19 61.61 63.12
70.54 70.52 70.78 71.23 70.89 70.81 69.85 68.23 68.75 69.04 68.31 67.44 66.11 62.34 59.77 61.11 55.45 54.72 59.19 65.36 64.33 64.68 64.04 61.77 63.50 64.40 56.92 57.12 64.42 63.77 63.63 63.01 55.86 55.47 56.56 56.82 57.76 58.86 61.98 63.17 61.44 60.76 59.98
71.26 70.95 70.84 71.06 70.76 68.82 68.40 67.19 67.97 67.25 68.14 66.20 64.83 66.63 59.92 60.83 54.12 52.62 57.29 65.53 64.27 63.87 64.08 62.20 54.53 60.50 52.10 52.99 64.40 63.55 62.90 62.51 62.25 61.63 60.38 57.61 60.04 59.46 57.30 64.30 62.81 60.37 59.93
70.73 70.30 70.38 70.44 70.43 70.38 69.52 68.82 68.29 68.09 67.43 67.50 65.98 65.61 61.25 59.98 59.60 52.75 51.87 64.24 63.15 62.67 62.08 61.24 61.01 51.53 48.28 47.54 51.79 62.13 61.69 60.94 56.75 60.53 59.02 58.56 59.38 61.45 62.37 62.06 62.43 62.00 59.90
69.57 69.15 68.93 68.76 68.38 68.35 68.75 67.60 67.17 67.35 66.31 65.63 65.54 64.44 64.32 63.35 55.98 51.78 52.00 52.96 58.15 60.81 60.45 60.81 61.15 49.42 46.62 45.22 47.92 49.51 47.43 53.08 57.12 56.25 55.69 55.56 56.00 56.21 56.86 57.52 59.16 60.21 60.83
67.19 66.07 65.29 65.52 65.45 65.48 65.61 65.11 64.90 66.20 65.69 64.94 63.30 64.81 65.35 65.06 64.34 52.00 49.63 51.41 54.20 58.39 61.74 60.13 54.00 46.62 45.40 47.01 46.72 47.73 47.51 54.44 55.80 55.55 55.89 56.43 57.28 58.10 58.89 57.94 58.09 59.19 58.44
64.92 64.85 66.33 66.33 66.24 66.90 66.37 66.24 66.07 64.35 64.48 64.91 63.85 63.27 63.97 64.92 64.15 64.49 58.38 54.98 53.43 56.94 58.51 60.45 57.98 54.42 51.67 54.71 54.41 51.72 56.21 57.51 57.13 56.47 56.76 58.16 58.85 58.09 56.89 57.07 56.00 56.51 55.66
65.02 65.56 65.97 65.74 65.47 65.54 65.27 64.42 63.95 64.47 61.66 63.05 63.06 62.63 61.54 63.25 63.86 56.53 58.64 60.96 59.84 58.04 58.71 61.33 58.99 58.11 57.35 55.99 56.43 56.87 57.87 58.81 57.07 57.98 57.96 57.96 57.94 58.18 58.26 58.90 56.53 55.27 53.83
65.29 65.35 64.83 64.80 64.56 64.30 63.64 63.83 52.44 51.99 47.46 45.29 44.38 50.59 60.18 52.77 46.56 43.29 44.38 45.11 46.92 49.28 57.15 57.42 57.22 57.61 56.96 55.85 54.52 55.41 55.61 54.28 56.12 57.38 57.44 57.50 56.44 56.11 55.97 56.70 55.48 53.43 52.80
64.01 64.02 63.40 61.93 63.87 63.55 63.51 63.36 62.48 57.96 46.51 44.18 42.93 42.93 41.27 45.31 41.63 40.94 40.94 41.48 42.39 47.46 56.87 57.98 56.87 58.85 60.91 57.30 55.87 53.86 52.71 53.87 55.69 54.32 55.03 55.23 55.72 55.93 54.94 55.69 55.17 53.95 53.07
63.90 54.70 63.68 63.41 63.67 63.58 63.57 64.08 63.75 62.34 62.01 62.53 47.59 47.05 43.09 41.28 41.10 41.30 41.12 44.18 51.56 47.97 55.75 56.83 56.41 57.95 59.24 56.37 58.53 54.03 52.18 52.07 51.87 53.48 55.08 55.59 56.18 56.28 55.20 54.61 54.35 53.93 53.56
63.97 64.05 64.28 64.16 63.89 61.98 63.81 63.72 63.12 62.50 62.48 62.34 63.11 51.96 47.54 41.80 42.15 40.39 40.36 58.18 57.07 55.85 54.00 55.11 56.23 56.03 56.87 58.52 56.56 55.53 52.46 50.99 51.59 53.06 54.11 54.65 55.37 55.25 54.68 54.72 54.50 49.23 51.16
65.00 58.97 58.77 64.55 64.76 64.19 64.18 63.62 63.40 63.21 62.54 62.36 62.10 62.10 63.64 57.88 60.81 61.47 59.16 57.19 57.02 58.24 58.67 56.59 56.43 55.79 54.77 53.16 51.71 51.75 51.37 51.17 51.38 52.45 52.93 54.12 55.92 55.59 54.64 54.05 54.55 53.96 53.45
62.18 63.03 56.31 62.89 63.00 63.85 64.11 63.86 63.69 63.67 62.85 62.51 62.81 61.05 46.16 59.43 59.27 59.38 59.97 60.34 59.64 59.67 59.66 59.44 58.67 58.43 58.13 56.41 55.30 53.40 52.50 51.39 51.35 51.86 52.89 53.57 54.48 55.35 55.83 55.38 55.16 54.88 54.40
58.22 59.04 59.62 59.97 60.84 61.64 61.96 62.67 63.15 63.08 62.99 62.93 62.89 61.05 44.56 59.08 59.07 59.35 59.93 60.40 61.18 61.53 61.69 61.24 60.73 60.02 59.95 60.40 59.25 57.59 57.29 56.92 56.86 53.45 51.72 52.03 52.68 54.40 53.94 53.63 53.81 54.36 54.10
56.89 56.39 56.69 57.10 57.96 56.23 60.18 62.08 62.24 62.59 62.73 62.13 60.52 59.01 58.52 58.88 59.05 59.02 58.82 59.81 59.71 59.99 60.58 59.81 58.60 58.36 59.08 59.56 59.87 59.64 58.78 59.06 59.58 58.97 54.11 53.00 53.82 54.54 51.54 50.97 51.20 52.18 52.78
55.76 57.04 57.00 56.55 56.77 58.48 60.46 60.12 59.64 52.85 57.02 56.98 57.31 57.76 57.41 57.41 57.50 57.22 57.41 57.66 57.98 58.26 57.43 56.94 56.66 55.91 56.63 57.17 57.90 58.57 58.70 57.64 58.34 58.60 58.45 55.63 53.23 49.86 51.08 50.68 50.87 50.21 50.21
55.12 55.00 54.84 54.92 55.24 56.21 56.97 57.30 56.88 55.77 56.45 56.83 56.73 56.56 56.96 57.20 56.94 56.96 57.24 57.44 57.18 56.69 53.94 54.19 53.55 52.81 50.83 49.56 48.40 46.31 38.83 33.34 41.63 42.37 54.26 54.51 53.66 52.57 51.33 50.19 49.41 49.29 49.38
54.04 53.95 54.27 54.92 54.37 54.63 54.33 53.86 53.83 53.64 53.44 53.40 53.70 53.79 53.49 53.41 54.21 53.70 53.94 54.32 54.38 54.49 54.38 55.13 54.47 52.98 51.62 48.44 42.63 36.27 33.77 32.48 38.57 34.45 44.36 51.73 51.51 51.30 50.59 49.77 49.84 49.76 49.62

GFSGL_sfc_wetblb_066.txt.gz
Wetbulb
76.03 76.03 75.51 74.73 74.29 73.93 73.30 73.03 73.00 72.78 72.18 72.37 72.59 72.64 72.20 71.95 72.73 72.37 71.66 71.38 71.02 71.20 71.58 71.09 72.08 72.97 71.96 73.10 74.33 74.18 72.34 69.37 61.57 61.20 62.28 62.71 62.90 63.69 64.93 65.41 65.67 66.82 64.49
76.48 76.23 75.26 75.04 74.43 73.63 73.14 73.38 73.05 72.29 72.56 72.06 71.85 71.57 71.75 71.61 71.94 70.72 70.22 70.76 69.43 69.24 69.62 71.20 71.07 71.45 72.35 72.95 73.35 72.26 72.79 70.27 62.94 60.77 60.66 60.44 60.72 62.88 63.70 64.00 65.36 65.53 65.01
76.68 75.91 74.76 74.30 73.83 73.54 73.11 73.27 72.43 72.22 71.89 71.73 71.83 71.51 71.32 70.71 70.39 70.40 70.29 69.94 69.64 69.91 69.50 69.50 69.53 70.14 70.39 71.23 72.11 71.02 69.94 68.41 63.98 60.18 59.26 59.80 58.97 61.92 62.25 62.65 62.75 63.42 62.66
75.95 74.91 73.91 73.79 73.37 73.29 73.20 73.06 72.51 72.58 72.19 71.89 71.88 71.49 71.19 70.57 70.15 69.81 68.13 68.72 69.86 69.91 69.79 69.56 69.48 69.10 69.37 68.76 70.73 69.36 69.04 63.91 63.19 60.75 59.82 59.05 58.39 59.69 60.94 60.12 60.87 61.40 58.80
75.64 74.09 73.77 74.05 73.64 73.53 73.05 72.96 72.76 72.32 72.10 72.40 71.57 71.08 70.63 70.39 69.79 68.65 68.65 68.58 68.91 69.05 69.47 69.82 69.83 66.39 63.70 66.45 68.34 68.99 67.91 65.33 62.84 61.52 59.62 58.55 57.86 57.14 57.73 59.76 58.57 60.29 60.68
75.28 73.70 74.11 73.98 73.48 73.43 73.04 72.68 72.80 72.34 72.23 71.98 71.19 70.26 69.05 68.24 59.34 61.25 65.15 68.09 68.59 68.46 68.74 69.27 69.06 65.15 63.78 61.87 62.99 63.29 66.92 66.76 64.44 61.07 59.27 57.93 58.14 57.92 60.12 60.21 61.36 57.61 53.88
74.95 73.79 73.83 73.84 73.05 73.25 73.27 73.06 72.64 72.55 72.65 72.03 71.07 70.05 67.94 67.67 57.95 58.42 61.25 67.68 67.06 67.86 68.48 68.65 67.62 66.30 66.30 67.56 61.89 61.48 61.42 61.78 63.68 63.90 61.21 60.84 59.62 60.95 59.64 58.82 58.33 56.24 59.00
74.22 73.09 73.75 73.63 72.86 73.17 73.37 72.95 73.00 72.22 71.62 71.31 70.83 69.92 64.48 65.26 57.30 56.34 58.91 67.59 67.27 66.87 67.39 68.05 68.62 67.45 66.92 67.21 67.46 66.20 65.87 65.65 65.31 65.52 67.14 66.09 66.20 63.71 62.01 62.54 62.40 59.87 63.67
73.27 73.00 73.09 73.32 72.78 72.75 72.36 72.80 72.73 71.13 71.10 71.39 71.46 69.59 64.02 62.42 55.78 55.02 57.96 66.81 66.74 66.75 66.79 66.23 66.31 66.73 58.81 58.83 66.47 66.19 66.42 66.06 58.42 56.99 58.28 59.42 59.92 60.73 63.13 62.86 61.36 60.15 60.30
73.25 73.23 73.55 73.46 73.05 72.84 72.88 72.33 70.69 69.90 69.97 69.11 69.38 69.43 64.38 63.26 53.27 52.87 56.60 66.13 66.32 65.78 67.13 65.85 56.63 61.25 54.99 55.03 65.42 65.49 64.66 65.55 65.11 64.62 64.39 61.17 61.71 62.60 59.69 66.01 65.02 62.13 61.68
73.65 73.00 73.16 73.15 73.32 72.86 72.24 71.74 71.04 70.48 69.98 68.88 68.25 68.94 68.13 65.42 62.27 51.65 52.40 64.06 65.47 65.27 64.83 64.82 64.78 53.04 50.44 50.27 51.16 65.76 63.81 65.49 62.09 65.29 64.90 64.93 65.10 64.68 64.42 65.34 67.07 64.37 61.90
72.85 72.18 71.84 71.43 72.05 70.82 71.62 70.23 69.39 69.14 67.81 68.33 67.17 66.23 67.37 66.78 58.13 52.09 51.29 52.06 59.30 64.35 64.90 65.59 64.17 49.67 47.39 46.87 51.02 50.63 49.78 55.83 63.03 62.28 60.84 59.90 59.97 60.95 63.02 64.25 65.44 65.12 64.55
69.51 67.92 69.01 69.37 69.93 69.46 69.68 68.68 66.79 68.62 67.30 66.83 65.51 66.64 66.77 67.61 66.89 52.92 50.27 50.90 52.84 59.72 63.28 61.14 53.29 47.29 46.21 47.23 46.42 48.28 47.14 56.53 59.67 58.47 58.29 58.48 58.83 59.15 61.22 60.30 60.87 61.72 62.04
66.73 65.47 66.40 66.89 67.78 68.46 68.94 68.78 67.43 67.21 66.98 65.59 66.54 66.72 66.57 67.11 66.28 66.08 62.03 58.82 54.35 58.27 59.15 62.42 60.09 58.14 54.80 57.37 55.31 51.66 56.36 59.59 59.39 59.05 59.51 60.35 60.68 59.62 58.56 58.74 57.39 57.41 56.27
66.33 65.84 66.47 67.41 66.49 67.81 68.71 67.65 67.66 68.66 63.53 66.08 65.81 65.99 65.12 64.26 62.91 52.19 55.60 65.07 65.20 62.23 60.75 64.08 63.54 62.83 61.93 58.75 60.42 61.62 60.06 59.74 59.12 59.75 59.45 59.90 59.79 59.65 59.02 59.42 58.68 58.02 56.43
66.12 66.57 66.47 66.50 66.70 66.27 65.76 65.09 54.27 50.73 49.11 46.93 46.21 53.53 64.14 53.16 46.21 43.49 42.95 43.31 44.94 46.57 57.07 59.48 60.94 62.66 61.98 62.66 62.90 61.88 61.96 59.62 60.03 60.52 60.59 60.66 60.12 60.06 59.48 60.29 60.22 58.45 56.27
68.30 68.41 65.96 63.60 64.98 64.31 63.77 63.92 63.12 57.99 47.88 45.85 44.40 44.40 43.60 43.94 43.13 42.22 40.90 41.66 42.58 45.67 58.03 58.77 59.39 59.03 58.92 59.74 60.38 60.69 59.33 58.67 57.28 56.48 57.85 58.24 59.51 59.63 59.06 58.79 58.72 58.75 56.98
65.09 56.70 64.22 64.41 63.68 64.02 64.37 64.21 64.16 63.35 62.95 63.81 49.01 49.33 43.95 42.35 41.61 40.65 40.52 43.75 59.95 52.81 59.33 59.58 60.26 60.53 59.25 59.19 60.27 58.29 56.74 57.47 57.20 54.69 52.90 54.09 53.95 54.55 55.01 56.93 56.89 57.47 57.35
63.75 62.47 64.31 63.99 64.31 63.42 65.46 65.21 64.34 64.01 63.68 63.97 64.23 50.84 49.33 43.22 42.70 41.25 41.00 58.45 62.77 63.13 61.09 59.82 60.05 59.11 58.78 59.12 58.07 58.01 55.62 55.26 53.55 52.84 52.33 52.95 54.17 53.76 54.00 54.97 55.69 51.42 53.34
64.40 58.93 60.15 66.19 64.43 64.64 64.16 63.66 63.35 63.56 64.02 63.95 63.87 63.64 61.79 59.28 60.31 59.26 61.03 63.29 62.33 62.43 62.27 60.52 60.74 60.25 59.99 59.30 57.66 55.45 53.36 52.69 52.59 53.61 52.38 52.66 52.97 54.42 54.19 53.69 54.76 54.64 55.76
62.90 64.50 57.49 63.42 63.72 63.51 63.32 62.96 63.46 63.55 63.38 63.90 64.80 61.50 46.90 60.95 62.12 62.23 62.01 62.37 62.81 63.50 63.60 62.94 61.56 63.14 62.26 60.39 59.23 57.20 56.88 57.13 55.63 53.93 53.63 54.81 54.31 54.29 53.87 53.50 55.18 55.13 55.30
61.62 61.48 61.63 61.76 62.20 62.39 62.56 63.00 62.96 63.26 63.49 63.43 64.56 62.90 47.15 60.38 62.28 62.69 62.03 62.38 62.46 62.72 63.24 62.01 62.22 61.53 61.73 61.36 61.44 60.19 59.53 59.03 59.17 58.27 57.97 56.76 55.15 54.56 53.42 53.40 53.17 53.03 53.50
60.04 59.84 59.75 60.39 61.01 58.58 61.12 61.72 62.39 62.42 63.11 63.20 61.42 60.81 60.27 60.31 60.51 60.95 60.75 61.01 61.06 60.29 60.27 59.50 59.42 59.39 59.74 59.93 59.91 59.91 58.45 57.55 58.53 59.57 58.72 57.26 57.02 55.41 53.19 53.75 53.09 52.33 52.48
57.47 57.79 58.51 59.03 59.72 60.00 61.03 62.21 62.14 55.21 60.49 61.04 60.68 58.98 58.80 58.57 58.22 58.71 59.40 59.48 59.48 59.08 59.47 59.05 58.55 57.42 57.01 54.16 52.68 50.51 48.50 50.55 53.16 56.67 56.06 56.90 57.02 54.50 54.35 53.45 53.10 52.29 52.56
56.16 56.16 56.04 56.00 56.65 57.21 58.48 57.45 57.27 57.29 56.34 56.97 56.65 56.90 55.69 56.26 57.69 57.28 57.46 57.52 57.57 56.20 56.76 56.46 55.51 55.28 54.58 50.20 48.52 47.69 39.67 33.44 43.87 38.80 50.40 51.23 52.72 53.58 53.42 53.03 51.55 51.02 51.08
55.17 55.54 55.49 55.39 55.00 54.69 54.58 54.40 54.62 55.47 55.61 54.32 53.47 54.14 55.60 56.53 55.87 56.09 56.09 56.05 55.10 55.62 55.77 55.49 54.43 53.78 53.97 55.26 52.83 39.99 34.50 33.47 42.01 34.91 50.34 53.36 52.34 50.45 47.87 46.21 45.22 46.36 45.77

GFSGL_sfc_wetblb_069.txt.gz
Wetbulb
76.07 76.39 75.63 74.71 74.79 74.66 74.16 73.50 73.38 73.44 73.24 72.67 72.25 73.52 73.11 72.47 72.69 72.55 72.56 72.00 71.24 71.69 72.29 71.82 72.26 73.20 72.63 74.28 75.22 71.12 72.64 72.49 66.43 62.49 63.59 64.58 64.77 65.06 66.41 67.24 66.12 65.94 64.12
76.38 76.23 75.86 75.23 74.95 74.24 74.07 73.39 74.03 72.92 73.17 72.70 72.10 71.66 72.54 71.94 71.56 71.43 70.55 70.51 70.27 69.59 70.14 70.66 70.90 71.50 72.26 73.75 73.97 72.32 72.45 72.99 66.81 61.80 61.67 61.19 62.15 64.87 66.12 66.20 65.97 66.02 64.77
76.23 75.95 74.65 74.43 74.43 74.64 73.81 73.65 73.53 73.12 72.59 72.43 72.03 71.59 72.18 72.37 70.52 70.70 70.59 70.25 70.10 70.14 69.93 70.42 70.29 70.79 71.29 72.20 72.47 72.64 72.13 71.68 67.02 62.47 60.41 60.78 60.17 63.30 63.43 65.67 65.94 66.06 64.35
75.70 75.12 74.30 74.46 74.43 74.15 74.02 73.61 72.97 73.21 72.83 72.63 72.35 72.18 71.38 70.96 70.54 70.29 69.05 69.12 69.95 70.05 69.96 70.16 69.96 69.86 70.52 70.95 71.24 71.61 71.18 68.56 66.75 61.57 59.66 59.22 59.09 60.80 62.34 61.73 61.66 62.61 60.27
75.44 75.08 74.28 74.93 74.85 74.38 73.58 73.24 73.20 72.94 72.83 73.25 72.17 72.14 71.66 70.81 68.97 70.17 69.09 68.87 69.62 69.66 70.01 70.11 70.14 66.58 65.11 66.53 68.99 71.08 69.01 66.77 63.93 62.25 59.17 58.83 57.95 57.88 58.88 62.60 62.28 62.59 62.83
75.36 74.79 74.68 74.81 74.86 73.95 73.60 73.19 73.14 73.65 73.14 73.07 71.55 71.33 70.81 70.95 60.25 63.31 64.20 69.21 69.12 69.25 69.21 69.27 69.59 65.77 64.39 63.39 64.45 63.49 68.17 67.45 64.34 62.45 60.78 58.90 59.33 59.34 61.98 60.76 61.07 59.96 57.55
75.71 75.29 74.57 74.81 74.12 74.53 74.05 72.88 73.28 73.61 73.57 73.32 72.52 71.47 70.55 70.10 58.83 58.94 61.47 64.15 68.36 68.39 68.83 68.89 68.21 66.86 66.87 67.85 62.80 62.59 63.10 62.99 65.69 66.53 63.33 61.62 60.34 61.86 62.92 59.27 60.30 62.10 61.37
75.73 74.85 74.55 74.48 73.68 73.91 74.24 73.39 73.44 73.64 72.55 72.61 72.05 71.59 70.88 69.38 58.49 56.67 58.88 62.50 67.42 68.05 67.53 68.29 68.81 68.37 67.73 67.13 68.10 67.50 66.78 66.94 66.47 65.92 65.74 64.88 65.79 64.74 64.04 64.32 61.74 62.89 62.89
75.11 74.45 74.31 74.14 73.78 73.25 73.27 74.40 74.18 73.08 72.16 72.10 71.85 70.90 70.52 69.26 56.95 55.51 57.29 62.43 65.68 67.82 67.59 67.46 67.40 67.76 60.59 60.59 67.50 67.18 66.64 66.43 59.49 58.74 59.77 60.22 61.90 61.27 63.46 61.83 60.38 59.75 58.56
74.98 74.27 74.33 74.25 73.85 73.55 73.88 74.34 74.04 72.57 71.83 71.25 71.31 70.34 65.86 68.57 54.85 54.01 55.85 61.83 64.36 66.96 68.54 68.14 59.02 59.83 57.22 56.90 66.24 66.53 65.24 66.29 65.72 65.00 65.32 62.76 63.19 63.26 60.64 66.26 64.11 60.46 61.34
75.25 74.78 74.53 74.41 74.24 74.05 74.68 74.05 72.63 72.03 71.49 71.28 69.84 70.37 69.56 68.12 65.75 52.50 52.13 60.66 63.82 64.36 65.11 66.03 65.76 54.70 53.49 53.39 53.08 66.25 64.07 63.40 64.11 65.67 65.61 65.51 65.60 66.33 65.21 65.64 68.11 66.39 63.90
75.36 74.42 73.87 74.02 73.04 73.21 73.49 73.21 72.12 71.56 70.44 69.37 69.17 68.83 68.91 69.93 59.56 53.28 51.63 52.43 59.44 63.79 64.91 65.81 62.86 50.89 50.01 50.05 53.60 53.95 52.37 56.16 65.01 63.76 64.09 63.61 63.50 63.73 64.32 65.81 67.79 67.28 66.98
74.66 73.83 73.72 73.52 73.09 72.67 71.65 70.41 68.71 69.22 68.65 68.97 67.54 67.22 68.32 68.05 68.48 53.42 51.21 51.23 52.91 60.41 63.29 57.09 54.19 47.94 47.59 49.37 48.68 49.41 48.86 59.23 60.50 61.72 61.69 61.46 61.44 61.97 67.06 66.30 66.87 65.24 64.28
68.22 68.13 69.31 69.98 70.07 70.17 70.36 69.44 68.43 68.65 68.22 67.15 66.77 66.99 69.22 69.47 69.32 68.51 65.45 63.48 55.89 59.52 60.82 63.20 61.21 57.55 55.83 57.82 56.88 52.14 55.32 58.07 59.64 60.64 60.78 61.57 63.28 62.01 59.71 60.39 58.75 58.73 57.99
69.06 67.47 68.51 69.09 68.70 68.10 69.41 68.51 68.95 68.16 65.15 67.04 67.18 67.04 65.73 65.41 63.77 53.94 54.72 62.22 61.78 60.23 60.02 65.80 64.54 64.16 63.06 62.31 61.95 60.96 57.80 58.63 59.14 61.23 61.14 61.54 61.07 61.54 59.73 60.66 59.58 58.58 56.70
67.05 67.73 67.42 67.97 68.13 68.62 68.20 66.44 53.50 53.42 50.91 48.93 46.76 54.15 62.63 50.82 45.85 44.76 43.29 42.73 43.11 44.56 57.57 59.70 60.12 61.37 62.68 63.50 62.88 62.91 62.81 60.85 61.59 61.65 61.60 61.09 58.19 58.30 57.69 58.74 60.76 59.31 57.76
68.44 69.93 68.49 66.34 67.80 66.36 65.52 65.02 64.45 57.47 48.01 46.39 46.39 46.94 46.56 45.55 43.13 42.41 41.68 42.57 42.77 46.81 59.02 60.56 60.05 60.64 60.24 60.44 60.56 61.01 60.49 62.17 62.24 58.92 58.87 60.04 58.73 58.29 56.89 56.79 57.07 58.02 58.47
68.38 58.14 67.30 65.76 65.17 64.33 64.55 64.27 63.31 64.20 63.43 62.97 48.99 50.27 43.81 43.49 44.22 43.49 42.41 44.42 59.80 53.39 61.92 61.35 61.01 61.24 61.76 61.55 61.12 61.45 60.34 59.23 57.09 57.26 57.30 57.52 57.35 55.93 54.57 53.98 54.28 54.12 54.80
61.43 62.42 63.19 63.67 62.63 61.42 64.19 64.57 63.34 63.49 62.88 63.21 65.05 50.90 48.93 43.24 42.91 42.40 41.56 60.34 61.75 62.17 64.28 64.01 63.11 61.67 61.15 61.27 60.57 60.21 59.03 57.73 56.02 55.42 54.14 54.54 54.22 53.39 52.78 54.17 54.84 51.22 52.81
59.39 58.35 58.46 59.55 61.18 62.90 62.77 62.27 62.02 62.31 63.93 64.47 62.17 60.83 61.46 58.42 61.34 61.86 61.04 63.35 63.03 62.50 62.37 63.67 63.77 63.09 61.24 60.80 59.97 59.67 58.60 57.28 56.76 56.26 55.21 54.45 53.76 54.24 53.53 52.65 54.13 54.11 53.89
60.17 60.63 60.08 60.14 59.20 61.56 61.63 61.53 62.14 62.10 63.57 63.40 62.84 58.32 48.56 62.46 61.19 61.15 62.16 61.87 60.97 60.23 60.12 62.59 63.00 64.02 64.48 63.06 61.47 60.85 60.61 59.24 58.18 57.67 56.61 55.25 54.16 53.46 53.08 53.04 53.37 53.26 53.21
60.47 61.30 61.60 61.83 61.89 61.62 61.89 62.82 62.35 61.67 61.70 61.23 62.82 61.90 48.76 61.16 61.23 59.58 59.22 59.30 59.36 61.32 62.28 62.03 61.51 59.72 59.01 58.41 58.60 57.63 57.72 57.50 58.24 58.95 59.38 58.44 56.98 55.79 55.45 54.98 54.15 53.50 52.80
59.53 59.62 59.55 59.38 60.22 58.21 60.92 61.25 61.81 62.06 62.47 61.84 61.37 58.45 57.47 58.16 58.39 58.90 60.21 59.58 58.41 59.44 60.02 59.65 58.14 57.84 59.09 59.03 57.65 55.21 52.74 51.08 52.52 53.31 53.29 54.74 56.35 56.64 55.95 55.05 54.74 54.35 52.48
57.75 58.95 59.25 59.35 60.14 60.38 59.75 59.90 59.68 55.80 57.18 57.53 58.35 60.32 59.88 59.67 59.08 57.86 58.62 58.39 58.46 58.25 58.69 58.16 57.34 56.08 55.90 55.86 55.52 54.38 49.78 46.75 51.67 52.22 54.78 55.23 54.24 53.13 53.65 53.45 53.47 53.10 53.03
57.38 56.90 57.02 57.29 59.01 58.71 59.44 59.11 58.54 58.13 58.57 58.38 57.86 57.31 57.97 57.71 56.69 57.14 58.34 56.66 56.89 55.99 55.35 56.10 56.04 56.26 56.21 55.54 55.04 54.24 42.55 33.66 46.68 39.44 55.38 55.19 53.98 53.36 53.01 52.73 52.02 51.25 50.01
55.70 55.72 55.18 55.02 55.94 57.40 57.09 56.66 56.93 56.23 55.46 56.01 56.21 55.94 55.22 55.14 55.20 55.95 56.17 56.53 54.96 54.60 55.71 55.00 55.00 54.98 52.22 52.56 52.38 40.98 35.82 33.45 41.95 34.02 47.16 54.10 52.39 51.80 51.35 50.89 50.82 50.12 49.63

GFSGL_sfc_wetblb_072.txt.gz
Wetbulb
76.59 75.30 75.70 75.03 75.14 75.57 75.28 74.72 74.88 75.68 75.09 74.97 72.80 74.26 73.63 72.91 72.67 72.43 71.90 71.48 70.16 70.69 71.22 70.25 70.39 71.64 70.90 72.57 72.29 71.14 69.70 68.24 63.26 62.49 63.75 64.93 64.70 64.47 66.07 65.06 64.89 63.26 62.73
76.25 75.80 74.78 74.75 75.08 74.89 74.89 74.67 75.57 74.80 75.03 74.35 73.81 72.45 73.41 72.89 72.79 70.40 69.86 71.06 69.74 69.64 68.76 70.26 69.98 71.33 70.96 71.09 70.22 69.70 69.48 68.71 64.08 60.94 61.28 61.20 62.67 65.04 65.91 64.91 65.42 64.21 61.91
76.11 74.84 73.97 73.42 74.59 74.17 74.36 74.43 74.62 74.12 73.59 73.19 73.73 73.10 71.84 72.05 70.76 71.00 71.03 70.20 70.41 70.31 68.92 68.55 70.03 70.23 69.69 70.61 70.55 70.29 69.68 67.11 64.49 61.91 59.60 60.36 61.06 63.39 63.46 63.96 64.14 63.06 62.13
75.21 75.19 74.67 74.15 74.02 73.87 74.24 74.44 73.78 74.03 73.53 71.08 71.61 71.46 71.02 71.71 71.95 71.43 70.26 69.64 70.05 69.88 69.00 69.25 70.03 70.06 69.95 70.57 70.71 69.93 68.58 67.00 64.20 61.72 59.75 59.01 59.85 61.39 62.87 61.44 60.41 61.69 59.55
75.48 74.81 75.01 74.24 74.57 73.31 73.86 74.39 73.94 73.45 72.52 72.39 71.27 71.14 71.35 70.13 66.66 69.00 70.03 69.28 69.24 69.26 68.70 69.61 68.07 66.56 65.49 65.49 68.20 69.42 68.46 65.51 62.83 60.70 59.29 58.59 58.43 59.23 59.21 61.59 60.98 61.21 60.19
75.45 75.07 75.84 75.59 73.50 72.54 72.84 73.92 73.89 73.54 74.07 74.11 72.83 70.57 71.43 72.00 61.36 64.37 65.24 66.09 67.81 68.39 66.65 68.15 67.00 65.04 64.07 64.47 65.16 63.96 68.29 66.08 63.87 62.24 60.31 58.43 58.66 59.35 60.72 60.54 61.04 59.83 57.20
75.77 75.02 75.26 75.27 74.78 74.18 73.84 73.80 73.22 73.11 73.97 73.48 73.01 71.26 70.40 71.14 59.81 59.43 61.60 63.35 64.05 66.46 67.09 68.23 67.58 67.14 67.40 65.87 63.08 63.71 63.76 63.74 65.63 64.60 61.79 60.86 59.62 60.22 60.51 60.99 59.91 59.19 58.84
75.89 74.59 74.90 74.76 73.60 73.33 73.10 73.17 73.61 73.99 73.66 73.16 72.72 72.47 71.55 65.60 58.35 58.48 58.87 63.64 61.52 65.30 66.01 68.17 67.55 67.55 65.76 67.59 66.88 66.42 66.04 65.93 65.16 65.95 66.06 64.14 62.87 62.06 62.06 61.77 60.27 60.75 61.03
75.45 75.09 73.98 74.80 73.61 73.13 72.91 73.14 73.61 73.98 72.99 72.51 72.84 72.17 72.17 67.18 58.04 56.88 59.89 62.87 61.41 63.66 64.85 64.62 66.43 66.52 61.10 61.01 66.02 66.15 65.69 63.83 59.64 60.54 60.78 61.67 61.10 60.48 62.74 61.83 59.43 58.65 57.42
75.11 73.99 74.19 74.67 74.06 73.25 73.38 73.59 74.17 73.46 72.30 71.74 71.80 72.05 67.39 69.15 55.59 54.61 59.23 62.99 63.32 63.16 64.19 65.57 60.49 62.66 56.90 57.83 63.13 64.76 64.31 65.24 62.69 61.79 62.26 61.98 62.09 61.41 60.80 62.78 61.60 59.19 59.24
75.47 73.43 72.70 73.94 74.22 73.89 73.74 74.05 73.36 72.62 71.90 72.17 70.94 71.41 70.90 69.20 61.99 52.99 53.01 63.96 63.83 64.23 63.34 62.67 64.27 55.93 54.61 53.44 53.47 63.94 59.92 58.57 64.34 65.04 64.99 64.72 64.60 64.67 63.04 63.63 64.41 62.72 60.70
73.07 72.37 70.91 73.28 73.38 73.13 73.21 72.79 72.78 72.01 71.56 70.51 70.44 69.81 69.60 69.37 59.57 52.49 51.52 53.84 60.04 64.78 65.67 62.19 59.58 51.48 52.08 52.42 54.95 54.60 52.85 55.57 64.49 64.24 63.48 63.64 63.50 63.94 64.18 63.82 64.55 65.47 65.53
60.42 59.99 69.71 71.63 73.01 73.56 72.98 71.85 71.40 71.59 69.91 69.12 68.24 67.31 69.34 69.74 65.89 53.14 50.64 51.36 53.12 60.61 64.52 60.14 55.72 49.75 49.23 50.18 50.97 51.07 49.94 59.17 59.51 59.72 61.05 62.66 63.19 63.88 65.03 64.31 64.94 65.29 64.38
59.84 59.67 68.24 69.49 71.16 72.16 70.01 71.31 69.67 68.32 68.30 69.59 68.72 66.77 68.30 69.67 69.09 64.54 62.69 59.45 54.36 58.54 61.12 61.52 59.69 56.34 54.68 57.35 56.95 53.36 55.95 57.62 57.63 58.05 58.26 61.75 63.17 61.92 60.30 61.21 59.90 59.21 58.22
64.80 65.98 67.43 68.80 68.08 68.12 69.71 69.64 69.41 61.55 66.04 68.28 68.76 67.31 66.66 63.45 59.83 53.56 60.05 63.05 60.98 54.98 58.99 65.93 65.22 62.41 62.32 62.10 61.42 61.11 56.41 56.39 54.45 55.19 56.45 58.33 61.01 61.17 58.93 59.64 58.46 56.32 55.31
67.32 66.56 67.00 67.47 67.45 67.97 67.79 65.27 57.08 56.46 50.68 47.12 46.49 58.42 57.02 50.90 44.86 44.15 44.33 44.33 44.51 45.96 60.86 61.61 60.70 60.99 60.42 60.86 61.16 61.39 61.36 58.98 58.70 59.12 58.12 58.40 58.73 57.96 57.36 58.54 58.38 56.41 55.41
66.65 67.26 67.36 64.75 66.20 66.09 67.72 66.28 61.22 57.31 47.78 44.68 45.60 46.69 47.67 48.19 43.79 43.97 44.33 43.97 43.79 47.94 60.35 60.39 60.40 60.53 60.68 61.11 61.90 61.12 59.87 60.38 60.49 59.33 57.94 58.86 57.86 57.78 57.24 57.58 57.44 56.56 55.52
58.60 56.76 63.74 63.07 63.70 63.11 65.34 65.02 62.59 61.02 58.93 60.09 48.25 49.17 43.50 43.43 44.84 43.79 43.61 44.51 55.97 52.02 60.53 62.51 60.84 61.13 61.22 61.05 61.48 60.95 60.79 60.15 58.57 57.06 58.30 57.32 57.58 56.86 56.02 55.01 54.53 54.37 54.33
57.56 57.02 57.44 57.90 58.77 59.80 61.93 61.78 60.66 60.53 63.31 63.57 59.06 50.91 47.68 42.63 44.12 44.46 41.60 58.68 61.66 61.28 61.65 63.59 63.41 62.70 61.06 61.17 60.81 60.39 59.90 59.00 57.90 57.22 56.88 56.54 55.88 54.39 54.20 54.04 53.88 50.81 51.84
58.77 55.82 55.66 56.42 56.44 57.21 58.49 60.39 60.61 60.75 60.20 61.42 61.85 60.51 58.53 54.70 57.74 58.33 57.27 63.27 61.75 61.28 60.78 61.68 62.65 63.61 62.61 61.67 60.49 59.57 59.09 58.26 58.18 56.63 56.99 56.38 55.46 54.58 53.88 53.28 53.40 52.61 52.57
60.22 59.05 56.36 57.21 56.76 57.06 59.17 59.85 60.15 60.32 60.80 61.30 60.17 58.25 48.57 60.10 58.20 59.13 58.88 59.22 59.48 60.39 60.30 59.36 59.59 58.55 57.38 58.27 59.38 60.74 57.98 56.73 56.36 57.29 57.12 56.39 56.06 54.95 54.93 54.73 54.06 53.76 53.59
59.16 60.89 60.10 58.41 58.87 58.86 58.85 59.60 60.32 59.75 60.39 60.86 59.72 55.59 50.31 60.06 59.26 59.06 58.98 58.56 58.63 58.75 59.68 58.45 58.59 58.24 57.46 56.31 55.62 54.76 53.85 52.98 53.88 53.83 54.20 54.51 54.95 56.52 55.78 54.74 54.09 53.31 53.27
59.12 59.22 59.73 60.89 60.49 57.89 59.95 60.93 60.36 60.81 60.80 60.19 59.82 57.80 59.11 59.04 58.33 57.96 58.47 58.75 58.95 58.95 58.66 57.96 56.69 55.90 56.33 55.51 54.65 52.97 51.06 50.33 52.09 53.17 53.68 54.77 55.03 54.83 54.64 54.11 53.69 53.37 52.68
57.37 58.03 58.61 59.36 58.47 59.66 59.51 57.10 57.19 54.09 57.50 58.74 58.69 57.59 56.73 56.31 57.04 57.53 57.29 57.53 57.05 57.18 56.27 56.15 55.62 54.94 55.29 54.93 54.49 52.63 48.74 44.88 50.82 50.83 51.74 53.23 52.45 51.16 52.73 52.63 52.26 51.01 50.72
57.06 57.36 57.58 58.61 59.11 59.32 58.70 57.20 56.78 56.98 57.25 55.72 55.70 55.96 56.98 56.89 56.79 56.48 56.46 55.78 55.51 55.23 55.67 55.46 53.66 53.40 53.00 51.97 50.20 46.00 38.04 34.16 41.59 37.73 49.06 51.65 52.78 51.56 50.04 49.19 48.74 48.21 48.16
56.19 56.28 56.31 57.67 57.18 57.64 56.83 56.16 56.00 55.73 55.26 55.73 55.78 55.80 55.60 55.04 55.70 55.77 55.10 55.35 55.08 55.13 54.89 54.28 52.08 50.79 48.93 45.67 42.19 33.84 31.45 30.64 34.33 31.68 36.68 48.20 50.95 50.21 49.36 49.44 48.88 47.36 47.03

GFSGL_sfc_wetblb_075.txt.gz
Wetbulb
71.95 72.79 72.50 72.26 71.71 71.14 71.34 71.00 69.35 68.81 68.32 67.91 67.91 68.79 68.91 68.68 68.88 68.03 67.94 67.92 67.79 67.57 68.49 68.44 68.03 68.65 68.31 67.81 67.97 67.81 67.25 66.24 62.00 62.96 63.17 64.41 64.06 64.88 64.57 63.28 62.53 60.81 62.60
72.92 72.29 72.38 72.12 71.05 71.08 70.40 69.75 69.35 68.77 68.62 68.39 67.77 68.06 68.15 68.54 68.51 68.72 67.86 67.18 67.39 66.60 66.63 66.67 66.34 69.35 66.73 66.56 67.00 66.76 66.91 66.84 62.75 60.46 61.99 61.47 62.76 64.38 63.61 62.42 62.48 61.89 60.91
72.11 72.25 71.42 71.05 70.78 70.71 70.22 70.26 69.70 69.17 68.54 68.86 67.83 67.20 67.17 67.35 67.35 68.14 66.80 65.41 66.47 65.85 67.02 66.70 66.00 66.36 65.87 66.22 66.43 66.37 66.25 65.75 64.17 61.77 60.59 60.70 61.37 63.18 63.49 63.34 62.37 59.76 60.43
72.00 71.71 70.95 70.40 70.73 70.65 70.44 69.90 69.74 68.90 68.80 68.45 68.20 68.74 68.99 67.94 67.79 67.38 67.00 64.20 64.64 65.58 66.72 65.43 66.93 66.31 65.26 65.68 66.38 65.70 64.82 64.10 63.22 61.93 60.70 59.84 60.04 61.34 62.26 60.15 59.00 58.23 57.00
72.25 71.46 71.09 70.97 70.98 70.37 69.84 69.78 69.06 68.95 69.03 69.77 69.11 68.09 67.50 66.92 64.93 66.28 66.15 63.92 63.76 65.11 65.79 66.57 65.03 64.96 65.44 64.49 65.22 66.23 66.10 62.92 61.52 60.07 59.17 58.39 58.33 59.46 60.35 60.59 59.19 57.34 56.26
72.18 72.00 71.96 71.46 71.31 70.54 69.93 69.61 69.05 68.34 68.33 67.61 66.73 66.88 66.24 66.19 61.69 62.73 63.14 63.35 63.22 64.41 63.48 64.67 63.76 64.49 63.97 64.20 64.39 65.19 65.04 62.71 61.25 59.97 59.15 58.69 58.96 59.70 60.23 60.41 59.19 57.32 54.10
72.20 72.26 72.24 71.48 70.64 69.65 69.65 70.15 68.58 67.40 67.72 67.25 67.28 67.08 66.55 63.72 59.52 59.55 61.47 60.99 61.23 63.48 64.09 64.54 64.59 66.09 63.19 62.33 63.06 63.59 64.12 64.45 63.68 62.06 59.96 59.15 58.96 60.00 60.43 59.38 59.27 59.60 56.62
72.14 71.92 71.92 72.11 69.97 70.27 69.89 69.62 68.28 68.02 68.05 68.42 67.63 67.12 66.27 62.20 58.11 57.97 59.75 59.00 60.64 63.72 63.84 64.25 63.61 63.54 63.32 63.10 61.25 62.47 63.00 64.49 64.89 64.86 62.09 61.05 61.15 60.69 61.30 61.62 60.55 60.06 60.08
72.99 72.17 72.46 72.05 71.06 69.49 68.91 68.15 68.59 68.79 68.62 67.95 67.92 67.57 66.29 61.06 57.10 56.63 58.42 58.72 59.65 61.41 64.05 62.77 64.15 61.94 60.46 60.18 63.96 62.92 61.13 60.13 59.39 60.90 61.98 61.09 59.96 59.28 61.04 61.27 59.23 58.41 57.40
73.16 72.90 72.95 72.24 70.72 69.46 69.02 68.99 69.10 69.25 68.51 68.04 67.14 66.85 65.30 63.32 54.91 54.80 58.34 59.50 58.73 60.44 61.57 63.34 61.52 60.76 57.02 56.88 61.38 61.53 60.98 61.00 60.61 59.38 59.51 59.75 60.25 59.52 60.29 61.82 60.44 58.14 57.68
71.06 67.52 62.67 61.13 61.40 68.20 69.11 69.08 68.71 68.76 67.48 66.78 67.12 65.91 65.58 64.09 59.47 52.09 53.38 60.07 59.43 60.31 60.63 59.53 62.25 56.07 54.81 53.95 56.47 60.72 58.15 56.30 60.91 60.05 61.08 60.71 61.43 61.48 61.95 62.12 61.78 60.92 59.15
63.86 62.11 61.18 60.31 63.08 62.60 62.94 66.74 68.10 66.71 66.17 66.46 65.86 66.65 66.20 64.18 59.83 52.27 51.55 53.82 59.93 61.13 59.31 58.80 56.97 52.19 52.10 52.85 53.93 55.34 52.36 54.06 57.63 61.01 61.27 61.28 61.10 62.11 61.22 61.70 61.88 62.03 61.68
61.57 59.64 60.92 60.24 62.56 61.79 61.06 62.06 66.89 67.36 66.46 65.36 65.07 64.33 64.52 63.74 59.12 53.92 51.55 50.93 53.36 59.18 60.77 58.35 52.00 50.00 50.47 50.94 51.95 51.91 50.21 53.21 53.69 53.67 54.62 58.01 61.56 63.19 63.67 61.63 61.60 61.94 62.26
58.08 57.86 59.61 61.39 63.81 59.37 60.79 63.86 66.80 66.12 65.40 64.61 64.82 63.53 65.26 65.21 59.42 56.46 55.96 53.75 54.85 56.10 57.36 56.66 56.18 54.81 52.99 54.63 54.87 52.28 53.17 53.17 52.46 51.76 53.06 54.42 57.12 58.17 60.31 61.59 61.02 61.46 59.97
58.72 58.32 58.99 59.84 60.74 65.55 65.46 64.42 65.28 61.29 62.33 63.99 63.53 63.66 64.21 62.90 60.26 55.41 56.90 59.74 58.31 56.36 57.73 60.77 56.86 55.86 55.62 56.08 57.53 56.84 53.87 52.63 52.11 51.46 51.24 52.46 55.76 57.21 56.30 57.14 55.54 55.27 55.21
63.41 62.21 62.21 61.68 64.72 64.65 61.38 60.08 53.54 55.55 51.95 50.96 53.34 56.82 54.17 51.22 44.86 44.70 44.88 45.06 46.33 47.78 56.74 58.49 57.26 59.01 59.88 60.18 60.18 60.50 60.32 57.57 53.63 54.24 55.13 56.18 57.10 57.12 56.48 56.88 57.00 56.30 54.99
57.52 60.46 62.61 61.09 62.86 62.31 62.47 60.38 59.15 56.18 47.74 44.66 44.26 47.16 48.79 47.76 44.15 43.43 46.15 46.60 46.51 50.13 55.94 57.88 57.68 57.50 57.50 57.77 58.03 59.86 59.01 58.25 60.20 59.21 58.69 58.31 58.01 56.90 56.14 56.48 56.84 56.70 56.38
57.12 53.97 57.20 57.02 59.29 60.55 60.91 61.42 59.67 58.19 55.71 55.32 47.16 47.18 42.32 43.90 43.74 43.97 44.88 46.67 50.19 51.13 55.12 56.58 56.62 58.39 59.63 58.87 57.34 58.61 58.25 58.09 57.57 56.62 56.32 56.56 56.82 56.56 56.18 55.65 55.27 54.87 54.49
57.16 57.24 57.16 57.28 56.78 56.92 58.32 59.75 60.15 59.48 58.09 57.73 53.52 49.12 44.14 44.28 46.56 44.75 42.88 55.15 56.91 55.56 56.68 60.14 58.32 57.94 59.18 58.61 58.02 57.36 57.14 55.76 55.72 55.50 53.97 53.64 52.76 52.82 53.00 53.99 53.93 50.10 51.59
57.08 55.86 56.06 57.08 57.59 58.25 58.85 58.89 58.84 59.24 59.52 59.89 58.28 58.02 53.11 50.78 53.24 53.64 54.03 57.98 56.67 57.19 58.52 57.92 57.60 57.60 58.63 57.29 56.40 56.08 55.18 53.80 53.02 52.96 54.87 54.75 54.19 53.80 52.66 52.33 51.56 50.79 49.40
58.49 57.97 56.08 55.82 57.40 58.39 58.81 58.82 58.87 58.83 59.19 59.46 58.89 56.22 50.32 57.68 59.48 58.03 56.52 55.79 55.66 54.88 54.67 54.35 53.96 53.48 54.04 53.37 53.21 53.95 52.83 51.78 51.64 51.31 51.58 53.44 55.08 54.51 53.15 53.82 53.34 52.99 52.60
55.45 56.50 57.92 56.70 55.76 57.05 57.27 58.30 58.72 58.87 59.26 59.19 58.29 57.14 52.13 56.83 56.52 55.99 55.53 55.37 55.34 55.51 55.39 54.19 53.39 52.79 51.69 50.40 49.89 49.90 49.71 49.09 48.00 48.31 49.07 49.88 50.51 50.98 50.51 50.63 51.77 52.52 51.60
55.11 55.69 56.16 57.06 58.34 56.50 56.72 57.95 58.53 58.10 57.68 56.98 56.96 56.78 56.79 56.59 56.22 55.83 55.64 55.25 54.92 53.28 52.78 52.58 51.79 51.17 51.12 50.39 49.32 47.60 45.55 44.48 46.24 46.70 46.46 48.62 48.96 48.65 49.72 48.34 47.88 47.45 46.70
54.54 55.71 55.71 55.54 56.17 55.22 55.28 55.35 54.86 52.42 55.15 55.12 54.58 54.41 54.56 54.56 54.48 54.56 53.85 52.28 51.80 51.53 52.03 51.80 51.01 49.61 48.94 47.78 45.80 42.21 40.49 40.74 42.92 42.36 44.55 45.98 47.40 45.88 46.78 47.38 46.42 47.24 46.77
53.87 54.03 54.17 55.39 56.16 54.91 53.82 54.09 54.97 54.82 55.05 54.97 54.43 54.45 54.75 54.43 53.46 51.74 51.24 51.10 51.32 51.53 51.20 50.26 47.88 45.40 43.00 39.89 36.86 34.44 30.71 30.10 33.42 33.02 35.83 39.65 44.20 46.43 45.90 46.67 47.22 46.17 44.79
54.35 53.88 54.31 54.97 54.81 54.33 52.75 52.65 53.17 53.34 52.99 52.78 51.55 50.93 51.38 51.54 51.59 50.87 50.96 50.73 50.75 50.67 49.66 46.23 44.06 41.65 39.46 37.44 34.19 32.28 31.08 30.39 32.08 31.03 32.40 37.10 41.90 45.12 45.66 44.72 43.72 42.17 42.10

GFSGL_sfc_wetblb_078.txt.gz
Wetbulb
70.50 70.30 70.85 70.53 70.30 69.20 68.94 68.55 68.59 67.56 67.71 67.78 67.67 68.42 69.07 68.26 68.22 67.32 66.92 67.01 66.40 65.95 66.67 67.01 66.51 66.92 67.79 67.86 68.53 67.34 66.93 64.93 61.62 62.35 63.31 64.47 64.67 64.75 64.15 63.31 63.12 62.73 64.34
70.48 71.09 70.87 71.00 70.67 69.36 69.09 69.72 68.54 67.32 67.44 66.97 66.80 67.53 67.75 67.84 67.34 66.65 66.23 67.44 66.13 65.59 66.09 66.51 65.89 67.45 65.96 65.91 66.53 66.33 66.55 65.96 62.59 60.53 62.42 62.31 62.96 64.28 62.36 60.96 61.67 61.91 62.42
70.68 70.78 70.78 70.45 69.98 69.59 69.27 69.27 67.80 67.62 66.99 67.25 66.75 66.41 66.58 67.20 66.98 67.00 66.69 65.14 65.27 65.76 65.11 64.78 65.73 65.67 64.97 65.39 65.45 65.31 65.17 65.86 63.00 61.66 60.33 61.20 62.28 63.98 61.60 61.56 58.69 57.65 61.00
71.05 71.02 70.50 70.01 70.21 70.19 69.73 69.29 68.14 67.77 67.21 66.89 66.61 66.58 66.09 66.30 66.45 66.29 65.97 63.69 63.50 64.53 65.14 64.18 65.29 65.42 64.86 64.99 65.09 65.12 64.55 63.49 62.70 62.00 61.00 60.98 61.38 62.09 62.41 60.43 58.38 58.55 57.31
71.07 70.89 70.54 70.39 69.82 69.77 69.63 68.90 68.42 67.61 67.95 67.42 67.41 68.06 67.88 67.65 65.72 66.76 65.57 62.77 62.42 62.69 64.27 66.09 65.09 65.00 65.42 64.13 64.58 65.15 64.06 62.84 61.75 60.37 59.91 59.57 59.75 60.45 60.82 59.99 58.23 57.05 55.57
71.06 70.75 70.67 70.25 69.90 69.58 68.79 68.57 68.18 67.29 67.35 67.29 67.71 67.63 64.85 65.26 60.77 62.35 64.25 63.42 63.11 63.59 62.76 63.37 62.99 64.95 63.89 63.67 64.10 65.23 64.23 62.25 60.61 59.85 59.12 59.30 60.00 60.78 60.62 60.04 58.08 56.45 54.66
71.23 71.14 70.96 70.62 69.95 69.88 69.40 68.73 67.61 66.68 66.40 66.31 65.53 65.56 65.00 64.29 59.30 59.24 61.28 61.55 62.06 62.01 63.36 63.12 62.44 63.51 62.78 62.54 62.34 63.16 63.26 62.56 62.58 61.47 59.79 60.02 59.55 60.78 60.92 60.05 59.00 57.44 55.69
71.14 71.19 71.28 71.50 69.02 68.51 67.79 66.04 67.80 66.66 66.63 65.71 65.64 65.85 65.01 63.91 57.59 57.33 59.59 58.39 60.34 63.50 63.17 63.83 63.77 62.76 61.37 61.92 61.67 61.63 62.72 64.25 63.01 62.85 61.17 59.19 59.59 61.66 61.97 61.88 60.72 59.86 59.34
71.18 71.01 71.24 69.46 63.10 63.57 63.07 62.22 63.68 65.47 66.02 66.58 66.65 66.20 65.12 63.00 55.77 55.93 58.15 58.03 58.68 62.29 63.42 63.86 63.44 62.63 60.54 59.32 62.43 60.77 59.79 59.37 59.35 60.34 60.68 59.12 58.58 58.37 60.19 60.62 59.40 59.02 57.90
67.88 70.79 67.66 65.78 64.42 61.12 58.20 60.83 61.68 60.93 60.69 67.52 67.07 66.80 63.85 62.62 54.12 54.08 57.98 58.49 57.22 58.73 59.82 61.03 60.39 59.43 56.58 57.62 62.38 60.05 58.57 59.33 59.85 59.33 59.71 59.54 58.59 58.07 59.02 60.68 59.49 58.85 58.00
65.16 64.08 63.06 65.11 64.87 61.70 60.85 61.30 60.34 60.40 60.68 66.56 66.35 65.79 65.40 63.36 58.02 52.40 53.67 59.00 58.15 58.66 59.42 60.52 60.88 55.30 52.63 53.38 55.81 60.37 59.37 58.89 59.35 58.97 58.62 58.74 59.54 58.92 58.62 59.62 59.43 59.93 58.69
61.61 60.92 61.32 62.44 64.16 62.90 61.54 61.36 58.92 60.16 60.12 65.72 65.24 65.22 65.20 63.75 57.52 51.44 51.29 55.71 58.05 59.36 58.86 58.95 58.48 52.74 50.43 50.32 53.25 52.12 50.75 53.73 59.12 58.22 58.26 58.30 58.34 59.05 59.83 60.72 60.39 60.27 60.07
58.78 58.58 58.03 60.00 62.19 62.03 60.91 60.52 59.99 59.54 63.67 65.64 65.19 64.33 63.49 63.17 60.13 52.22 50.02 51.29 54.14 59.00 59.86 57.03 51.85 49.21 50.32 51.36 52.54 51.59 50.73 53.29 52.96 54.18 56.55 56.83 58.96 60.08 60.22 59.24 59.60 59.50 59.79
57.52 56.60 57.71 58.19 58.84 58.32 60.31 59.90 59.38 60.22 60.70 64.26 64.37 63.95 63.95 63.51 60.47 57.23 55.77 53.88 54.26 56.55 56.85 56.51 54.04 52.84 52.81 53.86 53.94 52.06 52.42 52.30 51.89 51.24 50.33 51.44 53.61 55.44 57.43 59.49 58.44 60.21 60.13
57.97 56.92 58.24 58.03 61.22 59.22 59.00 58.06 59.42 62.73 64.33 64.86 65.16 64.57 63.99 63.33 61.46 55.99 55.69 57.39 57.98 55.26 55.91 57.62 55.76 54.48 54.51 54.47 55.37 56.19 53.80 51.94 51.79 50.96 50.16 51.11 53.13 56.11 55.40 55.28 56.51 56.09 58.38
61.93 62.18 60.85 62.42 61.39 62.76 60.84 58.70 51.62 49.95 51.29 51.31 52.40 59.71 59.99 54.72 51.13 50.77 46.24 46.78 46.78 47.87 58.34 59.19 58.62 58.94 58.30 59.24 59.83 60.01 59.21 57.54 54.41 53.27 53.29 53.83 54.94 56.57 56.21 55.91 56.53 55.55 54.12
56.19 57.33 58.12 59.95 60.27 61.22 61.14 59.51 56.61 53.41 47.81 46.04 46.40 47.69 49.86 48.59 45.33 43.34 43.34 43.88 45.15 49.86 55.55 57.84 58.07 57.23 55.33 58.10 58.66 59.44 58.94 59.37 59.38 58.76 58.22 57.47 57.66 57.23 56.11 56.21 56.49 56.39 55.91
57.31 53.53 56.73 57.17 58.34 58.74 60.45 61.46 59.76 58.46 55.91 53.86 43.95 44.10 41.69 41.70 42.07 42.07 42.61 46.04 52.43 52.54 55.31 55.67 55.57 55.73 57.23 56.21 57.72 57.37 57.09 56.77 56.23 55.50 54.56 53.84 53.49 55.00 54.98 54.60 54.42 54.20 54.20
56.35 56.91 57.29 57.69 57.47 56.43 59.32 60.08 60.08 59.37 56.85 52.61 49.90 46.49 44.59 43.34 42.07 42.25 41.70 54.17 54.93 53.44 54.60 56.85 56.81 56.43 56.27 55.39 54.67 54.31 53.22 52.44 54.01 54.74 54.65 53.69 54.21 53.71 52.90 52.87 52.79 49.44 48.68
56.85 55.26 55.43 57.54 57.78 58.16 57.95 58.75 59.42 59.30 57.95 57.07 57.07 53.80 50.32 49.50 53.76 53.89 54.71 57.29 57.15 57.59 58.18 57.23 55.69 56.87 56.71 55.65 54.78 53.24 52.57 52.64 52.70 54.31 54.81 54.20 53.75 53.43 52.46 52.33 52.10 51.06 51.37
54.03 57.75 55.41 56.53 57.53 58.14 58.21 57.76 58.02 59.24 59.50 58.24 58.46 56.71 49.14 58.06 57.49 56.95 55.39 54.90 55.47 54.57 53.80 53.26 52.44 51.64 52.68 52.24 51.40 49.77 49.77 49.91 48.10 47.88 48.52 49.53 50.88 49.11 51.15 52.49 52.51 53.20 52.66
52.85 52.97 54.95 55.28 55.41 56.64 56.96 58.28 58.43 58.29 59.30 58.78 58.00 54.46 48.77 57.79 56.35 54.63 54.22 53.92 54.33 54.09 53.69 51.83 50.05 48.68 48.20 47.58 47.21 46.71 46.32 45.67 46.04 45.77 46.53 47.56 47.43 47.18 46.89 46.95 46.61 47.13 48.08
53.49 53.83 53.63 54.12 54.66 54.68 56.72 57.05 58.04 58.22 58.62 58.64 58.15 56.91 56.04 55.78 55.61 55.27 54.06 52.98 52.72 51.14 50.99 50.63 49.16 48.00 46.98 45.70 45.14 44.02 42.60 42.01 42.54 43.07 44.10 45.29 45.44 44.59 45.51 45.21 45.55 44.05 43.90
52.74 53.24 53.70 53.21 52.84 53.51 53.90 53.21 52.30 51.01 54.04 54.92 55.00 54.82 54.61 54.52 54.02 53.36 52.47 51.70 51.63 51.11 50.07 49.17 48.19 45.64 41.99 39.58 37.84 36.50 36.31 36.50 36.27 36.58 38.50 40.44 43.40 44.16 44.29 44.50 44.73 46.08 45.43
52.12 52.28 54.56 52.80 51.77 51.64 52.91 53.14 53.47 54.15 53.59 54.00 53.94 53.52 53.20 52.98 52.45 51.77 51.47 51.00 50.58 49.20 47.91 45.36 41.68 39.05 37.52 36.23 34.92 33.53 31.59 30.10 32.66 32.81 35.16 37.39 41.02 42.12 43.51 43.11 43.29 42.30 41.02
54.09 53.96 53.94 53.92 53.49 53.34 53.15 52.92 53.06 53.15 53.06 53.40 52.87 52.42 51.19 50.76 49.52 49.75 49.85 50.15 49.13 46.43 43.11 40.45 39.20 37.72 35.97 34.04 33.51 31.98 30.74 29.80 31.30 31.02 35.95 38.62 36.68 34.82 36.80 38.92 40.57 40.18 39.86

GFSGL_sfc_wetblb_081.txt.gz
Wetbulb
69.19 69.44 69.62 69.08 68.94 68.69 67.88 67.75 67.23 67.25 67.36 67.05 67.91 68.09 67.97 68.02 67.30 66.68 65.96 65.84 65.27 64.42 64.12 64.11 64.35 65.15 66.32 66.70 67.13 67.16 66.79 64.74 62.12 62.17 62.93 64.72 65.19 64.78 64.54 63.65 63.52 63.91 65.04
69.47 69.37 69.66 69.77 69.46 68.63 67.95 68.04 67.75 66.87 66.74 67.05 66.54 66.74 67.34 67.57 67.01 66.60 66.22 66.96 65.47 64.95 64.93 65.18 65.48 66.49 64.83 64.79 65.50 65.84 65.89 65.24 62.73 60.98 62.31 62.90 63.35 64.13 62.26 61.28 62.05 62.83 63.47
69.50 69.57 69.39 69.37 69.30 68.87 68.27 68.40 68.20 66.67 66.40 65.96 65.60 66.27 66.45 66.74 66.36 66.51 66.07 66.20 65.60 65.33 64.63 64.42 65.06 65.13 64.25 64.22 64.42 64.14 63.27 65.03 62.76 62.13 60.52 61.75 62.87 62.97 61.16 60.47 59.88 59.31 62.24
69.87 69.83 69.64 69.57 69.44 69.35 69.10 68.53 67.77 67.21 66.54 66.05 66.18 65.51 66.18 66.03 66.20 66.07 66.00 64.62 63.44 64.19 64.47 64.33 64.89 64.83 64.28 64.03 63.90 64.47 65.16 64.12 62.91 62.43 61.06 61.38 62.11 62.29 62.18 59.53 57.38 56.60 59.15
70.11 69.54 69.77 70.18 69.88 69.75 68.78 68.35 67.57 66.85 66.63 66.16 65.76 65.63 65.25 65.38 66.22 64.76 65.45 63.75 62.34 62.10 63.28 64.89 65.66 65.47 65.54 64.06 63.41 64.94 64.26 62.79 61.93 61.36 60.16 59.96 60.34 60.82 60.21 60.76 58.30 57.46 56.64
69.63 70.19 69.64 69.74 69.36 68.76 67.95 65.40 66.67 66.42 66.31 66.58 65.80 65.94 65.78 66.13 62.08 62.13 64.10 62.45 62.90 62.53 62.22 63.63 63.13 64.91 63.70 63.75 64.03 65.08 64.62 62.88 61.08 60.44 59.35 59.71 60.27 61.26 60.72 60.16 57.88 56.38 55.25
70.00 70.69 70.57 68.80 68.17 64.88 63.64 63.80 62.51 62.50 63.74 64.41 65.07 65.51 64.74 63.95 59.14 60.01 62.48 62.24 61.31 61.61 62.11 62.86 63.01 64.56 63.40 63.35 62.70 63.34 63.05 62.52 62.52 61.86 60.13 60.07 60.43 61.26 61.95 60.16 59.12 57.31 56.48
69.84 70.02 69.07 68.65 64.93 64.11 63.81 63.07 62.45 62.53 62.25 62.09 61.07 63.65 64.90 64.45 58.17 56.85 60.20 60.02 59.96 61.53 61.99 62.56 62.05 62.74 62.14 62.74 63.37 63.68 61.80 62.73 62.82 62.43 61.64 61.25 60.93 61.79 62.67 61.86 60.41 59.35 58.82
68.94 69.83 69.50 67.39 64.98 63.80 63.16 63.10 63.08 61.30 60.89 62.02 61.38 60.44 64.24 65.04 56.47 55.16 57.50 57.50 57.66 60.60 61.58 62.34 63.02 63.14 60.21 58.73 62.17 61.70 60.60 60.14 58.87 59.59 59.40 58.61 58.44 58.90 60.54 61.57 59.66 58.83 57.74
66.07 68.11 69.12 65.97 64.73 62.62 62.11 62.43 62.93 61.02 59.53 60.69 60.53 60.59 61.54 65.71 54.76 53.42 57.42 58.01 56.81 58.50 59.46 59.61 60.62 61.38 57.30 56.43 61.91 61.16 58.82 59.34 59.66 59.24 59.58 58.78 57.56 57.72 58.72 61.64 60.75 59.15 58.16
63.96 64.23 65.25 65.23 64.08 62.42 61.17 59.70 58.47 60.86 61.32 58.89 59.37 60.10 64.22 65.38 58.60 52.35 54.39 58.44 57.76 57.26 58.94 58.54 58.80 55.14 53.26 53.44 55.61 60.85 59.76 59.79 59.50 58.60 58.30 58.12 58.57 57.68 58.10 58.58 59.00 60.71 58.82
60.30 60.91 60.86 62.41 63.21 63.60 61.24 60.03 58.76 58.35 58.08 57.98 59.34 61.56 65.63 64.82 57.10 51.50 51.70 55.37 57.06 58.12 58.22 58.40 58.50 51.84 50.36 51.40 54.90 52.87 51.99 55.36 58.32 58.71 57.56 56.64 57.02 58.51 58.24 58.16 58.50 58.28 58.74
59.56 57.17 57.41 57.23 58.14 61.35 59.17 58.00 58.36 57.82 58.10 60.11 62.03 63.98 64.58 63.58 59.98 51.50 50.05 52.25 54.06 58.04 58.80 56.42 53.09 49.60 48.66 51.12 52.76 51.07 51.38 53.68 53.78 57.20 57.00 56.32 57.52 58.70 58.56 57.66 58.48 58.50 58.04
59.29 57.42 55.98 56.18 56.74 57.20 57.32 58.83 58.29 58.00 58.27 59.69 62.89 63.24 63.44 62.85 60.86 55.19 54.15 54.13 54.56 58.29 56.27 53.47 53.12 52.87 52.62 53.99 54.18 52.49 52.77 52.17 51.77 51.17 50.58 50.99 51.69 53.26 54.52 57.54 57.64 59.96 59.69
59.49 60.39 57.10 58.16 57.28 61.52 58.91 56.56 59.75 58.86 56.78 58.96 60.43 61.35 63.35 62.67 62.09 56.01 56.01 57.52 57.98 56.52 55.47 56.25 55.91 55.91 54.93 54.22 56.06 56.48 55.16 51.83 51.53 50.61 49.86 49.78 50.20 52.54 53.39 53.55 58.67 59.07 58.49
56.10 56.90 57.56 59.81 62.49 62.13 60.34 54.20 48.26 47.28 47.17 50.45 48.46 54.91 60.90 56.78 50.63 49.73 49.00 47.55 47.73 47.91 56.76 59.05 57.80 55.95 55.63 56.08 56.86 58.52 59.07 57.65 55.74 54.51 53.96 54.45 55.26 56.08 56.16 56.06 55.48 53.34 54.50
55.07 55.83 57.00 56.86 59.29 60.30 60.12 60.18 55.97 49.67 44.86 43.89 47.37 47.55 49.91 50.09 47.55 46.28 45.01 43.56 43.93 50.09 58.95 59.03 58.65 58.83 58.63 58.81 57.38 59.17 58.31 58.91 58.75 58.27 57.70 57.20 57.40 57.00 56.23 56.03 56.15 55.65 55.09
56.20 52.95 55.75 57.52 57.54 58.27 60.21 60.28 58.24 57.08 54.83 51.13 45.81 44.60 42.48 43.56 43.38 43.38 43.93 48.06 55.01 54.74 54.83 55.85 55.69 55.23 55.53 57.22 57.72 56.98 56.52 55.75 55.01 54.61 53.82 52.92 53.28 54.35 53.97 53.70 53.72 53.64 53.44
55.59 54.67 56.68 57.50 57.80 57.04 59.19 60.01 58.28 55.04 52.68 51.33 52.44 47.84 43.37 41.01 41.19 41.37 43.20 55.46 54.91 53.94 54.59 55.09 55.27 55.57 55.25 54.55 53.48 52.72 52.04 54.33 54.18 53.48 52.46 51.83 53.71 53.28 52.35 52.02 51.16 48.92 48.76
52.61 55.16 54.98 56.94 57.72 57.98 58.24 58.34 57.26 56.16 56.00 54.85 53.64 52.17 51.23 52.30 53.84 52.70 52.85 55.46 55.48 56.21 57.74 55.85 55.47 54.75 54.04 52.80 51.77 51.95 51.46 51.71 50.75 53.24 54.29 54.02 53.63 53.31 52.42 51.99 52.04 51.64 51.28
51.42 52.43 54.65 55.92 56.58 57.60 58.06 58.06 58.22 56.72 56.76 56.94 56.92 55.65 48.28 57.14 56.46 55.75 55.29 55.81 56.40 56.58 55.33 53.93 53.06 53.21 51.68 51.68 50.60 48.66 47.10 46.68 46.68 47.44 48.13 47.80 47.57 47.42 47.17 48.70 50.56 50.06 48.88
51.20 51.70 52.39 54.98 55.44 54.61 56.92 58.18 58.57 58.84 57.88 57.90 57.52 52.73 47.01 56.34 55.14 53.94 53.19 53.38 54.19 53.34 52.65 50.36 48.75 48.74 49.13 49.22 48.68 47.41 46.21 44.05 44.27 44.97 45.71 45.93 44.96 45.10 45.13 44.11 43.41 43.70 44.17
51.67 52.58 52.92 52.74 53.82 54.46 54.72 56.40 57.50 58.20 59.11 58.32 56.86 56.58 56.04 54.90 53.81 53.31 53.56 52.85 52.27 50.45 49.58 48.58 46.61 45.07 44.63 44.65 44.38 43.76 42.41 41.48 41.31 42.45 43.42 43.86 43.60 42.70 42.74 42.52 42.47 41.62 41.14
50.74 51.76 52.47 51.70 52.35 52.28 52.52 53.68 54.85 53.33 57.92 57.16 56.00 55.36 54.95 53.99 52.74 52.16 52.45 50.77 50.65 49.86 48.58 46.39 43.37 40.42 38.47 37.29 36.43 35.96 35.92 35.14 35.49 35.67 37.33 40.28 41.93 41.87 42.45 42.04 42.23 42.42 41.29
51.96 53.52 53.48 50.68 51.45 52.60 51.57 51.31 51.71 53.85 54.57 53.28 53.06 53.12 53.03 52.49 51.93 51.43 50.93 50.15 48.82 47.29 44.22 40.70 38.71 37.93 36.99 36.03 34.91 33.53 31.31 29.62 31.98 32.61 36.39 39.05 39.22 39.00 40.69 40.72 40.78 40.37 39.37
52.85 53.49 53.32 53.05 53.73 53.68 53.38 53.46 52.78 52.57 53.41 53.64 53.33 53.06 52.40 51.31 50.54 50.34 48.81 47.42 45.23 41.61 38.83 37.51 36.74 35.87 34.69 33.61 32.52 31.42 30.35 29.69 31.59 32.10 35.57 33.20 32.30 31.81 32.21 32.18 32.42 32.56 32.65

GFSGL_sfc_wetblb_084.txt.gz
Wetbulb
69.77 70.15 69.97 69.81 69.62 69.42 68.78 68.70 68.37 68.19 69.02 68.69 69.22 69.13 68.46 67.85 68.46 68.02 67.89 68.13 67.46 67.44 67.10 66.41 66.41 66.72 67.62 67.71 67.95 67.41 66.57 66.03 63.72 63.02 64.02 65.34 66.35 66.13 65.50 65.23 65.50 66.14 66.37
69.82 70.13 70.21 70.41 69.93 69.43 68.91 69.11 68.99 68.63 68.82 68.57 68.62 68.90 68.92 69.15 68.98 68.54 68.07 68.71 67.48 66.90 66.90 66.61 66.47 67.81 67.71 68.05 66.37 66.33 66.28 65.76 64.11 62.31 62.98 63.40 64.42 64.95 63.45 62.24 63.28 64.39 64.89
69.45 69.80 70.44 70.19 69.84 69.55 69.29 69.36 69.22 69.05 68.15 67.97 68.23 68.22 68.31 68.56 68.70 68.53 68.17 67.71 67.67 67.38 67.36 67.08 67.36 67.25 67.17 67.22 66.86 66.54 66.30 66.67 65.36 63.61 61.73 62.86 63.56 62.79 61.23 60.98 60.94 61.81 63.48
69.71 69.30 69.41 70.08 70.40 70.19 69.70 69.56 69.60 69.12 68.24 68.09 67.86 67.78 68.12 68.30 68.65 68.34 68.18 67.54 67.49 66.83 67.06 66.72 66.71 67.33 67.85 67.45 67.04 66.99 66.26 65.59 64.74 63.36 62.29 62.48 63.00 62.79 62.15 59.33 57.97 59.56 61.08
69.08 68.90 68.54 69.36 70.41 70.00 69.46 68.92 68.54 67.96 67.71 67.64 67.50 67.80 67.45 67.41 67.17 67.76 67.17 67.29 66.27 65.57 66.12 66.83 66.51 67.04 66.03 66.39 67.17 67.21 66.52 65.00 63.98 62.49 61.05 61.05 60.89 60.89 60.56 60.64 58.85 58.83 59.18
64.57 64.46 64.10 68.45 69.40 69.15 67.57 67.46 67.55 67.69 67.66 67.48 67.17 66.76 67.01 66.88 62.74 62.62 65.89 66.49 65.94 64.98 64.97 66.25 66.81 66.40 65.52 63.64 64.32 64.82 66.41 65.23 63.15 62.00 60.91 61.02 62.02 62.45 61.19 60.76 58.65 58.13 58.08
63.34 63.16 64.33 64.48 68.00 67.53 66.95 66.72 66.97 66.45 66.61 66.90 67.21 66.79 66.68 67.12 60.89 60.09 62.29 65.85 65.06 65.07 65.63 65.81 65.36 65.64 64.26 65.75 63.38 63.51 63.54 62.65 62.94 64.13 61.82 61.97 62.38 63.85 62.69 60.90 60.18 59.69 59.91
61.98 62.02 63.74 64.56 67.49 66.02 65.53 65.99 66.45 66.38 65.58 66.08 66.57 65.79 66.92 66.90 59.98 57.86 60.57 65.62 64.45 64.50 64.56 65.30 65.59 65.23 64.46 65.27 66.43 65.90 65.03 64.63 64.21 63.62 63.46 63.89 64.30 63.27 63.15 62.83 61.92 60.85 58.86
62.65 61.70 63.59 67.98 66.40 64.97 64.64 64.50 64.85 65.44 65.44 65.80 65.03 64.07 64.57 65.63 57.90 56.16 59.38 62.77 62.31 63.58 64.41 64.76 65.10 64.83 60.26 59.29 65.19 65.49 65.09 64.87 59.67 60.01 59.60 59.07 58.91 59.52 62.18 62.23 59.67 58.59 57.79
64.51 64.99 66.07 69.15 66.22 65.10 65.16 64.91 65.58 64.58 64.02 63.40 63.50 62.24 59.66 63.72 56.38 53.99 58.38 62.34 61.40 62.46 63.62 64.32 60.18 63.75 56.22 55.53 65.01 64.31 63.14 63.11 64.30 63.86 63.73 61.03 60.13 60.38 59.25 64.65 62.10 59.85 59.66
63.99 63.16 63.60 66.22 66.11 65.75 63.65 62.35 61.08 62.42 62.38 61.17 60.87 61.10 61.53 62.14 63.60 53.06 55.12 62.63 61.99 60.91 62.75 62.67 63.87 55.42 52.07 50.98 56.32 64.47 63.12 63.15 61.53 63.44 63.09 63.10 62.99 62.54 62.37 63.31 64.00 62.50 60.43
62.93 61.46 60.82 60.69 63.33 64.17 62.95 62.43 61.72 61.09 60.30 60.96 59.95 59.85 61.07 62.44 57.77 52.48 53.29 56.54 58.96 61.71 61.97 63.03 61.67 50.74 49.18 49.53 56.40 54.40 52.43 58.29 63.18 62.04 61.04 61.72 62.25 61.51 62.55 62.46 63.33 63.60 64.41
60.78 60.95 59.29 59.01 59.23 60.04 60.91 61.25 60.73 59.84 59.15 59.65 59.47 59.75 60.64 63.96 64.43 52.77 52.77 54.97 55.52 60.98 62.58 59.42 53.84 47.66 48.08 51.92 50.07 49.83 52.82 59.65 61.45 61.77 62.01 62.04 62.36 63.37 63.69 63.09 63.00 63.50 63.30
56.88 58.88 60.37 59.03 58.17 60.58 59.45 59.96 60.60 59.25 58.83 59.53 60.49 61.69 63.22 64.45 61.05 57.91 57.38 57.73 56.38 58.97 56.14 56.56 54.77 54.55 54.25 55.18 54.63 55.02 58.11 58.13 57.96 58.17 58.69 59.63 57.98 57.73 60.53 62.60 60.21 60.23 60.48
56.00 56.52 57.86 58.79 60.32 61.17 61.26 56.92 57.57 59.97 56.66 59.89 60.69 62.27 63.45 61.53 59.84 55.45 55.79 59.17 60.40 57.75 56.20 57.38 57.72 57.70 57.62 58.16 58.99 58.38 58.03 57.19 54.81 54.40 55.81 56.00 55.90 55.90 57.64 59.11 59.93 60.18 60.25
55.70 56.40 56.34 57.16 58.39 60.50 61.33 57.08 47.25 46.18 44.02 42.59 45.54 54.75 62.21 53.34 49.53 48.62 47.72 48.44 48.08 49.35 59.05 58.77 57.80 59.43 59.21 58.92 59.33 59.39 59.23 57.65 58.14 57.25 56.11 56.62 57.03 57.85 59.10 58.97 58.82 58.03 58.05
55.38 56.18 55.86 56.52 58.21 58.03 58.71 60.06 58.99 51.32 44.17 42.16 40.94 43.55 50.25 50.60 46.63 46.27 46.99 46.99 46.09 50.80 60.07 59.31 59.83 59.47 59.11 59.55 61.25 60.36 59.15 59.58 59.74 57.14 56.88 57.28 57.87 57.63 56.94 56.98 56.76 56.58 55.90
54.25 51.98 56.36 57.46 58.29 58.49 58.21 60.18 59.11 56.94 56.34 51.99 45.51 44.07 45.18 44.64 44.27 44.45 44.64 46.97 52.88 56.02 60.34 59.64 59.51 59.39 59.31 59.61 59.41 58.01 56.94 56.94 56.62 55.72 54.86 54.90 55.58 55.32 55.10 55.02 54.68 54.12 53.25
53.54 54.84 55.78 57.44 58.25 57.16 58.91 58.65 56.52 54.46 52.44 51.61 52.32 46.92 46.09 43.37 43.73 43.00 45.72 58.63 58.09 57.42 57.48 57.92 58.36 59.06 58.00 57.38 57.04 56.48 56.62 56.52 56.32 55.23 55.04 56.58 56.30 55.70 54.24 54.18 53.93 49.36 51.51
53.88 53.16 53.57 56.10 57.40 57.52 58.37 57.76 56.52 56.32 55.44 54.91 54.39 53.52 54.03 54.96 55.24 55.13 56.12 56.84 57.28 57.58 57.34 57.48 57.54 57.34 56.43 55.58 55.39 54.83 54.91 55.09 56.04 56.23 55.59 55.61 55.44 55.27 53.68 53.11 53.25 52.95 52.75
53.51 53.67 53.56 55.05 56.74 57.46 58.64 58.55 57.28 57.50 57.08 56.38 55.94 54.00 47.90 56.90 56.26 56.08 56.42 57.10 58.47 57.62 56.12 56.46 56.25 55.01 54.91 54.91 53.99 52.31 52.40 52.28 53.06 53.06 52.68 53.03 53.63 52.71 53.21 53.58 51.53 50.29 50.12
53.09 53.34 54.33 54.54 55.74 56.58 57.69 59.33 58.31 58.02 57.84 57.30 56.08 51.99 47.54 56.20 54.85 54.47 54.65 54.67 55.05 53.99 52.59 51.84 51.95 52.49 52.85 52.23 51.23 49.80 49.48 49.38 51.08 51.82 51.34 51.34 51.26 50.90 50.76 50.45 50.16 49.68 49.10
52.95 53.04 54.11 54.55 55.20 54.41 56.72 57.55 58.63 58.22 58.03 57.20 57.04 55.96 55.20 54.15 53.37 52.89 52.47 52.12 51.38 50.51 50.25 50.03 48.17 47.77 48.20 47.85 48.42 49.17 48.44 47.41 47.69 49.94 50.12 49.56 49.51 49.54 50.05 49.70 49.23 48.97 48.60
53.09 53.54 53.89 53.50 54.05 55.09 55.43 55.50 56.64 53.30 57.02 56.66 55.92 55.02 54.21 54.02 53.56 52.91 51.98 50.66 49.59 47.94 46.98 46.40 45.62 44.45 42.66 41.77 41.58 41.57 41.41 41.41 42.32 43.26 46.03 48.88 48.61 47.25 48.52 48.17 47.92 47.42 46.98
53.72 54.73 54.08 53.60 53.95 53.58 53.98 54.20 55.19 55.01 54.58 54.39 54.04 53.65 53.28 53.30 52.62 51.47 50.01 49.49 47.62 44.33 43.09 42.14 41.99 41.74 41.30 40.60 39.73 39.07 33.35 30.56 38.99 36.57 44.73 45.28 45.19 46.12 46.51 46.22 46.22 44.97 42.72
52.72 53.63 53.83 54.05 54.36 54.81 54.54 53.94 53.97 53.77 53.40 53.73 53.51 53.81 53.25 51.69 50.53 49.59 49.21 47.57 43.98 42.27 41.71 41.19 41.22 40.46 39.65 38.55 37.78 32.98 30.89 30.67 37.26 34.90 41.10 41.37 40.56 40.01 39.80 39.05 38.49 38.45 38.27

GFSGL_sfc_wetblb_087.txt.gz
Wetbulb
73.02 73.51 73.06 73.14 73.37 74.21 73.87 73.63 73.62 74.00 73.33 73.31 73.77 73.44 73.08 71.92 71.24 70.31 69.82 69.62 69.57 70.38 70.86 70.92 71.17 71.98 70.32 70.79 71.57 70.10 69.14 68.22 65.54 65.83 66.63 67.71 67.57 67.01 67.57 68.42 68.28 69.46 68.28
73.56 73.31 73.08 73.54 73.38 73.44 73.47 73.88 73.98 73.78 73.30 73.12 73.76 73.11 72.89 72.63 72.06 71.83 71.82 71.37 71.24 70.60 70.51 70.56 69.81 69.25 69.55 70.51 70.60 70.92 70.26 70.49 68.34 65.65 64.30 64.67 66.01 66.64 65.56 63.88 64.35 66.43 66.48
72.60 72.88 73.25 72.99 73.23 73.42 73.99 74.30 74.14 74.01 73.43 72.97 73.20 72.71 72.67 72.69 72.68 72.62 72.29 71.45 71.29 70.95 70.79 70.70 70.73 70.75 70.54 71.78 71.12 70.18 70.12 69.84 68.63 66.08 65.91 66.48 66.45 64.29 62.54 61.98 61.98 63.46 65.18
72.53 72.63 72.29 72.51 73.21 73.72 74.39 74.13 74.19 74.31 73.62 73.12 73.00 73.03 72.86 72.85 72.71 72.47 72.45 71.69 71.32 70.85 71.33 70.89 70.66 70.67 70.80 71.14 70.53 70.68 69.07 68.68 68.67 67.57 66.59 65.02 65.60 64.61 62.89 59.77 59.37 61.32 62.51
71.72 72.07 71.10 71.52 73.12 73.77 73.51 74.17 74.36 74.46 73.71 73.50 72.87 72.74 72.81 72.28 71.57 72.13 72.18 71.75 71.35 70.86 70.95 70.58 70.67 70.14 67.98 68.81 69.90 70.33 68.50 67.83 66.05 65.59 64.30 63.52 62.99 62.27 60.47 60.55 59.67 59.51 60.95
70.96 68.46 70.00 70.08 69.77 69.51 70.31 71.56 74.01 73.79 73.32 72.58 72.14 72.28 71.85 71.08 64.28 63.99 69.11 70.88 71.23 70.72 70.35 70.40 70.38 67.75 67.27 64.26 64.49 65.52 68.06 68.03 66.87 65.69 64.59 63.34 63.59 63.27 62.14 61.19 60.73 59.56 58.56
66.81 66.56 67.63 67.63 67.57 67.03 67.19 68.52 70.42 72.87 73.32 72.50 72.62 72.46 71.64 72.08 61.19 60.61 63.31 70.67 70.62 70.60 70.78 70.22 69.55 68.94 67.88 69.50 63.84 62.97 64.08 63.41 64.48 68.71 66.24 66.36 66.22 64.96 64.15 62.11 61.30 62.58 62.21
66.18 65.63 66.06 66.58 66.11 65.65 65.16 66.08 67.50 70.17 72.50 72.87 72.45 72.50 72.08 71.90 60.64 58.60 60.87 70.62 70.69 70.65 70.45 70.15 69.94 70.12 69.46 68.66 69.14 67.87 67.13 67.02 67.16 66.73 68.47 68.94 68.70 68.51 65.90 64.42 62.61 61.18 59.48
66.25 67.04 66.56 66.46 66.00 65.70 65.78 66.30 67.66 69.43 71.46 72.22 70.88 70.31 70.30 71.48 58.36 56.79 61.40 70.47 70.34 69.71 70.04 70.05 69.77 69.66 62.81 59.83 68.84 66.58 66.62 67.46 60.92 59.87 60.59 60.21 60.17 60.39 64.12 63.71 60.80 59.24 58.10
64.91 66.58 66.81 67.00 68.63 68.51 66.93 67.26 67.91 69.35 69.94 69.56 68.38 68.14 64.36 68.27 58.74 54.68 59.41 69.94 69.38 68.71 69.59 69.59 61.25 66.78 56.57 56.59 68.64 68.41 67.35 67.54 67.55 66.87 66.06 62.35 62.47 62.38 60.32 66.40 63.29 61.00 61.43
65.08 66.65 65.92 65.04 66.70 66.92 66.99 66.38 65.21 64.13 64.87 65.48 65.96 66.98 67.57 65.90 66.26 53.24 53.98 68.06 68.42 68.06 67.88 67.72 68.37 56.91 52.34 52.16 56.33 69.65 67.02 66.97 64.99 67.92 67.37 67.01 66.93 66.15 65.80 66.01 65.94 65.22 63.32
63.02 65.27 65.31 64.75 64.24 66.17 65.22 64.25 63.38 63.55 63.24 62.78 63.06 64.08 65.41 66.43 58.39 56.13 52.24 54.62 62.64 68.09 67.52 68.85 66.92 52.68 49.80 49.80 55.89 55.22 53.43 60.62 66.89 66.47 65.60 65.45 65.14 65.39 66.48 66.89 67.11 65.89 65.43
60.47 60.97 63.07 64.77 64.19 64.50 64.45 64.49 63.89 65.21 64.15 64.03 64.10 64.31 64.60 65.64 65.88 53.71 51.37 52.28 55.56 67.14 69.12 65.00 54.79 48.30 48.30 51.55 52.50 51.03 52.53 66.23 66.51 65.33 64.79 65.14 66.42 67.39 67.60 66.81 66.74 66.79 66.62
58.81 58.45 59.54 60.00 60.43 64.43 64.65 64.62 63.46 63.06 62.84 61.23 60.15 60.14 62.19 64.50 66.17 66.48 58.76 55.87 56.29 61.74 59.16 60.86 57.94 57.10 56.51 58.53 57.77 58.36 64.77 64.95 64.84 64.81 65.45 66.92 66.32 64.83 66.16 65.19 63.54 62.31 61.96
61.21 60.93 59.78 58.63 59.94 61.63 63.02 62.87 61.73 62.67 60.01 61.16 60.55 62.18 63.32 63.77 64.58 57.05 55.86 58.80 60.81 59.33 60.66 61.88 62.22 61.96 62.35 62.39 62.76 62.80 62.91 62.43 62.11 62.53 61.74 61.64 62.11 62.87 63.10 63.92 62.93 61.97 61.66
58.10 59.79 58.98 58.97 60.29 60.52 61.06 61.70 48.87 48.30 44.85 43.62 42.89 48.76 62.40 54.60 48.53 46.90 46.54 48.35 49.26 50.16 59.50 61.35 61.25 62.39 62.81 62.86 61.59 60.99 61.37 59.49 60.79 61.38 62.23 61.48 60.58 58.78 58.94 60.12 60.85 61.71 61.33
57.75 59.14 59.17 58.94 60.96 59.98 59.72 60.60 61.05 47.08 43.50 42.61 42.71 42.10 41.77 46.14 44.18 44.91 45.09 45.27 46.72 51.61 60.14 60.07 61.22 62.64 63.03 62.80 62.50 63.01 60.76 61.55 61.39 60.00 58.28 58.87 59.38 59.67 60.57 59.99 59.27 56.93 56.87
58.41 52.68 59.01 59.72 60.34 60.76 59.73 60.57 59.53 58.37 57.03 54.74 47.33 43.73 42.19 41.82 44.00 43.27 43.09 46.90 53.33 57.35 60.70 60.54 60.57 61.10 59.94 60.54 61.45 60.66 61.08 60.11 59.99 58.70 58.88 58.77 59.51 58.84 57.94 57.68 56.81 57.14 55.92
57.79 57.92 58.36 59.58 60.62 59.41 61.89 60.43 60.15 58.30 56.13 55.89 54.55 48.37 44.22 40.90 41.46 42.19 43.82 57.75 59.00 60.20 60.59 60.45 60.09 60.91 60.84 60.23 60.02 60.12 59.70 58.17 57.57 57.67 58.76 59.18 59.05 58.56 57.53 57.19 56.19 51.90 53.74
58.42 55.63 55.28 59.31 60.24 60.87 61.40 59.19 59.12 57.93 57.70 57.57 56.83 56.27 55.93 55.37 55.83 56.37 58.68 58.70 58.56 58.82 59.18 59.44 59.59 60.17 58.91 58.67 58.72 58.67 58.30 58.02 58.57 58.65 58.28 58.01 57.83 57.87 56.49 55.59 55.60 55.33 55.12
58.06 58.01 55.36 59.61 60.20 60.89 61.21 59.15 58.17 57.82 57.47 57.17 56.99 54.50 46.17 56.95 57.13 57.53 57.92 57.87 57.29 57.51 58.18 58.13 58.99 58.66 58.20 57.80 57.57 57.51 57.45 57.38 57.79 57.95 57.54 57.18 57.23 56.22 56.63 55.29 54.93 54.64 53.86
58.29 58.11 58.73 59.41 60.05 60.59 61.66 61.76 59.10 58.95 58.43 58.01 56.73 53.85 46.90 59.50 56.09 55.28 55.28 55.81 55.69 55.56 56.19 55.06 55.15 56.99 57.67 57.15 57.00 56.65 57.06 57.00 56.77 56.64 56.19 55.46 54.59 53.79 53.94 53.60 52.91 52.12 51.41
58.50 58.72 59.39 59.77 60.32 57.77 61.35 61.52 60.98 58.65 58.29 57.31 56.49 55.71 55.79 54.37 54.39 53.97 53.31 53.05 52.90 53.04 52.30 51.67 51.65 52.23 52.83 53.78 54.67 55.49 55.84 55.88 55.64 55.52 54.47 53.80 53.29 52.89 52.45 51.83 51.50 51.17 51.19
58.93 58.97 58.88 59.47 59.09 59.06 57.15 57.62 58.90 53.47 57.11 56.35 55.55 54.87 54.16 54.19 52.94 51.95 50.58 49.70 49.21 49.39 50.06 49.96 49.56 48.36 47.74 48.42 49.43 51.05 51.53 52.95 54.63 55.19 54.76 53.52 52.55 50.55 52.14 51.37 50.93 50.29 50.21
56.54 57.29 57.90 58.73 58.68 58.77 58.48 56.04 56.37 57.21 57.06 55.06 54.42 55.23 55.37 55.49 53.44 53.24 50.65 50.84 51.53 50.55 49.03 47.76 47.79 47.43 46.94 46.57 46.69 46.51 36.62 32.87 46.93 43.07 52.35 52.69 52.29 52.45 51.63 51.52 51.00 50.58 49.57
55.39 56.31 56.40 56.12 55.72 55.78 58.32 57.56 55.50 55.20 56.01 56.90 56.12 54.64 53.27 51.53 50.43 49.54 48.01 47.70 47.85 47.71 47.83 47.81 47.85 47.56 46.80 46.45 46.32 36.17 31.70 31.72 41.71 36.72 49.34 50.10 49.47 48.97 48.84 48.00 46.91 47.31 45.39

GFSGL_sfc_wetblb_090.txt.gz
Wetbulb
76.75 76.87 76.12 75.15 75.00 74.87 74.81 76.03 75.40 76.11 76.08 75.66 74.76 74.97 75.13 74.69 74.26 73.70 72.94 71.83 71.49 71.56 72.41 72.26 72.26 72.89 73.95 74.41 74.04 72.67 71.64 70.68 68.25 69.53 71.40 71.19 69.92 70.09 70.88 71.14 69.14 71.03 68.56
77.01 76.79 75.93 74.93 74.62 74.40 75.25 76.00 75.86 75.86 76.20 75.89 74.41 75.17 74.94 74.70 74.28 73.33 72.53 71.91 71.13 71.09 71.48 71.28 71.49 71.67 72.38 72.47 71.38 73.82 73.40 71.41 68.64 68.57 69.95 68.82 69.86 70.63 68.32 67.49 68.54 68.44 68.63
74.44 76.29 74.87 74.15 73.79 74.09 75.27 75.68 76.03 75.71 75.85 75.61 74.28 74.29 74.20 74.42 74.35 74.06 73.77 73.24 72.85 72.61 72.63 72.18 72.18 71.98 71.92 72.37 71.63 72.03 71.84 72.05 71.32 69.02 68.45 68.58 68.38 67.53 64.32 63.50 63.59 65.02 66.50
66.52 73.25 73.71 73.93 74.26 74.07 75.34 76.11 75.89 75.99 75.82 75.59 75.07 74.83 74.35 74.40 74.52 74.15 73.76 73.25 72.85 72.85 72.84 72.55 72.04 71.56 71.82 72.27 72.00 72.37 72.04 71.31 71.07 71.04 70.93 67.58 67.92 67.08 65.52 62.65 60.48 62.77 64.74
63.96 64.23 73.93 74.59 75.18 75.17 75.36 75.84 76.23 76.03 75.79 76.20 75.16 75.08 74.75 74.07 73.63 73.90 73.52 73.06 72.74 72.53 72.64 72.77 72.49 71.75 69.11 69.62 70.38 72.30 71.91 70.70 68.93 67.36 66.76 66.65 64.87 63.73 62.88 62.82 61.20 61.16 62.27
68.82 70.38 72.18 73.52 74.56 74.85 75.64 75.74 75.85 75.39 75.62 75.34 75.13 74.36 73.88 73.04 65.32 65.23 69.32 72.81 72.83 72.33 71.96 72.48 72.73 68.94 68.11 65.57 65.83 65.83 68.86 70.67 69.47 67.21 66.70 66.76 66.97 64.82 63.42 61.04 59.79 59.11 59.27
67.96 70.35 70.99 72.25 73.72 74.63 74.85 73.99 73.12 73.25 74.51 74.87 75.03 74.87 73.80 74.01 63.44 61.99 64.37 71.94 72.09 72.06 72.24 72.17 71.66 71.04 69.70 71.28 64.92 63.76 64.52 64.07 65.43 69.51 68.21 68.65 68.89 68.84 65.17 62.24 61.86 62.13 63.40
66.71 67.21 68.81 69.12 71.09 71.67 70.92 71.88 72.11 72.14 72.38 72.94 73.02 74.56 74.20 73.99 62.30 59.70 61.66 71.73 71.99 72.41 72.46 72.22 72.34 72.17 71.50 70.85 70.81 69.93 70.15 69.87 69.83 69.55 70.91 70.49 70.83 71.20 68.58 65.94 64.46 62.06 62.27
66.20 66.40 66.98 68.24 69.14 70.56 68.73 70.21 70.66 70.48 70.88 72.84 73.35 74.22 73.79 73.31 60.86 58.28 62.42 71.37 71.88 71.93 72.31 72.73 72.22 72.35 65.05 61.64 70.29 69.46 69.04 69.34 62.88 62.18 62.57 62.25 62.28 62.68 66.23 65.56 61.23 59.91 58.46
66.03 67.34 68.53 69.35 70.05 69.43 70.30 69.82 70.58 71.07 71.49 71.82 72.39 71.16 67.15 72.15 60.97 55.79 61.38 71.04 71.86 72.11 72.75 73.30 63.13 68.74 57.97 57.90 69.31 70.09 67.55 68.31 69.11 68.23 67.33 63.92 64.46 64.39 61.64 67.69 64.26 61.23 61.19
64.94 66.65 68.00 69.02 69.40 70.45 71.28 71.41 70.01 69.76 68.89 68.41 68.41 69.39 70.37 69.81 69.59 53.97 54.08 68.54 69.24 70.71 71.18 70.85 72.58 59.03 53.86 53.68 57.00 70.16 69.90 70.09 67.13 69.80 69.67 68.15 67.80 67.41 67.11 66.92 67.96 67.75 63.53
63.32 64.44 65.45 67.16 68.14 67.91 68.16 68.66 68.40 67.26 65.53 65.07 65.18 65.19 66.67 68.45 60.90 57.69 53.79 54.56 63.06 68.42 69.62 71.26 70.62 55.15 51.07 50.89 57.14 56.15 56.87 61.59 68.62 68.55 68.01 65.83 66.63 66.87 67.96 68.58 69.15 69.20 69.24
63.63 63.49 64.12 64.42 65.33 67.44 67.58 67.58 66.70 67.65 65.57 66.04 66.59 67.03 68.56 70.39 70.76 56.03 53.73 52.88 53.80 62.32 68.95 66.68 59.32 51.62 49.19 52.52 53.49 52.70 54.50 66.89 67.40 66.77 66.14 67.67 69.04 66.76 68.89 68.68 68.53 68.52 68.56
62.70 63.26 62.62 62.46 62.48 63.88 63.36 65.33 66.35 66.15 65.50 64.18 64.50 65.31 65.77 66.41 67.32 68.54 67.21 64.05 55.20 59.93 61.79 66.10 60.23 60.54 59.34 63.58 60.62 60.36 67.09 67.35 66.91 66.50 66.31 68.37 69.23 69.87 68.93 69.67 66.59 66.15 65.81
61.73 63.31 63.54 64.15 61.95 62.18 63.93 64.43 63.47 64.08 61.86 62.85 63.96 65.20 64.25 64.74 65.72 59.77 62.20 65.53 65.04 62.35 63.67 62.45 60.51 62.41 64.39 65.51 65.83 65.35 66.30 66.41 65.88 66.08 66.44 66.66 66.62 66.88 66.70 67.98 67.33 65.62 64.21
60.73 60.81 62.08 62.99 63.54 63.41 62.58 61.33 53.06 49.75 46.11 44.49 43.77 47.41 61.70 54.45 48.72 47.27 46.72 48.17 49.44 50.35 62.28 60.63 60.17 62.19 64.04 63.79 63.00 64.15 64.85 63.70 65.00 65.09 64.80 64.77 64.07 63.97 65.07 65.68 65.83 64.04 62.65
60.24 60.64 60.38 60.71 62.37 62.30 63.45 62.79 60.96 57.25 45.16 43.03 42.17 43.05 41.53 42.79 41.89 42.73 42.55 43.62 45.63 50.89 61.43 61.27 62.00 62.19 63.36 63.72 64.08 64.13 63.35 63.20 64.75 63.25 63.54 62.13 63.16 62.62 59.13 61.72 63.80 62.80 62.07
60.82 54.57 59.83 60.98 62.20 62.48 61.66 62.56 61.99 61.52 61.10 60.37 49.68 47.09 45.92 40.62 40.62 41.10 41.83 46.00 52.91 55.18 62.33 61.72 61.98 62.93 63.03 63.58 64.79 64.47 63.00 61.28 63.56 62.30 61.86 62.40 61.34 60.06 57.98 57.55 58.12 58.52 57.06
60.14 60.12 60.09 60.04 61.81 60.86 62.28 63.17 60.86 61.48 60.19 58.88 58.47 52.82 47.61 39.82 39.82 40.56 42.73 58.78 58.10 60.33 60.85 60.87 61.69 61.36 61.20 61.88 61.15 61.01 60.37 61.54 61.38 62.02 61.13 60.40 60.32 59.97 59.14 58.73 58.24 53.42 54.96
60.75 56.92 56.00 59.79 60.93 62.49 63.24 63.47 60.91 60.64 59.50 60.10 60.09 58.02 58.54 53.68 55.27 53.30 56.63 58.84 59.59 60.03 61.20 61.09 61.13 60.95 59.87 59.37 59.23 60.47 58.54 58.99 59.63 59.54 60.09 60.59 60.48 60.33 59.28 57.76 57.85 57.42 57.31
60.21 60.59 57.30 60.16 60.78 61.79 62.82 64.11 64.10 60.44 58.86 60.65 60.28 56.66 45.27 58.04 57.74 58.44 57.96 57.98 58.22 57.84 57.90 57.96 58.02 58.22 59.02 58.88 59.61 59.92 59.96 59.39 59.09 58.81 58.31 58.31 58.77 57.31 57.43 57.24 56.59 56.94 57.11
60.27 60.35 60.67 60.58 61.03 61.18 62.40 63.83 64.26 60.34 59.25 61.17 58.82 59.07 47.08 57.81 57.35 56.27 55.65 56.59 57.30 57.30 58.04 58.17 58.13 57.77 58.09 58.05 57.99 58.24 58.61 58.14 58.77 58.79 57.97 58.07 58.22 57.83 57.25 56.74 56.32 55.82 55.07
59.17 60.39 60.53 61.15 61.68 59.03 62.16 62.78 61.85 62.18 59.43 57.95 58.13 56.91 56.11 58.33 55.17 54.85 54.99 56.41 56.75 56.93 57.76 57.43 57.51 57.33 57.71 58.11 59.48 59.71 58.19 57.67 57.99 58.19 56.57 55.37 54.42 53.85 54.03 53.59 53.58 53.27 53.31
59.09 59.60 60.34 61.02 61.77 61.54 60.55 59.70 60.96 55.10 58.58 56.63 56.23 55.01 54.21 53.13 52.93 52.40 51.95 52.03 52.41 52.58 54.16 55.35 56.09 55.71 55.70 56.52 56.82 57.42 57.72 57.30 57.16 56.57 56.04 54.55 53.83 52.15 54.02 53.42 53.44 53.17 52.35
58.37 59.98 58.98 60.28 60.22 60.68 59.91 58.58 58.29 58.39 57.09 56.09 56.39 56.64 55.68 54.09 52.84 52.50 51.55 51.35 53.77 54.98 54.44 53.49 52.25 51.91 52.43 52.27 52.83 51.76 39.77 34.23 52.43 47.39 55.23 54.99 54.35 54.49 53.75 53.08 52.81 52.41 52.10
58.91 58.38 58.67 59.09 58.17 58.01 59.39 59.47 59.20 58.86 58.04 57.46 57.88 56.72 53.37 52.63 51.99 52.08 52.66 53.14 53.06 53.26 54.00 53.99 54.08 52.91 52.03 51.65 49.41 37.38 33.03 33.56 44.73 37.21 53.35 54.11 53.83 53.58 53.31 52.84 51.95 50.78 49.64

GFSGL_sfc_wetblb_093.txt.gz
Wetbulb
76.44 78.40 78.63 77.32 76.70 76.68 75.68 76.90 76.68 76.84 77.22 76.32 75.19 75.15 74.99 74.94 74.91 74.61 73.83 73.15 72.52 72.70 73.34 72.49 72.55 73.24 71.87 73.02 73.05 73.60 73.43 72.44 68.96 71.11 73.64 73.25 71.32 71.76 71.94 72.67 72.53 71.97 69.53
73.88 76.28 76.12 76.68 75.77 75.13 74.59 76.13 76.83 76.79 76.88 76.05 75.74 74.74 74.92 74.77 73.75 73.43 73.02 72.46 71.89 71.67 71.80 72.30 72.04 72.19 72.82 73.73 72.36 73.45 72.86 73.35 71.38 69.62 72.15 71.88 70.89 71.85 71.56 70.45 70.09 68.80 70.27
68.12 69.72 69.80 67.43 74.08 74.34 74.61 75.47 75.87 76.02 76.33 75.52 75.13 74.34 74.18 74.31 74.38 73.66 73.39 72.96 72.64 72.24 72.52 73.06 72.11 72.28 73.35 74.14 72.75 73.45 71.79 73.64 72.67 71.25 71.00 72.47 69.93 69.78 65.76 65.60 65.07 66.16 66.39
67.47 67.03 65.07 64.88 65.17 69.74 75.44 75.98 75.79 76.74 75.33 76.05 75.40 74.60 74.50 74.04 74.26 73.96 73.95 73.71 73.74 72.72 73.25 73.37 72.41 71.59 72.80 73.03 73.07 72.47 73.28 71.59 71.31 71.28 70.54 71.22 70.41 69.41 67.66 63.92 62.83 63.60 64.58
69.35 66.71 65.69 66.02 66.14 67.54 73.86 75.29 75.95 75.93 75.95 75.95 75.72 74.68 75.10 74.22 73.00 73.91 72.82 73.06 73.35 73.08 73.16 73.03 73.17 72.49 70.48 70.72 72.24 73.71 73.72 70.85 69.03 68.57 68.86 70.12 68.52 66.60 65.00 65.24 64.18 62.79 62.87
69.58 68.35 65.79 66.02 66.02 66.16 72.88 74.27 75.12 76.31 76.60 76.27 75.55 74.69 74.61 73.45 67.17 66.56 70.98 73.28 73.01 72.65 72.46 72.38 72.98 70.48 69.11 67.03 67.21 67.09 70.45 71.13 71.50 70.33 69.50 67.93 70.01 67.30 66.38 65.50 62.30 60.14 58.73
69.84 70.03 67.98 67.20 66.04 66.65 72.85 74.04 74.27 75.30 76.71 76.42 75.44 75.35 74.89 74.87 63.58 63.33 65.37 72.71 72.39 72.78 72.27 71.71 70.70 71.52 70.32 71.62 65.71 65.20 65.00 65.16 66.20 70.77 69.52 69.12 70.28 69.52 67.38 63.53 61.03 60.46 61.29
68.09 69.28 70.23 70.42 70.65 72.12 72.47 73.86 74.64 75.99 74.96 74.14 74.75 76.33 75.79 75.40 61.10 60.76 63.37 73.20 72.91 72.92 72.44 72.04 72.91 72.54 72.47 71.53 71.49 70.06 69.38 69.35 68.55 68.31 70.30 71.29 71.64 72.06 69.35 66.43 63.77 63.31 62.81
67.03 67.65 67.99 68.48 69.21 70.31 71.27 71.20 72.34 73.08 72.86 72.60 74.08 74.96 75.68 75.39 61.62 58.77 63.18 72.87 72.27 72.54 72.71 73.14 72.90 72.16 67.77 63.09 70.78 70.59 70.64 71.35 63.42 63.28 62.17 63.29 64.62 66.21 67.70 66.95 62.57 60.97 58.39
67.36 68.28 69.11 69.28 69.64 70.35 70.54 68.64 69.79 71.77 71.71 71.13 72.76 74.40 70.86 75.29 61.24 56.61 61.99 71.42 71.50 70.77 73.88 74.27 65.15 69.64 62.21 59.20 70.72 71.00 69.94 69.64 69.90 69.08 68.36 64.07 64.25 65.82 62.86 68.76 65.17 61.81 60.50
65.67 67.82 68.75 69.38 69.50 70.11 70.12 71.75 72.16 71.62 70.37 70.93 71.85 72.95 73.30 72.08 71.24 54.93 55.49 70.82 70.25 70.35 70.07 70.65 71.80 60.24 55.62 54.91 59.13 71.28 69.81 71.64 68.79 70.50 68.52 67.87 68.22 68.11 67.89 68.60 68.13 65.46 62.83
65.35 65.09 65.58 66.63 67.70 68.67 69.48 69.18 69.55 69.63 69.03 68.38 68.72 69.31 70.93 71.09 62.47 57.62 54.62 56.14 64.99 68.92 69.82 70.34 70.47 56.54 53.53 53.22 56.83 59.85 57.90 62.14 71.41 68.43 67.63 69.01 67.32 67.22 67.69 68.51 69.75 70.55 71.16
65.51 65.14 65.09 65.56 65.22 67.01 66.62 67.41 67.84 69.86 68.78 67.74 67.29 67.05 68.20 69.96 71.65 58.22 54.33 54.14 55.57 64.43 68.57 65.20 57.36 52.21 52.23 53.63 54.05 53.96 56.05 68.27 67.82 67.26 66.94 67.99 69.99 68.50 69.26 69.92 69.74 70.88 70.51
63.58 64.94 65.72 65.39 63.58 65.12 65.47 66.37 66.32 66.15 66.50 66.36 65.31 64.53 66.09 67.98 68.68 69.43 67.91 64.87 57.31 60.85 62.23 65.07 63.24 59.44 58.56 63.73 61.47 59.73 67.82 67.78 66.13 65.79 66.84 68.61 68.87 71.24 69.97 69.79 69.81 68.61 68.01
62.93 63.12 64.60 63.98 65.33 64.46 64.74 64.23 64.23 66.43 63.05 63.16 64.21 64.98 64.84 65.15 63.60 51.09 52.86 62.74 66.18 62.82 63.40 66.48 65.22 65.56 65.19 65.22 66.99 65.45 65.64 67.25 65.77 66.85 69.26 67.95 69.08 69.52 69.18 69.68 69.65 68.30 65.59
61.62 61.34 61.30 61.57 62.93 64.67 63.51 64.55 56.11 54.56 50.79 46.82 44.80 50.19 59.38 53.69 48.03 44.85 43.00 43.20 44.83 47.55 61.06 64.56 63.92 64.26 65.12 65.49 64.62 63.53 64.45 63.63 64.73 65.03 66.45 66.64 67.90 67.40 66.56 68.42 67.54 67.20 65.62
61.52 61.79 60.54 59.45 61.58 62.59 62.95 62.38 62.16 59.78 48.07 45.18 44.11 43.36 41.88 45.23 43.18 42.65 41.85 41.86 43.18 45.01 57.56 62.46 63.61 63.85 65.36 63.72 63.37 63.55 63.34 64.94 66.00 67.06 68.28 65.88 65.41 62.80 62.54 63.94 65.00 63.97 63.43
61.89 56.54 61.22 61.37 60.86 61.41 62.79 62.96 62.75 62.70 61.07 61.64 49.70 48.58 46.92 42.29 41.19 40.58 40.35 42.08 56.07 51.10 59.57 62.01 63.56 63.57 63.12 62.91 62.95 62.72 63.23 63.64 65.46 66.25 64.95 63.66 63.33 62.49 61.88 63.37 63.46 61.89 60.69
61.12 61.29 61.24 60.42 60.50 60.27 62.07 63.64 63.16 62.54 62.26 62.09 63.25 54.00 52.03 42.29 40.45 39.92 40.05 59.51 60.01 59.52 60.55 62.33 63.12 63.07 63.28 62.80 62.34 62.20 61.42 61.66 61.78 62.29 62.61 62.95 62.45 61.70 60.13 59.15 58.71 54.31 56.20
61.55 59.28 56.76 60.69 60.45 60.89 61.89 62.65 62.83 62.58 62.17 61.82 61.28 61.05 59.82 57.21 56.95 55.29 55.87 59.42 59.59 60.05 61.69 61.20 61.32 61.30 60.89 60.55 60.41 60.27 60.23 60.21 60.71 61.09 60.63 60.76 61.39 60.42 58.95 58.72 58.53 57.51 58.09
60.09 60.88 60.35 60.65 61.05 61.37 60.81 61.24 64.17 62.94 62.05 60.87 60.91 58.38 47.17 58.44 57.44 56.90 58.20 58.44 58.63 58.46 59.95 60.07 60.03 59.79 59.63 59.43 58.66 58.64 59.26 59.16 59.74 59.83 60.45 61.09 61.17 59.69 59.33 58.80 58.33 58.19 58.20
60.50 60.96 60.82 61.08 61.43 61.24 61.68 61.51 63.10 63.12 62.39 60.83 60.70 59.49 49.18 56.95 56.93 57.16 56.58 56.51 57.14 57.98 58.24 58.00 58.02 58.54 58.92 59.02 58.73 58.09 58.33 57.76 58.33 58.55 58.39 58.77 58.68 58.12 57.77 57.34 57.29 57.39 57.00
59.72 59.71 60.20 59.94 60.82 58.20 60.49 62.31 62.51 62.68 61.69 61.22 59.07 59.00 57.58 56.36 55.11 53.95 55.19 56.78 57.66 57.76 58.66 57.42 57.74 57.82 58.50 58.92 59.19 58.94 58.08 59.64 59.68 59.15 58.61 58.37 58.29 57.62 57.40 56.91 56.37 55.40 54.47
59.78 59.28 58.55 59.07 60.53 61.15 61.44 60.26 60.07 56.14 59.66 60.13 57.87 56.09 54.62 53.53 53.98 53.24 53.15 53.53 53.64 56.68 57.07 58.22 58.92 58.99 58.84 59.66 59.94 60.18 60.18 59.95 59.94 59.11 58.39 56.29 55.35 52.08 55.13 54.87 53.72 53.77 53.72
59.47 58.99 58.85 58.32 58.05 59.07 60.42 59.48 59.07 58.13 57.35 59.22 58.16 57.80 55.67 53.86 53.19 52.26 52.83 54.95 56.81 58.76 57.87 57.04 56.99 58.06 58.58 58.34 58.48 55.09 41.04 35.92 55.04 50.39 56.81 56.51 55.04 55.66 54.03 53.64 53.44 53.21 52.73
58.97 58.35 58.38 57.66 57.71 58.59 59.26 59.69 60.66 60.21 60.44 59.67 59.82 57.55 55.29 54.07 53.86 53.80 53.40 54.53 55.17 54.68 54.44 55.20 55.32 55.74 55.86 56.11 55.21 39.61 34.26 34.61 45.52 41.25 54.58 55.60 53.91 53.88 53.45 53.49 53.24 52.52 52.67

GFSGL_sfc_wetblb_096.txt.gz
Wetbulb
76.88 77.32 77.57 76.99 76.60 76.25 75.29 74.33 75.59 77.90 77.01 75.17 75.90 75.29 74.85 74.77 75.33 74.64 74.14 73.82 72.65 72.54 72.30 72.07 71.83 72.38 70.54 70.20 70.53 70.06 68.57 68.37 66.70 68.14 71.37 71.04 69.92 70.49 70.56 71.40 70.38 69.86 67.47
77.13 76.23 75.31 69.25 74.83 73.29 73.59 74.46 75.31 76.05 76.88 75.36 75.76 75.55 75.27 74.97 74.50 73.96 72.93 72.53 72.08 72.01 71.59 71.14 71.26 72.31 71.59 72.06 71.27 70.28 70.22 70.13 68.93 66.98 70.11 70.17 69.80 70.36 70.64 69.85 69.61 69.43 68.01
68.98 68.86 66.41 66.81 65.23 65.78 69.41 72.07 74.43 75.00 75.34 75.25 75.47 74.79 74.74 74.96 74.13 73.60 73.05 73.26 73.31 72.38 72.27 71.74 70.90 71.42 71.10 70.41 70.95 70.44 70.45 70.75 70.90 69.32 68.64 70.53 69.76 69.22 66.68 67.13 66.50 66.70 66.29
68.08 67.29 65.70 65.67 66.33 66.84 69.43 69.52 72.09 72.87 73.62 74.48 74.56 74.96 74.64 74.63 74.95 73.24 73.23 73.13 73.36 73.23 73.02 72.06 71.17 70.87 71.17 70.27 70.68 70.20 70.28 69.62 69.69 69.16 69.04 69.16 68.82 68.37 66.04 63.48 62.32 64.45 64.45
68.30 66.62 66.24 65.83 65.12 65.37 65.85 68.97 71.53 72.96 73.37 74.00 73.81 74.66 74.67 74.64 73.44 73.88 73.40 73.01 72.84 72.16 72.60 72.48 70.94 71.53 71.97 71.61 71.09 70.49 70.23 69.90 69.02 68.05 67.98 67.74 67.22 66.19 65.35 65.06 63.70 63.28 63.16
68.39 67.56 66.33 66.06 64.91 64.10 65.08 68.50 71.49 72.31 73.44 73.79 73.96 73.56 73.47 73.08 67.74 68.08 72.26 72.87 72.94 73.14 72.62 72.80 72.78 70.53 69.76 67.59 68.03 67.90 70.51 69.67 68.64 68.05 67.47 66.53 66.60 66.89 66.93 65.55 63.34 60.35 59.06
68.30 69.87 67.52 67.68 67.57 67.71 68.35 69.61 71.05 72.61 74.37 73.41 72.94 72.28 72.65 73.58 64.90 63.95 67.24 73.34 73.19 72.77 72.80 72.18 71.81 71.32 69.16 70.59 65.79 66.01 65.83 65.65 66.71 68.95 67.38 67.48 66.93 67.87 66.74 64.85 62.25 61.66 61.26
68.59 69.61 69.95 69.02 68.89 68.25 69.16 69.43 70.25 72.18 71.88 70.90 71.03 71.05 73.20 73.37 62.53 61.36 64.05 73.16 73.02 73.13 73.33 73.05 71.96 71.28 72.00 70.70 70.72 68.18 68.21 68.07 66.97 66.81 67.20 69.56 70.21 69.87 68.08 65.06 63.16 63.19 63.76
68.25 69.00 69.45 69.93 69.43 68.31 67.36 68.90 69.38 69.80 68.64 69.61 72.10 74.09 73.36 71.89 60.90 59.36 63.50 72.03 72.14 72.17 72.82 72.80 72.39 71.35 67.39 63.43 70.15 69.52 69.33 69.09 63.62 62.58 61.82 63.74 65.20 66.28 67.60 65.83 62.92 61.17 59.06
65.68 66.59 69.57 70.22 69.28 69.31 70.16 68.79 68.20 69.43 68.64 69.56 69.46 72.26 69.88 72.61 62.50 58.22 61.78 71.01 70.87 71.17 72.54 72.59 65.09 69.55 63.12 59.28 68.64 69.75 68.40 69.02 68.80 66.02 64.80 63.23 64.23 65.63 63.08 66.65 63.98 61.28 60.19
66.06 66.28 65.79 66.98 68.43 69.77 69.56 70.39 69.31 69.20 69.00 70.72 71.20 71.90 72.00 71.21 72.01 56.77 57.31 70.21 70.82 70.80 70.18 70.47 71.41 60.79 57.93 55.04 58.28 70.24 68.29 68.68 67.54 68.77 68.06 67.80 66.66 67.76 67.82 68.07 65.32 63.81 61.25
66.82 65.77 65.21 65.22 65.51 66.91 68.41 69.03 70.22 70.31 69.37 69.35 68.57 67.49 68.66 71.41 63.59 57.65 53.69 55.48 64.62 69.56 70.03 71.17 70.15 55.37 54.94 54.44 56.19 59.65 57.19 61.26 69.13 67.99 67.61 66.31 65.74 66.30 66.61 67.60 68.23 66.17 65.75
65.81 66.76 66.67 64.40 63.39 66.19 67.09 67.85 67.04 69.24 68.66 68.58 67.49 67.74 67.77 69.69 70.88 58.54 55.12 54.64 56.06 63.00 69.06 65.68 56.03 54.96 51.59 53.01 53.99 55.98 55.52 66.28 67.77 67.02 66.29 66.17 67.44 67.38 67.68 67.50 68.38 68.02 67.76
64.34 65.14 66.78 67.84 64.55 66.00 66.31 65.33 64.93 65.22 65.88 65.13 64.80 64.79 66.18 67.00 65.01 61.78 63.46 65.23 57.47 61.03 62.75 66.14 63.84 59.33 58.85 60.77 60.88 57.75 64.73 67.28 67.22 66.35 65.85 67.24 67.72 66.78 66.82 67.76 65.94 66.37 65.60
63.47 63.79 65.14 64.81 64.90 66.42 66.61 65.82 64.88 66.35 63.72 64.19 63.84 64.17 63.46 63.44 62.99 51.30 51.56 57.49 58.34 54.83 54.50 64.36 64.60 64.95 65.04 64.29 64.36 64.91 65.08 66.29 66.40 66.41 66.33 65.48 65.41 65.55 65.83 66.46 66.30 66.01 64.08
61.92 61.30 61.55 61.19 60.84 61.72 65.69 65.17 56.43 55.26 52.20 49.33 46.25 52.27 61.03 54.33 48.83 44.41 42.81 42.25 42.61 44.60 57.40 61.89 62.80 65.01 64.64 65.26 64.92 64.76 64.59 64.73 66.06 64.41 64.30 64.29 64.21 64.28 64.74 64.78 65.05 64.13 62.73
62.52 62.18 61.18 60.40 61.60 62.42 62.54 63.22 63.00 61.64 50.35 47.70 44.62 44.26 42.77 45.60 42.99 42.08 41.70 41.32 41.51 44.21 56.73 59.67 61.72 63.16 63.56 64.83 65.34 65.59 64.16 65.22 63.71 63.32 62.69 62.93 64.03 63.12 62.77 63.40 62.84 62.05 61.68
62.79 57.13 61.05 62.30 60.62 60.20 60.65 62.62 62.72 62.84 61.79 62.36 48.22 47.99 43.58 42.08 41.87 40.80 41.09 40.43 51.47 47.92 57.41 59.32 60.67 62.07 62.92 63.59 64.37 63.88 64.11 63.38 62.93 62.53 62.12 62.46 63.49 62.38 61.81 61.49 61.35 60.94 60.30
61.04 61.16 61.89 61.31 61.07 59.83 60.36 60.78 62.31 63.00 62.11 62.79 63.83 51.27 50.01 46.07 43.17 41.36 39.68 49.24 58.61 59.82 60.22 59.76 61.30 62.72 63.03 63.57 64.64 62.94 63.46 62.19 61.87 62.07 61.82 61.37 60.76 60.32 59.05 58.80 58.29 55.69 56.37
61.14 60.08 58.29 61.52 61.19 61.02 60.92 62.05 61.59 64.45 64.21 61.99 61.70 60.98 59.74 57.94 58.02 57.61 56.26 56.95 58.94 59.38 60.90 61.50 62.36 62.84 63.01 63.43 62.38 61.31 60.23 60.50 60.55 60.75 60.43 60.50 60.80 60.46 59.09 58.39 58.02 57.20 57.79
59.14 60.69 60.36 61.24 60.81 60.77 61.86 62.33 64.88 64.03 63.59 63.50 61.87 55.66 46.42 57.92 57.45 56.99 57.21 57.25 57.43 57.77 59.58 61.19 60.83 60.11 61.13 60.93 60.85 60.60 60.20 59.94 60.02 59.72 59.50 59.48 59.32 58.03 59.16 58.90 58.00 57.70 57.67
59.32 59.37 59.93 60.31 60.68 61.14 60.62 61.22 62.12 62.56 61.52 60.87 59.56 56.66 48.37 58.04 56.68 56.01 57.25 57.55 57.99 57.97 58.19 58.22 58.03 58.42 58.78 58.64 59.26 59.20 59.07 58.09 58.33 58.21 57.69 57.99 57.75 57.27 56.61 56.81 56.56 56.73 56.18
59.12 58.96 58.98 59.34 59.79 57.94 60.57 60.79 59.43 61.26 61.65 60.22 59.24 58.32 57.73 57.18 55.65 54.32 54.66 55.24 57.13 58.23 58.13 58.03 57.93 57.95 58.41 58.61 58.77 58.55 57.73 57.43 57.73 57.97 57.20 57.10 56.61 56.55 56.80 56.02 56.13 55.69 54.83
57.47 58.47 57.99 58.60 59.13 59.12 59.64 59.32 59.49 55.67 59.16 59.14 58.38 56.76 55.82 55.74 54.08 53.52 53.98 54.82 56.06 57.03 57.73 57.57 57.47 57.67 58.01 58.21 58.19 58.75 58.77 58.80 58.57 58.33 57.98 57.39 56.70 54.01 55.92 55.32 54.18 53.61 50.40
56.59 58.29 57.37 58.01 56.47 56.84 57.89 59.32 60.02 59.56 58.74 58.97 58.27 57.72 56.62 55.46 54.46 53.53 54.21 56.49 57.80 56.97 56.27 57.28 58.30 58.37 58.20 57.83 58.30 54.72 43.25 42.02 55.69 50.90 55.66 55.37 53.49 54.30 53.56 52.69 52.44 52.10 51.26
58.42 58.56 58.52 58.25 57.04 57.50 57.48 58.10 58.98 60.28 59.93 60.05 60.02 58.10 56.51 55.13 54.41 53.27 54.36 54.14 54.85 55.13 56.07 56.07 56.22 54.77 55.69 56.30 49.97 39.19 34.88 35.18 43.52 39.90 55.89 55.34 53.81 52.54 52.65 52.51 52.26 51.47 49.51

GFSGL_sfc_wetblb_099.txt.gz
Wetbulb
73.87 73.99 74.08 73.56 72.78 65.47 66.56 71.56 72.24 72.12 72.72 72.93 72.81 71.87 72.01 71.68 71.07 70.84 69.89 69.63 69.03 69.08 69.57 69.66 69.07 68.65 68.10 67.84 66.89 66.37 65.65 65.90 63.64 65.40 68.01 68.61 67.83 68.34 68.88 69.16 68.91 66.51 66.38
74.18 71.14 69.70 69.40 65.37 64.48 65.25 65.43 69.80 71.85 71.72 71.90 72.35 71.65 71.71 71.18 71.12 70.39 69.68 70.05 69.10 68.47 68.33 68.22 68.76 70.33 68.41 67.82 67.64 67.37 67.53 67.21 65.73 64.59 66.79 67.55 67.42 67.60 67.24 67.26 68.03 68.09 65.68
69.06 67.64 67.35 66.15 66.36 64.96 66.24 63.87 64.09 65.72 70.41 71.17 71.24 70.62 71.69 71.71 70.97 70.57 70.15 69.21 68.96 68.84 68.90 67.80 67.63 68.37 67.56 67.80 67.76 67.78 68.25 68.34 68.34 66.81 65.79 66.88 66.29 65.65 65.74 66.31 66.17 65.36 65.37
67.55 66.66 66.29 66.20 66.20 66.45 65.78 65.01 64.33 64.52 68.50 71.03 71.53 71.70 71.57 71.14 71.73 70.66 70.39 69.12 69.17 69.13 69.00 68.78 68.33 67.75 66.97 67.20 67.08 66.93 66.86 66.47 65.98 65.43 64.88 65.04 65.05 65.24 65.19 63.05 62.52 64.29 63.95
66.68 65.66 64.93 65.68 65.64 65.96 64.56 64.94 64.47 64.21 68.10 71.33 71.70 71.58 71.66 71.31 71.84 70.64 70.15 69.68 68.89 68.78 69.14 69.17 68.64 68.96 68.53 68.04 67.53 66.41 66.52 65.84 65.48 64.84 64.05 63.60 63.55 64.51 61.73 62.03 61.45 62.66 63.52
66.27 65.71 65.48 64.58 64.25 64.59 64.43 64.02 64.86 69.03 70.45 70.48 70.51 71.14 70.87 72.32 67.67 66.93 69.92 69.71 69.73 69.22 68.02 68.60 68.68 68.77 68.55 67.23 67.74 69.15 68.09 65.98 64.99 64.64 63.38 63.06 63.52 63.13 63.26 62.21 62.29 60.71 59.24
66.68 67.40 65.21 64.61 63.53 63.01 65.84 66.30 66.68 68.05 68.89 68.81 69.95 70.28 69.86 70.37 65.63 63.14 66.67 70.23 69.81 69.47 69.40 69.26 68.81 70.44 67.72 67.27 64.64 66.50 66.45 67.03 67.03 65.85 63.54 63.45 62.90 64.59 65.06 63.11 61.38 60.95 60.36
66.03 66.39 66.01 65.58 65.23 65.37 65.10 65.83 65.65 66.28 68.00 68.51 67.96 68.48 68.76 70.42 65.17 62.08 62.53 68.90 69.81 69.64 70.01 69.73 68.67 67.38 67.03 67.44 66.27 64.51 64.28 64.09 64.45 65.68 65.12 65.12 65.90 65.74 66.26 64.89 62.43 62.19 62.91
64.16 65.46 66.75 66.70 66.06 65.85 64.36 65.08 66.03 67.06 66.66 67.53 68.56 68.82 68.07 68.30 63.14 59.55 61.43 65.59 68.07 68.32 68.81 69.70 69.52 68.17 65.28 63.26 67.53 65.27 64.49 64.69 62.69 62.18 62.33 62.87 62.80 63.71 64.60 63.84 62.02 61.09 59.62
64.19 64.97 65.10 65.74 66.23 65.39 65.36 65.31 66.30 66.41 66.64 67.85 67.62 66.70 66.19 68.79 64.61 56.82 59.44 66.40 67.49 67.51 68.07 68.76 63.91 67.51 62.09 59.69 66.33 66.57 65.15 65.42 64.49 61.44 61.18 61.25 63.50 63.41 62.18 64.79 62.70 60.99 59.49
62.94 63.35 64.22 65.06 64.38 65.67 65.29 66.66 66.10 66.55 66.61 66.30 66.79 67.49 68.92 67.87 67.71 57.15 57.15 66.88 68.25 67.69 67.71 67.42 68.88 59.95 57.62 55.75 59.09 66.81 66.01 66.25 64.95 63.71 62.98 62.86 62.85 64.41 64.67 63.76 63.39 62.38 60.44
62.45 62.17 61.66 61.58 62.68 64.70 63.85 64.92 64.82 66.08 64.58 64.67 65.54 66.04 67.08 67.73 62.63 57.15 55.15 55.70 62.85 67.44 67.49 67.01 63.40 55.19 52.34 51.66 54.14 59.32 58.12 61.44 65.95 65.43 64.59 64.14 63.33 63.89 64.82 65.50 63.37 63.19 63.08
59.69 59.85 61.16 61.49 61.13 62.56 62.99 63.29 63.52 63.47 63.84 63.80 62.73 62.86 64.59 65.48 62.78 55.30 52.61 52.25 54.05 58.68 64.73 63.06 56.50 54.43 53.55 55.08 53.04 54.34 54.54 62.83 64.53 64.26 64.43 64.63 64.80 64.90 65.29 64.96 65.32 63.79 63.29
58.32 58.31 59.23 59.38 60.64 59.99 61.84 61.96 59.80 59.61 60.18 61.06 60.95 60.28 62.16 62.79 60.05 58.55 58.22 58.87 57.33 59.54 60.06 62.58 61.99 59.77 59.22 60.88 60.85 57.04 60.47 64.38 65.19 64.91 64.84 65.38 64.96 63.85 64.51 65.06 64.64 64.93 63.78
57.70 57.65 56.81 56.22 56.17 60.17 61.74 60.71 60.83 60.77 60.02 60.41 59.39 59.18 58.57 58.65 56.97 50.85 50.94 55.01 54.72 52.94 49.71 58.96 60.54 61.35 61.22 59.67 59.65 61.15 61.60 62.98 64.75 64.91 64.60 63.74 63.42 63.68 63.61 65.70 64.28 63.98 61.89
57.08 56.63 56.81 55.65 54.77 55.14 56.33 60.67 57.07 54.52 50.60 49.86 47.18 53.46 57.20 51.93 49.66 43.73 42.26 42.45 42.79 43.65 51.39 55.72 59.27 61.60 61.98 62.10 62.49 61.28 62.11 62.00 63.81 64.92 64.24 63.73 62.87 63.55 63.34 64.12 63.87 63.41 62.18
56.67 56.48 56.50 56.08 56.19 55.01 54.35 56.17 58.07 58.72 50.12 47.90 45.00 44.82 44.46 47.67 43.73 41.74 41.18 40.96 40.78 42.08 47.20 54.32 57.55 59.59 61.19 62.05 62.66 62.72 62.91 63.86 64.00 64.33 63.26 63.35 63.30 63.39 61.95 62.12 62.13 60.96 59.64
56.42 55.14 55.44 55.68 55.59 54.16 53.84 55.07 55.90 56.94 57.05 57.62 47.27 48.64 44.28 42.46 41.19 40.63 40.45 40.73 48.57 44.39 49.18 54.99 57.78 59.28 60.52 60.78 61.94 62.80 63.63 63.41 62.60 63.01 62.52 62.80 63.14 62.61 61.80 61.29 61.09 59.99 59.51
56.45 55.85 56.36 56.08 55.57 55.21 54.65 54.15 54.48 56.99 57.52 57.50 55.50 47.76 48.28 42.99 42.28 44.46 40.78 50.25 52.85 57.11 56.62 55.82 58.23 59.29 60.25 61.99 63.00 63.33 63.15 63.21 63.03 62.19 61.97 61.86 61.76 61.40 60.57 60.58 59.81 56.14 57.03
55.10 56.15 56.05 54.55 55.60 57.24 55.97 56.34 57.13 58.38 57.36 57.39 56.86 55.07 54.65 53.60 55.81 55.73 56.66 56.85 56.95 57.27 58.33 59.05 60.42 60.78 61.70 62.25 62.63 62.35 61.73 60.71 62.21 62.01 61.16 60.58 60.24 60.41 59.33 59.00 59.00 58.28 58.35
53.70 54.87 56.84 55.42 57.08 58.43 57.91 58.28 58.95 57.97 57.35 56.90 54.19 52.74 46.18 53.76 55.61 56.62 56.48 56.60 56.42 56.24 56.52 57.19 58.87 60.58 60.44 60.40 61.53 60.79 60.84 61.18 61.78 61.47 60.72 60.56 60.17 59.15 58.93 58.59 58.15 57.97 57.86
53.42 53.82 54.48 54.44 55.17 55.45 55.86 57.01 58.32 58.40 57.58 56.24 54.15 53.19 45.53 53.56 54.74 54.53 55.16 55.72 56.42 57.51 57.69 57.53 57.35 57.55 57.79 57.97 59.76 60.70 60.46 59.96 59.96 59.86 59.51 59.03 58.71 58.35 58.07 57.57 56.94 57.13 56.76
53.27 53.12 54.17 53.64 54.45 54.33 55.27 56.29 55.50 56.38 56.82 56.67 55.51 53.67 53.64 54.95 54.07 53.91 54.05 55.10 56.10 56.28 57.29 57.13 57.43 57.39 57.97 58.17 58.51 58.21 57.53 57.33 57.85 58.57 57.93 57.67 57.25 56.89 57.13 56.26 56.10 55.49 54.89
51.55 51.65 52.27 52.29 53.81 53.05 53.33 54.19 55.35 53.44 55.19 56.99 55.96 53.07 54.42 54.11 53.48 53.55 54.10 55.24 56.02 55.50 54.78 55.92 56.89 56.66 56.70 57.25 57.75 57.91 57.99 58.05 57.99 57.73 57.55 56.74 56.04 54.54 55.98 55.79 55.69 54.70 51.32
49.95 51.92 53.96 53.04 52.84 51.75 51.40 55.22 55.47 55.47 55.37 55.55 56.56 56.01 55.09 54.40 52.81 52.25 53.64 54.39 56.28 55.15 55.03 53.51 54.98 55.78 56.34 56.78 55.86 54.86 46.81 43.01 54.41 49.35 56.14 55.76 55.20 54.71 54.88 54.27 53.54 50.45 46.59
50.16 51.08 51.85 54.87 53.25 51.35 51.30 54.42 55.74 55.85 55.67 55.59 55.43 55.77 53.99 53.86 53.65 52.36 53.21 53.84 52.27 51.96 53.69 53.16 53.99 54.55 55.84 52.38 49.72 41.45 37.87 38.36 48.41 42.23 53.21 52.86 51.84 50.23 49.01 49.08 49.22 48.19 46.66

GFSGL_sfc_wetblb_102.txt.gz
Wetbulb
73.10 72.40 72.29 71.66 67.83 68.04 67.32 65.79 67.32 69.47 70.70 71.36 71.89 71.68 71.54 71.14 71.15 70.58 69.55 69.27 68.87 68.62 68.94 68.37 68.17 67.95 67.92 67.65 66.40 65.41 65.41 65.32 63.83 64.48 66.75 68.15 67.86 68.01 69.05 68.13 68.82 67.95 67.65
70.59 69.32 68.22 66.68 65.99 65.90 65.21 65.46 66.61 66.37 67.70 70.43 70.94 71.15 71.38 71.40 71.07 70.26 69.56 69.77 68.22 67.63 67.90 67.59 67.59 68.96 66.93 67.27 66.58 65.25 64.91 65.30 64.20 62.64 65.25 66.89 66.73 67.09 66.68 66.56 66.61 66.43 65.10
70.12 67.18 66.15 65.26 66.02 65.62 65.73 65.21 66.23 66.96 67.32 66.96 67.74 70.15 70.51 70.95 70.55 70.37 69.98 69.20 68.68 68.37 68.20 67.30 67.14 67.38 66.71 66.57 66.75 66.56 66.74 66.68 66.02 64.33 64.13 65.80 65.53 65.82 66.09 66.58 66.20 66.22 64.96
67.77 66.53 65.63 64.56 64.00 65.30 65.51 66.32 66.33 66.71 66.22 66.14 65.77 69.56 70.36 70.13 70.12 70.04 69.64 68.57 67.83 68.32 68.34 67.90 67.25 66.85 67.30 66.66 66.61 67.16 66.81 66.56 66.54 66.36 64.43 64.24 63.92 65.30 64.28 63.69 63.21 64.64 64.09
66.30 66.68 65.97 65.70 66.44 65.92 65.00 65.86 65.87 64.85 64.54 65.34 64.72 69.89 69.69 69.76 70.55 69.79 69.51 68.85 67.71 67.65 68.10 68.19 67.88 68.08 67.28 66.76 67.18 66.26 65.85 65.44 63.92 63.60 62.84 62.78 62.87 63.67 63.96 63.22 63.26 62.99 63.67
64.84 64.70 64.82 65.06 65.47 65.37 65.83 65.58 65.48 65.13 64.56 65.02 68.84 69.56 68.53 70.86 66.09 65.17 67.90 68.46 68.29 67.62 67.16 67.63 67.94 68.12 67.26 65.40 65.73 65.91 66.44 65.56 64.39 63.20 62.63 62.13 61.96 63.02 63.06 61.88 61.13 61.03 59.91
65.13 64.86 64.43 63.64 63.32 63.03 64.17 64.38 64.35 65.33 67.41 68.12 68.55 68.24 67.59 68.39 63.75 62.16 64.72 69.14 68.51 68.22 67.92 67.40 67.57 69.31 66.86 67.36 64.86 64.35 64.89 64.47 65.22 65.66 62.93 62.70 62.35 63.30 63.25 60.47 59.87 60.67 60.74
64.62 64.72 64.03 63.66 63.07 62.78 63.79 63.91 65.53 65.80 65.20 66.31 67.11 67.97 67.88 68.28 61.60 60.51 62.34 66.78 67.65 67.92 68.83 68.37 67.99 67.69 67.13 67.02 66.18 64.46 65.61 66.11 65.99 66.35 65.10 64.59 64.59 64.51 65.42 64.51 62.87 61.81 61.91
62.76 63.12 64.67 64.82 63.87 63.65 63.02 63.35 63.81 64.83 65.05 65.50 67.45 67.94 67.65 68.01 62.00 58.92 61.03 65.03 65.74 66.93 67.20 67.34 68.01 67.52 63.95 61.07 65.77 63.79 63.42 64.06 62.33 60.81 62.27 61.88 61.54 61.25 63.55 63.11 60.97 60.71 59.95
62.33 62.71 63.51 64.12 64.45 63.55 63.23 63.38 63.89 64.30 64.77 66.43 66.46 66.59 64.37 66.98 59.63 57.65 58.68 65.82 65.10 66.07 66.76 66.51 63.25 65.39 61.07 58.47 65.01 65.54 64.24 64.60 63.81 62.00 61.47 60.86 60.59 61.36 61.23 65.11 63.10 61.19 59.66
61.28 61.11 62.25 61.15 62.79 63.14 63.15 63.82 63.77 63.64 63.50 64.41 65.17 65.63 65.74 65.65 66.11 58.20 54.75 65.12 66.50 66.48 65.46 65.38 66.19 59.75 55.84 54.93 57.07 65.86 65.66 65.53 63.38 63.77 62.38 61.96 62.42 63.17 63.60 62.93 63.67 63.20 58.89
59.17 60.50 60.11 59.37 61.17 62.39 61.98 63.14 63.28 63.53 63.12 63.05 64.04 65.00 66.21 65.92 55.12 56.93 53.12 54.39 58.90 65.88 66.75 66.86 65.65 54.72 54.39 51.85 54.93 56.63 54.01 57.96 66.10 63.90 62.45 61.75 61.89 63.30 64.77 63.34 62.92 62.64 62.70
56.67 56.54 57.14 60.00 60.12 60.56 59.93 59.72 60.57 61.83 62.18 61.16 61.38 60.98 61.85 61.05 58.76 52.01 52.76 54.57 54.93 57.35 62.40 62.35 56.20 54.03 52.76 55.64 53.28 54.93 55.96 61.88 64.85 64.35 63.65 63.47 63.83 64.13 64.79 65.10 62.27 61.23 60.30
55.51 55.55 55.23 57.59 58.85 59.01 59.84 59.72 58.34 59.55 59.47 59.40 58.17 57.85 58.97 60.14 58.05 57.03 56.55 56.19 55.15 56.31 55.75 56.63 58.50 58.72 57.29 61.02 60.46 59.18 59.98 62.27 64.20 64.56 64.77 65.07 64.61 62.96 63.36 64.40 64.40 63.06 62.38
55.35 55.27 54.50 54.38 52.76 53.20 57.56 59.15 58.93 58.78 58.00 57.80 57.72 57.61 56.53 56.25 56.37 49.78 49.57 52.89 52.39 50.96 48.86 53.56 56.83 58.92 60.79 60.63 60.37 60.72 59.38 60.19 62.18 63.74 64.48 63.60 63.42 63.58 63.36 63.72 63.79 63.50 62.48
54.28 54.68 54.24 54.36 53.86 53.80 52.89 53.48 54.99 54.78 49.86 49.42 48.23 52.60 56.29 51.12 47.68 42.97 42.06 41.68 42.03 43.84 50.90 53.48 54.56 57.17 58.85 59.96 59.42 60.02 60.36 60.12 60.76 62.43 63.88 64.74 63.94 63.27 63.36 64.02 63.79 63.52 62.02
53.20 53.72 53.66 53.61 53.88 53.68 51.66 51.71 55.73 56.09 48.35 45.33 44.60 45.69 46.96 47.83 43.33 41.52 41.34 40.78 40.56 42.01 46.80 50.74 53.25 55.49 57.57 59.47 60.44 60.62 60.56 61.12 61.53 61.51 62.33 63.28 63.90 63.34 61.11 63.07 63.73 63.23 62.81
53.29 52.70 52.75 52.90 53.35 52.73 52.06 51.56 52.25 54.17 54.88 55.99 44.73 46.40 42.97 42.23 41.67 41.70 40.98 43.08 52.52 44.93 46.72 50.20 52.36 54.80 57.28 59.17 60.39 60.74 61.74 62.55 62.65 62.98 63.30 63.53 63.67 63.00 62.38 62.20 62.76 62.24 61.33
52.75 52.19 52.37 52.66 52.57 52.97 53.80 53.55 52.42 51.41 55.14 55.57 53.81 48.71 47.70 43.51 42.79 42.25 41.52 51.77 53.92 55.50 56.71 55.74 55.24 56.29 57.95 59.27 60.25 61.12 61.28 61.86 62.54 63.57 63.34 63.59 63.52 63.04 62.37 62.40 62.08 57.31 57.91
51.66 53.42 53.21 52.83 54.02 55.39 56.95 57.16 56.95 57.42 57.00 55.53 54.99 53.85 53.05 51.29 52.62 53.61 55.49 55.35 55.32 55.52 56.05 56.03 56.93 58.05 59.50 59.74 60.38 61.62 62.25 62.13 62.63 63.06 62.93 62.95 63.09 62.85 62.47 62.00 61.66 59.83 60.32
51.20 51.18 53.38 52.44 53.13 53.85 54.86 56.21 58.57 58.27 57.89 57.10 53.23 51.99 45.42 51.90 54.38 54.66 55.28 55.42 55.54 56.09 56.51 56.69 57.05 57.41 59.02 60.35 60.55 61.07 61.57 61.83 62.03 62.28 62.43 62.09 62.01 61.39 61.20 61.14 60.62 60.64 59.57
51.77 51.07 50.94 51.84 53.11 52.43 54.53 54.94 55.16 55.09 55.11 54.15 52.99 52.31 43.12 51.16 53.14 53.97 54.38 54.60 55.62 56.63 57.29 56.79 56.91 57.25 57.47 57.11 57.29 58.84 60.00 60.68 61.24 61.51 61.17 61.14 60.76 60.76 60.31 59.75 59.59 59.05 58.07
52.10 51.54 49.86 49.37 51.01 52.02 53.35 54.52 53.78 54.32 54.63 54.25 53.85 54.20 51.54 53.16 53.89 53.72 53.98 54.48 55.30 55.28 55.78 56.17 56.06 56.33 56.99 57.43 57.63 57.33 56.61 56.47 57.55 59.94 59.54 58.74 58.72 58.84 58.94 58.35 58.41 57.65 57.13
47.91 47.61 47.67 49.21 49.92 50.57 50.93 52.24 53.68 51.96 53.66 54.15 53.61 51.82 51.66 52.69 53.64 53.68 53.70 54.66 55.60 55.63 54.54 52.72 53.70 55.55 55.90 56.05 56.15 56.55 56.55 57.09 57.63 57.93 58.07 56.81 56.31 55.02 56.33 56.13 55.92 55.72 55.44
47.32 47.54 47.74 48.24 49.05 50.77 50.34 50.11 52.89 53.56 53.89 53.99 53.50 52.68 52.30 51.76 51.74 52.68 51.39 53.74 54.62 55.75 54.42 54.62 55.44 54.82 53.12 52.26 54.66 53.61 43.15 37.53 51.32 47.50 56.45 56.19 55.74 55.56 55.14 55.14 53.74 52.39 51.96
48.03 48.38 47.79 47.79 48.17 49.88 48.96 48.27 52.72 53.71 53.65 53.79 54.01 53.84 53.18 51.24 50.53 50.73 51.63 53.46 53.91 52.28 52.93 52.77 52.68 55.00 52.07 51.18 50.17 41.63 38.08 36.26 46.41 41.70 54.16 55.24 53.81 53.35 54.03 53.41 52.08 50.69 49.28

GFSGL_sfc_wetblb_105.txt.gz
Wetbulb
65.34 67.25 70.44 67.78 67.08 65.91 66.32 68.14 70.52 70.60 71.10 70.83 70.82 71.30 71.13 70.58 70.37 70.17 69.74 69.05 68.53 67.87 67.69 67.33 66.93 67.31 67.30 67.01 66.26 65.52 64.84 65.07 64.77 63.39 64.72 67.22 66.84 67.45 69.23 68.66 68.68 68.21 68.53
67.34 67.63 66.02 65.64 65.60 64.94 64.98 65.70 66.32 67.40 70.32 70.62 71.38 70.64 70.97 70.89 70.46 70.25 69.54 69.82 68.62 67.35 67.13 67.17 67.27 68.08 66.34 66.18 65.70 64.77 64.18 64.10 63.19 61.14 62.54 65.64 66.52 67.11 67.42 66.95 66.60 66.45 65.80
67.58 66.33 64.46 64.82 62.93 63.89 64.34 66.23 66.21 66.92 67.13 67.17 69.00 70.04 69.68 70.35 70.28 70.45 70.06 69.16 68.37 68.05 67.74 67.33 67.58 66.61 66.00 65.38 65.41 65.33 65.31 65.11 64.00 62.74 61.82 64.31 64.66 65.11 66.02 66.74 66.38 65.47 65.39
66.93 65.00 64.02 64.40 62.69 63.24 63.64 65.13 66.00 67.76 68.01 67.80 67.60 67.96 68.89 69.79 70.21 69.63 69.79 68.89 68.46 68.46 67.85 67.43 67.31 66.44 66.57 66.18 65.84 65.86 65.68 66.36 66.04 65.31 64.89 63.58 64.02 65.77 66.02 64.41 63.73 64.79 64.43
64.84 64.96 63.60 63.84 64.70 64.41 64.02 64.94 66.46 67.29 66.98 66.64 66.87 67.00 68.28 69.52 70.43 69.47 69.78 69.23 68.30 67.58 67.20 67.49 67.40 67.62 67.26 66.91 66.93 65.61 65.43 65.13 64.91 64.46 63.94 61.89 63.55 63.73 64.21 64.02 63.68 63.52 64.00
65.60 64.80 65.38 65.43 63.55 63.02 64.95 65.51 65.14 64.99 63.76 63.67 63.82 65.73 67.16 69.76 65.37 64.05 67.87 68.77 67.96 67.45 66.78 66.91 67.58 67.60 66.93 64.83 65.66 65.84 66.26 64.69 63.83 62.62 61.97 61.77 61.50 64.62 64.19 63.13 62.79 61.55 60.45
64.57 64.22 64.13 64.26 65.19 65.12 64.97 65.07 64.88 65.06 65.26 65.12 64.25 64.51 66.78 68.28 63.22 61.63 64.04 68.14 67.85 67.58 67.07 67.04 67.35 68.77 66.51 67.00 63.90 63.80 63.89 64.21 65.24 64.97 62.59 62.58 62.09 62.94 62.81 62.08 62.61 62.07 61.36
65.10 64.89 63.48 62.92 62.33 62.62 63.03 63.62 64.33 64.49 64.39 65.24 66.73 66.04 64.97 66.37 61.27 60.55 62.24 65.48 66.58 66.84 67.34 67.38 67.11 67.25 66.75 66.87 66.15 64.96 64.55 64.61 64.59 65.22 65.22 65.11 64.60 63.85 64.21 63.30 63.17 61.93 61.23
62.01 62.12 63.17 63.46 62.76 61.85 61.56 61.96 63.93 64.52 64.62 64.83 66.53 66.77 67.04 67.52 58.37 57.83 60.71 64.61 65.25 66.05 66.77 66.95 67.02 66.68 64.00 61.05 66.06 64.89 64.24 63.52 62.25 61.09 62.02 61.51 60.76 60.58 63.43 62.53 61.03 61.31 60.65
60.48 61.85 62.03 62.61 62.80 62.43 61.90 61.44 62.38 64.85 64.98 65.87 65.23 66.07 64.24 66.93 58.37 57.29 60.83 66.25 65.25 65.20 65.18 66.59 62.14 65.71 59.64 58.35 64.74 64.38 63.96 64.03 63.20 62.90 61.05 60.14 60.04 60.86 60.88 64.94 62.79 62.22 60.04
59.97 59.99 59.53 60.08 61.35 61.58 62.17 62.71 63.28 62.71 62.41 62.50 63.64 64.88 65.40 64.83 64.62 56.38 55.11 64.83 65.64 65.91 66.02 65.91 66.65 58.01 55.66 53.84 55.07 65.11 64.57 64.84 62.86 63.55 63.03 62.14 61.58 62.17 61.57 64.05 63.97 63.85 59.13
56.28 56.39 58.09 58.57 59.63 60.33 60.40 61.02 62.46 62.67 61.91 62.31 62.51 63.26 63.42 60.84 55.66 54.02 54.75 54.75 57.23 64.99 65.72 66.06 65.01 56.38 52.94 51.30 52.94 55.66 54.39 56.38 64.10 63.24 62.03 61.89 61.82 62.43 63.77 63.55 64.02 64.34 63.82
55.01 54.34 54.50 58.50 58.60 58.46 58.12 57.34 58.24 59.90 61.30 60.45 59.59 59.78 59.94 60.34 59.66 52.75 51.10 53.48 56.00 59.60 61.92 60.53 55.66 52.94 50.76 53.84 52.74 52.94 52.55 60.12 63.16 63.91 63.96 63.30 63.26 64.43 63.80 64.42 62.74 61.30 60.40
54.18 53.86 54.22 53.89 53.18 53.39 57.72 57.92 57.26 57.22 57.40 58.60 58.48 58.23 58.77 59.05 58.49 58.11 57.35 55.54 53.92 55.14 55.01 54.70 55.34 54.07 54.37 58.35 59.80 57.27 59.70 61.13 63.12 63.96 64.98 65.69 62.97 61.78 62.55 64.57 63.40 62.71 62.40
53.19 53.26 52.85 53.12 52.43 52.66 52.50 54.93 57.44 56.78 56.46 56.82 57.72 57.86 56.40 54.85 55.57 49.33 49.47 52.20 51.44 49.85 47.99 52.40 53.25 55.18 57.65 60.18 61.84 63.26 63.14 62.08 61.87 62.90 64.18 64.68 64.18 64.32 63.44 63.92 64.23 63.40 62.25
51.81 52.15 51.91 51.72 52.16 52.44 50.67 50.97 53.94 51.50 46.87 46.05 46.23 51.54 55.24 50.59 43.41 42.24 41.33 41.33 41.48 42.53 50.22 52.99 54.10 54.32 54.30 56.38 58.59 59.88 60.36 60.50 60.88 61.57 62.31 63.43 63.85 63.76 63.55 63.42 63.25 62.94 61.72
51.16 51.53 50.99 51.14 51.52 51.91 51.30 50.23 51.69 54.20 46.59 44.20 44.23 44.96 45.50 44.22 42.04 42.78 42.42 41.88 41.70 43.31 48.69 50.67 51.77 53.20 54.26 55.16 56.24 58.55 59.65 59.90 60.85 60.46 60.78 61.84 62.72 63.20 61.85 63.15 62.57 62.02 61.90
51.19 50.46 50.12 50.77 51.53 51.71 51.86 51.02 50.48 50.90 51.62 53.85 45.09 45.87 42.60 41.15 41.88 42.24 41.88 43.85 51.65 46.90 48.89 51.25 52.31 53.84 54.60 55.48 56.70 57.69 59.14 60.72 60.48 60.84 60.98 61.40 62.19 62.31 62.26 61.79 62.16 61.87 61.96
50.20 50.13 50.50 51.67 52.54 52.56 53.60 54.25 52.54 50.73 50.73 53.23 52.42 46.16 44.73 41.15 41.52 42.42 41.88 53.24 54.05 54.58 55.08 55.18 55.74 56.20 56.48 57.00 58.05 59.09 59.73 60.49 60.75 60.99 61.88 62.37 62.20 62.01 62.10 62.21 61.70 57.13 58.63
50.85 52.26 51.49 51.04 51.86 52.58 54.18 55.21 55.65 55.65 55.79 56.44 56.46 54.51 52.08 50.33 51.06 50.63 51.57 53.62 55.04 55.04 55.98 56.16 56.68 56.90 57.07 57.59 58.59 59.58 59.76 60.10 61.02 61.36 62.02 62.60 63.14 63.22 62.52 62.29 62.12 61.65 61.37
51.69 50.02 52.04 49.56 50.81 51.42 53.17 54.01 54.95 54.43 54.15 54.28 52.98 51.16 45.14 51.53 52.98 54.30 54.70 54.96 54.98 55.16 55.52 56.16 55.48 55.80 57.11 57.09 57.05 57.37 58.77 60.02 61.04 61.58 62.00 62.24 62.80 62.13 62.60 62.99 62.27 62.03 61.65
51.55 50.49 49.59 47.99 48.41 49.54 50.46 53.24 53.31 53.07 53.71 53.52 52.52 51.60 43.51 50.49 51.94 54.28 54.10 54.42 54.94 55.78 55.56 55.46 54.77 54.88 56.58 56.40 56.36 56.32 56.12 56.78 59.11 60.31 60.99 61.51 61.85 61.78 61.94 61.86 61.80 61.84 61.61
51.96 49.32 47.59 46.28 46.62 48.62 48.91 50.63 52.65 52.47 53.07 53.80 52.96 51.99 50.86 50.66 50.74 53.69 53.04 54.38 54.56 55.52 53.29 53.81 52.22 52.71 55.40 55.96 56.00 55.86 55.40 55.84 56.36 57.27 59.01 60.30 60.84 61.02 61.06 60.72 60.47 60.08 60.06
47.82 46.91 46.11 45.82 46.65 47.24 47.79 48.93 50.18 49.40 51.75 52.81 52.70 52.01 50.59 50.57 50.75 51.34 53.74 51.54 52.16 53.11 53.03 53.37 52.29 52.41 52.45 52.45 53.25 54.05 52.42 50.21 55.44 56.60 56.74 56.58 56.06 54.41 55.84 56.42 58.85 59.45 58.97
46.84 46.40 46.12 45.91 46.00 45.96 46.61 47.68 49.13 49.97 52.02 52.50 52.70 52.15 51.41 50.89 50.24 50.42 51.61 50.66 52.63 54.39 54.75 54.60 54.60 54.78 53.54 52.49 51.60 50.91 43.87 35.71 46.61 43.33 55.78 55.62 55.16 55.12 54.66 53.79 54.11 53.93 53.55
47.06 47.44 46.83 45.98 45.68 46.08 46.64 47.37 47.67 49.08 51.08 52.92 53.49 53.02 52.04 51.21 50.06 49.88 49.94 50.08 50.48 53.71 52.17 52.20 53.26 53.62 54.83 52.04 48.61 41.59 37.53 35.90 44.40 37.71 52.64 54.51 53.85 53.87 53.69 53.59 53.44 52.49 52.14

GFSGL_sfc_wetblb_108.txt.gz
Wetbulb
65.43 66.10 67.56 64.55 67.22 67.78 68.88 69.57 70.23 70.85 70.89 71.12 71.52 71.55 71.40 71.20 71.34 70.94 70.96 70.71 69.86 70.08 69.91 69.55 69.79 69.97 70.02 70.05 69.45 69.47 67.91 67.44 65.58 67.56 67.53 69.82 69.72 69.35 70.44 72.17 71.54 71.49 72.41
65.86 65.82 65.82 65.40 65.32 64.70 65.38 65.79 66.68 68.00 70.32 71.10 71.05 71.20 71.80 71.56 71.45 70.80 70.57 70.72 69.60 69.28 69.43 69.53 69.47 69.34 69.42 69.96 69.33 67.85 68.21 68.18 66.94 65.83 66.46 68.00 68.90 67.85 69.97 69.11 69.29 69.66 68.88
66.68 64.61 64.70 64.15 64.51 64.17 63.76 65.50 66.12 67.51 68.41 70.41 71.00 71.17 71.14 71.44 70.79 70.95 71.09 70.75 70.27 70.10 69.73 69.65 69.62 69.30 69.00 69.02 68.84 68.68 68.32 68.16 67.42 65.60 65.71 67.31 67.89 68.32 67.28 67.85 67.85 67.71 67.56
66.59 64.08 63.70 64.06 64.45 64.78 64.86 65.37 66.59 67.19 67.58 67.80 69.11 70.07 70.17 69.99 70.48 70.56 70.87 70.53 70.30 70.30 70.00 69.80 69.73 69.20 69.70 69.28 68.72 68.66 68.46 67.19 66.58 66.10 65.74 65.79 66.99 68.18 67.73 66.92 66.80 67.41 67.85
66.82 64.45 63.89 64.24 63.65 64.10 63.87 64.17 65.26 66.45 67.33 68.61 68.55 68.70 69.78 70.43 70.59 70.35 70.43 70.15 69.72 70.07 69.46 69.45 69.68 69.43 67.88 68.57 68.97 69.06 68.39 66.38 65.62 66.22 65.70 65.06 65.22 65.68 65.41 66.39 66.09 66.54 67.42
65.22 64.62 64.82 64.26 64.41 63.84 63.76 63.79 65.43 66.90 66.52 65.65 66.32 67.13 67.87 68.68 64.85 63.79 67.75 69.47 69.38 69.79 68.66 69.03 70.10 68.09 67.42 64.76 65.45 65.83 68.25 67.76 65.93 65.03 64.86 64.11 65.66 66.41 67.06 66.39 66.12 63.92 62.98
64.86 65.04 65.13 64.50 63.84 63.52 64.46 65.22 65.13 65.50 65.55 64.98 64.71 64.99 66.50 67.62 61.88 62.10 63.38 68.84 68.46 68.95 68.61 68.75 68.50 69.48 67.77 69.24 64.57 64.03 64.30 64.00 66.03 68.42 67.04 66.86 67.04 66.97 67.93 65.69 64.76 64.41 64.50
64.23 65.07 64.48 64.23 64.52 64.78 64.94 64.81 65.14 65.51 65.34 65.59 66.23 65.72 65.05 66.19 61.22 59.28 61.20 66.67 67.53 68.59 68.99 68.56 68.74 69.73 69.61 68.81 69.30 67.73 67.56 67.98 67.40 67.99 68.94 69.43 69.24 69.17 68.51 68.10 66.57 66.81 65.59
61.30 62.61 64.21 64.59 64.34 63.54 62.68 62.92 63.70 64.64 64.78 65.07 66.37 66.46 66.25 66.70 58.58 57.06 61.71 65.56 66.15 65.81 67.06 67.76 68.63 68.72 64.52 60.91 68.86 68.55 68.39 68.28 63.70 61.06 62.66 62.33 61.11 60.92 65.27 66.26 64.50 63.23 62.55
60.61 60.99 61.99 63.27 63.17 63.72 64.04 63.32 64.13 65.02 65.74 66.05 65.67 67.42 64.60 67.78 55.25 54.72 62.62 66.62 65.24 65.33 65.68 66.18 61.57 65.13 60.16 57.80 66.27 68.09 67.26 67.87 67.46 67.15 65.65 62.94 61.41 63.34 60.47 67.73 66.58 63.69 63.60
57.85 59.92 60.55 60.94 62.03 62.52 63.65 64.24 64.68 65.29 64.96 65.20 65.40 66.06 66.65 65.45 60.62 54.54 55.08 65.39 65.42 65.08 64.95 65.12 65.58 58.71 54.18 53.63 55.63 66.76 65.86 68.35 66.44 68.04 67.13 66.59 66.51 66.48 65.08 66.54 68.12 67.02 65.27
56.89 57.13 59.18 59.73 59.59 60.46 60.89 62.56 64.27 64.14 63.76 63.89 64.13 61.76 61.20 61.10 55.81 53.27 54.00 55.45 57.56 62.93 64.40 65.15 64.99 53.63 50.19 51.28 54.10 55.27 54.90 57.44 66.20 66.80 66.45 66.48 65.75 65.47 65.84 66.25 67.85 67.94 68.78
56.12 55.71 56.17 56.56 56.39 58.96 60.16 59.96 60.48 62.04 62.18 61.85 62.12 60.92 60.76 61.14 59.41 51.98 52.18 53.45 55.25 59.90 60.46 57.36 53.98 51.82 50.37 53.27 54.18 53.82 53.63 60.50 64.25 64.86 65.84 65.99 66.69 67.43 68.23 66.02 66.46 67.28 67.66
55.46 55.16 55.30 55.50 55.73 56.11 57.05 59.71 59.67 59.49 59.36 59.53 59.54 60.11 61.00 60.50 58.87 58.24 56.72 56.50 54.68 56.18 54.56 55.21 55.02 53.19 52.72 55.19 56.09 59.23 59.65 61.64 62.53 63.77 65.41 67.60 67.06 66.20 65.82 66.65 64.34 63.43 62.89
54.74 54.47 54.12 54.56 55.33 55.34 55.00 55.54 58.89 59.79 58.14 59.12 59.19 59.18 58.79 58.23 55.94 49.31 51.45 54.14 52.60 50.52 49.56 55.54 56.44 56.66 57.03 58.05 59.95 61.93 63.47 63.39 62.17 63.21 64.13 65.16 65.58 64.72 64.88 65.42 65.04 63.79 62.24
54.06 53.55 53.19 53.34 54.25 55.23 54.31 54.91 51.33 49.87 46.56 45.48 46.75 53.49 55.66 47.72 43.09 42.76 42.76 42.39 42.03 42.71 52.36 54.37 54.75 55.58 55.92 56.30 56.66 56.98 58.98 60.34 62.18 62.78 63.71 64.07 64.25 64.13 64.52 64.38 64.29 63.73 62.60
53.44 52.86 52.82 52.72 54.25 54.61 54.58 53.90 55.18 54.50 45.66 44.57 44.57 45.66 43.66 44.72 42.02 42.76 42.03 42.03 41.65 45.28 53.78 54.10 53.98 54.77 55.30 55.82 56.40 56.78 56.94 58.79 61.39 62.88 62.59 62.50 63.55 63.82 63.56 63.90 63.37 63.08 62.70
52.92 49.94 52.84 54.34 54.84 55.26 56.38 56.31 54.57 53.94 54.38 55.47 47.16 46.46 42.39 41.31 45.48 44.39 41.65 45.00 54.18 51.46 54.13 54.74 55.15 55.73 55.69 56.20 56.86 56.84 57.56 58.60 59.57 60.54 60.78 61.92 62.69 62.52 62.54 62.53 62.83 62.06 62.11
52.54 52.53 52.54 54.41 54.63 54.86 56.95 57.93 56.76 55.41 54.71 54.75 57.23 51.21 46.13 40.94 40.76 41.67 41.67 55.77 55.93 55.79 56.02 56.54 56.41 56.28 56.20 57.40 57.80 57.96 58.36 58.58 59.30 60.25 61.02 61.54 61.77 61.67 61.60 62.20 62.44 56.54 58.58
54.19 52.58 51.91 52.96 53.91 54.67 56.12 57.10 57.68 58.09 58.26 58.16 58.26 57.83 54.92 51.76 55.42 55.54 55.52 56.18 56.38 56.61 56.43 56.22 55.62 56.20 56.30 56.40 57.38 57.24 57.14 57.66 59.25 60.07 60.39 60.91 61.45 61.97 61.85 62.03 61.98 61.32 61.08
53.84 53.51 52.41 51.20 51.27 52.70 53.68 54.86 57.05 57.26 57.19 56.93 57.36 55.58 47.63 56.35 56.01 56.31 56.57 56.59 56.40 56.12 56.62 57.22 56.12 55.62 56.32 57.16 56.86 56.64 56.72 56.74 57.30 57.98 59.46 60.96 62.11 61.86 62.64 62.46 62.96 62.52 62.34
54.40 54.16 51.92 50.58 50.17 50.67 51.42 52.25 53.80 56.22 56.90 56.37 57.13 55.24 43.12 51.51 55.26 56.01 56.49 56.40 56.63 56.78 57.22 57.25 56.88 55.78 56.22 57.26 56.88 56.44 55.83 55.97 56.70 56.74 56.74 57.74 59.88 61.06 61.57 61.72 61.80 62.06 62.00
54.47 52.39 50.71 50.05 49.77 49.00 50.49 51.02 51.94 53.82 55.86 56.18 56.60 56.58 54.83 54.12 55.22 55.11 55.67 56.53 56.95 57.12 57.21 56.93 57.27 56.99 57.48 57.86 57.85 57.05 55.33 54.75 54.75 56.72 56.32 56.88 56.76 56.60 58.88 60.65 60.85 60.91 61.27
51.77 50.61 50.33 49.79 49.61 49.69 49.71 50.11 50.69 47.75 51.65 55.33 56.02 56.34 56.34 56.02 55.59 55.44 55.52 56.37 56.45 56.65 56.93 57.21 57.35 57.03 57.08 56.89 57.54 57.10 56.04 52.92 52.81 55.70 57.32 56.42 56.38 54.77 55.45 54.95 54.97 57.58 60.38
51.57 51.35 50.57 50.06 50.06 50.13 49.79 50.53 50.75 51.25 51.89 53.55 54.89 55.49 56.63 56.30 55.91 55.54 55.70 56.19 56.21 55.59 56.27 56.97 57.02 56.82 56.80 56.91 56.04 55.81 49.57 34.96 43.81 40.22 56.68 57.52 55.48 55.11 54.81 54.69 54.19 53.97 53.40
51.04 50.61 50.24 50.58 51.11 50.90 50.34 50.24 50.68 51.20 51.49 53.05 54.51 55.53 56.16 56.68 56.46 55.84 55.58 55.74 55.29 55.11 55.29 56.09 56.20 55.73 55.49 55.39 54.59 45.73 37.34 34.40 42.66 34.90 49.82 57.25 54.82 53.54 53.76 53.24 53.32 52.85 52.52

GFSGL_sfc_wetblb_111.txt.gz
Wetbulb
67.98 68.22 69.09 69.26 70.42 72.75 72.04 74.06 73.59 74.67 75.00 74.40 75.30 74.68 74.50 74.66 74.98 74.53 74.66 74.61 73.36 74.21 73.76 73.13 72.84 74.08 75.05 73.31 72.82 71.86 70.75 70.94 67.83 69.66 71.48 72.11 72.97 72.95 72.99 74.31 74.37 74.74 74.24
70.21 69.15 68.42 69.37 69.69 70.71 72.62 73.03 72.86 73.71 74.84 74.08 74.35 74.72 74.67 74.58 74.99 74.13 73.34 73.40 73.28 72.99 73.37 73.02 72.82 72.93 73.44 74.44 73.22 70.61 70.63 70.50 68.50 67.34 69.89 70.31 71.47 72.88 71.70 71.29 72.86 73.24 73.34
68.67 69.14 69.82 69.89 69.90 69.35 71.52 72.24 72.31 73.80 74.01 73.69 73.86 74.16 74.45 75.00 74.57 74.61 74.22 73.85 73.88 73.71 73.97 73.36 73.31 73.47 72.60 72.50 72.90 71.63 70.37 70.69 70.19 68.93 69.32 70.07 71.05 71.58 71.38 69.23 69.29 69.43 70.00
67.82 68.69 68.58 69.08 69.35 68.84 68.92 68.48 69.01 69.84 70.71 72.15 73.84 73.59 73.87 74.54 75.08 74.84 73.88 74.26 74.15 73.99 74.08 73.51 73.61 73.22 73.11 73.04 72.54 72.57 72.15 70.14 69.32 68.79 67.87 67.10 68.79 71.11 70.66 69.22 68.21 69.87 69.46
66.71 68.02 68.51 69.04 67.89 67.90 67.97 68.44 68.47 68.43 67.99 69.84 70.31 71.58 72.45 72.52 72.08 72.85 73.39 73.09 73.02 72.71 73.11 73.66 73.57 72.48 69.63 71.21 72.12 72.61 72.25 69.52 68.52 67.90 66.51 66.94 67.38 67.44 67.34 68.60 68.07 69.08 69.25
66.64 68.01 67.59 67.57 66.46 66.30 66.71 66.78 67.16 67.66 67.50 68.52 69.02 69.76 70.10 71.10 64.79 64.34 69.94 73.37 73.39 72.91 72.45 72.44 73.21 70.15 69.46 65.69 66.49 66.94 70.94 71.44 68.59 67.85 66.97 66.42 67.46 69.15 70.31 68.29 67.55 66.40 65.82
65.69 66.33 67.35 67.20 66.38 66.08 66.22 66.76 66.28 67.15 67.61 67.34 68.11 68.26 69.14 70.35 62.59 61.71 63.46 71.46 70.56 69.50 70.10 70.16 71.94 72.03 69.84 72.50 65.66 64.27 65.28 65.24 67.36 72.10 70.34 70.23 70.40 71.81 72.10 70.32 68.78 68.59 68.17
64.26 65.01 65.37 65.55 65.62 65.75 65.34 65.13 65.41 65.70 66.09 66.04 67.00 67.00 65.73 66.71 60.50 59.53 61.82 68.24 69.56 68.57 68.98 69.22 69.97 71.59 72.28 72.26 72.90 72.19 71.75 72.27 70.90 70.84 72.21 72.93 73.15 74.28 73.51 72.80 71.48 70.35 69.56
61.86 63.92 65.33 65.64 65.29 65.80 66.79 67.19 66.80 65.98 65.48 65.28 66.22 67.72 67.31 66.94 58.79 57.17 61.12 67.89 67.13 67.25 68.35 68.69 69.36 69.80 64.34 59.88 70.73 71.29 71.95 72.48 66.14 62.77 63.50 63.16 62.98 62.53 66.91 71.89 69.52 67.14 64.97
62.47 63.17 65.12 66.58 65.98 66.00 66.29 67.37 67.34 66.78 67.33 67.71 67.82 67.99 64.89 67.52 59.51 56.43 59.05 67.69 66.43 66.88 67.09 67.92 62.05 66.03 59.85 57.72 67.68 69.80 70.61 70.74 73.20 72.91 70.78 66.85 63.81 67.34 60.92 70.77 71.56 68.03 67.26
62.62 64.34 64.36 65.79 66.30 67.18 67.95 68.93 67.82 67.20 67.20 67.32 67.58 66.85 66.26 66.51 65.99 53.55 54.64 69.17 68.08 65.88 65.68 65.80 67.45 56.81 54.82 53.19 54.82 67.90 68.84 67.16 69.18 72.07 73.28 74.10 71.84 71.73 71.30 69.83 71.75 70.85 68.77
61.95 61.79 61.91 63.38 64.51 65.11 67.50 68.00 68.23 68.25 68.02 67.48 64.35 63.54 62.66 61.57 55.71 55.18 54.82 57.18 60.40 66.39 65.62 66.45 64.14 51.74 50.47 51.01 53.73 55.36 53.73 55.69 66.57 68.64 67.52 68.80 68.36 68.98 70.77 71.62 71.66 72.24 72.45
61.36 61.42 61.76 62.18 62.34 65.12 65.35 65.53 65.14 66.13 65.40 64.62 62.90 63.20 63.38 63.25 59.70 52.44 51.92 53.01 55.23 63.48 63.95 57.98 53.16 50.45 49.74 53.37 51.90 51.54 52.08 62.69 63.26 64.66 65.51 66.44 67.33 70.16 69.88 71.01 71.88 72.25 71.81
60.19 60.28 61.24 61.50 61.71 61.65 62.40 64.50 63.69 63.11 62.68 62.85 63.24 63.03 63.33 62.72 61.32 61.12 60.52 59.48 56.05 59.13 57.18 58.81 56.27 54.07 52.05 55.14 57.63 59.63 61.99 62.97 63.33 63.83 64.81 66.59 68.72 68.71 67.55 68.62 67.38 67.02 66.09
59.63 59.95 60.28 60.55 61.40 61.68 61.07 62.71 64.28 64.83 61.20 62.97 62.81 62.96 62.40 61.96 60.14 51.82 54.67 61.33 60.58 53.91 55.61 59.74 60.11 59.63 60.34 61.17 61.29 61.51 62.56 63.96 63.74 64.13 64.25 65.24 66.39 66.98 66.66 67.43 67.04 66.45 63.49
58.84 58.63 58.36 59.29 60.12 60.77 60.42 61.45 50.38 49.85 46.63 45.76 46.12 55.13 59.29 48.57 44.11 43.94 43.76 43.40 43.40 44.22 59.14 60.15 58.73 58.42 58.63 58.03 58.36 58.62 59.33 59.84 60.96 62.31 63.10 64.08 64.36 65.17 64.95 65.91 65.75 64.83 63.04
57.92 58.19 59.66 58.91 60.88 61.40 61.89 60.62 60.65 55.58 45.69 44.85 45.21 44.63 44.83 48.11 42.66 42.68 42.31 42.64 43.04 46.05 60.42 60.87 60.07 60.14 59.46 58.65 58.90 59.01 58.58 59.27 61.08 60.90 60.69 61.21 61.87 63.21 64.00 64.63 64.42 64.31 63.86
57.96 50.82 59.56 59.51 60.31 60.89 61.62 61.74 61.67 60.78 60.07 60.79 48.34 47.92 41.76 41.41 41.95 41.59 41.19 43.50 57.67 55.17 59.67 59.21 59.46 59.55 58.10 57.01 57.37 58.43 59.06 59.37 60.10 60.38 60.81 61.02 61.45 61.27 61.99 62.65 63.17 63.26 63.21
57.61 57.33 58.03 59.45 59.48 58.54 60.96 60.92 60.55 60.35 59.85 60.68 63.08 52.41 45.87 40.98 41.95 42.26 43.15 59.47 60.16 59.99 59.76 57.58 58.74 57.00 56.80 57.11 57.57 58.84 58.90 58.52 58.98 60.23 60.59 60.52 60.95 61.13 60.91 60.99 61.76 57.44 59.76
59.42 54.07 54.22 57.30 57.34 57.91 58.31 58.46 58.86 59.98 60.32 59.44 59.44 60.66 62.47 55.72 60.26 61.66 61.35 60.80 59.21 58.14 58.66 57.00 57.95 57.99 57.66 59.51 59.52 59.08 58.72 58.28 58.58 58.38 58.59 59.58 60.75 61.14 60.84 61.30 61.68 61.60 61.69
59.45 59.42 52.37 57.58 56.20 55.75 55.92 56.26 57.10 57.99 58.91 58.81 60.09 59.61 46.77 60.28 60.28 60.35 60.72 60.65 59.95 59.81 59.53 58.42 57.95 56.94 57.09 58.07 59.85 59.26 59.03 58.00 58.97 59.76 58.92 58.38 58.32 57.96 60.00 61.25 61.49 61.70 61.83
58.62 59.87 58.48 57.35 56.43 55.72 55.58 55.79 56.13 56.89 57.68 58.88 59.56 59.80 43.56 57.98 60.39 60.41 60.70 60.94 61.08 60.96 60.70 60.17 58.43 57.53 57.38 59.23 59.89 58.47 57.18 56.19 57.40 57.47 58.17 58.74 59.00 59.27 58.25 57.35 58.67 60.50 62.99
59.70 59.15 57.92 57.38 56.80 53.66 56.34 56.24 55.31 55.60 56.55 57.44 58.45 59.59 59.48 59.29 59.95 60.28 60.39 60.63 61.03 60.87 61.13 59.81 58.49 57.38 60.18 60.72 60.68 60.16 58.72 58.33 58.10 57.78 57.50 58.04 57.79 57.64 58.04 57.37 57.11 56.57 56.70
58.73 58.10 57.68 57.28 56.81 55.47 56.53 56.80 57.06 51.89 55.57 57.03 57.71 58.36 59.65 60.28 60.34 60.56 60.95 60.82 61.06 61.10 61.37 60.89 59.92 59.37 60.54 60.91 60.99 60.86 60.58 60.13 58.11 58.38 58.72 58.49 59.39 57.65 56.76 55.54 55.62 55.38 55.60
58.16 57.43 56.80 56.37 56.17 56.76 56.96 56.92 56.87 57.05 56.70 56.53 56.46 57.13 58.29 59.47 59.96 60.63 61.20 61.38 60.99 60.82 60.83 60.84 60.77 59.61 60.46 60.93 58.51 58.82 54.26 38.14 48.68 45.75 56.68 58.67 59.54 58.84 58.17 54.47 54.17 54.40 55.29
57.61 57.51 57.55 57.53 57.01 57.04 56.90 56.56 56.64 56.79 56.62 56.67 57.04 57.38 57.46 57.50 58.14 59.01 59.75 60.28 60.64 60.46 60.35 60.40 60.63 60.33 60.51 60.79 60.03 52.33 42.35 36.19 44.83 36.31 52.55 55.67 58.37 58.57 57.97 57.03 54.33 53.02 52.75

GFSGL_sfc_wetblb_114.txt.gz
Wetbulb
71.51 71.65 72.84 73.16 71.50 74.13 73.92 73.57 76.47 77.28 74.86 75.30 77.43 76.99 76.98 76.85 77.27 77.23 76.86 76.33 75.66 75.16 75.49 75.07 74.50 75.58 73.88 75.93 76.88 74.58 74.19 74.19 70.56 71.47 72.79 74.09 74.26 73.80 74.43 75.30 75.42 75.29 76.46
72.77 72.77 72.03 71.76 72.91 72.63 74.79 75.09 76.24 76.21 74.09 75.09 75.99 75.33 77.03 76.34 77.41 76.51 75.50 75.47 74.58 74.10 74.25 74.82 74.53 74.48 75.51 76.16 75.86 75.16 74.75 74.92 71.71 70.74 72.23 72.34 73.13 74.95 74.59 74.32 74.25 74.13 74.88
71.56 72.31 72.29 71.66 71.92 72.29 72.23 73.62 74.93 75.26 75.94 75.91 76.00 75.86 75.71 75.61 76.00 76.51 76.19 75.43 75.15 74.93 74.83 74.97 75.12 74.77 74.71 75.58 74.73 74.66 73.30 73.91 72.62 70.71 70.63 72.38 72.40 73.21 73.48 73.75 72.95 72.90 70.81
71.29 71.09 71.16 71.55 71.81 70.76 71.69 72.10 72.43 73.39 73.46 74.57 75.31 74.21 75.17 75.89 75.57 75.40 75.39 75.45 75.50 75.49 75.43 75.35 74.89 74.96 74.59 75.00 74.41 74.18 74.88 72.83 72.38 71.85 70.95 70.52 70.42 73.33 72.85 71.07 70.84 71.98 71.76
70.60 70.24 70.45 70.23 69.44 70.57 70.61 70.52 70.29 71.12 70.97 71.38 71.74 72.85 74.18 74.68 74.05 75.06 75.27 75.53 75.28 75.08 74.82 74.58 75.15 74.03 70.41 72.35 73.96 73.92 75.13 72.23 70.17 69.36 70.48 69.72 68.27 69.47 70.18 71.27 70.29 74.60 71.87
69.40 69.69 70.06 70.63 68.84 69.64 69.92 70.04 70.42 70.01 70.26 70.80 70.46 70.65 71.40 71.84 66.87 65.46 70.32 75.80 74.90 74.48 74.92 74.86 75.21 71.25 69.87 66.41 66.64 66.91 72.47 74.33 71.57 70.37 70.10 69.47 70.60 71.29 71.87 70.89 70.40 68.79 66.99
66.63 67.37 69.72 69.43 69.04 69.17 68.77 69.26 69.24 68.75 69.54 70.21 70.11 70.76 70.97 72.29 62.67 61.56 64.42 74.05 74.78 74.71 74.94 74.51 74.05 73.51 70.95 73.82 65.85 64.46 65.94 65.10 67.42 73.69 71.70 71.82 71.65 72.66 73.97 73.34 72.39 70.45 69.38
66.50 66.03 67.16 67.72 67.58 67.84 68.93 68.20 68.39 69.09 69.40 68.64 68.75 70.87 70.84 71.05 61.78 59.05 61.18 69.64 73.21 73.44 73.04 74.06 73.47 72.54 72.52 70.82 70.74 70.22 71.54 72.20 72.02 72.54 73.12 73.96 74.71 75.08 74.05 73.36 73.44 73.51 72.67
64.41 64.51 65.62 66.99 66.28 67.31 67.55 68.27 69.44 69.71 68.24 66.95 67.54 68.13 68.02 70.06 59.23 58.12 60.23 66.79 69.14 70.98 71.27 71.60 70.91 68.20 63.77 59.59 67.32 67.93 68.57 72.06 67.06 62.81 64.37 63.14 61.47 61.89 67.35 73.06 70.61 70.71 68.65
62.49 64.52 66.16 67.24 67.13 67.88 68.90 68.91 70.16 70.19 69.87 69.84 69.59 68.18 65.63 69.99 58.66 55.78 58.79 67.02 68.17 69.41 70.98 68.84 63.89 66.12 59.95 58.86 66.01 67.04 66.81 68.99 73.27 73.21 73.27 69.60 66.52 69.98 61.47 71.86 72.37 70.21 69.18
64.86 63.92 65.59 67.35 68.01 68.56 68.89 69.33 69.48 70.57 70.39 69.12 65.87 65.26 64.92 60.62 64.58 54.33 54.13 67.49 69.33 68.72 69.05 66.60 66.80 57.78 54.88 53.61 54.33 66.20 65.54 69.25 68.38 71.03 70.76 72.94 72.85 74.51 74.46 72.60 73.10 73.04 71.13
64.61 64.61 64.57 66.76 66.83 69.07 69.43 69.70 69.95 70.31 69.38 66.90 65.21 62.91 62.40 60.97 53.93 51.58 53.06 55.50 61.30 69.17 67.24 69.64 66.94 53.04 51.43 50.89 53.24 56.69 55.06 57.74 67.28 68.26 69.99 69.41 71.95 72.83 72.88 70.71 73.74 74.78 75.88
64.36 65.07 65.31 65.30 65.79 68.23 68.26 68.10 67.02 68.53 68.69 66.15 64.98 64.85 64.09 64.29 62.39 51.71 51.70 54.15 56.51 63.28 62.70 55.95 54.01 50.89 50.34 53.28 50.85 52.52 52.14 61.27 64.98 65.79 66.15 67.92 71.30 70.74 71.76 69.01 69.53 70.43 74.49
63.31 63.88 64.83 64.49 64.24 65.88 67.37 66.79 65.16 64.52 64.38 64.68 65.21 65.23 65.26 65.08 64.74 65.26 63.98 62.06 55.87 61.01 57.23 61.14 57.94 56.20 53.91 59.06 58.84 58.90 61.60 64.53 66.09 66.25 66.07 65.26 66.70 67.12 66.22 67.68 66.58 67.28 68.26
62.78 62.99 62.97 62.64 63.50 64.46 64.92 64.82 65.11 64.17 59.39 64.07 64.41 64.67 64.13 63.50 60.33 52.07 55.63 62.64 62.44 55.94 59.13 64.06 63.00 62.77 63.58 63.22 64.53 65.03 64.98 65.10 64.49 65.23 64.94 65.03 65.74 67.40 67.99 68.98 68.32 67.96 66.02
61.98 61.98 61.07 62.58 63.05 63.10 62.19 63.85 49.69 49.09 46.57 44.85 45.56 54.98 61.16 49.07 45.45 45.63 45.09 45.09 45.27 46.09 60.67 64.22 63.87 63.90 63.55 63.65 60.89 60.33 62.90 62.04 62.92 62.72 62.61 63.09 63.97 64.83 65.72 68.09 67.30 65.69 65.13
61.56 62.61 62.37 60.84 62.25 62.58 63.21 62.74 63.02 56.23 46.61 45.79 45.63 45.81 46.68 48.66 44.16 44.54 43.82 44.18 46.88 48.08 62.22 63.93 63.80 63.55 63.92 64.15 63.17 62.42 60.44 60.52 62.35 61.44 60.82 61.23 62.87 61.82 62.06 63.74 65.52 64.99 63.87
61.41 51.87 61.92 61.72 61.21 61.58 62.31 62.26 62.48 62.79 62.42 62.23 48.87 49.91 44.41 42.91 43.09 42.37 43.24 46.12 61.11 56.72 63.86 61.92 62.16 63.72 62.71 61.85 60.72 60.47 60.08 60.20 59.41 60.66 62.05 61.30 60.65 62.88 62.11 61.25 62.13 64.28 64.36
60.05 59.09 59.95 60.23 60.11 58.74 60.64 60.99 60.97 61.07 60.46 60.82 62.86 51.57 48.43 42.50 42.01 42.43 42.48 59.47 61.74 61.57 61.96 62.70 62.46 63.36 61.19 60.61 60.49 60.93 62.25 61.56 60.05 60.44 59.89 59.62 61.04 62.48 61.40 62.72 61.15 55.71 57.85
61.11 54.73 56.07 59.64 59.60 58.93 58.99 58.88 58.84 59.35 60.16 60.56 60.46 60.22 61.96 56.76 60.10 61.90 61.38 62.99 62.20 62.23 62.37 62.57 62.60 60.20 58.76 59.45 60.27 62.04 61.28 61.22 61.61 60.12 60.52 61.14 61.51 61.22 59.89 60.09 61.32 61.77 61.15
60.67 61.43 55.63 59.46 58.79 58.02 58.10 57.84 58.23 58.47 58.67 59.22 59.71 60.67 47.77 59.47 59.61 60.45 61.05 61.82 62.28 62.52 62.55 62.66 62.58 62.60 60.38 60.30 61.67 61.42 61.61 60.77 60.78 60.91 60.57 59.71 59.01 59.35 60.51 62.39 61.43 59.77 59.22
61.16 60.92 60.22 59.09 59.04 58.78 58.33 58.27 57.94 57.24 58.01 58.53 59.21 59.64 45.40 61.01 60.09 60.22 60.54 61.18 61.93 62.57 62.96 62.36 61.95 62.03 61.43 61.00 61.73 61.87 61.02 60.39 60.58 60.70 60.44 59.77 59.77 60.54 60.47 59.69 59.29 59.27 60.59
60.71 60.60 60.18 60.08 60.05 57.27 59.31 59.57 59.47 59.52 58.27 57.43 58.22 58.90 59.57 60.21 60.82 60.88 61.01 61.44 61.68 62.21 62.72 62.73 61.98 61.67 62.05 61.90 62.05 61.33 60.16 60.02 60.49 61.03 60.05 60.09 60.19 59.66 59.93 58.30 58.84 57.33 56.47
58.47 59.97 59.43 59.54 59.56 58.65 59.30 59.32 59.47 54.76 58.64 59.29 59.01 58.71 59.30 59.98 60.19 60.91 61.36 61.93 62.27 62.48 62.82 62.60 62.31 62.06 62.32 61.86 61.35 61.82 62.11 62.06 62.15 61.49 60.72 60.20 59.99 58.15 59.91 59.52 59.26 58.54 56.76
60.16 59.91 59.53 59.20 59.21 59.18 59.16 59.10 58.87 59.02 59.02 59.20 59.48 59.61 59.81 60.34 60.16 60.57 60.91 61.96 62.48 62.62 62.63 62.63 62.64 62.36 62.30 62.71 62.71 62.69 57.16 41.28 55.56 48.70 60.26 60.49 60.14 60.05 59.42 58.84 59.09 58.83 57.89
59.10 58.63 58.33 58.26 57.93 57.84 57.62 57.36 57.44 57.82 57.17 56.91 57.49 57.73 59.11 59.48 59.75 59.70 60.09 60.30 60.20 60.51 61.30 61.84 61.90 62.08 62.53 62.15 61.99 54.93 44.65 37.29 49.63 36.73 56.33 59.42 58.89 58.20 58.78 59.04 58.63 57.96 57.00

GFSGL_sfc_wetblb_117.txt.gz
Wetbulb
73.44 73.40 72.84 73.71 75.05 75.50 72.97 74.67 76.29 77.77 76.12 71.66 75.34 75.28 77.42 77.76 78.03 77.35 77.18 77.18 76.62 76.25 76.19 76.04 75.70 76.62 74.50 74.69 74.19 74.09 73.30 73.47 70.48 71.40 73.32 75.40 74.20 75.35 75.10 75.76 75.75 74.78 75.19
72.44 74.95 74.45 73.17 73.76 74.40 75.53 75.75 76.18 76.30 76.82 73.21 72.26 72.26 69.68 74.74 77.51 76.81 76.21 75.89 76.00 75.52 75.70 75.55 75.64 74.75 75.76 76.26 75.91 75.45 73.73 74.60 72.15 71.15 73.20 73.22 75.16 76.80 76.03 75.50 74.89 73.78 75.05
72.36 72.33 73.93 74.05 73.30 74.48 74.56 75.04 75.38 75.19 75.23 75.00 74.08 69.35 72.53 75.02 76.61 76.76 76.34 75.88 76.13 76.12 75.27 75.19 75.69 75.64 75.32 75.75 75.90 75.17 74.15 74.23 73.25 72.14 71.10 72.65 73.12 74.13 74.92 75.27 75.14 75.26 73.92
71.50 71.84 71.42 73.02 72.71 73.03 73.81 73.78 73.86 73.97 73.45 74.57 74.69 73.58 72.40 73.42 76.18 76.28 76.15 76.18 76.07 75.94 76.65 76.22 76.63 75.99 76.16 76.00 75.60 75.85 75.80 73.64 73.59 71.77 71.10 70.11 71.53 74.44 73.78 71.64 72.47 73.72 72.08
70.35 70.66 71.08 72.36 72.57 72.65 72.63 72.58 72.58 72.79 72.91 73.01 72.84 73.36 73.82 73.34 74.85 75.25 75.56 75.24 75.88 75.64 76.35 76.55 76.77 75.24 71.82 74.17 74.75 76.22 75.38 73.18 71.86 71.52 69.87 69.99 70.57 71.19 70.36 71.49 71.43 71.19 74.55
68.92 69.41 70.77 71.81 70.55 71.08 71.06 70.84 71.27 71.10 71.42 71.77 71.66 71.62 71.67 71.91 67.44 65.76 70.96 74.79 75.14 75.53 75.52 76.44 76.27 71.88 71.09 66.97 66.96 68.13 73.00 73.35 72.16 70.55 69.86 69.45 74.12 72.33 71.57 70.70 71.00 69.92 68.22
67.64 68.53 69.27 70.36 69.75 70.51 70.43 70.44 70.55 70.75 71.33 70.78 70.95 71.18 70.58 71.70 63.69 63.13 65.51 72.93 73.78 74.83 75.27 76.02 75.24 73.84 72.05 74.57 67.36 65.92 66.30 65.52 67.67 73.85 72.34 72.36 73.00 74.50 74.49 73.50 73.40 72.64 70.20
65.51 66.98 67.96 67.49 68.18 70.45 70.38 70.58 70.79 71.15 70.74 70.93 70.67 71.43 71.14 71.40 62.04 60.79 62.72 72.81 73.63 74.17 74.57 75.31 74.75 74.54 75.17 73.10 74.41 73.33 73.02 72.71 72.47 71.79 71.77 72.59 74.44 75.40 75.49 74.99 74.92 74.47 73.60
62.40 64.67 65.63 65.80 66.45 67.76 67.87 68.74 70.44 69.57 70.99 71.00 70.85 70.48 70.84 71.28 59.32 57.69 63.77 70.77 71.16 72.01 73.38 73.12 73.57 72.13 62.74 61.15 72.94 72.45 71.34 71.12 67.57 62.31 62.26 62.75 62.48 62.15 67.32 74.74 72.06 71.92 68.66
61.26 62.72 63.53 65.26 65.95 67.71 68.67 69.69 70.28 71.18 70.77 71.02 70.12 70.11 65.49 69.99 58.85 55.71 61.78 69.14 69.34 69.58 70.73 70.24 63.14 66.56 60.06 59.34 69.81 68.51 68.54 67.61 68.05 68.38 68.58 65.23 64.31 67.75 62.17 73.34 72.67 70.56 70.62
64.62 64.89 65.52 66.34 65.73 66.58 69.97 70.29 70.34 70.25 70.06 69.01 67.65 66.45 66.58 63.79 64.47 53.88 55.53 68.23 70.20 70.33 68.58 66.64 66.66 57.71 55.35 55.35 58.43 66.74 65.24 65.34 66.54 68.52 67.37 67.48 69.53 72.46 74.41 72.83 74.96 72.36 71.61
65.35 65.66 66.40 67.04 67.95 68.22 68.90 69.22 69.84 67.77 67.93 66.66 64.70 63.73 62.72 61.75 54.93 53.46 53.36 56.08 63.22 67.03 67.32 68.20 65.22 55.53 52.81 52.09 56.88 56.60 55.17 57.71 65.79 66.43 67.01 66.94 66.31 68.00 70.21 74.34 74.30 73.93 71.79
65.92 65.61 66.12 67.63 67.10 68.51 69.12 70.21 67.37 68.36 68.31 66.19 67.02 67.32 65.28 65.88 62.89 52.04 52.99 56.26 58.07 68.37 65.78 58.57 54.06 50.64 50.98 55.04 52.19 53.72 53.34 64.72 65.87 65.31 64.81 65.17 66.74 67.70 68.89 70.26 71.86 72.96 70.20
64.91 64.71 65.61 65.68 65.20 68.00 67.24 66.91 65.97 65.16 66.21 65.76 66.28 66.26 65.31 66.20 65.99 65.20 63.70 62.77 56.99 62.40 58.72 60.69 58.50 57.91 57.80 61.14 60.53 58.49 62.21 64.24 65.83 66.90 67.20 67.63 69.73 68.83 66.50 66.13 64.91 64.81 65.87
63.70 63.79 63.64 63.33 63.89 65.38 65.33 64.41 64.29 60.01 57.23 64.09 63.48 64.77 64.02 62.01 58.71 50.30 55.76 62.71 62.64 56.69 59.80 64.81 63.97 64.40 64.50 65.16 65.29 65.98 66.05 66.22 65.63 65.91 65.79 65.99 66.18 66.39 66.94 68.32 69.05 68.20 66.67
62.95 61.84 62.15 62.99 63.19 62.85 63.36 64.14 49.80 49.97 47.27 45.36 44.78 54.45 59.53 49.25 45.72 45.53 45.20 45.56 45.92 47.23 61.35 64.03 63.73 64.38 64.01 63.78 63.75 63.84 63.66 62.97 64.09 63.91 63.89 63.26 63.04 63.39 63.96 64.94 66.79 66.87 66.25
62.72 63.62 62.48 60.78 62.25 62.10 62.66 62.49 63.66 57.83 47.86 46.96 45.74 44.82 44.78 47.88 44.82 44.84 44.65 45.91 46.79 48.58 61.76 63.38 63.42 63.78 63.87 63.69 63.84 63.32 62.36 63.28 63.62 61.98 61.59 61.80 61.82 62.30 62.35 63.22 63.30 63.18 63.45
63.41 54.52 62.11 61.41 60.93 61.27 61.28 61.42 61.61 61.38 61.89 62.07 49.90 49.21 43.49 43.37 43.75 43.57 45.82 46.49 60.95 56.44 62.87 62.85 62.19 63.09 63.11 62.68 62.39 61.66 62.48 61.87 61.55 62.04 61.76 61.45 61.70 62.18 61.90 61.21 62.16 62.84 62.59
60.60 59.93 60.86 60.57 59.92 59.39 60.57 60.59 60.38 60.61 60.41 60.37 62.19 53.26 48.66 44.02 44.82 44.93 44.17 61.27 60.97 61.18 61.73 61.89 63.15 62.97 63.20 62.52 62.18 62.13 62.68 62.28 61.42 61.28 62.27 61.79 61.90 61.57 60.91 61.41 61.22 54.83 57.11
61.66 56.40 58.11 60.27 60.48 59.57 59.01 58.47 58.55 59.27 59.62 60.12 60.25 61.20 62.58 58.45 60.70 61.92 61.48 63.51 62.85 62.09 62.27 62.02 62.46 63.26 63.05 61.76 61.83 61.94 61.87 61.25 61.53 61.53 60.99 61.19 61.35 60.45 59.64 59.23 60.38 61.01 61.41
61.69 61.48 59.48 60.29 59.49 59.64 59.50 58.83 58.61 58.01 58.03 58.48 59.41 59.28 50.83 59.65 58.79 59.63 60.51 61.04 61.49 61.59 61.43 61.66 61.14 62.28 63.08 61.98 62.27 62.02 61.94 61.57 62.09 61.71 61.63 61.43 61.19 59.08 59.89 61.01 60.47 59.64 59.26
60.36 60.28 60.04 59.91 60.40 60.35 59.68 59.86 60.14 59.98 59.47 58.14 58.27 58.64 45.96 60.12 60.25 60.19 60.29 60.65 61.40 62.32 62.45 62.66 62.10 61.72 61.47 61.50 61.71 61.43 61.10 60.81 61.44 61.31 60.50 61.06 60.89 60.62 60.68 59.66 59.11 58.68 58.52
60.48 60.01 59.33 59.74 59.27 57.88 59.53 60.08 59.92 59.93 59.99 59.96 60.04 59.60 59.44 59.91 59.95 60.32 60.92 61.80 62.21 62.26 62.88 62.78 62.34 61.86 62.71 62.55 62.61 62.33 60.98 60.84 61.63 61.84 60.76 60.50 60.43 60.19 59.69 59.08 58.77 57.13 58.15
60.83 60.23 59.19 59.49 59.80 59.08 58.61 58.43 59.26 55.33 58.59 59.29 59.45 59.71 60.06 60.29 60.27 60.41 60.75 61.94 60.83 62.31 61.31 62.54 62.85 61.72 62.47 63.25 62.82 62.12 62.52 62.76 62.67 62.36 62.64 61.46 60.24 59.24 60.10 59.08 59.02 58.15 58.59
57.98 58.65 58.40 58.93 58.63 58.59 58.44 58.26 58.04 58.15 58.17 58.25 58.35 58.18 58.53 58.38 57.28 57.64 59.56 60.43 60.67 60.33 60.74 61.52 61.07 59.14 60.32 59.43 59.43 57.65 57.06 42.88 57.88 52.17 62.13 61.12 60.24 60.33 59.22 58.84 58.37 58.64 58.31
57.82 57.41 57.45 57.47 56.99 56.65 56.38 56.22 56.15 56.37 56.36 57.12 56.96 56.84 57.27 57.22 56.73 56.58 56.26 56.57 57.62 58.23 58.60 58.91 58.94 59.34 60.10 57.97 49.88 42.73 41.21 37.40 50.54 41.94 60.47 60.53 59.37 58.84 58.44 59.12 58.99 58.17 57.08